<?xml version="1.0" encoding="UTF-8" standalone="no" ?>
<gpx xmlns="http://www.topografix.com/GPX/1/1" xmlns:xsi="http://www.w3.org/2001/XMLSchema-instance" xsi:schemaLocation="http://www.topografix.com/GPX/1/1 http://www.topografix.com/GPX/1/1/gpx.xsd" version="1.1" creator="VisuGPX - https://www.visugpx.com">
  <metadata>
    <name>OLOT TRAIL</name>
    <desc><![CDATA[OLOT TRAIL----------------------------]]></desc>
  </metadata>
  <trk>
    <name><![CDATA[olot trail on GPSies.com]]></name>
    <trkseg>
      <trkpt lat="42.18077" lon="2.49284">
        <ele>433</ele>
        <time>2010-01-01T00:00:00Z</time>
      </trkpt>
      <trkpt lat="42.18074" lon="2.49279">
        <ele>433</ele>
        <time>2010-01-01T00:00:02Z</time>
      </trkpt>
      <trkpt lat="42.18062" lon="2.49271">
        <ele>432</ele>
        <time>2010-01-01T00:00:07Z</time>
      </trkpt>
      <trkpt lat="42.18049" lon="2.49261">
        <ele>432</ele>
        <time>2010-01-01T00:00:13Z</time>
      </trkpt>
      <trkpt lat="42.18039" lon="2.49252">
        <ele>431</ele>
        <time>2010-01-01T00:00:18Z</time>
      </trkpt>
      <trkpt lat="42.18036" lon="2.49249">
        <ele>430</ele>
        <time>2010-01-01T00:00:19Z</time>
      </trkpt>
      <trkpt lat="42.18039" lon="2.49251">
        <ele>431</ele>
        <time>2010-01-01T00:00:20Z</time>
      </trkpt>
      <trkpt lat="42.18038" lon="2.4925">
        <ele>431</ele>
        <time>2010-01-01T00:00:21Z</time>
      </trkpt>
      <trkpt lat="42.18035" lon="2.49247">
        <ele>430</ele>
        <time>2010-01-01T00:00:22Z</time>
      </trkpt>
      <trkpt lat="42.18028" lon="2.4924">
        <ele>430</ele>
        <time>2010-01-01T00:00:25Z</time>
      </trkpt>
      <trkpt lat="42.18014" lon="2.49224">
        <ele>430</ele>
        <time>2010-01-01T00:00:33Z</time>
      </trkpt>
      <trkpt lat="42.18003" lon="2.49213">
        <ele>431</ele>
        <time>2010-01-01T00:00:38Z</time>
      </trkpt>
      <trkpt lat="42.17995" lon="2.49207">
        <ele>431</ele>
        <time>2010-01-01T00:00:42Z</time>
      </trkpt>
      <trkpt lat="42.17991" lon="2.49206">
        <ele>431</ele>
        <time>2010-01-01T00:00:44Z</time>
      </trkpt>
      <trkpt lat="42.17982" lon="2.49203">
        <ele>431</ele>
        <time>2010-01-01T00:00:47Z</time>
      </trkpt>
      <trkpt lat="42.17965" lon="2.49196">
        <ele>432</ele>
        <time>2010-01-01T00:00:54Z</time>
      </trkpt>
      <trkpt lat="42.17963" lon="2.49196">
        <ele>432</ele>
        <time>2010-01-01T00:00:55Z</time>
      </trkpt>
      <trkpt lat="42.17952" lon="2.49189">
        <ele>432</ele>
        <time>2010-01-01T00:01:00Z</time>
      </trkpt>
      <trkpt lat="42.17941" lon="2.49185">
        <ele>433</ele>
        <time>2010-01-01T00:01:04Z</time>
      </trkpt>
      <trkpt lat="42.17936" lon="2.49181">
        <ele>433</ele>
        <time>2010-01-01T00:01:07Z</time>
      </trkpt>
      <trkpt lat="42.17925" lon="2.49179">
        <ele>433</ele>
        <time>2010-01-01T00:01:11Z</time>
      </trkpt>
      <trkpt lat="42.17914" lon="2.49174">
        <ele>433</ele>
        <time>2010-01-01T00:01:16Z</time>
      </trkpt>
      <trkpt lat="42.17903" lon="2.49171">
        <ele>432</ele>
        <time>2010-01-01T00:01:21Z</time>
      </trkpt>
      <trkpt lat="42.17894" lon="2.49166">
        <ele>432</ele>
        <time>2010-01-01T00:01:24Z</time>
      </trkpt>
      <trkpt lat="42.17882" lon="2.49161">
        <ele>432</ele>
        <time>2010-01-01T00:01:30Z</time>
      </trkpt>
      <trkpt lat="42.17873" lon="2.49155">
        <ele>432</ele>
        <time>2010-01-01T00:01:33Z</time>
      </trkpt>
      <trkpt lat="42.17864" lon="2.49144">
        <ele>432</ele>
        <time>2010-01-01T00:01:38Z</time>
      </trkpt>
      <trkpt lat="42.17859" lon="2.49132">
        <ele>432</ele>
        <time>2010-01-01T00:01:42Z</time>
      </trkpt>
      <trkpt lat="42.17857" lon="2.49117">
        <ele>432</ele>
        <time>2010-01-01T00:01:47Z</time>
      </trkpt>
      <trkpt lat="42.17855" lon="2.491">
        <ele>433</ele>
        <time>2010-01-01T00:01:52Z</time>
      </trkpt>
      <trkpt lat="42.17853" lon="2.49085">
        <ele>433</ele>
        <time>2010-01-01T00:01:56Z</time>
      </trkpt>
      <trkpt lat="42.17851" lon="2.49072">
        <ele>433</ele>
        <time>2010-01-01T00:02:00Z</time>
      </trkpt>
      <trkpt lat="42.1785" lon="2.49057">
        <ele>433</ele>
        <time>2010-01-01T00:02:05Z</time>
      </trkpt>
      <trkpt lat="42.17849" lon="2.49042">
        <ele>434</ele>
        <time>2010-01-01T00:02:09Z</time>
      </trkpt>
      <trkpt lat="42.17849" lon="2.49041">
        <ele>434</ele>
        <time>2010-01-01T00:02:10Z</time>
      </trkpt>
      <trkpt lat="42.1785" lon="2.49033">
        <ele>434</ele>
        <time>2010-01-01T00:02:12Z</time>
      </trkpt>
      <trkpt lat="42.1785" lon="2.49019">
        <ele>434</ele>
        <time>2010-01-01T00:02:16Z</time>
      </trkpt>
      <trkpt lat="42.1785" lon="2.49007">
        <ele>434</ele>
        <time>2010-01-01T00:02:20Z</time>
      </trkpt>
      <trkpt lat="42.17847" lon="2.4899">
        <ele>434</ele>
        <time>2010-01-01T00:02:25Z</time>
      </trkpt>
      <trkpt lat="42.17846" lon="2.48972">
        <ele>434</ele>
        <time>2010-01-01T00:02:30Z</time>
      </trkpt>
      <trkpt lat="42.17845" lon="2.4896">
        <ele>434</ele>
        <time>2010-01-01T00:02:34Z</time>
      </trkpt>
      <trkpt lat="42.17842" lon="2.48948">
        <ele>434</ele>
        <time>2010-01-01T00:02:37Z</time>
      </trkpt>
      <trkpt lat="42.17838" lon="2.48926">
        <ele>433</ele>
        <time>2010-01-01T00:02:44Z</time>
      </trkpt>
      <trkpt lat="42.17833" lon="2.489">
        <ele>433</ele>
        <time>2010-01-01T00:02:52Z</time>
      </trkpt>
      <trkpt lat="42.17821" lon="2.48874">
        <ele>433</ele>
        <time>2010-01-01T00:03:01Z</time>
      </trkpt>
      <trkpt lat="42.17809" lon="2.48858">
        <ele>433</ele>
        <time>2010-01-01T00:03:08Z</time>
      </trkpt>
      <trkpt lat="42.17795" lon="2.48844">
        <ele>433</ele>
        <time>2010-01-01T00:03:15Z</time>
      </trkpt>
      <trkpt lat="42.17786" lon="2.48836">
        <ele>433</ele>
        <time>2010-01-01T00:03:20Z</time>
      </trkpt>
      <trkpt lat="42.17779" lon="2.48833">
        <ele>433</ele>
        <time>2010-01-01T00:03:22Z</time>
      </trkpt>
      <trkpt lat="42.17779" lon="2.48834">
        <ele>433</ele>
        <time>2010-01-01T00:03:23Z</time>
      </trkpt>
      <trkpt lat="42.1778" lon="2.48835">
        <ele>433</ele>
        <time>2010-01-01T00:03:23Z</time>
      </trkpt>
      <trkpt lat="42.17772" lon="2.48836">
        <ele>433</ele>
        <time>2010-01-01T00:03:26Z</time>
      </trkpt>
      <trkpt lat="42.1776" lon="2.48837">
        <ele>433</ele>
        <time>2010-01-01T00:03:31Z</time>
      </trkpt>
      <trkpt lat="42.17745" lon="2.48843">
        <ele>433</ele>
        <time>2010-01-01T00:03:37Z</time>
      </trkpt>
      <trkpt lat="42.17732" lon="2.48849">
        <ele>433</ele>
        <time>2010-01-01T00:03:42Z</time>
      </trkpt>
      <trkpt lat="42.17723" lon="2.48854">
        <ele>433</ele>
        <time>2010-01-01T00:03:47Z</time>
      </trkpt>
      <trkpt lat="42.17712" lon="2.48862">
        <ele>434</ele>
        <time>2010-01-01T00:03:51Z</time>
      </trkpt>
      <trkpt lat="42.17696" lon="2.48873">
        <ele>434</ele>
        <time>2010-01-01T00:03:59Z</time>
      </trkpt>
      <trkpt lat="42.17685" lon="2.48878">
        <ele>434</ele>
        <time>2010-01-01T00:04:03Z</time>
      </trkpt>
      <trkpt lat="42.17673" lon="2.48881">
        <ele>434</ele>
        <time>2010-01-01T00:04:08Z</time>
      </trkpt>
      <trkpt lat="42.17664" lon="2.48884">
        <ele>435</ele>
        <time>2010-01-01T00:04:12Z</time>
      </trkpt>
      <trkpt lat="42.17654" lon="2.48885">
        <ele>435</ele>
        <time>2010-01-01T00:04:16Z</time>
      </trkpt>
      <trkpt lat="42.17643" lon="2.48882">
        <ele>435</ele>
        <time>2010-01-01T00:04:20Z</time>
      </trkpt>
      <trkpt lat="42.17639" lon="2.4888">
        <ele>435</ele>
        <time>2010-01-01T00:04:22Z</time>
      </trkpt>
      <trkpt lat="42.17636" lon="2.48874">
        <ele>435</ele>
        <time>2010-01-01T00:04:24Z</time>
      </trkpt>
      <trkpt lat="42.17634" lon="2.48874">
        <ele>435</ele>
        <time>2010-01-01T00:04:25Z</time>
      </trkpt>
      <trkpt lat="42.17623" lon="2.48875">
        <ele>435</ele>
        <time>2010-01-01T00:04:29Z</time>
      </trkpt>
      <trkpt lat="42.17612" lon="2.48873">
        <ele>435</ele>
        <time>2010-01-01T00:04:34Z</time>
      </trkpt>
      <trkpt lat="42.17611" lon="2.48872">
        <ele>435</ele>
        <time>2010-01-01T00:04:35Z</time>
      </trkpt>
      <trkpt lat="42.17603" lon="2.48868">
        <ele>435</ele>
        <time>2010-01-01T00:04:38Z</time>
      </trkpt>
      <trkpt lat="42.17602" lon="2.48867">
        <ele>435</ele>
        <time>2010-01-01T00:04:39Z</time>
      </trkpt>
      <trkpt lat="42.17599" lon="2.48865">
        <ele>435</ele>
        <time>2010-01-01T00:04:40Z</time>
      </trkpt>
      <trkpt lat="42.17591" lon="2.48874">
        <ele>435</ele>
        <time>2010-01-01T00:04:44Z</time>
      </trkpt>
      <trkpt lat="42.17584" lon="2.48887">
        <ele>435</ele>
        <time>2010-01-01T00:04:49Z</time>
      </trkpt>
      <trkpt lat="42.17579" lon="2.48894">
        <ele>436</ele>
        <time>2010-01-01T00:04:52Z</time>
      </trkpt>
      <trkpt lat="42.17572" lon="2.48899">
        <ele>436</ele>
        <time>2010-01-01T00:04:55Z</time>
      </trkpt>
      <trkpt lat="42.1757" lon="2.48901">
        <ele>436</ele>
        <time>2010-01-01T00:04:56Z</time>
      </trkpt>
      <trkpt lat="42.17566" lon="2.48907">
        <ele>436</ele>
        <time>2010-01-01T00:04:58Z</time>
      </trkpt>
      <trkpt lat="42.17562" lon="2.48916">
        <ele>436</ele>
        <time>2010-01-01T00:05:01Z</time>
      </trkpt>
      <trkpt lat="42.17551" lon="2.48936">
        <ele>436</ele>
        <time>2010-01-01T00:05:09Z</time>
      </trkpt>
      <trkpt lat="42.17539" lon="2.48949">
        <ele>435</ele>
        <time>2010-01-01T00:05:15Z</time>
      </trkpt>
      <trkpt lat="42.17531" lon="2.48955">
        <ele>435</ele>
        <time>2010-01-01T00:05:18Z</time>
      </trkpt>
      <trkpt lat="42.17528" lon="2.48952">
        <ele>435</ele>
        <time>2010-01-01T00:05:20Z</time>
      </trkpt>
      <trkpt lat="42.1753" lon="2.48949">
        <ele>435</ele>
        <time>2010-01-01T00:05:21Z</time>
      </trkpt>
      <trkpt lat="42.17528" lon="2.48948">
        <ele>435</ele>
        <time>2010-01-01T00:05:21Z</time>
      </trkpt>
      <trkpt lat="42.17528" lon="2.48948">
        <ele>434</ele>
        <time>2010-01-01T00:05:22Z</time>
      </trkpt>
      <trkpt lat="42.1752" lon="2.48936">
        <ele>435</ele>
        <time>2010-01-01T00:05:26Z</time>
      </trkpt>
      <trkpt lat="42.17518" lon="2.48931">
        <ele>435</ele>
        <time>2010-01-01T00:05:28Z</time>
      </trkpt>
      <trkpt lat="42.17515" lon="2.48926">
        <ele>435</ele>
        <time>2010-01-01T00:05:30Z</time>
      </trkpt>
      <trkpt lat="42.17513" lon="2.48923">
        <ele>435</ele>
        <time>2010-01-01T00:05:31Z</time>
      </trkpt>
      <trkpt lat="42.17511" lon="2.48919">
        <ele>435</ele>
        <time>2010-01-01T00:05:33Z</time>
      </trkpt>
      <trkpt lat="42.1751" lon="2.48917">
        <ele>435</ele>
        <time>2010-01-01T00:05:33Z</time>
      </trkpt>
      <trkpt lat="42.17505" lon="2.48918">
        <ele>435</ele>
        <time>2010-01-01T00:05:35Z</time>
      </trkpt>
      <trkpt lat="42.17503" lon="2.48921">
        <ele>435</ele>
        <time>2010-01-01T00:05:37Z</time>
      </trkpt>
      <trkpt lat="42.17501" lon="2.48926">
        <ele>434</ele>
        <time>2010-01-01T00:05:38Z</time>
      </trkpt>
      <trkpt lat="42.175" lon="2.48927">
        <ele>434</ele>
        <time>2010-01-01T00:05:39Z</time>
      </trkpt>
      <trkpt lat="42.17498" lon="2.48927">
        <ele>434</ele>
        <time>2010-01-01T00:05:40Z</time>
      </trkpt>
      <trkpt lat="42.17494" lon="2.48927">
        <ele>434</ele>
        <time>2010-01-01T00:05:41Z</time>
      </trkpt>
      <trkpt lat="42.1748" lon="2.48935">
        <ele>433</ele>
        <time>2010-01-01T00:05:47Z</time>
      </trkpt>
      <trkpt lat="42.17468" lon="2.48944">
        <ele>433</ele>
        <time>2010-01-01T00:05:53Z</time>
      </trkpt>
      <trkpt lat="42.17455" lon="2.4895">
        <ele>434</ele>
        <time>2010-01-01T00:05:58Z</time>
      </trkpt>
      <trkpt lat="42.1744" lon="2.48964">
        <ele>434</ele>
        <time>2010-01-01T00:06:05Z</time>
      </trkpt>
      <trkpt lat="42.17428" lon="2.48974">
        <ele>433</ele>
        <time>2010-01-01T00:06:11Z</time>
      </trkpt>
      <trkpt lat="42.17424" lon="2.48977">
        <ele>433</ele>
        <time>2010-01-01T00:06:13Z</time>
      </trkpt>
      <trkpt lat="42.17422" lon="2.48983">
        <ele>433</ele>
        <time>2010-01-01T00:06:15Z</time>
      </trkpt>
      <trkpt lat="42.1742" lon="2.48983">
        <ele>433</ele>
        <time>2010-01-01T00:06:16Z</time>
      </trkpt>
      <trkpt lat="42.17415" lon="2.48984">
        <ele>433</ele>
        <time>2010-01-01T00:06:18Z</time>
      </trkpt>
      <trkpt lat="42.17403" lon="2.48989">
        <ele>432</ele>
        <time>2010-01-01T00:06:23Z</time>
      </trkpt>
      <trkpt lat="42.1739" lon="2.4899">
        <ele>431</ele>
        <time>2010-01-01T00:06:28Z</time>
      </trkpt>
      <trkpt lat="42.17383" lon="2.48991">
        <ele>431</ele>
        <time>2010-01-01T00:06:31Z</time>
      </trkpt>
      <trkpt lat="42.17365" lon="2.48992">
        <ele>431</ele>
        <time>2010-01-01T00:06:38Z</time>
      </trkpt>
      <trkpt lat="42.17346" lon="2.48992">
        <ele>431</ele>
        <time>2010-01-01T00:06:45Z</time>
      </trkpt>
      <trkpt lat="42.17332" lon="2.48992">
        <ele>431</ele>
        <time>2010-01-01T00:06:51Z</time>
      </trkpt>
      <trkpt lat="42.17315" lon="2.48992">
        <ele>431</ele>
        <time>2010-01-01T00:06:58Z</time>
      </trkpt>
      <trkpt lat="42.17305" lon="2.48991">
        <ele>430</ele>
        <time>2010-01-01T00:07:02Z</time>
      </trkpt>
      <trkpt lat="42.17293" lon="2.4899">
        <ele>430</ele>
        <time>2010-01-01T00:07:07Z</time>
      </trkpt>
      <trkpt lat="42.17286" lon="2.48989">
        <ele>430</ele>
        <time>2010-01-01T00:07:10Z</time>
      </trkpt>
      <trkpt lat="42.17272" lon="2.48989">
        <ele>430</ele>
        <time>2010-01-01T00:07:15Z</time>
      </trkpt>
      <trkpt lat="42.17271" lon="2.48989">
        <ele>430</ele>
        <time>2010-01-01T00:07:16Z</time>
      </trkpt>
      <trkpt lat="42.1726" lon="2.48989">
        <ele>430</ele>
        <time>2010-01-01T00:07:20Z</time>
      </trkpt>
      <trkpt lat="42.17247" lon="2.48989">
        <ele>431</ele>
        <time>2010-01-01T00:07:25Z</time>
      </trkpt>
      <trkpt lat="42.17235" lon="2.48988">
        <ele>431</ele>
        <time>2010-01-01T00:07:30Z</time>
      </trkpt>
      <trkpt lat="42.17223" lon="2.48988">
        <ele>432</ele>
        <time>2010-01-01T00:07:35Z</time>
      </trkpt>
      <trkpt lat="42.17214" lon="2.48988">
        <ele>432</ele>
        <time>2010-01-01T00:07:38Z</time>
      </trkpt>
      <trkpt lat="42.17211" lon="2.48987">
        <ele>432</ele>
        <time>2010-01-01T00:07:40Z</time>
      </trkpt>
      <trkpt lat="42.17197" lon="2.48984">
        <ele>431</ele>
        <time>2010-01-01T00:07:45Z</time>
      </trkpt>
      <trkpt lat="42.17184" lon="2.48981">
        <ele>431</ele>
        <time>2010-01-01T00:07:50Z</time>
      </trkpt>
      <trkpt lat="42.17183" lon="2.4898">
        <ele>431</ele>
        <time>2010-01-01T00:07:51Z</time>
      </trkpt>
      <trkpt lat="42.17174" lon="2.48974">
        <ele>430</ele>
        <time>2010-01-01T00:07:55Z</time>
      </trkpt>
      <trkpt lat="42.17173" lon="2.48974">
        <ele>430</ele>
        <time>2010-01-01T00:07:55Z</time>
      </trkpt>
      <trkpt lat="42.17168" lon="2.48961">
        <ele>430</ele>
        <time>2010-01-01T00:08:00Z</time>
      </trkpt>
      <trkpt lat="42.17164" lon="2.48953">
        <ele>430</ele>
        <time>2010-01-01T00:08:03Z</time>
      </trkpt>
      <trkpt lat="42.17161" lon="2.48933">
        <ele>431</ele>
        <time>2010-01-01T00:08:08Z</time>
      </trkpt>
      <trkpt lat="42.17157" lon="2.48914">
        <ele>431</ele>
        <time>2010-01-01T00:08:14Z</time>
      </trkpt>
      <trkpt lat="42.17148" lon="2.48892">
        <ele>431</ele>
        <time>2010-01-01T00:08:22Z</time>
      </trkpt>
      <trkpt lat="42.17139" lon="2.4888">
        <ele>431</ele>
        <time>2010-01-01T00:08:27Z</time>
      </trkpt>
      <trkpt lat="42.17135" lon="2.48872">
        <ele>431</ele>
        <time>2010-01-01T00:08:30Z</time>
      </trkpt>
      <trkpt lat="42.1713" lon="2.48861">
        <ele>431</ele>
        <time>2010-01-01T00:08:34Z</time>
      </trkpt>
      <trkpt lat="42.17124" lon="2.48843">
        <ele>431</ele>
        <time>2010-01-01T00:08:39Z</time>
      </trkpt>
      <trkpt lat="42.17117" lon="2.48825">
        <ele>431</ele>
        <time>2010-01-01T00:08:45Z</time>
      </trkpt>
      <trkpt lat="42.17112" lon="2.4881">
        <ele>431</ele>
        <time>2010-01-01T00:08:50Z</time>
      </trkpt>
      <trkpt lat="42.17107" lon="2.488">
        <ele>432</ele>
        <time>2010-01-01T00:08:54Z</time>
      </trkpt>
      <trkpt lat="42.17107" lon="2.48794">
        <ele>432</ele>
        <time>2010-01-01T00:08:56Z</time>
      </trkpt>
      <trkpt lat="42.17107" lon="2.48794">
        <ele>432</ele>
        <time>2010-01-01T00:08:56Z</time>
      </trkpt>
      <trkpt lat="42.17099" lon="2.48779">
        <ele>432</ele>
        <time>2010-01-01T00:09:01Z</time>
      </trkpt>
      <trkpt lat="42.17093" lon="2.48767">
        <ele>433</ele>
        <time>2010-01-01T00:09:05Z</time>
      </trkpt>
      <trkpt lat="42.17082" lon="2.48765">
        <ele>433</ele>
        <time>2010-01-01T00:09:10Z</time>
      </trkpt>
      <trkpt lat="42.17066" lon="2.48762">
        <ele>433</ele>
        <time>2010-01-01T00:09:17Z</time>
      </trkpt>
      <trkpt lat="42.17058" lon="2.4876">
        <ele>432</ele>
        <time>2010-01-01T00:09:20Z</time>
      </trkpt>
      <trkpt lat="42.17045" lon="2.48757">
        <ele>433</ele>
        <time>2010-01-01T00:09:25Z</time>
      </trkpt>
      <trkpt lat="42.1703" lon="2.48754">
        <ele>433</ele>
        <time>2010-01-01T00:09:31Z</time>
      </trkpt>
      <trkpt lat="42.17019" lon="2.48748">
        <ele>434</ele>
        <time>2010-01-01T00:09:36Z</time>
      </trkpt>
      <trkpt lat="42.17013" lon="2.48742">
        <ele>434</ele>
        <time>2010-01-01T00:09:39Z</time>
      </trkpt>
      <trkpt lat="42.17008" lon="2.48736">
        <ele>434</ele>
        <time>2010-01-01T00:09:41Z</time>
      </trkpt>
      <trkpt lat="42.16999" lon="2.48726">
        <ele>434</ele>
        <time>2010-01-01T00:09:46Z</time>
      </trkpt>
      <trkpt lat="42.16991" lon="2.48717">
        <ele>435</ele>
        <time>2010-01-01T00:09:50Z</time>
      </trkpt>
      <trkpt lat="42.16987" lon="2.48712">
        <ele>435</ele>
        <time>2010-01-01T00:09:53Z</time>
      </trkpt>
      <trkpt lat="42.16981" lon="2.48703">
        <ele>435</ele>
        <time>2010-01-01T00:09:56Z</time>
      </trkpt>
      <trkpt lat="42.16978" lon="2.48698">
        <ele>435</ele>
        <time>2010-01-01T00:09:58Z</time>
      </trkpt>
      <trkpt lat="42.16971" lon="2.48691">
        <ele>436</ele>
        <time>2010-01-01T00:10:02Z</time>
      </trkpt>
      <trkpt lat="42.16967" lon="2.48686">
        <ele>436</ele>
        <time>2010-01-01T00:10:04Z</time>
      </trkpt>
      <trkpt lat="42.16958" lon="2.4867">
        <ele>436</ele>
        <time>2010-01-01T00:10:10Z</time>
      </trkpt>
      <trkpt lat="42.16952" lon="2.48658">
        <ele>435</ele>
        <time>2010-01-01T00:10:14Z</time>
      </trkpt>
      <trkpt lat="42.16946" lon="2.48646">
        <ele>435</ele>
        <time>2010-01-01T00:10:18Z</time>
      </trkpt>
      <trkpt lat="42.16939" lon="2.48636">
        <ele>436</ele>
        <time>2010-01-01T00:10:22Z</time>
      </trkpt>
      <trkpt lat="42.16936" lon="2.4863">
        <ele>436</ele>
        <time>2010-01-01T00:10:24Z</time>
      </trkpt>
      <trkpt lat="42.16932" lon="2.48623">
        <ele>436</ele>
        <time>2010-01-01T00:10:27Z</time>
      </trkpt>
      <trkpt lat="42.16924" lon="2.48608">
        <ele>436</ele>
        <time>2010-01-01T00:10:32Z</time>
      </trkpt>
      <trkpt lat="42.16924" lon="2.48606">
        <ele>436</ele>
        <time>2010-01-01T00:10:33Z</time>
      </trkpt>
      <trkpt lat="42.16927" lon="2.48604">
        <ele>436</ele>
        <time>2010-01-01T00:10:34Z</time>
      </trkpt>
      <trkpt lat="42.16924" lon="2.48598">
        <ele>436</ele>
        <time>2010-01-01T00:10:36Z</time>
      </trkpt>
      <trkpt lat="42.16914" lon="2.48589">
        <ele>436</ele>
        <time>2010-01-01T00:10:41Z</time>
      </trkpt>
      <trkpt lat="42.16905" lon="2.48588">
        <ele>436</ele>
        <time>2010-01-01T00:10:45Z</time>
      </trkpt>
      <trkpt lat="42.16897" lon="2.48587">
        <ele>436</ele>
        <time>2010-01-01T00:10:48Z</time>
      </trkpt>
      <trkpt lat="42.1689" lon="2.48588">
        <ele>436</ele>
        <time>2010-01-01T00:10:51Z</time>
      </trkpt>
      <trkpt lat="42.16881" lon="2.48591">
        <ele>437</ele>
        <time>2010-01-01T00:10:55Z</time>
      </trkpt>
      <trkpt lat="42.16869" lon="2.48595">
        <ele>438</ele>
        <time>2010-01-01T00:11:00Z</time>
      </trkpt>
      <trkpt lat="42.16865" lon="2.48597">
        <ele>438</ele>
        <time>2010-01-01T00:11:01Z</time>
      </trkpt>
      <trkpt lat="42.16859" lon="2.486">
        <ele>438</ele>
        <time>2010-01-01T00:11:04Z</time>
      </trkpt>
      <trkpt lat="42.16857" lon="2.48602">
        <ele>438</ele>
        <time>2010-01-01T00:11:05Z</time>
      </trkpt>
      <trkpt lat="42.16851" lon="2.48613">
        <ele>439</ele>
        <time>2010-01-01T00:11:09Z</time>
      </trkpt>
      <trkpt lat="42.16853" lon="2.48625">
        <ele>438</ele>
        <time>2010-01-01T00:11:13Z</time>
      </trkpt>
      <trkpt lat="42.16854" lon="2.48628">
        <ele>438</ele>
        <time>2010-01-01T00:11:14Z</time>
      </trkpt>
      <trkpt lat="42.16863" lon="2.48643">
        <ele>436</ele>
        <time>2010-01-01T00:11:19Z</time>
      </trkpt>
      <trkpt lat="42.16872" lon="2.4866">
        <ele>436</ele>
        <time>2010-01-01T00:11:25Z</time>
      </trkpt>
      <trkpt lat="42.16874" lon="2.48664">
        <ele>436</ele>
        <time>2010-01-01T00:11:27Z</time>
      </trkpt>
      <trkpt lat="42.16872" lon="2.48671">
        <ele>436</ele>
        <time>2010-01-01T00:11:29Z</time>
      </trkpt>
      <trkpt lat="42.16868" lon="2.48676">
        <ele>436</ele>
        <time>2010-01-01T00:11:31Z</time>
      </trkpt>
      <trkpt lat="42.16864" lon="2.48677">
        <ele>437</ele>
        <time>2010-01-01T00:11:33Z</time>
      </trkpt>
      <trkpt lat="42.16859" lon="2.48682">
        <ele>437</ele>
        <time>2010-01-01T00:11:35Z</time>
      </trkpt>
      <trkpt lat="42.16859" lon="2.48683">
        <ele>437</ele>
        <time>2010-01-01T00:11:36Z</time>
      </trkpt>
      <trkpt lat="42.16861" lon="2.48684">
        <ele>437</ele>
        <time>2010-01-01T00:11:37Z</time>
      </trkpt>
      <trkpt lat="42.16863" lon="2.48685">
        <ele>437</ele>
        <time>2010-01-01T00:11:38Z</time>
      </trkpt>
      <trkpt lat="42.16868" lon="2.48686">
        <ele>437</ele>
        <time>2010-01-01T00:11:40Z</time>
      </trkpt>
      <trkpt lat="42.16868" lon="2.48681">
        <ele>437</ele>
        <time>2010-01-01T00:11:41Z</time>
      </trkpt>
      <trkpt lat="42.16866" lon="2.48688">
        <ele>437</ele>
        <time>2010-01-01T00:11:43Z</time>
      </trkpt>
      <trkpt lat="42.16866" lon="2.4869">
        <ele>437</ele>
        <time>2010-01-01T00:11:44Z</time>
      </trkpt>
      <trkpt lat="42.16865" lon="2.48694">
        <ele>437</ele>
        <time>2010-01-01T00:11:45Z</time>
      </trkpt>
      <trkpt lat="42.16859" lon="2.48704">
        <ele>438</ele>
        <time>2010-01-01T00:11:49Z</time>
      </trkpt>
      <trkpt lat="42.16853" lon="2.48711">
        <ele>439</ele>
        <time>2010-01-01T00:11:52Z</time>
      </trkpt>
      <trkpt lat="42.16844" lon="2.48722">
        <ele>440</ele>
        <time>2010-01-01T00:11:57Z</time>
      </trkpt>
      <trkpt lat="42.16835" lon="2.48731">
        <ele>440</ele>
        <time>2010-01-01T00:12:01Z</time>
      </trkpt>
      <trkpt lat="42.16829" lon="2.48738">
        <ele>441</ele>
        <time>2010-01-01T00:12:05Z</time>
      </trkpt>
      <trkpt lat="42.16823" lon="2.48747">
        <ele>441</ele>
        <time>2010-01-01T00:12:08Z</time>
      </trkpt>
      <trkpt lat="42.16816" lon="2.48756">
        <ele>441</ele>
        <time>2010-01-01T00:12:12Z</time>
      </trkpt>
      <trkpt lat="42.16809" lon="2.48762">
        <ele>441</ele>
        <time>2010-01-01T00:12:15Z</time>
      </trkpt>
      <trkpt lat="42.16804" lon="2.48769">
        <ele>440</ele>
        <time>2010-01-01T00:12:18Z</time>
      </trkpt>
      <trkpt lat="42.16802" lon="2.48774">
        <ele>440</ele>
        <time>2010-01-01T00:12:20Z</time>
      </trkpt>
      <trkpt lat="42.16801" lon="2.48775">
        <ele>440</ele>
        <time>2010-01-01T00:12:21Z</time>
      </trkpt>
      <trkpt lat="42.16806" lon="2.4877">
        <ele>440</ele>
        <time>2010-01-01T00:12:23Z</time>
      </trkpt>
      <trkpt lat="42.16799" lon="2.48774">
        <ele>440</ele>
        <time>2010-01-01T00:12:26Z</time>
      </trkpt>
      <trkpt lat="42.16788" lon="2.48786">
        <ele>440</ele>
        <time>2010-01-01T00:12:32Z</time>
      </trkpt>
      <trkpt lat="42.16785" lon="2.48792">
        <ele>440</ele>
        <time>2010-01-01T00:12:34Z</time>
      </trkpt>
      <trkpt lat="42.16783" lon="2.48795">
        <ele>439</ele>
        <time>2010-01-01T00:12:35Z</time>
      </trkpt>
      <trkpt lat="42.16777" lon="2.48802">
        <ele>439</ele>
        <time>2010-01-01T00:12:38Z</time>
      </trkpt>
      <trkpt lat="42.16773" lon="2.48806">
        <ele>438</ele>
        <time>2010-01-01T00:12:40Z</time>
      </trkpt>
      <trkpt lat="42.16763" lon="2.48812">
        <ele>438</ele>
        <time>2010-01-01T00:12:45Z</time>
      </trkpt>
      <trkpt lat="42.1676" lon="2.48814">
        <ele>438</ele>
        <time>2010-01-01T00:12:46Z</time>
      </trkpt>
      <trkpt lat="42.1675" lon="2.48821">
        <ele>437</ele>
        <time>2010-01-01T00:12:51Z</time>
      </trkpt>
      <trkpt lat="42.16739" lon="2.48829">
        <ele>436</ele>
        <time>2010-01-01T00:12:56Z</time>
      </trkpt>
      <trkpt lat="42.16728" lon="2.48838">
        <ele>435</ele>
        <time>2010-01-01T00:13:01Z</time>
      </trkpt>
      <trkpt lat="42.16727" lon="2.48839">
        <ele>435</ele>
        <time>2010-01-01T00:13:01Z</time>
      </trkpt>
      <trkpt lat="42.16719" lon="2.48846">
        <ele>435</ele>
        <time>2010-01-01T00:13:05Z</time>
      </trkpt>
      <trkpt lat="42.16712" lon="2.48854">
        <ele>434</ele>
        <time>2010-01-01T00:13:09Z</time>
      </trkpt>
      <trkpt lat="42.16708" lon="2.48864">
        <ele>434</ele>
        <time>2010-01-01T00:13:12Z</time>
      </trkpt>
      <trkpt lat="42.16702" lon="2.48877">
        <ele>434</ele>
        <time>2010-01-01T00:13:17Z</time>
      </trkpt>
      <trkpt lat="42.16695" lon="2.48891">
        <ele>434</ele>
        <time>2010-01-01T00:13:22Z</time>
      </trkpt>
      <trkpt lat="42.16692" lon="2.48896">
        <ele>434</ele>
        <time>2010-01-01T00:13:24Z</time>
      </trkpt>
      <trkpt lat="42.16689" lon="2.48901">
        <ele>434</ele>
        <time>2010-01-01T00:13:25Z</time>
      </trkpt>
      <trkpt lat="42.16683" lon="2.4891">
        <ele>435</ele>
        <time>2010-01-01T00:13:29Z</time>
      </trkpt>
      <trkpt lat="42.16676" lon="2.48916">
        <ele>436</ele>
        <time>2010-01-01T00:13:32Z</time>
      </trkpt>
      <trkpt lat="42.16666" lon="2.48924">
        <ele>437</ele>
        <time>2010-01-01T00:13:37Z</time>
      </trkpt>
      <trkpt lat="42.16656" lon="2.48936">
        <ele>438</ele>
        <time>2010-01-01T00:13:42Z</time>
      </trkpt>
      <trkpt lat="42.16653" lon="2.48948">
        <ele>439</ele>
        <time>2010-01-01T00:13:46Z</time>
      </trkpt>
      <trkpt lat="42.16648" lon="2.4896">
        <ele>439</ele>
        <time>2010-01-01T00:13:50Z</time>
      </trkpt>
      <trkpt lat="42.16643" lon="2.48971">
        <ele>439</ele>
        <time>2010-01-01T00:13:54Z</time>
      </trkpt>
      <trkpt lat="42.16637" lon="2.4898">
        <ele>440</ele>
        <time>2010-01-01T00:13:58Z</time>
      </trkpt>
      <trkpt lat="42.16636" lon="2.48982">
        <ele>440</ele>
        <time>2010-01-01T00:13:58Z</time>
      </trkpt>
      <trkpt lat="42.16633" lon="2.48994">
        <ele>441</ele>
        <time>2010-01-01T00:14:02Z</time>
      </trkpt>
      <trkpt lat="42.16635" lon="2.49001">
        <ele>441</ele>
        <time>2010-01-01T00:14:04Z</time>
      </trkpt>
      <trkpt lat="42.16637" lon="2.49012">
        <ele>441</ele>
        <time>2010-01-01T00:14:08Z</time>
      </trkpt>
      <trkpt lat="42.16634" lon="2.49022">
        <ele>442</ele>
        <time>2010-01-01T00:14:11Z</time>
      </trkpt>
      <trkpt lat="42.16633" lon="2.49026">
        <ele>442</ele>
        <time>2010-01-01T00:14:12Z</time>
      </trkpt>
      <trkpt lat="42.16633" lon="2.49028">
        <ele>442</ele>
        <time>2010-01-01T00:14:13Z</time>
      </trkpt>
      <trkpt lat="42.16634" lon="2.49027">
        <ele>442</ele>
        <time>2010-01-01T00:14:13Z</time>
      </trkpt>
      <trkpt lat="42.16633" lon="2.49034">
        <ele>442</ele>
        <time>2010-01-01T00:14:15Z</time>
      </trkpt>
      <trkpt lat="42.16632" lon="2.49038">
        <ele>443</ele>
        <time>2010-01-01T00:14:16Z</time>
      </trkpt>
      <trkpt lat="42.16632" lon="2.49036">
        <ele>443</ele>
        <time>2010-01-01T00:14:17Z</time>
      </trkpt>
      <trkpt lat="42.16632" lon="2.49035">
        <ele>442</ele>
        <time>2010-01-01T00:14:18Z</time>
      </trkpt>
      <trkpt lat="42.16629" lon="2.49036">
        <ele>443</ele>
        <time>2010-01-01T00:14:19Z</time>
      </trkpt>
      <trkpt lat="42.16627" lon="2.49036">
        <ele>443</ele>
        <time>2010-01-01T00:14:20Z</time>
      </trkpt>
      <trkpt lat="42.16612" lon="2.49032">
        <ele>445</ele>
        <time>2010-01-01T00:14:26Z</time>
      </trkpt>
      <trkpt lat="42.16602" lon="2.49031">
        <ele>445</ele>
        <time>2010-01-01T00:14:30Z</time>
      </trkpt>
      <trkpt lat="42.16593" lon="2.49028">
        <ele>446</ele>
        <time>2010-01-01T00:14:34Z</time>
      </trkpt>
      <trkpt lat="42.16588" lon="2.49024">
        <ele>446</ele>
        <time>2010-01-01T00:14:36Z</time>
      </trkpt>
      <trkpt lat="42.16585" lon="2.49023">
        <ele>446</ele>
        <time>2010-01-01T00:14:37Z</time>
      </trkpt>
      <trkpt lat="42.16574" lon="2.49021">
        <ele>447</ele>
        <time>2010-01-01T00:14:42Z</time>
      </trkpt>
      <trkpt lat="42.16562" lon="2.49013">
        <ele>448</ele>
        <time>2010-01-01T00:14:47Z</time>
      </trkpt>
      <trkpt lat="42.16557" lon="2.49007">
        <ele>447</ele>
        <time>2010-01-01T00:14:50Z</time>
      </trkpt>
      <trkpt lat="42.16553" lon="2.49006">
        <ele>448</ele>
        <time>2010-01-01T00:14:51Z</time>
      </trkpt>
      <trkpt lat="42.16551" lon="2.49003">
        <ele>448</ele>
        <time>2010-01-01T00:14:52Z</time>
      </trkpt>
      <trkpt lat="42.16542" lon="2.48995">
        <ele>448</ele>
        <time>2010-01-01T00:14:57Z</time>
      </trkpt>
      <trkpt lat="42.16533" lon="2.48987">
        <ele>447</ele>
        <time>2010-01-01T00:15:01Z</time>
      </trkpt>
      <trkpt lat="42.16526" lon="2.48983">
        <ele>447</ele>
        <time>2010-01-01T00:15:04Z</time>
      </trkpt>
      <trkpt lat="42.16517" lon="2.48979">
        <ele>448</ele>
        <time>2010-01-01T00:15:08Z</time>
      </trkpt>
      <trkpt lat="42.16507" lon="2.48972">
        <ele>449</ele>
        <time>2010-01-01T00:15:12Z</time>
      </trkpt>
      <trkpt lat="42.16498" lon="2.4897">
        <ele>450</ele>
        <time>2010-01-01T00:15:16Z</time>
      </trkpt>
      <trkpt lat="42.16493" lon="2.48973">
        <ele>451</ele>
        <time>2010-01-01T00:15:18Z</time>
      </trkpt>
      <trkpt lat="42.16485" lon="2.48977">
        <ele>452</ele>
        <time>2010-01-01T00:15:22Z</time>
      </trkpt>
      <trkpt lat="42.16477" lon="2.48979">
        <ele>453</ele>
        <time>2010-01-01T00:15:25Z</time>
      </trkpt>
      <trkpt lat="42.16467" lon="2.48982">
        <ele>453</ele>
        <time>2010-01-01T00:15:29Z</time>
      </trkpt>
      <trkpt lat="42.16462" lon="2.48984">
        <ele>453</ele>
        <time>2010-01-01T00:15:31Z</time>
      </trkpt>
      <trkpt lat="42.16454" lon="2.48984">
        <ele>453</ele>
        <time>2010-01-01T00:15:34Z</time>
      </trkpt>
      <trkpt lat="42.16446" lon="2.48989">
        <ele>454</ele>
        <time>2010-01-01T00:15:38Z</time>
      </trkpt>
      <trkpt lat="42.16435" lon="2.48987">
        <ele>454</ele>
        <time>2010-01-01T00:15:42Z</time>
      </trkpt>
      <trkpt lat="42.16422" lon="2.48984">
        <ele>453</ele>
        <time>2010-01-01T00:15:48Z</time>
      </trkpt>
      <trkpt lat="42.16418" lon="2.48982">
        <ele>453</ele>
        <time>2010-01-01T00:15:49Z</time>
      </trkpt>
      <trkpt lat="42.16413" lon="2.48981">
        <ele>453</ele>
        <time>2010-01-01T00:15:51Z</time>
      </trkpt>
      <trkpt lat="42.16413" lon="2.48982">
        <ele>453</ele>
        <time>2010-01-01T00:15:52Z</time>
      </trkpt>
      <trkpt lat="42.16412" lon="2.48982">
        <ele>454</ele>
        <time>2010-01-01T00:15:52Z</time>
      </trkpt>
      <trkpt lat="42.16411" lon="2.48982">
        <ele>454</ele>
        <time>2010-01-01T00:15:52Z</time>
      </trkpt>
      <trkpt lat="42.16405" lon="2.48981">
        <ele>454</ele>
        <time>2010-01-01T00:15:55Z</time>
      </trkpt>
      <trkpt lat="42.16393" lon="2.48986">
        <ele>457</ele>
        <time>2010-01-01T00:16:00Z</time>
      </trkpt>
      <trkpt lat="42.16392" lon="2.48988">
        <ele>458</ele>
        <time>2010-01-01T00:16:00Z</time>
      </trkpt>
      <trkpt lat="42.16387" lon="2.48993">
        <ele>460</ele>
        <time>2010-01-01T00:16:03Z</time>
      </trkpt>
      <trkpt lat="42.16386" lon="2.48994">
        <ele>460</ele>
        <time>2010-01-01T00:16:03Z</time>
      </trkpt>
      <trkpt lat="42.16377" lon="2.48991">
        <ele>459</ele>
        <time>2010-01-01T00:16:07Z</time>
      </trkpt>
      <trkpt lat="42.16373" lon="2.48992">
        <ele>460</ele>
        <time>2010-01-01T00:16:09Z</time>
      </trkpt>
      <trkpt lat="42.1637" lon="2.48993">
        <ele>460</ele>
        <time>2010-01-01T00:16:10Z</time>
      </trkpt>
      <trkpt lat="42.1636" lon="2.4899">
        <ele>460</ele>
        <time>2010-01-01T00:16:14Z</time>
      </trkpt>
      <trkpt lat="42.16359" lon="2.48991">
        <ele>460</ele>
        <time>2010-01-01T00:16:14Z</time>
      </trkpt>
      <trkpt lat="42.16351" lon="2.4899">
        <ele>460</ele>
        <time>2010-01-01T00:16:17Z</time>
      </trkpt>
      <trkpt lat="42.16344" lon="2.48991">
        <ele>460</ele>
        <time>2010-01-01T00:16:20Z</time>
      </trkpt>
      <trkpt lat="42.16336" lon="2.48992">
        <ele>460</ele>
        <time>2010-01-01T00:16:23Z</time>
      </trkpt>
      <trkpt lat="42.16326" lon="2.48993">
        <ele>462</ele>
        <time>2010-01-01T00:16:27Z</time>
      </trkpt>
      <trkpt lat="42.16316" lon="2.48992">
        <ele>464</ele>
        <time>2010-01-01T00:16:31Z</time>
      </trkpt>
      <trkpt lat="42.16307" lon="2.48986">
        <ele>464</ele>
        <time>2010-01-01T00:16:36Z</time>
      </trkpt>
      <trkpt lat="42.16305" lon="2.48985">
        <ele>464</ele>
        <time>2010-01-01T00:16:36Z</time>
      </trkpt>
      <trkpt lat="42.16296" lon="2.48983">
        <ele>466</ele>
        <time>2010-01-01T00:16:40Z</time>
      </trkpt>
      <trkpt lat="42.16291" lon="2.4898">
        <ele>467</ele>
        <time>2010-01-01T00:16:42Z</time>
      </trkpt>
      <trkpt lat="42.16284" lon="2.48977">
        <ele>469</ele>
        <time>2010-01-01T00:16:45Z</time>
      </trkpt>
      <trkpt lat="42.16279" lon="2.48974">
        <ele>470</ele>
        <time>2010-01-01T00:16:47Z</time>
      </trkpt>
      <trkpt lat="42.16272" lon="2.48968">
        <ele>470</ele>
        <time>2010-01-01T00:16:51Z</time>
      </trkpt>
      <trkpt lat="42.16262" lon="2.48962">
        <ele>471</ele>
        <time>2010-01-01T00:16:55Z</time>
      </trkpt>
      <trkpt lat="42.16258" lon="2.48961">
        <ele>471</ele>
        <time>2010-01-01T00:16:57Z</time>
      </trkpt>
      <trkpt lat="42.16249" lon="2.48957">
        <ele>472</ele>
        <time>2010-01-01T00:17:01Z</time>
      </trkpt>
      <trkpt lat="42.16237" lon="2.4895">
        <ele>473</ele>
        <time>2010-01-01T00:17:06Z</time>
      </trkpt>
      <trkpt lat="42.16229" lon="2.48952">
        <ele>476</ele>
        <time>2010-01-01T00:17:09Z</time>
      </trkpt>
      <trkpt lat="42.16225" lon="2.48953">
        <ele>477</ele>
        <time>2010-01-01T00:17:11Z</time>
      </trkpt>
      <trkpt lat="42.16217" lon="2.48952">
        <ele>479</ele>
        <time>2010-01-01T00:17:14Z</time>
      </trkpt>
      <trkpt lat="42.16215" lon="2.48951">
        <ele>480</ele>
        <time>2010-01-01T00:17:15Z</time>
      </trkpt>
      <trkpt lat="42.16204" lon="2.48945">
        <ele>482</ele>
        <time>2010-01-01T00:17:19Z</time>
      </trkpt>
      <trkpt lat="42.16197" lon="2.4894">
        <ele>482</ele>
        <time>2010-01-01T00:17:22Z</time>
      </trkpt>
      <trkpt lat="42.16196" lon="2.48937">
        <ele>481</ele>
        <time>2010-01-01T00:17:24Z</time>
      </trkpt>
      <trkpt lat="42.16194" lon="2.48933">
        <ele>480</ele>
        <time>2010-01-01T00:17:25Z</time>
      </trkpt>
      <trkpt lat="42.16185" lon="2.48931">
        <ele>480</ele>
        <time>2010-01-01T00:17:29Z</time>
      </trkpt>
      <trkpt lat="42.16173" lon="2.48927">
        <ele>480</ele>
        <time>2010-01-01T00:17:33Z</time>
      </trkpt>
      <trkpt lat="42.16172" lon="2.48926">
        <ele>480</ele>
        <time>2010-01-01T00:17:34Z</time>
      </trkpt>
      <trkpt lat="42.16161" lon="2.48926">
        <ele>480</ele>
        <time>2010-01-01T00:17:38Z</time>
      </trkpt>
      <trkpt lat="42.16155" lon="2.48926">
        <ele>480</ele>
        <time>2010-01-01T00:17:41Z</time>
      </trkpt>
      <trkpt lat="42.16146" lon="2.48926">
        <ele>480</ele>
        <time>2010-01-01T00:17:44Z</time>
      </trkpt>
      <trkpt lat="42.16139" lon="2.48926">
        <ele>480</ele>
        <time>2010-01-01T00:17:47Z</time>
      </trkpt>
      <trkpt lat="42.16128" lon="2.48932">
        <ele>483</ele>
        <time>2010-01-01T00:17:52Z</time>
      </trkpt>
      <trkpt lat="42.16121" lon="2.48939">
        <ele>484</ele>
        <time>2010-01-01T00:17:55Z</time>
      </trkpt>
      <trkpt lat="42.16115" lon="2.4895">
        <ele>487</ele>
        <time>2010-01-01T00:17:59Z</time>
      </trkpt>
      <trkpt lat="42.16113" lon="2.48952">
        <ele>487</ele>
        <time>2010-01-01T00:18:00Z</time>
      </trkpt>
      <trkpt lat="42.16103" lon="2.48958">
        <ele>489</ele>
        <time>2010-01-01T00:18:05Z</time>
      </trkpt>
      <trkpt lat="42.161" lon="2.48958">
        <ele>489</ele>
        <time>2010-01-01T00:18:06Z</time>
      </trkpt>
      <trkpt lat="42.16095" lon="2.4896">
        <ele>489</ele>
        <time>2010-01-01T00:18:08Z</time>
      </trkpt>
      <trkpt lat="42.16087" lon="2.48966">
        <ele>490</ele>
        <time>2010-01-01T00:18:12Z</time>
      </trkpt>
      <trkpt lat="42.16079" lon="2.48969">
        <ele>491</ele>
        <time>2010-01-01T00:18:15Z</time>
      </trkpt>
      <trkpt lat="42.16073" lon="2.48968">
        <ele>491</ele>
        <time>2010-01-01T00:18:17Z</time>
      </trkpt>
      <trkpt lat="42.16065" lon="2.48969">
        <ele>491</ele>
        <time>2010-01-01T00:18:20Z</time>
      </trkpt>
      <trkpt lat="42.16063" lon="2.4897">
        <ele>491</ele>
        <time>2010-01-01T00:18:21Z</time>
      </trkpt>
      <trkpt lat="42.1606" lon="2.48972">
        <ele>491</ele>
        <time>2010-01-01T00:18:23Z</time>
      </trkpt>
      <trkpt lat="42.16051" lon="2.48976">
        <ele>493</ele>
        <time>2010-01-01T00:18:27Z</time>
      </trkpt>
      <trkpt lat="42.16045" lon="2.48981">
        <ele>494</ele>
        <time>2010-01-01T00:18:29Z</time>
      </trkpt>
      <trkpt lat="42.16041" lon="2.4899">
        <ele>496</ele>
        <time>2010-01-01T00:18:32Z</time>
      </trkpt>
      <trkpt lat="42.16036" lon="2.48996">
        <ele>497</ele>
        <time>2010-01-01T00:18:35Z</time>
      </trkpt>
      <trkpt lat="42.16032" lon="2.48997">
        <ele>497</ele>
        <time>2010-01-01T00:18:37Z</time>
      </trkpt>
      <trkpt lat="42.16025" lon="2.49011">
        <ele>502</ele>
        <time>2010-01-01T00:18:42Z</time>
      </trkpt>
      <trkpt lat="42.16021" lon="2.49016">
        <ele>504</ele>
        <time>2010-01-01T00:18:44Z</time>
      </trkpt>
      <trkpt lat="42.16021" lon="2.49023">
        <ele>506</ele>
        <time>2010-01-01T00:18:46Z</time>
      </trkpt>
      <trkpt lat="42.16017" lon="2.49037">
        <ele>511</ele>
        <time>2010-01-01T00:18:50Z</time>
      </trkpt>
      <trkpt lat="42.16015" lon="2.49043">
        <ele>512</ele>
        <time>2010-01-01T00:18:52Z</time>
      </trkpt>
      <trkpt lat="42.16014" lon="2.49045">
        <ele>513</ele>
        <time>2010-01-01T00:18:53Z</time>
      </trkpt>
      <trkpt lat="42.16011" lon="2.49054">
        <ele>516</ele>
        <time>2010-01-01T00:18:56Z</time>
      </trkpt>
      <trkpt lat="42.16005" lon="2.49059">
        <ele>517</ele>
        <time>2010-01-01T00:18:59Z</time>
      </trkpt>
      <trkpt lat="42.16003" lon="2.49059">
        <ele>517</ele>
        <time>2010-01-01T00:18:59Z</time>
      </trkpt>
      <trkpt lat="42.15997" lon="2.49054">
        <ele>516</ele>
        <time>2010-01-01T00:19:02Z</time>
      </trkpt>
      <trkpt lat="42.15992" lon="2.49051">
        <ele>516</ele>
        <time>2010-01-01T00:19:05Z</time>
      </trkpt>
      <trkpt lat="42.15982" lon="2.49047">
        <ele>517</ele>
        <time>2010-01-01T00:19:08Z</time>
      </trkpt>
      <trkpt lat="42.15975" lon="2.49042">
        <ele>518</ele>
        <time>2010-01-01T00:19:12Z</time>
      </trkpt>
      <trkpt lat="42.15973" lon="2.4904">
        <ele>518</ele>
        <time>2010-01-01T00:19:13Z</time>
      </trkpt>
      <trkpt lat="42.15966" lon="2.49031">
        <ele>518</ele>
        <time>2010-01-01T00:19:17Z</time>
      </trkpt>
      <trkpt lat="42.15963" lon="2.49026">
        <ele>517</ele>
        <time>2010-01-01T00:19:19Z</time>
      </trkpt>
      <trkpt lat="42.15954" lon="2.49015">
        <ele>517</ele>
        <time>2010-01-01T00:19:23Z</time>
      </trkpt>
      <trkpt lat="42.1595" lon="2.49011">
        <ele>517</ele>
        <time>2010-01-01T00:19:25Z</time>
      </trkpt>
      <trkpt lat="42.15942" lon="2.49012">
        <ele>520</ele>
        <time>2010-01-01T00:19:29Z</time>
      </trkpt>
      <trkpt lat="42.1594" lon="2.49012">
        <ele>520</ele>
        <time>2010-01-01T00:19:29Z</time>
      </trkpt>
      <trkpt lat="42.1593" lon="2.49009">
        <ele>522</ele>
        <time>2010-01-01T00:19:34Z</time>
      </trkpt>
      <trkpt lat="42.15928" lon="2.49008">
        <ele>522</ele>
        <time>2010-01-01T00:19:34Z</time>
      </trkpt>
      <trkpt lat="42.15923" lon="2.49003">
        <ele>523</ele>
        <time>2010-01-01T00:19:37Z</time>
      </trkpt>
      <trkpt lat="42.15912" lon="2.48997">
        <ele>524</ele>
        <time>2010-01-01T00:19:42Z</time>
      </trkpt>
      <trkpt lat="42.15909" lon="2.48994">
        <ele>524</ele>
        <time>2010-01-01T00:19:43Z</time>
      </trkpt>
      <trkpt lat="42.15902" lon="2.48989">
        <ele>524</ele>
        <time>2010-01-01T00:19:46Z</time>
      </trkpt>
      <trkpt lat="42.15897" lon="2.4899">
        <ele>525</ele>
        <time>2010-01-01T00:19:48Z</time>
      </trkpt>
      <trkpt lat="42.15894" lon="2.48992">
        <ele>526</ele>
        <time>2010-01-01T00:19:50Z</time>
      </trkpt>
      <trkpt lat="42.1589" lon="2.48993">
        <ele>526</ele>
        <time>2010-01-01T00:19:51Z</time>
      </trkpt>
      <trkpt lat="42.15886" lon="2.48996">
        <ele>526</ele>
        <time>2010-01-01T00:19:53Z</time>
      </trkpt>
      <trkpt lat="42.15883" lon="2.48994">
        <ele>525</ele>
        <time>2010-01-01T00:19:55Z</time>
      </trkpt>
      <trkpt lat="42.15883" lon="2.48993">
        <ele>525</ele>
        <time>2010-01-01T00:19:55Z</time>
      </trkpt>
      <trkpt lat="42.15883" lon="2.48993">
        <ele>525</ele>
        <time>2010-01-01T00:19:55Z</time>
      </trkpt>
      <trkpt lat="42.15885" lon="2.48989">
        <ele>526</ele>
        <time>2010-01-01T00:19:57Z</time>
      </trkpt>
      <trkpt lat="42.15881" lon="2.48994">
        <ele>525</ele>
        <time>2010-01-01T00:19:59Z</time>
      </trkpt>
      <trkpt lat="42.1588" lon="2.49">
        <ele>525</ele>
        <time>2010-01-01T00:20:01Z</time>
      </trkpt>
      <trkpt lat="42.15877" lon="2.49009">
        <ele>525</ele>
        <time>2010-01-01T00:20:04Z</time>
      </trkpt>
      <trkpt lat="42.15877" lon="2.49016">
        <ele>525</ele>
        <time>2010-01-01T00:20:06Z</time>
      </trkpt>
      <trkpt lat="42.15874" lon="2.49019">
        <ele>524</ele>
        <time>2010-01-01T00:20:07Z</time>
      </trkpt>
      <trkpt lat="42.15872" lon="2.4902">
        <ele>524</ele>
        <time>2010-01-01T00:20:08Z</time>
      </trkpt>
      <trkpt lat="42.15873" lon="2.4902">
        <ele>524</ele>
        <time>2010-01-01T00:20:09Z</time>
      </trkpt>
      <trkpt lat="42.15873" lon="2.49018">
        <ele>524</ele>
        <time>2010-01-01T00:20:09Z</time>
      </trkpt>
      <trkpt lat="42.15872" lon="2.49016">
        <ele>524</ele>
        <time>2010-01-01T00:20:10Z</time>
      </trkpt>
      <trkpt lat="42.15873" lon="2.49016">
        <ele>524</ele>
        <time>2010-01-01T00:20:10Z</time>
      </trkpt>
      <trkpt lat="42.1587" lon="2.49017">
        <ele>523</ele>
        <time>2010-01-01T00:20:11Z</time>
      </trkpt>
      <trkpt lat="42.15868" lon="2.4902">
        <ele>523</ele>
        <time>2010-01-01T00:20:13Z</time>
      </trkpt>
      <trkpt lat="42.15866" lon="2.49022">
        <ele>523</ele>
        <time>2010-01-01T00:20:13Z</time>
      </trkpt>
      <trkpt lat="42.15865" lon="2.49026">
        <ele>522</ele>
        <time>2010-01-01T00:20:15Z</time>
      </trkpt>
      <trkpt lat="42.15863" lon="2.49037">
        <ele>523</ele>
        <time>2010-01-01T00:20:18Z</time>
      </trkpt>
      <trkpt lat="42.15866" lon="2.49044">
        <ele>524</ele>
        <time>2010-01-01T00:20:20Z</time>
      </trkpt>
      <trkpt lat="42.15865" lon="2.49048">
        <ele>524</ele>
        <time>2010-01-01T00:20:22Z</time>
      </trkpt>
      <trkpt lat="42.15865" lon="2.49055">
        <ele>525</ele>
        <time>2010-01-01T00:20:24Z</time>
      </trkpt>
      <trkpt lat="42.15864" lon="2.49065">
        <ele>526</ele>
        <time>2010-01-01T00:20:27Z</time>
      </trkpt>
      <trkpt lat="42.15864" lon="2.49075">
        <ele>528</ele>
        <time>2010-01-01T00:20:30Z</time>
      </trkpt>
      <trkpt lat="42.15863" lon="2.49087">
        <ele>528</ele>
        <time>2010-01-01T00:20:33Z</time>
      </trkpt>
      <trkpt lat="42.15861" lon="2.49102">
        <ele>529</ele>
        <time>2010-01-01T00:20:38Z</time>
      </trkpt>
      <trkpt lat="42.15861" lon="2.49104">
        <ele>530</ele>
        <time>2010-01-01T00:20:38Z</time>
      </trkpt>
      <trkpt lat="42.1586" lon="2.49113">
        <ele>530</ele>
        <time>2010-01-01T00:20:41Z</time>
      </trkpt>
      <trkpt lat="42.1586" lon="2.49124">
        <ele>532</ele>
        <time>2010-01-01T00:20:44Z</time>
      </trkpt>
      <trkpt lat="42.15856" lon="2.49141">
        <ele>532</ele>
        <time>2010-01-01T00:20:49Z</time>
      </trkpt>
      <trkpt lat="42.15856" lon="2.49155">
        <ele>534</ele>
        <time>2010-01-01T00:20:54Z</time>
      </trkpt>
      <trkpt lat="42.15859" lon="2.49168">
        <ele>536</ele>
        <time>2010-01-01T00:20:58Z</time>
      </trkpt>
      <trkpt lat="42.15859" lon="2.49174">
        <ele>537</ele>
        <time>2010-01-01T00:20:59Z</time>
      </trkpt>
      <trkpt lat="42.15859" lon="2.49185">
        <ele>538</ele>
        <time>2010-01-01T00:21:03Z</time>
      </trkpt>
      <trkpt lat="42.1586" lon="2.49195">
        <ele>539</ele>
        <time>2010-01-01T00:21:06Z</time>
      </trkpt>
      <trkpt lat="42.1586" lon="2.49199">
        <ele>539</ele>
        <time>2010-01-01T00:21:07Z</time>
      </trkpt>
      <trkpt lat="42.15862" lon="2.49214">
        <ele>540</ele>
        <time>2010-01-01T00:21:11Z</time>
      </trkpt>
      <trkpt lat="42.15864" lon="2.49226">
        <ele>542</ele>
        <time>2010-01-01T00:21:15Z</time>
      </trkpt>
      <trkpt lat="42.15865" lon="2.49233">
        <ele>543</ele>
        <time>2010-01-01T00:21:17Z</time>
      </trkpt>
      <trkpt lat="42.15866" lon="2.49244">
        <ele>543</ele>
        <time>2010-01-01T00:21:20Z</time>
      </trkpt>
      <trkpt lat="42.15867" lon="2.49256">
        <ele>544</ele>
        <time>2010-01-01T00:21:24Z</time>
      </trkpt>
      <trkpt lat="42.15868" lon="2.49263">
        <ele>545</ele>
        <time>2010-01-01T00:21:26Z</time>
      </trkpt>
      <trkpt lat="42.15871" lon="2.49271">
        <ele>547</ele>
        <time>2010-01-01T00:21:29Z</time>
      </trkpt>
      <trkpt lat="42.1587" lon="2.49279">
        <ele>547</ele>
        <time>2010-01-01T00:21:31Z</time>
      </trkpt>
      <trkpt lat="42.15865" lon="2.49288">
        <ele>546</ele>
        <time>2010-01-01T00:21:34Z</time>
      </trkpt>
      <trkpt lat="42.15864" lon="2.49296">
        <ele>546</ele>
        <time>2010-01-01T00:21:37Z</time>
      </trkpt>
      <trkpt lat="42.1586" lon="2.49306">
        <ele>546</ele>
        <time>2010-01-01T00:21:40Z</time>
      </trkpt>
      <trkpt lat="42.15853" lon="2.49312">
        <ele>544</ele>
        <time>2010-01-01T00:21:43Z</time>
      </trkpt>
      <trkpt lat="42.15845" lon="2.49317">
        <ele>543</ele>
        <time>2010-01-01T00:21:47Z</time>
      </trkpt>
      <trkpt lat="42.15837" lon="2.49322">
        <ele>541</ele>
        <time>2010-01-01T00:21:50Z</time>
      </trkpt>
      <trkpt lat="42.1583" lon="2.49327">
        <ele>540</ele>
        <time>2010-01-01T00:21:53Z</time>
      </trkpt>
      <trkpt lat="42.15821" lon="2.49331">
        <ele>538</ele>
        <time>2010-01-01T00:21:57Z</time>
      </trkpt>
      <trkpt lat="42.1581" lon="2.49335">
        <ele>536</ele>
        <time>2010-01-01T00:22:02Z</time>
      </trkpt>
      <trkpt lat="42.158" lon="2.49333">
        <ele>533</ele>
        <time>2010-01-01T00:22:06Z</time>
      </trkpt>
      <trkpt lat="42.15792" lon="2.49331">
        <ele>530</ele>
        <time>2010-01-01T00:22:09Z</time>
      </trkpt>
      <trkpt lat="42.1578" lon="2.49335">
        <ele>527</ele>
        <time>2010-01-01T00:22:14Z</time>
      </trkpt>
      <trkpt lat="42.15779" lon="2.49336">
        <ele>526</ele>
        <time>2010-01-01T00:22:15Z</time>
      </trkpt>
      <trkpt lat="42.15774" lon="2.49346">
        <ele>526</ele>
        <time>2010-01-01T00:22:18Z</time>
      </trkpt>
      <trkpt lat="42.15775" lon="2.49357">
        <ele>528</ele>
        <time>2010-01-01T00:22:22Z</time>
      </trkpt>
      <trkpt lat="42.15774" lon="2.4936">
        <ele>528</ele>
        <time>2010-01-01T00:22:22Z</time>
      </trkpt>
      <trkpt lat="42.15778" lon="2.49359">
        <ele>529</ele>
        <time>2010-01-01T00:22:24Z</time>
      </trkpt>
      <trkpt lat="42.15777" lon="2.49362">
        <ele>529</ele>
        <time>2010-01-01T00:22:25Z</time>
      </trkpt>
      <trkpt lat="42.15776" lon="2.49366">
        <ele>530</ele>
        <time>2010-01-01T00:22:26Z</time>
      </trkpt>
      <trkpt lat="42.15772" lon="2.49377">
        <ele>530</ele>
        <time>2010-01-01T00:22:30Z</time>
      </trkpt>
      <trkpt lat="42.15769" lon="2.49386">
        <ele>530</ele>
        <time>2010-01-01T00:22:33Z</time>
      </trkpt>
      <trkpt lat="42.15768" lon="2.4939">
        <ele>530</ele>
        <time>2010-01-01T00:22:34Z</time>
      </trkpt>
      <trkpt lat="42.15767" lon="2.49396">
        <ele>530</ele>
        <time>2010-01-01T00:22:36Z</time>
      </trkpt>
      <trkpt lat="42.15765" lon="2.49405">
        <ele>529</ele>
        <time>2010-01-01T00:22:39Z</time>
      </trkpt>
      <trkpt lat="42.15765" lon="2.49411">
        <ele>530</ele>
        <time>2010-01-01T00:22:40Z</time>
      </trkpt>
      <trkpt lat="42.15765" lon="2.49417">
        <ele>530</ele>
        <time>2010-01-01T00:22:42Z</time>
      </trkpt>
      <trkpt lat="42.15766" lon="2.49428">
        <ele>532</ele>
        <time>2010-01-01T00:22:45Z</time>
      </trkpt>
      <trkpt lat="42.15767" lon="2.49434">
        <ele>532</ele>
        <time>2010-01-01T00:22:47Z</time>
      </trkpt>
      <trkpt lat="42.15765" lon="2.49449">
        <ele>533</ele>
        <time>2010-01-01T00:22:52Z</time>
      </trkpt>
      <trkpt lat="42.15766" lon="2.49461">
        <ele>535</ele>
        <time>2010-01-01T00:22:56Z</time>
      </trkpt>
      <trkpt lat="42.15766" lon="2.49473">
        <ele>536</ele>
        <time>2010-01-01T00:22:59Z</time>
      </trkpt>
      <trkpt lat="42.15764" lon="2.49484">
        <ele>536</ele>
        <time>2010-01-01T00:23:02Z</time>
      </trkpt>
      <trkpt lat="42.15761" lon="2.49494">
        <ele>535</ele>
        <time>2010-01-01T00:23:06Z</time>
      </trkpt>
      <trkpt lat="42.15758" lon="2.49503">
        <ele>535</ele>
        <time>2010-01-01T00:23:08Z</time>
      </trkpt>
      <trkpt lat="42.15754" lon="2.49514">
        <ele>535</ele>
        <time>2010-01-01T00:23:12Z</time>
      </trkpt>
      <trkpt lat="42.15753" lon="2.49522">
        <ele>535</ele>
        <time>2010-01-01T00:23:14Z</time>
      </trkpt>
      <trkpt lat="42.1575" lon="2.49531">
        <ele>535</ele>
        <time>2010-01-01T00:23:17Z</time>
      </trkpt>
      <trkpt lat="42.15749" lon="2.49533">
        <ele>535</ele>
        <time>2010-01-01T00:23:18Z</time>
      </trkpt>
      <trkpt lat="42.15747" lon="2.49549">
        <ele>535</ele>
        <time>2010-01-01T00:23:23Z</time>
      </trkpt>
      <trkpt lat="42.15745" lon="2.4956">
        <ele>535</ele>
        <time>2010-01-01T00:23:26Z</time>
      </trkpt>
      <trkpt lat="42.15746" lon="2.49569">
        <ele>536</ele>
        <time>2010-01-01T00:23:29Z</time>
      </trkpt>
      <trkpt lat="42.15747" lon="2.49575">
        <ele>537</ele>
        <time>2010-01-01T00:23:31Z</time>
      </trkpt>
      <trkpt lat="42.1575" lon="2.49588">
        <ele>539</ele>
        <time>2010-01-01T00:23:35Z</time>
      </trkpt>
      <trkpt lat="42.15754" lon="2.496">
        <ele>541</ele>
        <time>2010-01-01T00:23:39Z</time>
      </trkpt>
      <trkpt lat="42.15755" lon="2.49605">
        <ele>541</ele>
        <time>2010-01-01T00:23:40Z</time>
      </trkpt>
      <trkpt lat="42.15761" lon="2.49616">
        <ele>543</ele>
        <time>2010-01-01T00:23:44Z</time>
      </trkpt>
      <trkpt lat="42.15757" lon="2.49623">
        <ele>542</ele>
        <time>2010-01-01T00:23:47Z</time>
      </trkpt>
      <trkpt lat="42.15753" lon="2.49625">
        <ele>542</ele>
        <time>2010-01-01T00:23:48Z</time>
      </trkpt>
      <trkpt lat="42.15741" lon="2.49636">
        <ele>540</ele>
        <time>2010-01-01T00:23:54Z</time>
      </trkpt>
      <trkpt lat="42.15732" lon="2.49647">
        <ele>541</ele>
        <time>2010-01-01T00:23:59Z</time>
      </trkpt>
      <trkpt lat="42.1573" lon="2.4965">
        <ele>541</ele>
        <time>2010-01-01T00:24:00Z</time>
      </trkpt>
      <trkpt lat="42.15721" lon="2.49656">
        <ele>541</ele>
        <time>2010-01-01T00:24:04Z</time>
      </trkpt>
      <trkpt lat="42.15709" lon="2.49664">
        <ele>541</ele>
        <time>2010-01-01T00:24:10Z</time>
      </trkpt>
      <trkpt lat="42.15698" lon="2.49671">
        <ele>541</ele>
        <time>2010-01-01T00:24:14Z</time>
      </trkpt>
      <trkpt lat="42.15687" lon="2.49673">
        <ele>541</ele>
        <time>2010-01-01T00:24:19Z</time>
      </trkpt>
      <trkpt lat="42.15677" lon="2.49675">
        <ele>540</ele>
        <time>2010-01-01T00:24:23Z</time>
      </trkpt>
      <trkpt lat="42.15665" lon="2.49674">
        <ele>539</ele>
        <time>2010-01-01T00:24:28Z</time>
      </trkpt>
      <trkpt lat="42.15662" lon="2.49675">
        <ele>539</ele>
        <time>2010-01-01T00:24:29Z</time>
      </trkpt>
      <trkpt lat="42.15658" lon="2.4968">
        <ele>540</ele>
        <time>2010-01-01T00:24:31Z</time>
      </trkpt>
      <trkpt lat="42.15655" lon="2.49693">
        <ele>541</ele>
        <time>2010-01-01T00:24:35Z</time>
      </trkpt>
      <trkpt lat="42.15657" lon="2.49706">
        <ele>543</ele>
        <time>2010-01-01T00:24:39Z</time>
      </trkpt>
      <trkpt lat="42.15661" lon="2.4972">
        <ele>545</ele>
        <time>2010-01-01T00:24:44Z</time>
      </trkpt>
      <trkpt lat="42.15663" lon="2.49726">
        <ele>545</ele>
        <time>2010-01-01T00:24:45Z</time>
      </trkpt>
      <trkpt lat="42.15663" lon="2.49727">
        <ele>545</ele>
        <time>2010-01-01T00:24:46Z</time>
      </trkpt>
      <trkpt lat="42.15663" lon="2.49729">
        <ele>546</ele>
        <time>2010-01-01T00:24:46Z</time>
      </trkpt>
      <trkpt lat="42.15664" lon="2.4973">
        <ele>546</ele>
        <time>2010-01-01T00:24:47Z</time>
      </trkpt>
      <trkpt lat="42.1567" lon="2.49739">
        <ele>546</ele>
        <time>2010-01-01T00:24:51Z</time>
      </trkpt>
      <trkpt lat="42.15674" lon="2.49742">
        <ele>547</ele>
        <time>2010-01-01T00:24:52Z</time>
      </trkpt>
      <trkpt lat="42.15682" lon="2.49751">
        <ele>548</ele>
        <time>2010-01-01T00:24:56Z</time>
      </trkpt>
      <trkpt lat="42.15686" lon="2.49763">
        <ele>549</ele>
        <time>2010-01-01T00:25:00Z</time>
      </trkpt>
      <trkpt lat="42.15692" lon="2.49771">
        <ele>550</ele>
        <time>2010-01-01T00:25:04Z</time>
      </trkpt>
      <trkpt lat="42.15701" lon="2.4978">
        <ele>551</ele>
        <time>2010-01-01T00:25:08Z</time>
      </trkpt>
      <trkpt lat="42.15702" lon="2.49781">
        <ele>551</ele>
        <time>2010-01-01T00:25:09Z</time>
      </trkpt>
      <trkpt lat="42.15705" lon="2.49784">
        <ele>551</ele>
        <time>2010-01-01T00:25:10Z</time>
      </trkpt>
      <trkpt lat="42.15712" lon="2.49794">
        <ele>552</ele>
        <time>2010-01-01T00:25:14Z</time>
      </trkpt>
      <trkpt lat="42.15717" lon="2.49801">
        <ele>552</ele>
        <time>2010-01-01T00:25:17Z</time>
      </trkpt>
      <trkpt lat="42.15719" lon="2.49805">
        <ele>551</ele>
        <time>2010-01-01T00:25:19Z</time>
      </trkpt>
      <trkpt lat="42.15725" lon="2.49812">
        <ele>551</ele>
        <time>2010-01-01T00:25:22Z</time>
      </trkpt>
      <trkpt lat="42.15731" lon="2.4982">
        <ele>552</ele>
        <time>2010-01-01T00:25:25Z</time>
      </trkpt>
      <trkpt lat="42.15735" lon="2.49826">
        <ele>552</ele>
        <time>2010-01-01T00:25:27Z</time>
      </trkpt>
      <trkpt lat="42.15738" lon="2.4983">
        <ele>552</ele>
        <time>2010-01-01T00:25:29Z</time>
      </trkpt>
      <trkpt lat="42.15744" lon="2.49839">
        <ele>552</ele>
        <time>2010-01-01T00:25:33Z</time>
      </trkpt>
      <trkpt lat="42.15753" lon="2.4985">
        <ele>552</ele>
        <time>2010-01-01T00:25:38Z</time>
      </trkpt>
      <trkpt lat="42.15756" lon="2.49853">
        <ele>552</ele>
        <time>2010-01-01T00:25:39Z</time>
      </trkpt>
      <trkpt lat="42.15758" lon="2.49856">
        <ele>552</ele>
        <time>2010-01-01T00:25:40Z</time>
      </trkpt>
      <trkpt lat="42.15764" lon="2.49866">
        <ele>552</ele>
        <time>2010-01-01T00:25:44Z</time>
      </trkpt>
      <trkpt lat="42.15772" lon="2.49877">
        <ele>551</ele>
        <time>2010-01-01T00:25:49Z</time>
      </trkpt>
      <trkpt lat="42.15779" lon="2.49894">
        <ele>550</ele>
        <time>2010-01-01T00:25:54Z</time>
      </trkpt>
      <trkpt lat="42.15782" lon="2.49906">
        <ele>550</ele>
        <time>2010-01-01T00:25:58Z</time>
      </trkpt>
      <trkpt lat="42.15787" lon="2.4992">
        <ele>549</ele>
        <time>2010-01-01T00:26:03Z</time>
      </trkpt>
      <trkpt lat="42.15792" lon="2.4993">
        <ele>550</ele>
        <time>2010-01-01T00:26:06Z</time>
      </trkpt>
      <trkpt lat="42.15793" lon="2.49936">
        <ele>550</ele>
        <time>2010-01-01T00:26:08Z</time>
      </trkpt>
      <trkpt lat="42.15798" lon="2.49944">
        <ele>550</ele>
        <time>2010-01-01T00:26:11Z</time>
      </trkpt>
      <trkpt lat="42.15803" lon="2.49958">
        <ele>550</ele>
        <time>2010-01-01T00:26:16Z</time>
      </trkpt>
      <trkpt lat="42.15804" lon="2.4996">
        <ele>550</ele>
        <time>2010-01-01T00:26:17Z</time>
      </trkpt>
      <trkpt lat="42.15807" lon="2.49965">
        <ele>551</ele>
        <time>2010-01-01T00:26:19Z</time>
      </trkpt>
      <trkpt lat="42.15806" lon="2.49968">
        <ele>550</ele>
        <time>2010-01-01T00:26:19Z</time>
      </trkpt>
      <trkpt lat="42.15804" lon="2.49966">
        <ele>550</ele>
        <time>2010-01-01T00:26:20Z</time>
      </trkpt>
      <trkpt lat="42.15803" lon="2.49964">
        <ele>550</ele>
        <time>2010-01-01T00:26:21Z</time>
      </trkpt>
      <trkpt lat="42.15804" lon="2.49969">
        <ele>550</ele>
        <time>2010-01-01T00:26:23Z</time>
      </trkpt>
      <trkpt lat="42.15809" lon="2.4998">
        <ele>551</ele>
        <time>2010-01-01T00:26:27Z</time>
      </trkpt>
      <trkpt lat="42.15812" lon="2.49987">
        <ele>552</ele>
        <time>2010-01-01T00:26:29Z</time>
      </trkpt>
      <trkpt lat="42.15818" lon="2.50006">
        <ele>552</ele>
        <time>2010-01-01T00:26:35Z</time>
      </trkpt>
      <trkpt lat="42.15823" lon="2.50016">
        <ele>552</ele>
        <time>2010-01-01T00:26:39Z</time>
      </trkpt>
      <trkpt lat="42.15825" lon="2.5002">
        <ele>552</ele>
        <time>2010-01-01T00:26:40Z</time>
      </trkpt>
      <trkpt lat="42.15833" lon="2.50029">
        <ele>552</ele>
        <time>2010-01-01T00:26:44Z</time>
      </trkpt>
      <trkpt lat="42.15839" lon="2.50037">
        <ele>553</ele>
        <time>2010-01-01T00:26:48Z</time>
      </trkpt>
      <trkpt lat="42.15844" lon="2.50042">
        <ele>553</ele>
        <time>2010-01-01T00:26:50Z</time>
      </trkpt>
      <trkpt lat="42.15846" lon="2.50045">
        <ele>553</ele>
        <time>2010-01-01T00:26:51Z</time>
      </trkpt>
      <trkpt lat="42.15852" lon="2.50049">
        <ele>553</ele>
        <time>2010-01-01T00:26:54Z</time>
      </trkpt>
      <trkpt lat="42.15856" lon="2.5005">
        <ele>553</ele>
        <time>2010-01-01T00:26:55Z</time>
      </trkpt>
      <trkpt lat="42.15863" lon="2.50058">
        <ele>553</ele>
        <time>2010-01-01T00:26:59Z</time>
      </trkpt>
      <trkpt lat="42.15869" lon="2.50064">
        <ele>553</ele>
        <time>2010-01-01T00:27:02Z</time>
      </trkpt>
      <trkpt lat="42.15872" lon="2.50065">
        <ele>553</ele>
        <time>2010-01-01T00:27:03Z</time>
      </trkpt>
      <trkpt lat="42.15878" lon="2.50068">
        <ele>552</ele>
        <time>2010-01-01T00:27:06Z</time>
      </trkpt>
      <trkpt lat="42.15885" lon="2.50071">
        <ele>552</ele>
        <time>2010-01-01T00:27:09Z</time>
      </trkpt>
      <trkpt lat="42.15895" lon="2.50073">
        <ele>552</ele>
        <time>2010-01-01T00:27:13Z</time>
      </trkpt>
      <trkpt lat="42.15904" lon="2.50077">
        <ele>552</ele>
        <time>2010-01-01T00:27:17Z</time>
      </trkpt>
      <trkpt lat="42.15912" lon="2.50081">
        <ele>552</ele>
        <time>2010-01-01T00:27:20Z</time>
      </trkpt>
      <trkpt lat="42.15913" lon="2.50082">
        <ele>552</ele>
        <time>2010-01-01T00:27:21Z</time>
      </trkpt>
      <trkpt lat="42.15921" lon="2.50083">
        <ele>551</ele>
        <time>2010-01-01T00:27:24Z</time>
      </trkpt>
      <trkpt lat="42.15927" lon="2.50084">
        <ele>551</ele>
        <time>2010-01-01T00:27:26Z</time>
      </trkpt>
      <trkpt lat="42.15935" lon="2.50084">
        <ele>551</ele>
        <time>2010-01-01T00:27:29Z</time>
      </trkpt>
      <trkpt lat="42.15947" lon="2.50086">
        <ele>550</ele>
        <time>2010-01-01T00:27:34Z</time>
      </trkpt>
      <trkpt lat="42.15957" lon="2.50089">
        <ele>548</ele>
        <time>2010-01-01T00:27:38Z</time>
      </trkpt>
      <trkpt lat="42.15966" lon="2.50095">
        <ele>547</ele>
        <time>2010-01-01T00:27:42Z</time>
      </trkpt>
      <trkpt lat="42.15979" lon="2.50103">
        <ele>546</ele>
        <time>2010-01-01T00:27:48Z</time>
      </trkpt>
      <trkpt lat="42.15986" lon="2.50104">
        <ele>544</ele>
        <time>2010-01-01T00:27:51Z</time>
      </trkpt>
      <trkpt lat="42.15992" lon="2.50112">
        <ele>544</ele>
        <time>2010-01-01T00:27:54Z</time>
      </trkpt>
      <trkpt lat="42.16002" lon="2.5012">
        <ele>542</ele>
        <time>2010-01-01T00:27:59Z</time>
      </trkpt>
      <trkpt lat="42.16009" lon="2.50127">
        <ele>540</ele>
        <time>2010-01-01T00:28:02Z</time>
      </trkpt>
      <trkpt lat="42.16013" lon="2.50131">
        <ele>539</ele>
        <time>2010-01-01T00:28:04Z</time>
      </trkpt>
      <trkpt lat="42.16015" lon="2.50133">
        <ele>538</ele>
        <time>2010-01-01T00:28:05Z</time>
      </trkpt>
      <trkpt lat="42.16024" lon="2.5015">
        <ele>536</ele>
        <time>2010-01-01T00:28:12Z</time>
      </trkpt>
      <trkpt lat="42.16019" lon="2.50163">
        <ele>536</ele>
        <time>2010-01-01T00:28:16Z</time>
      </trkpt>
      <trkpt lat="42.16011" lon="2.50178">
        <ele>537</ele>
        <time>2010-01-01T00:28:22Z</time>
      </trkpt>
      <trkpt lat="42.16004" lon="2.50189">
        <ele>537</ele>
        <time>2010-01-01T00:28:26Z</time>
      </trkpt>
      <trkpt lat="42.16001" lon="2.50192">
        <ele>537</ele>
        <time>2010-01-01T00:28:27Z</time>
      </trkpt>
      <trkpt lat="42.15999" lon="2.50195">
        <ele>537</ele>
        <time>2010-01-01T00:28:29Z</time>
      </trkpt>
      <trkpt lat="42.1599" lon="2.50202">
        <ele>537</ele>
        <time>2010-01-01T00:28:33Z</time>
      </trkpt>
      <trkpt lat="42.15989" lon="2.50205">
        <ele>536</ele>
        <time>2010-01-01T00:28:34Z</time>
      </trkpt>
      <trkpt lat="42.15987" lon="2.50207">
        <ele>536</ele>
        <time>2010-01-01T00:28:35Z</time>
      </trkpt>
      <trkpt lat="42.15986" lon="2.50208">
        <ele>536</ele>
        <time>2010-01-01T00:28:35Z</time>
      </trkpt>
      <trkpt lat="42.15975" lon="2.5022">
        <ele>536</ele>
        <time>2010-01-01T00:28:41Z</time>
      </trkpt>
      <trkpt lat="42.15967" lon="2.5023">
        <ele>536</ele>
        <time>2010-01-01T00:28:45Z</time>
      </trkpt>
      <trkpt lat="42.15955" lon="2.50245">
        <ele>537</ele>
        <time>2010-01-01T00:28:52Z</time>
      </trkpt>
      <trkpt lat="42.1595" lon="2.50253">
        <ele>538</ele>
        <time>2010-01-01T00:28:55Z</time>
      </trkpt>
      <trkpt lat="42.15946" lon="2.50261">
        <ele>539</ele>
        <time>2010-01-01T00:28:58Z</time>
      </trkpt>
      <trkpt lat="42.15944" lon="2.50269">
        <ele>540</ele>
        <time>2010-01-01T00:29:00Z</time>
      </trkpt>
      <trkpt lat="42.15945" lon="2.5028">
        <ele>541</ele>
        <time>2010-01-01T00:29:03Z</time>
      </trkpt>
      <trkpt lat="42.15945" lon="2.50293">
        <ele>541</ele>
        <time>2010-01-01T00:29:07Z</time>
      </trkpt>
      <trkpt lat="42.15946" lon="2.50303">
        <ele>542</ele>
        <time>2010-01-01T00:29:10Z</time>
      </trkpt>
      <trkpt lat="42.15947" lon="2.50309">
        <ele>542</ele>
        <time>2010-01-01T00:29:12Z</time>
      </trkpt>
      <trkpt lat="42.15951" lon="2.50323">
        <ele>541</ele>
        <time>2010-01-01T00:29:16Z</time>
      </trkpt>
      <trkpt lat="42.15953" lon="2.50335">
        <ele>541</ele>
        <time>2010-01-01T00:29:20Z</time>
      </trkpt>
      <trkpt lat="42.15953" lon="2.50349">
        <ele>541</ele>
        <time>2010-01-01T00:29:24Z</time>
      </trkpt>
      <trkpt lat="42.15951" lon="2.5036">
        <ele>541</ele>
        <time>2010-01-01T00:29:28Z</time>
      </trkpt>
      <trkpt lat="42.15949" lon="2.50371">
        <ele>541</ele>
        <time>2010-01-01T00:29:31Z</time>
      </trkpt>
      <trkpt lat="42.15947" lon="2.50376">
        <ele>541</ele>
        <time>2010-01-01T00:29:33Z</time>
      </trkpt>
      <trkpt lat="42.15946" lon="2.5038">
        <ele>541</ele>
        <time>2010-01-01T00:29:34Z</time>
      </trkpt>
      <trkpt lat="42.15944" lon="2.50388">
        <ele>542</ele>
        <time>2010-01-01T00:29:36Z</time>
      </trkpt>
      <trkpt lat="42.15938" lon="2.50397">
        <ele>543</ele>
        <time>2010-01-01T00:29:40Z</time>
      </trkpt>
      <trkpt lat="42.15932" lon="2.50408">
        <ele>545</ele>
        <time>2010-01-01T00:29:44Z</time>
      </trkpt>
      <trkpt lat="42.1593" lon="2.50412">
        <ele>546</ele>
        <time>2010-01-01T00:29:46Z</time>
      </trkpt>
      <trkpt lat="42.15924" lon="2.50418">
        <ele>547</ele>
        <time>2010-01-01T00:29:49Z</time>
      </trkpt>
      <trkpt lat="42.15919" lon="2.50427">
        <ele>549</ele>
        <time>2010-01-01T00:29:52Z</time>
      </trkpt>
      <trkpt lat="42.15919" lon="2.50428">
        <ele>549</ele>
        <time>2010-01-01T00:29:52Z</time>
      </trkpt>
      <trkpt lat="42.15918" lon="2.5043">
        <ele>549</ele>
        <time>2010-01-01T00:29:53Z</time>
      </trkpt>
      <trkpt lat="42.15912" lon="2.5044">
        <ele>551</ele>
        <time>2010-01-01T00:29:57Z</time>
      </trkpt>
      <trkpt lat="42.15903" lon="2.50455">
        <ele>552</ele>
        <time>2010-01-01T00:30:02Z</time>
      </trkpt>
      <trkpt lat="42.15896" lon="2.50465">
        <ele>552</ele>
        <time>2010-01-01T00:30:06Z</time>
      </trkpt>
      <trkpt lat="42.15889" lon="2.50472">
        <ele>552</ele>
        <time>2010-01-01T00:30:10Z</time>
      </trkpt>
      <trkpt lat="42.1588" lon="2.50478">
        <ele>553</ele>
        <time>2010-01-01T00:30:14Z</time>
      </trkpt>
      <trkpt lat="42.15877" lon="2.50481">
        <ele>554</ele>
        <time>2010-01-01T00:30:16Z</time>
      </trkpt>
      <trkpt lat="42.15868" lon="2.50485">
        <ele>554</ele>
        <time>2010-01-01T00:30:19Z</time>
      </trkpt>
      <trkpt lat="42.15864" lon="2.50487">
        <ele>555</ele>
        <time>2010-01-01T00:30:21Z</time>
      </trkpt>
      <trkpt lat="42.15853" lon="2.50497">
        <ele>557</ele>
        <time>2010-01-01T00:30:26Z</time>
      </trkpt>
      <trkpt lat="42.15851" lon="2.50498">
        <ele>557</ele>
        <time>2010-01-01T00:30:27Z</time>
      </trkpt>
      <trkpt lat="42.1584" lon="2.50502">
        <ele>559</ele>
        <time>2010-01-01T00:30:32Z</time>
      </trkpt>
      <trkpt lat="42.1583" lon="2.50508">
        <ele>561</ele>
        <time>2010-01-01T00:30:36Z</time>
      </trkpt>
      <trkpt lat="42.15822" lon="2.50514">
        <ele>561</ele>
        <time>2010-01-01T00:30:40Z</time>
      </trkpt>
      <trkpt lat="42.15814" lon="2.50518">
        <ele>561</ele>
        <time>2010-01-01T00:30:43Z</time>
      </trkpt>
      <trkpt lat="42.15805" lon="2.50522">
        <ele>561</ele>
        <time>2010-01-01T00:30:47Z</time>
      </trkpt>
      <trkpt lat="42.15794" lon="2.5053">
        <ele>561</ele>
        <time>2010-01-01T00:30:52Z</time>
      </trkpt>
      <trkpt lat="42.15788" lon="2.50541">
        <ele>561</ele>
        <time>2010-01-01T00:30:56Z</time>
      </trkpt>
      <trkpt lat="42.15782" lon="2.50551">
        <ele>561</ele>
        <time>2010-01-01T00:31:00Z</time>
      </trkpt>
      <trkpt lat="42.15779" lon="2.50556">
        <ele>561</ele>
        <time>2010-01-01T00:31:02Z</time>
      </trkpt>
      <trkpt lat="42.15775" lon="2.50565">
        <ele>561</ele>
        <time>2010-01-01T00:31:05Z</time>
      </trkpt>
      <trkpt lat="42.1577" lon="2.50568">
        <ele>561</ele>
        <time>2010-01-01T00:31:07Z</time>
      </trkpt>
      <trkpt lat="42.15767" lon="2.5057">
        <ele>561</ele>
        <time>2010-01-01T00:31:08Z</time>
      </trkpt>
      <trkpt lat="42.1576" lon="2.50576">
        <ele>561</ele>
        <time>2010-01-01T00:31:11Z</time>
      </trkpt>
      <trkpt lat="42.15753" lon="2.50584">
        <ele>561</ele>
        <time>2010-01-01T00:31:15Z</time>
      </trkpt>
      <trkpt lat="42.15746" lon="2.50595">
        <ele>562</ele>
        <time>2010-01-01T00:31:20Z</time>
      </trkpt>
      <trkpt lat="42.15736" lon="2.50609">
        <ele>563</ele>
        <time>2010-01-01T00:31:25Z</time>
      </trkpt>
      <trkpt lat="42.15729" lon="2.50616">
        <ele>564</ele>
        <time>2010-01-01T00:31:29Z</time>
      </trkpt>
      <trkpt lat="42.15723" lon="2.50623">
        <ele>565</ele>
        <time>2010-01-01T00:31:32Z</time>
      </trkpt>
      <trkpt lat="42.1572" lon="2.50625">
        <ele>566</ele>
        <time>2010-01-01T00:31:33Z</time>
      </trkpt>
      <trkpt lat="42.15715" lon="2.50633">
        <ele>566</ele>
        <time>2010-01-01T00:31:37Z</time>
      </trkpt>
      <trkpt lat="42.15709" lon="2.50642">
        <ele>567</ele>
        <time>2010-01-01T00:31:40Z</time>
      </trkpt>
      <trkpt lat="42.15701" lon="2.50654">
        <ele>568</ele>
        <time>2010-01-01T00:31:45Z</time>
      </trkpt>
      <trkpt lat="42.15696" lon="2.5066">
        <ele>568</ele>
        <time>2010-01-01T00:31:48Z</time>
      </trkpt>
      <trkpt lat="42.15692" lon="2.50665">
        <ele>568</ele>
        <time>2010-01-01T00:31:50Z</time>
      </trkpt>
      <trkpt lat="42.15688" lon="2.50671">
        <ele>568</ele>
        <time>2010-01-01T00:31:52Z</time>
      </trkpt>
      <trkpt lat="42.1568" lon="2.50682">
        <ele>568</ele>
        <time>2010-01-01T00:31:57Z</time>
      </trkpt>
      <trkpt lat="42.15673" lon="2.50688">
        <ele>568</ele>
        <time>2010-01-01T00:32:00Z</time>
      </trkpt>
      <trkpt lat="42.15663" lon="2.50696">
        <ele>568</ele>
        <time>2010-01-01T00:32:05Z</time>
      </trkpt>
      <trkpt lat="42.1566" lon="2.50702">
        <ele>568</ele>
        <time>2010-01-01T00:32:07Z</time>
      </trkpt>
      <trkpt lat="42.15656" lon="2.50707">
        <ele>569</ele>
        <time>2010-01-01T00:32:09Z</time>
      </trkpt>
      <trkpt lat="42.15649" lon="2.5072">
        <ele>570</ele>
        <time>2010-01-01T00:32:14Z</time>
      </trkpt>
      <trkpt lat="42.15644" lon="2.5073">
        <ele>570</ele>
        <time>2010-01-01T00:32:17Z</time>
      </trkpt>
      <trkpt lat="42.1564" lon="2.50743">
        <ele>570</ele>
        <time>2010-01-01T00:32:21Z</time>
      </trkpt>
      <trkpt lat="42.15638" lon="2.50755">
        <ele>570</ele>
        <time>2010-01-01T00:32:25Z</time>
      </trkpt>
      <trkpt lat="42.15635" lon="2.50768">
        <ele>570</ele>
        <time>2010-01-01T00:32:29Z</time>
      </trkpt>
      <trkpt lat="42.15635" lon="2.50772">
        <ele>570</ele>
        <time>2010-01-01T00:32:30Z</time>
      </trkpt>
      <trkpt lat="42.1563" lon="2.50786">
        <ele>570</ele>
        <time>2010-01-01T00:32:35Z</time>
      </trkpt>
      <trkpt lat="42.15629" lon="2.50788">
        <ele>570</ele>
        <time>2010-01-01T00:32:35Z</time>
      </trkpt>
      <trkpt lat="42.15621" lon="2.50804">
        <ele>570</ele>
        <time>2010-01-01T00:32:41Z</time>
      </trkpt>
      <trkpt lat="42.15612" lon="2.50815">
        <ele>570</ele>
        <time>2010-01-01T00:32:46Z</time>
      </trkpt>
      <trkpt lat="42.15601" lon="2.50826">
        <ele>569</ele>
        <time>2010-01-01T00:32:52Z</time>
      </trkpt>
      <trkpt lat="42.15592" lon="2.50834">
        <ele>568</ele>
        <time>2010-01-01T00:32:56Z</time>
      </trkpt>
      <trkpt lat="42.15586" lon="2.50837">
        <ele>568</ele>
        <time>2010-01-01T00:32:58Z</time>
      </trkpt>
      <trkpt lat="42.15581" lon="2.50842">
        <ele>567</ele>
        <time>2010-01-01T00:33:01Z</time>
      </trkpt>
      <trkpt lat="42.15576" lon="2.50844">
        <ele>567</ele>
        <time>2010-01-01T00:33:03Z</time>
      </trkpt>
      <trkpt lat="42.15566" lon="2.50851">
        <ele>567</ele>
        <time>2010-01-01T00:33:08Z</time>
      </trkpt>
      <trkpt lat="42.15554" lon="2.50865">
        <ele>567</ele>
        <time>2010-01-01T00:33:14Z</time>
      </trkpt>
      <trkpt lat="42.15553" lon="2.50867">
        <ele>567</ele>
        <time>2010-01-01T00:33:15Z</time>
      </trkpt>
      <trkpt lat="42.15546" lon="2.50871">
        <ele>567</ele>
        <time>2010-01-01T00:33:18Z</time>
      </trkpt>
      <trkpt lat="42.15539" lon="2.50874">
        <ele>567</ele>
        <time>2010-01-01T00:33:21Z</time>
      </trkpt>
      <trkpt lat="42.15536" lon="2.50875">
        <ele>567</ele>
        <time>2010-01-01T00:33:22Z</time>
      </trkpt>
      <trkpt lat="42.1553" lon="2.50879">
        <ele>567</ele>
        <time>2010-01-01T00:33:24Z</time>
      </trkpt>
      <trkpt lat="42.15526" lon="2.5088">
        <ele>566</ele>
        <time>2010-01-01T00:33:26Z</time>
      </trkpt>
      <trkpt lat="42.15525" lon="2.50881">
        <ele>566</ele>
        <time>2010-01-01T00:33:27Z</time>
      </trkpt>
      <trkpt lat="42.15524" lon="2.50882">
        <ele>566</ele>
        <time>2010-01-01T00:33:27Z</time>
      </trkpt>
      <trkpt lat="42.15515" lon="2.50882">
        <ele>566</ele>
        <time>2010-01-01T00:33:30Z</time>
      </trkpt>
      <trkpt lat="42.15504" lon="2.50883">
        <ele>565</ele>
        <time>2010-01-01T00:33:35Z</time>
      </trkpt>
      <trkpt lat="42.15499" lon="2.50885">
        <ele>564</ele>
        <time>2010-01-01T00:33:37Z</time>
      </trkpt>
      <trkpt lat="42.15492" lon="2.50889">
        <ele>564</ele>
        <time>2010-01-01T00:33:40Z</time>
      </trkpt>
      <trkpt lat="42.15484" lon="2.50896">
        <ele>564</ele>
        <time>2010-01-01T00:33:44Z</time>
      </trkpt>
      <trkpt lat="42.1548" lon="2.50897">
        <ele>564</ele>
        <time>2010-01-01T00:33:46Z</time>
      </trkpt>
      <trkpt lat="42.15466" lon="2.509">
        <ele>564</ele>
        <time>2010-01-01T00:33:51Z</time>
      </trkpt>
      <trkpt lat="42.15456" lon="2.50902">
        <ele>564</ele>
        <time>2010-01-01T00:33:55Z</time>
      </trkpt>
      <trkpt lat="42.15455" lon="2.50903">
        <ele>564</ele>
        <time>2010-01-01T00:33:56Z</time>
      </trkpt>
      <trkpt lat="42.15448" lon="2.50904">
        <ele>564</ele>
        <time>2010-01-01T00:33:59Z</time>
      </trkpt>
      <trkpt lat="42.15445" lon="2.50906">
        <ele>564</ele>
        <time>2010-01-01T00:34:00Z</time>
      </trkpt>
      <trkpt lat="42.15432" lon="2.50907">
        <ele>563</ele>
        <time>2010-01-01T00:34:05Z</time>
      </trkpt>
      <trkpt lat="42.15426" lon="2.50907">
        <ele>563</ele>
        <time>2010-01-01T00:34:07Z</time>
      </trkpt>
      <trkpt lat="42.15421" lon="2.50906">
        <ele>563</ele>
        <time>2010-01-01T00:34:10Z</time>
      </trkpt>
      <trkpt lat="42.15409" lon="2.50901">
        <ele>563</ele>
        <time>2010-01-01T00:34:15Z</time>
      </trkpt>
      <trkpt lat="42.15403" lon="2.509">
        <ele>563</ele>
        <time>2010-01-01T00:34:17Z</time>
      </trkpt>
      <trkpt lat="42.154" lon="2.50899">
        <ele>563</ele>
        <time>2010-01-01T00:34:18Z</time>
      </trkpt>
      <trkpt lat="42.15395" lon="2.50898">
        <ele>563</ele>
        <time>2010-01-01T00:34:20Z</time>
      </trkpt>
      <trkpt lat="42.15385" lon="2.50895">
        <ele>563</ele>
        <time>2010-01-01T00:34:25Z</time>
      </trkpt>
      <trkpt lat="42.15374" lon="2.50897">
        <ele>563</ele>
        <time>2010-01-01T00:34:29Z</time>
      </trkpt>
      <trkpt lat="42.15363" lon="2.50904">
        <ele>563</ele>
        <time>2010-01-01T00:34:34Z</time>
      </trkpt>
      <trkpt lat="42.15353" lon="2.50915">
        <ele>562</ele>
        <time>2010-01-01T00:34:39Z</time>
      </trkpt>
      <trkpt lat="42.15346" lon="2.50921">
        <ele>561</ele>
        <time>2010-01-01T00:34:42Z</time>
      </trkpt>
      <trkpt lat="42.15339" lon="2.5093">
        <ele>561</ele>
        <time>2010-01-01T00:34:46Z</time>
      </trkpt>
      <trkpt lat="42.15333" lon="2.50936">
        <ele>560</ele>
        <time>2010-01-01T00:34:49Z</time>
      </trkpt>
      <trkpt lat="42.15325" lon="2.50942">
        <ele>559</ele>
        <time>2010-01-01T00:34:53Z</time>
      </trkpt>
      <trkpt lat="42.15319" lon="2.50955">
        <ele>559</ele>
        <time>2010-01-01T00:34:57Z</time>
      </trkpt>
      <trkpt lat="42.15316" lon="2.50963">
        <ele>560</ele>
        <time>2010-01-01T00:35:00Z</time>
      </trkpt>
      <trkpt lat="42.15311" lon="2.5097">
        <ele>560</ele>
        <time>2010-01-01T00:35:03Z</time>
      </trkpt>
      <trkpt lat="42.15304" lon="2.50981">
        <ele>561</ele>
        <time>2010-01-01T00:35:07Z</time>
      </trkpt>
      <trkpt lat="42.15301" lon="2.50988">
        <ele>563</ele>
        <time>2010-01-01T00:35:10Z</time>
      </trkpt>
      <trkpt lat="42.15295" lon="2.50997">
        <ele>564</ele>
        <time>2010-01-01T00:35:13Z</time>
      </trkpt>
      <trkpt lat="42.1529" lon="2.51009">
        <ele>565</ele>
        <time>2010-01-01T00:35:17Z</time>
      </trkpt>
      <trkpt lat="42.15285" lon="2.51024">
        <ele>566</ele>
        <time>2010-01-01T00:35:22Z</time>
      </trkpt>
      <trkpt lat="42.15279" lon="2.51035">
        <ele>566</ele>
        <time>2010-01-01T00:35:26Z</time>
      </trkpt>
      <trkpt lat="42.15278" lon="2.51039">
        <ele>566</ele>
        <time>2010-01-01T00:35:27Z</time>
      </trkpt>
      <trkpt lat="42.15269" lon="2.51048">
        <ele>566</ele>
        <time>2010-01-01T00:35:32Z</time>
      </trkpt>
      <trkpt lat="42.15267" lon="2.51049">
        <ele>566</ele>
        <time>2010-01-01T00:35:33Z</time>
      </trkpt>
      <trkpt lat="42.15254" lon="2.51057">
        <ele>566</ele>
        <time>2010-01-01T00:35:38Z</time>
      </trkpt>
      <trkpt lat="42.15246" lon="2.5106">
        <ele>567</ele>
        <time>2010-01-01T00:35:42Z</time>
      </trkpt>
      <trkpt lat="42.15234" lon="2.51066">
        <ele>568</ele>
        <time>2010-01-01T00:35:47Z</time>
      </trkpt>
      <trkpt lat="42.15223" lon="2.51071">
        <ele>569</ele>
        <time>2010-01-01T00:35:51Z</time>
      </trkpt>
      <trkpt lat="42.15215" lon="2.51076">
        <ele>570</ele>
        <time>2010-01-01T00:35:55Z</time>
      </trkpt>
      <trkpt lat="42.15214" lon="2.51076">
        <ele>570</ele>
        <time>2010-01-01T00:35:55Z</time>
      </trkpt>
      <trkpt lat="42.15216" lon="2.51077">
        <ele>570</ele>
        <time>2010-01-01T00:35:56Z</time>
      </trkpt>
      <trkpt lat="42.15208" lon="2.51084">
        <ele>570</ele>
        <time>2010-01-01T00:36:00Z</time>
      </trkpt>
      <trkpt lat="42.15199" lon="2.51089">
        <ele>570</ele>
        <time>2010-01-01T00:36:04Z</time>
      </trkpt>
      <trkpt lat="42.15189" lon="2.51093">
        <ele>571</ele>
        <time>2010-01-01T00:36:08Z</time>
      </trkpt>
      <trkpt lat="42.15181" lon="2.51098">
        <ele>571</ele>
        <time>2010-01-01T00:36:11Z</time>
      </trkpt>
      <trkpt lat="42.15174" lon="2.511">
        <ele>571</ele>
        <time>2010-01-01T00:36:14Z</time>
      </trkpt>
      <trkpt lat="42.15169" lon="2.51101">
        <ele>571</ele>
        <time>2010-01-01T00:36:16Z</time>
      </trkpt>
      <trkpt lat="42.15163" lon="2.51101">
        <ele>571</ele>
        <time>2010-01-01T00:36:19Z</time>
      </trkpt>
      <trkpt lat="42.15158" lon="2.51101">
        <ele>571</ele>
        <time>2010-01-01T00:36:21Z</time>
      </trkpt>
      <trkpt lat="42.15147" lon="2.51095">
        <ele>571</ele>
        <time>2010-01-01T00:36:25Z</time>
      </trkpt>
      <trkpt lat="42.15141" lon="2.51091">
        <ele>571</ele>
        <time>2010-01-01T00:36:28Z</time>
      </trkpt>
      <trkpt lat="42.15132" lon="2.5109">
        <ele>571</ele>
        <time>2010-01-01T00:36:32Z</time>
      </trkpt>
      <trkpt lat="42.15121" lon="2.51088">
        <ele>571</ele>
        <time>2010-01-01T00:36:36Z</time>
      </trkpt>
      <trkpt lat="42.1511" lon="2.51085">
        <ele>571</ele>
        <time>2010-01-01T00:36:41Z</time>
      </trkpt>
      <trkpt lat="42.15099" lon="2.51082">
        <ele>570</ele>
        <time>2010-01-01T00:36:45Z</time>
      </trkpt>
      <trkpt lat="42.15092" lon="2.5108">
        <ele>570</ele>
        <time>2010-01-01T00:36:48Z</time>
      </trkpt>
      <trkpt lat="42.15082" lon="2.51076">
        <ele>570</ele>
        <time>2010-01-01T00:36:52Z</time>
      </trkpt>
      <trkpt lat="42.15077" lon="2.51075">
        <ele>570</ele>
        <time>2010-01-01T00:36:54Z</time>
      </trkpt>
      <trkpt lat="42.15068" lon="2.51072">
        <ele>571</ele>
        <time>2010-01-01T00:36:58Z</time>
      </trkpt>
      <trkpt lat="42.15062" lon="2.51073">
        <ele>571</ele>
        <time>2010-01-01T00:37:00Z</time>
      </trkpt>
      <trkpt lat="42.15047" lon="2.51069">
        <ele>572</ele>
        <time>2010-01-01T00:37:06Z</time>
      </trkpt>
      <trkpt lat="42.15044" lon="2.51068">
        <ele>572</ele>
        <time>2010-01-01T00:37:08Z</time>
      </trkpt>
      <trkpt lat="42.15034" lon="2.51069">
        <ele>572</ele>
        <time>2010-01-01T00:37:11Z</time>
      </trkpt>
      <trkpt lat="42.15023" lon="2.51071">
        <ele>572</ele>
        <time>2010-01-01T00:37:16Z</time>
      </trkpt>
      <trkpt lat="42.1502" lon="2.51072">
        <ele>572</ele>
        <time>2010-01-01T00:37:17Z</time>
      </trkpt>
      <trkpt lat="42.15014" lon="2.51074">
        <ele>572</ele>
        <time>2010-01-01T00:37:20Z</time>
      </trkpt>
      <trkpt lat="42.15001" lon="2.51074">
        <ele>572</ele>
        <time>2010-01-01T00:37:25Z</time>
      </trkpt>
      <trkpt lat="42.14994" lon="2.51074">
        <ele>572</ele>
        <time>2010-01-01T00:37:28Z</time>
      </trkpt>
      <trkpt lat="42.14988" lon="2.51074">
        <ele>571</ele>
        <time>2010-01-01T00:37:30Z</time>
      </trkpt>
      <trkpt lat="42.14978" lon="2.51071">
        <ele>571</ele>
        <time>2010-01-01T00:37:34Z</time>
      </trkpt>
      <trkpt lat="42.14971" lon="2.51069">
        <ele>571</ele>
        <time>2010-01-01T00:37:37Z</time>
      </trkpt>
      <trkpt lat="42.14958" lon="2.51065">
        <ele>571</ele>
        <time>2010-01-01T00:37:43Z</time>
      </trkpt>
      <trkpt lat="42.14954" lon="2.51063">
        <ele>571</ele>
        <time>2010-01-01T00:37:44Z</time>
      </trkpt>
      <trkpt lat="42.14947" lon="2.51061">
        <ele>570</ele>
        <time>2010-01-01T00:37:47Z</time>
      </trkpt>
      <trkpt lat="42.14936" lon="2.51059">
        <ele>570</ele>
        <time>2010-01-01T00:37:51Z</time>
      </trkpt>
      <trkpt lat="42.14935" lon="2.51059">
        <ele>570</ele>
        <time>2010-01-01T00:37:52Z</time>
      </trkpt>
      <trkpt lat="42.14924" lon="2.5106">
        <ele>569</ele>
        <time>2010-01-01T00:37:56Z</time>
      </trkpt>
      <trkpt lat="42.14916" lon="2.51058">
        <ele>569</ele>
        <time>2010-01-01T00:38:00Z</time>
      </trkpt>
      <trkpt lat="42.14913" lon="2.51059">
        <ele>568</ele>
        <time>2010-01-01T00:38:01Z</time>
      </trkpt>
      <trkpt lat="42.14911" lon="2.51061">
        <ele>569</ele>
        <time>2010-01-01T00:38:02Z</time>
      </trkpt>
      <trkpt lat="42.14901" lon="2.51062">
        <ele>568</ele>
        <time>2010-01-01T00:38:06Z</time>
      </trkpt>
      <trkpt lat="42.14897" lon="2.5106">
        <ele>568</ele>
        <time>2010-01-01T00:38:08Z</time>
      </trkpt>
      <trkpt lat="42.14896" lon="2.51057">
        <ele>568</ele>
        <time>2010-01-01T00:38:09Z</time>
      </trkpt>
      <trkpt lat="42.14887" lon="2.51058">
        <ele>568</ele>
        <time>2010-01-01T00:38:12Z</time>
      </trkpt>
      <trkpt lat="42.14881" lon="2.5106">
        <ele>568</ele>
        <time>2010-01-01T00:38:15Z</time>
      </trkpt>
      <trkpt lat="42.14868" lon="2.51061">
        <ele>569</ele>
        <time>2010-01-01T00:38:20Z</time>
      </trkpt>
      <trkpt lat="42.1486" lon="2.51058">
        <ele>570</ele>
        <time>2010-01-01T00:38:23Z</time>
      </trkpt>
      <trkpt lat="42.14849" lon="2.51054">
        <ele>570</ele>
        <time>2010-01-01T00:38:28Z</time>
      </trkpt>
      <trkpt lat="42.14847" lon="2.51053">
        <ele>571</ele>
        <time>2010-01-01T00:38:29Z</time>
      </trkpt>
      <trkpt lat="42.14837" lon="2.51052">
        <ele>571</ele>
        <time>2010-01-01T00:38:33Z</time>
      </trkpt>
      <trkpt lat="42.14828" lon="2.51055">
        <ele>571</ele>
        <time>2010-01-01T00:38:37Z</time>
      </trkpt>
      <trkpt lat="42.14824" lon="2.51061">
        <ele>571</ele>
        <time>2010-01-01T00:38:39Z</time>
      </trkpt>
      <trkpt lat="42.14812" lon="2.51076">
        <ele>571</ele>
        <time>2010-01-01T00:38:45Z</time>
      </trkpt>
      <trkpt lat="42.14806" lon="2.51085">
        <ele>571</ele>
        <time>2010-01-01T00:38:49Z</time>
      </trkpt>
      <trkpt lat="42.14798" lon="2.51091">
        <ele>571</ele>
        <time>2010-01-01T00:38:53Z</time>
      </trkpt>
      <trkpt lat="42.14795" lon="2.51092">
        <ele>571</ele>
        <time>2010-01-01T00:38:54Z</time>
      </trkpt>
      <trkpt lat="42.14792" lon="2.51093">
        <ele>571</ele>
        <time>2010-01-01T00:38:55Z</time>
      </trkpt>
      <trkpt lat="42.14783" lon="2.51097">
        <ele>571</ele>
        <time>2010-01-01T00:38:59Z</time>
      </trkpt>
      <trkpt lat="42.14781" lon="2.51098">
        <ele>571</ele>
        <time>2010-01-01T00:39:00Z</time>
      </trkpt>
      <trkpt lat="42.14774" lon="2.51104">
        <ele>570</ele>
        <time>2010-01-01T00:39:03Z</time>
      </trkpt>
      <trkpt lat="42.14773" lon="2.51104">
        <ele>570</ele>
        <time>2010-01-01T00:39:04Z</time>
      </trkpt>
      <trkpt lat="42.14767" lon="2.51108">
        <ele>569</ele>
        <time>2010-01-01T00:39:06Z</time>
      </trkpt>
      <trkpt lat="42.1476" lon="2.51111">
        <ele>568</ele>
        <time>2010-01-01T00:39:09Z</time>
      </trkpt>
      <trkpt lat="42.14751" lon="2.5112">
        <ele>567</ele>
        <time>2010-01-01T00:39:14Z</time>
      </trkpt>
      <trkpt lat="42.14745" lon="2.51124">
        <ele>566</ele>
        <time>2010-01-01T00:39:16Z</time>
      </trkpt>
      <trkpt lat="42.14735" lon="2.51128">
        <ele>565</ele>
        <time>2010-01-01T00:39:21Z</time>
      </trkpt>
      <trkpt lat="42.14729" lon="2.51129">
        <ele>564</ele>
        <time>2010-01-01T00:39:23Z</time>
      </trkpt>
      <trkpt lat="42.14724" lon="2.51132">
        <ele>563</ele>
        <time>2010-01-01T00:39:25Z</time>
      </trkpt>
      <trkpt lat="42.14714" lon="2.5114">
        <ele>564</ele>
        <time>2010-01-01T00:39:30Z</time>
      </trkpt>
      <trkpt lat="42.14708" lon="2.51144">
        <ele>564</ele>
        <time>2010-01-01T00:39:32Z</time>
      </trkpt>
      <trkpt lat="42.14704" lon="2.51146">
        <ele>565</ele>
        <time>2010-01-01T00:39:34Z</time>
      </trkpt>
      <trkpt lat="42.14695" lon="2.51151">
        <ele>565</ele>
        <time>2010-01-01T00:39:38Z</time>
      </trkpt>
      <trkpt lat="42.14688" lon="2.51155">
        <ele>566</ele>
        <time>2010-01-01T00:39:41Z</time>
      </trkpt>
      <trkpt lat="42.14682" lon="2.51157">
        <ele>567</ele>
        <time>2010-01-01T00:39:44Z</time>
      </trkpt>
      <trkpt lat="42.14674" lon="2.51159">
        <ele>567</ele>
        <time>2010-01-01T00:39:47Z</time>
      </trkpt>
      <trkpt lat="42.14669" lon="2.5116">
        <ele>568</ele>
        <time>2010-01-01T00:39:49Z</time>
      </trkpt>
      <trkpt lat="42.1466" lon="2.51156">
        <ele>568</ele>
        <time>2010-01-01T00:39:53Z</time>
      </trkpt>
      <trkpt lat="42.14651" lon="2.51152">
        <ele>568</ele>
        <time>2010-01-01T00:39:57Z</time>
      </trkpt>
      <trkpt lat="42.14645" lon="2.51148">
        <ele>568</ele>
        <time>2010-01-01T00:39:59Z</time>
      </trkpt>
      <trkpt lat="42.14635" lon="2.51141">
        <ele>568</ele>
        <time>2010-01-01T00:40:04Z</time>
      </trkpt>
      <trkpt lat="42.14634" lon="2.51139">
        <ele>568</ele>
        <time>2010-01-01T00:40:04Z</time>
      </trkpt>
      <trkpt lat="42.14632" lon="2.51138">
        <ele>568</ele>
        <time>2010-01-01T00:40:05Z</time>
      </trkpt>
      <trkpt lat="42.14626" lon="2.51135">
        <ele>569</ele>
        <time>2010-01-01T00:40:08Z</time>
      </trkpt>
      <trkpt lat="42.14623" lon="2.51133">
        <ele>569</ele>
        <time>2010-01-01T00:40:09Z</time>
      </trkpt>
      <trkpt lat="42.14613" lon="2.51124">
        <ele>568</ele>
        <time>2010-01-01T00:40:14Z</time>
      </trkpt>
      <trkpt lat="42.14603" lon="2.51115">
        <ele>568</ele>
        <time>2010-01-01T00:40:19Z</time>
      </trkpt>
      <trkpt lat="42.14596" lon="2.51108">
        <ele>568</ele>
        <time>2010-01-01T00:40:22Z</time>
      </trkpt>
      <trkpt lat="42.14584" lon="2.51099">
        <ele>569</ele>
        <time>2010-01-01T00:40:28Z</time>
      </trkpt>
      <trkpt lat="42.14575" lon="2.5109">
        <ele>568</ele>
        <time>2010-01-01T00:40:32Z</time>
      </trkpt>
      <trkpt lat="42.14567" lon="2.51083">
        <ele>568</ele>
        <time>2010-01-01T00:40:36Z</time>
      </trkpt>
      <trkpt lat="42.14558" lon="2.51076">
        <ele>569</ele>
        <time>2010-01-01T00:40:40Z</time>
      </trkpt>
      <trkpt lat="42.14556" lon="2.51074">
        <ele>569</ele>
        <time>2010-01-01T00:40:41Z</time>
      </trkpt>
      <trkpt lat="42.14549" lon="2.51065">
        <ele>567</ele>
        <time>2010-01-01T00:40:45Z</time>
      </trkpt>
      <trkpt lat="42.14541" lon="2.51054">
        <ele>565</ele>
        <time>2010-01-01T00:40:50Z</time>
      </trkpt>
      <trkpt lat="42.14533" lon="2.51046">
        <ele>564</ele>
        <time>2010-01-01T00:40:54Z</time>
      </trkpt>
      <trkpt lat="42.14524" lon="2.51049">
        <ele>564</ele>
        <time>2010-01-01T00:40:57Z</time>
      </trkpt>
      <trkpt lat="42.14514" lon="2.51058">
        <ele>564</ele>
        <time>2010-01-01T00:41:02Z</time>
      </trkpt>
      <trkpt lat="42.14513" lon="2.51059">
        <ele>564</ele>
        <time>2010-01-01T00:41:03Z</time>
      </trkpt>
      <trkpt lat="42.14508" lon="2.51065">
        <ele>564</ele>
        <time>2010-01-01T00:41:05Z</time>
      </trkpt>
      <trkpt lat="42.14504" lon="2.51071">
        <ele>565</ele>
        <time>2010-01-01T00:41:08Z</time>
      </trkpt>
      <trkpt lat="42.14502" lon="2.51073">
        <ele>565</ele>
        <time>2010-01-01T00:41:09Z</time>
      </trkpt>
      <trkpt lat="42.14492" lon="2.51085">
        <ele>566</ele>
        <time>2010-01-01T00:41:14Z</time>
      </trkpt>
      <trkpt lat="42.14491" lon="2.51087">
        <ele>566</ele>
        <time>2010-01-01T00:41:15Z</time>
      </trkpt>
      <trkpt lat="42.14487" lon="2.51087">
        <ele>565</ele>
        <time>2010-01-01T00:41:16Z</time>
      </trkpt>
      <trkpt lat="42.14487" lon="2.51087">
        <ele>565</ele>
        <time>2010-01-01T00:41:16Z</time>
      </trkpt>
      <trkpt lat="42.14486" lon="2.51088">
        <ele>565</ele>
        <time>2010-01-01T00:41:17Z</time>
      </trkpt>
      <trkpt lat="42.14475" lon="2.51096">
        <ele>564</ele>
        <time>2010-01-01T00:41:22Z</time>
      </trkpt>
      <trkpt lat="42.14465" lon="2.51105">
        <ele>563</ele>
        <time>2010-01-01T00:41:27Z</time>
      </trkpt>
      <trkpt lat="42.14458" lon="2.51116">
        <ele>564</ele>
        <time>2010-01-01T00:41:31Z</time>
      </trkpt>
      <trkpt lat="42.14448" lon="2.51127">
        <ele>564</ele>
        <time>2010-01-01T00:41:36Z</time>
      </trkpt>
      <trkpt lat="42.14435" lon="2.51131">
        <ele>564</ele>
        <time>2010-01-01T00:41:41Z</time>
      </trkpt>
      <trkpt lat="42.14423" lon="2.51133">
        <ele>564</ele>
        <time>2010-01-01T00:41:46Z</time>
      </trkpt>
      <trkpt lat="42.14415" lon="2.51136">
        <ele>564</ele>
        <time>2010-01-01T00:41:49Z</time>
      </trkpt>
      <trkpt lat="42.14407" lon="2.51142">
        <ele>564</ele>
        <time>2010-01-01T00:41:53Z</time>
      </trkpt>
      <trkpt lat="42.14404" lon="2.51141">
        <ele>564</ele>
        <time>2010-01-01T00:41:54Z</time>
      </trkpt>
      <trkpt lat="42.14395" lon="2.51152">
        <ele>565</ele>
        <time>2010-01-01T00:41:59Z</time>
      </trkpt>
      <trkpt lat="42.14392" lon="2.51169">
        <ele>567</ele>
        <time>2010-01-01T00:42:05Z</time>
      </trkpt>
      <trkpt lat="42.14388" lon="2.51188">
        <ele>569</ele>
        <time>2010-01-01T00:42:11Z</time>
      </trkpt>
      <trkpt lat="42.14384" lon="2.51204">
        <ele>570</ele>
        <time>2010-01-01T00:42:15Z</time>
      </trkpt>
      <trkpt lat="42.14383" lon="2.5121">
        <ele>571</ele>
        <time>2010-01-01T00:42:17Z</time>
      </trkpt>
      <trkpt lat="42.14383" lon="2.51211">
        <ele>571</ele>
        <time>2010-01-01T00:42:18Z</time>
      </trkpt>
      <trkpt lat="42.14382" lon="2.51213">
        <ele>571</ele>
        <time>2010-01-01T00:42:18Z</time>
      </trkpt>
      <trkpt lat="42.14383" lon="2.51216">
        <ele>571</ele>
        <time>2010-01-01T00:42:19Z</time>
      </trkpt>
      <trkpt lat="42.14381" lon="2.51231">
        <ele>573</ele>
        <time>2010-01-01T00:42:24Z</time>
      </trkpt>
      <trkpt lat="42.14381" lon="2.51233">
        <ele>573</ele>
        <time>2010-01-01T00:42:24Z</time>
      </trkpt>
      <trkpt lat="42.14381" lon="2.51237">
        <ele>574</ele>
        <time>2010-01-01T00:42:25Z</time>
      </trkpt>
      <trkpt lat="42.14381" lon="2.51238">
        <ele>574</ele>
        <time>2010-01-01T00:42:26Z</time>
      </trkpt>
      <trkpt lat="42.14386" lon="2.51253">
        <ele>577</ele>
        <time>2010-01-01T00:42:31Z</time>
      </trkpt>
      <trkpt lat="42.14395" lon="2.51254">
        <ele>577</ele>
        <time>2010-01-01T00:42:35Z</time>
      </trkpt>
      <trkpt lat="42.14403" lon="2.51254">
        <ele>577</ele>
        <time>2010-01-01T00:42:38Z</time>
      </trkpt>
      <trkpt lat="42.14413" lon="2.51255">
        <ele>577</ele>
        <time>2010-01-01T00:42:42Z</time>
      </trkpt>
      <trkpt lat="42.14423" lon="2.51267">
        <ele>579</ele>
        <time>2010-01-01T00:42:47Z</time>
      </trkpt>
      <trkpt lat="42.14429" lon="2.51276">
        <ele>581</ele>
        <time>2010-01-01T00:42:51Z</time>
      </trkpt>
      <trkpt lat="42.14428" lon="2.5129">
        <ele>583</ele>
        <time>2010-01-01T00:42:55Z</time>
      </trkpt>
      <trkpt lat="42.14427" lon="2.51296">
        <ele>583</ele>
        <time>2010-01-01T00:42:57Z</time>
      </trkpt>
      <trkpt lat="42.14425" lon="2.51306">
        <ele>585</ele>
        <time>2010-01-01T00:43:00Z</time>
      </trkpt>
      <trkpt lat="42.14427" lon="2.51318">
        <ele>586</ele>
        <time>2010-01-01T00:43:03Z</time>
      </trkpt>
      <trkpt lat="42.14423" lon="2.51331">
        <ele>587</ele>
        <time>2010-01-01T00:43:08Z</time>
      </trkpt>
      <trkpt lat="42.1442" lon="2.51339">
        <ele>587</ele>
        <time>2010-01-01T00:43:10Z</time>
      </trkpt>
      <trkpt lat="42.14419" lon="2.51342">
        <ele>587</ele>
        <time>2010-01-01T00:43:11Z</time>
      </trkpt>
      <trkpt lat="42.14416" lon="2.51356">
        <ele>587</ele>
        <time>2010-01-01T00:43:15Z</time>
      </trkpt>
      <trkpt lat="42.1441" lon="2.51366">
        <ele>587</ele>
        <time>2010-01-01T00:43:19Z</time>
      </trkpt>
      <trkpt lat="42.14408" lon="2.51369">
        <ele>587</ele>
        <time>2010-01-01T00:43:20Z</time>
      </trkpt>
      <trkpt lat="42.14403" lon="2.51378">
        <ele>587</ele>
        <time>2010-01-01T00:43:24Z</time>
      </trkpt>
      <trkpt lat="42.14401" lon="2.51381">
        <ele>587</ele>
        <time>2010-01-01T00:43:25Z</time>
      </trkpt>
      <trkpt lat="42.14395" lon="2.51397">
        <ele>587</ele>
        <time>2010-01-01T00:43:30Z</time>
      </trkpt>
      <trkpt lat="42.14395" lon="2.514">
        <ele>587</ele>
        <time>2010-01-01T00:43:31Z</time>
      </trkpt>
      <trkpt lat="42.14396" lon="2.51413">
        <ele>588</ele>
        <time>2010-01-01T00:43:35Z</time>
      </trkpt>
      <trkpt lat="42.14396" lon="2.51416">
        <ele>588</ele>
        <time>2010-01-01T00:43:36Z</time>
      </trkpt>
      <trkpt lat="42.14397" lon="2.51432">
        <ele>588</ele>
        <time>2010-01-01T00:43:41Z</time>
      </trkpt>
      <trkpt lat="42.14398" lon="2.51437">
        <ele>589</ele>
        <time>2010-01-01T00:43:42Z</time>
      </trkpt>
      <trkpt lat="42.14397" lon="2.5145">
        <ele>589</ele>
        <time>2010-01-01T00:43:46Z</time>
      </trkpt>
      <trkpt lat="42.14395" lon="2.51453">
        <ele>589</ele>
        <time>2010-01-01T00:43:47Z</time>
      </trkpt>
      <trkpt lat="42.14395" lon="2.5147">
        <ele>589</ele>
        <time>2010-01-01T00:43:52Z</time>
      </trkpt>
      <trkpt lat="42.14392" lon="2.51484">
        <ele>589</ele>
        <time>2010-01-01T00:43:57Z</time>
      </trkpt>
      <trkpt lat="42.14392" lon="2.51487">
        <ele>589</ele>
        <time>2010-01-01T00:43:57Z</time>
      </trkpt>
      <trkpt lat="42.14392" lon="2.51491">
        <ele>589</ele>
        <time>2010-01-01T00:43:59Z</time>
      </trkpt>
      <trkpt lat="42.14389" lon="2.51504">
        <ele>589</ele>
        <time>2010-01-01T00:44:03Z</time>
      </trkpt>
      <trkpt lat="42.14387" lon="2.51518">
        <ele>588</ele>
        <time>2010-01-01T00:44:07Z</time>
      </trkpt>
      <trkpt lat="42.14385" lon="2.51524">
        <ele>588</ele>
        <time>2010-01-01T00:44:09Z</time>
      </trkpt>
      <trkpt lat="42.14384" lon="2.5153">
        <ele>588</ele>
        <time>2010-01-01T00:44:11Z</time>
      </trkpt>
      <trkpt lat="42.14384" lon="2.51534">
        <ele>587</ele>
        <time>2010-01-01T00:44:12Z</time>
      </trkpt>
      <trkpt lat="42.14386" lon="2.51545">
        <ele>587</ele>
        <time>2010-01-01T00:44:15Z</time>
      </trkpt>
      <trkpt lat="42.1439" lon="2.51554">
        <ele>588</ele>
        <time>2010-01-01T00:44:18Z</time>
      </trkpt>
      <trkpt lat="42.14392" lon="2.51561">
        <ele>588</ele>
        <time>2010-01-01T00:44:21Z</time>
      </trkpt>
      <trkpt lat="42.14392" lon="2.51564">
        <ele>587</ele>
        <time>2010-01-01T00:44:22Z</time>
      </trkpt>
      <trkpt lat="42.14395" lon="2.51571">
        <ele>587</ele>
        <time>2010-01-01T00:44:24Z</time>
      </trkpt>
      <trkpt lat="42.14399" lon="2.51581">
        <ele>587</ele>
        <time>2010-01-01T00:44:27Z</time>
      </trkpt>
      <trkpt lat="42.144" lon="2.51583">
        <ele>587</ele>
        <time>2010-01-01T00:44:28Z</time>
      </trkpt>
      <trkpt lat="42.14397" lon="2.51586">
        <ele>587</ele>
        <time>2010-01-01T00:44:29Z</time>
      </trkpt>
      <trkpt lat="42.14394" lon="2.51587">
        <ele>587</ele>
        <time>2010-01-01T00:44:30Z</time>
      </trkpt>
      <trkpt lat="42.14387" lon="2.51588">
        <ele>586</ele>
        <time>2010-01-01T00:44:33Z</time>
      </trkpt>
      <trkpt lat="42.14376" lon="2.51591">
        <ele>585</ele>
        <time>2010-01-01T00:44:38Z</time>
      </trkpt>
      <trkpt lat="42.14367" lon="2.51591">
        <ele>585</ele>
        <time>2010-01-01T00:44:42Z</time>
      </trkpt>
      <trkpt lat="42.14356" lon="2.5159">
        <ele>584</ele>
        <time>2010-01-01T00:44:46Z</time>
      </trkpt>
      <trkpt lat="42.14346" lon="2.51592">
        <ele>583</ele>
        <time>2010-01-01T00:44:50Z</time>
      </trkpt>
      <trkpt lat="42.14343" lon="2.51591">
        <ele>583</ele>
        <time>2010-01-01T00:44:51Z</time>
      </trkpt>
      <trkpt lat="42.14333" lon="2.51587">
        <ele>583</ele>
        <time>2010-01-01T00:44:55Z</time>
      </trkpt>
      <trkpt lat="42.14332" lon="2.51586">
        <ele>583</ele>
        <time>2010-01-01T00:44:56Z</time>
      </trkpt>
      <trkpt lat="42.14322" lon="2.51579">
        <ele>582</ele>
        <time>2010-01-01T00:45:00Z</time>
      </trkpt>
      <trkpt lat="42.14317" lon="2.51576">
        <ele>582</ele>
        <time>2010-01-01T00:45:03Z</time>
      </trkpt>
      <trkpt lat="42.14308" lon="2.5157">
        <ele>581</ele>
        <time>2010-01-01T00:45:07Z</time>
      </trkpt>
      <trkpt lat="42.14304" lon="2.51567">
        <ele>581</ele>
        <time>2010-01-01T00:45:09Z</time>
      </trkpt>
      <trkpt lat="42.14298" lon="2.51564">
        <ele>581</ele>
        <time>2010-01-01T00:45:11Z</time>
      </trkpt>
      <trkpt lat="42.14291" lon="2.51562">
        <ele>581</ele>
        <time>2010-01-01T00:45:14Z</time>
      </trkpt>
      <trkpt lat="42.14281" lon="2.5156">
        <ele>581</ele>
        <time>2010-01-01T00:45:18Z</time>
      </trkpt>
      <trkpt lat="42.14279" lon="2.5156">
        <ele>581</ele>
        <time>2010-01-01T00:45:19Z</time>
      </trkpt>
      <trkpt lat="42.14275" lon="2.51561">
        <ele>581</ele>
        <time>2010-01-01T00:45:20Z</time>
      </trkpt>
      <trkpt lat="42.14264" lon="2.51563">
        <ele>580</ele>
        <time>2010-01-01T00:45:25Z</time>
      </trkpt>
      <trkpt lat="42.14254" lon="2.5156">
        <ele>580</ele>
        <time>2010-01-01T00:45:29Z</time>
      </trkpt>
      <trkpt lat="42.14244" lon="2.51558">
        <ele>580</ele>
        <time>2010-01-01T00:45:33Z</time>
      </trkpt>
      <trkpt lat="42.14236" lon="2.51564">
        <ele>579</ele>
        <time>2010-01-01T00:45:37Z</time>
      </trkpt>
      <trkpt lat="42.14229" lon="2.51569">
        <ele>579</ele>
        <time>2010-01-01T00:45:40Z</time>
      </trkpt>
      <trkpt lat="42.14226" lon="2.51572">
        <ele>579</ele>
        <time>2010-01-01T00:45:41Z</time>
      </trkpt>
      <trkpt lat="42.14219" lon="2.51578">
        <ele>579</ele>
        <time>2010-01-01T00:45:44Z</time>
      </trkpt>
      <trkpt lat="42.14217" lon="2.51578">
        <ele>579</ele>
        <time>2010-01-01T00:45:46Z</time>
      </trkpt>
      <trkpt lat="42.14208" lon="2.51586">
        <ele>578</ele>
        <time>2010-01-01T00:45:50Z</time>
      </trkpt>
      <trkpt lat="42.14205" lon="2.51588">
        <ele>578</ele>
        <time>2010-01-01T00:45:51Z</time>
      </trkpt>
      <trkpt lat="42.14201" lon="2.51588">
        <ele>578</ele>
        <time>2010-01-01T00:45:53Z</time>
      </trkpt>
      <trkpt lat="42.14193" lon="2.51592">
        <ele>578</ele>
        <time>2010-01-01T00:45:56Z</time>
      </trkpt>
      <trkpt lat="42.14192" lon="2.51593">
        <ele>578</ele>
        <time>2010-01-01T00:45:57Z</time>
      </trkpt>
      <trkpt lat="42.14181" lon="2.51596">
        <ele>578</ele>
        <time>2010-01-01T00:46:01Z</time>
      </trkpt>
      <trkpt lat="42.14173" lon="2.51599">
        <ele>578</ele>
        <time>2010-01-01T00:46:04Z</time>
      </trkpt>
      <trkpt lat="42.14163" lon="2.51608">
        <ele>577</ele>
        <time>2010-01-01T00:46:09Z</time>
      </trkpt>
      <trkpt lat="42.14157" lon="2.51612">
        <ele>577</ele>
        <time>2010-01-01T00:46:12Z</time>
      </trkpt>
      <trkpt lat="42.14151" lon="2.51617">
        <ele>577</ele>
        <time>2010-01-01T00:46:15Z</time>
      </trkpt>
      <trkpt lat="42.14143" lon="2.51621">
        <ele>577</ele>
        <time>2010-01-01T00:46:18Z</time>
      </trkpt>
      <trkpt lat="42.14136" lon="2.51626">
        <ele>577</ele>
        <time>2010-01-01T00:46:21Z</time>
      </trkpt>
      <trkpt lat="42.14133" lon="2.51629">
        <ele>577</ele>
        <time>2010-01-01T00:46:23Z</time>
      </trkpt>
      <trkpt lat="42.14126" lon="2.51644">
        <ele>576</ele>
        <time>2010-01-01T00:46:28Z</time>
      </trkpt>
      <trkpt lat="42.14125" lon="2.51646">
        <ele>576</ele>
        <time>2010-01-01T00:46:29Z</time>
      </trkpt>
      <trkpt lat="42.14123" lon="2.5165">
        <ele>576</ele>
        <time>2010-01-01T00:46:30Z</time>
      </trkpt>
      <trkpt lat="42.14115" lon="2.51658">
        <ele>576</ele>
        <time>2010-01-01T00:46:34Z</time>
      </trkpt>
      <trkpt lat="42.14108" lon="2.51671">
        <ele>575</ele>
        <time>2010-01-01T00:46:39Z</time>
      </trkpt>
      <trkpt lat="42.14104" lon="2.5168">
        <ele>575</ele>
        <time>2010-01-01T00:46:42Z</time>
      </trkpt>
      <trkpt lat="42.14099" lon="2.51688">
        <ele>575</ele>
        <time>2010-01-01T00:46:45Z</time>
      </trkpt>
      <trkpt lat="42.14095" lon="2.51696">
        <ele>575</ele>
        <time>2010-01-01T00:46:48Z</time>
      </trkpt>
      <trkpt lat="42.1409" lon="2.51704">
        <ele>575</ele>
        <time>2010-01-01T00:46:51Z</time>
      </trkpt>
      <trkpt lat="42.14085" lon="2.51712">
        <ele>576</ele>
        <time>2010-01-01T00:46:54Z</time>
      </trkpt>
      <trkpt lat="42.14081" lon="2.5172">
        <ele>576</ele>
        <time>2010-01-01T00:46:57Z</time>
      </trkpt>
      <trkpt lat="42.14075" lon="2.51725">
        <ele>576</ele>
        <time>2010-01-01T00:47:00Z</time>
      </trkpt>
      <trkpt lat="42.14071" lon="2.51732">
        <ele>576</ele>
        <time>2010-01-01T00:47:03Z</time>
      </trkpt>
      <trkpt lat="42.14068" lon="2.51736">
        <ele>576</ele>
        <time>2010-01-01T00:47:04Z</time>
      </trkpt>
      <trkpt lat="42.14059" lon="2.5175">
        <ele>576</ele>
        <time>2010-01-01T00:47:10Z</time>
      </trkpt>
      <trkpt lat="42.14048" lon="2.5176">
        <ele>576</ele>
        <time>2010-01-01T00:47:15Z</time>
      </trkpt>
      <trkpt lat="42.14037" lon="2.51767">
        <ele>577</ele>
        <time>2010-01-01T00:47:20Z</time>
      </trkpt>
      <trkpt lat="42.14032" lon="2.51776">
        <ele>576</ele>
        <time>2010-01-01T00:47:23Z</time>
      </trkpt>
      <trkpt lat="42.14029" lon="2.51779">
        <ele>576</ele>
        <time>2010-01-01T00:47:24Z</time>
      </trkpt>
      <trkpt lat="42.14024" lon="2.51785">
        <ele>576</ele>
        <time>2010-01-01T00:47:27Z</time>
      </trkpt>
      <trkpt lat="42.1402" lon="2.51789">
        <ele>576</ele>
        <time>2010-01-01T00:47:29Z</time>
      </trkpt>
      <trkpt lat="42.14012" lon="2.51798">
        <ele>576</ele>
        <time>2010-01-01T00:47:33Z</time>
      </trkpt>
      <trkpt lat="42.13997" lon="2.5182">
        <ele>577</ele>
        <time>2010-01-01T00:47:42Z</time>
      </trkpt>
      <trkpt lat="42.13988" lon="2.51833">
        <ele>576</ele>
        <time>2010-01-01T00:47:47Z</time>
      </trkpt>
      <trkpt lat="42.13975" lon="2.51848">
        <ele>575</ele>
        <time>2010-01-01T00:47:54Z</time>
      </trkpt>
      <trkpt lat="42.13967" lon="2.51862">
        <ele>575</ele>
        <time>2010-01-01T00:48:00Z</time>
      </trkpt>
      <trkpt lat="42.1396" lon="2.5188">
        <ele>574</ele>
        <time>2010-01-01T00:48:06Z</time>
      </trkpt>
      <trkpt lat="42.13958" lon="2.51888">
        <ele>574</ele>
        <time>2010-01-01T00:48:08Z</time>
      </trkpt>
      <trkpt lat="42.13957" lon="2.51897">
        <ele>574</ele>
        <time>2010-01-01T00:48:11Z</time>
      </trkpt>
      <trkpt lat="42.13955" lon="2.51906">
        <ele>574</ele>
        <time>2010-01-01T00:48:14Z</time>
      </trkpt>
      <trkpt lat="42.13952" lon="2.51913">
        <ele>573</ele>
        <time>2010-01-01T00:48:16Z</time>
      </trkpt>
      <trkpt lat="42.13953" lon="2.51928">
        <ele>573</ele>
        <time>2010-01-01T00:48:20Z</time>
      </trkpt>
      <trkpt lat="42.13954" lon="2.51941">
        <ele>573</ele>
        <time>2010-01-01T00:48:24Z</time>
      </trkpt>
      <trkpt lat="42.13955" lon="2.51952">
        <ele>573</ele>
        <time>2010-01-01T00:48:28Z</time>
      </trkpt>
      <trkpt lat="42.13954" lon="2.51953">
        <ele>573</ele>
        <time>2010-01-01T00:48:28Z</time>
      </trkpt>
      <trkpt lat="42.13954" lon="2.51954">
        <ele>573</ele>
        <time>2010-01-01T00:48:28Z</time>
      </trkpt>
      <trkpt lat="42.13959" lon="2.51962">
        <ele>573</ele>
        <time>2010-01-01T00:48:31Z</time>
      </trkpt>
      <trkpt lat="42.13969" lon="2.51962">
        <ele>573</ele>
        <time>2010-01-01T00:48:35Z</time>
      </trkpt>
      <trkpt lat="42.13976" lon="2.51952">
        <ele>573</ele>
        <time>2010-01-01T00:48:40Z</time>
      </trkpt>
      <trkpt lat="42.13978" lon="2.51948">
        <ele>573</ele>
        <time>2010-01-01T00:48:41Z</time>
      </trkpt>
      <trkpt lat="42.13983" lon="2.51934">
        <ele>573</ele>
        <time>2010-01-01T00:48:46Z</time>
      </trkpt>
      <trkpt lat="42.13995" lon="2.51917">
        <ele>574</ele>
        <time>2010-01-01T00:48:53Z</time>
      </trkpt>
      <trkpt lat="42.14008" lon="2.51909">
        <ele>575</ele>
        <time>2010-01-01T00:48:58Z</time>
      </trkpt>
      <trkpt lat="42.14022" lon="2.51904">
        <ele>575</ele>
        <time>2010-01-01T00:49:04Z</time>
      </trkpt>
      <trkpt lat="42.14033" lon="2.51902">
        <ele>576</ele>
        <time>2010-01-01T00:49:09Z</time>
      </trkpt>
      <trkpt lat="42.14043" lon="2.51906">
        <ele>576</ele>
        <time>2010-01-01T00:49:13Z</time>
      </trkpt>
      <trkpt lat="42.14052" lon="2.51915">
        <ele>576</ele>
        <time>2010-01-01T00:49:17Z</time>
      </trkpt>
      <trkpt lat="42.14063" lon="2.51923">
        <ele>577</ele>
        <time>2010-01-01T00:49:22Z</time>
      </trkpt>
      <trkpt lat="42.14073" lon="2.5193">
        <ele>577</ele>
        <time>2010-01-01T00:49:27Z</time>
      </trkpt>
      <trkpt lat="42.14091" lon="2.51939">
        <ele>578</ele>
        <time>2010-01-01T00:49:34Z</time>
      </trkpt>
      <trkpt lat="42.14108" lon="2.51941">
        <ele>578</ele>
        <time>2010-01-01T00:49:41Z</time>
      </trkpt>
      <trkpt lat="42.14126" lon="2.51949">
        <ele>579</ele>
        <time>2010-01-01T00:49:49Z</time>
      </trkpt>
      <trkpt lat="42.14137" lon="2.51957">
        <ele>579</ele>
        <time>2010-01-01T00:49:54Z</time>
      </trkpt>
      <trkpt lat="42.14145" lon="2.51967">
        <ele>579</ele>
        <time>2010-01-01T00:49:58Z</time>
      </trkpt>
      <trkpt lat="42.14148" lon="2.51972">
        <ele>580</ele>
        <time>2010-01-01T00:50:00Z</time>
      </trkpt>
      <trkpt lat="42.14152" lon="2.51975">
        <ele>580</ele>
        <time>2010-01-01T00:50:02Z</time>
      </trkpt>
      <trkpt lat="42.1416" lon="2.5199">
        <ele>581</ele>
        <time>2010-01-01T00:50:07Z</time>
      </trkpt>
      <trkpt lat="42.14156" lon="2.51995">
        <ele>581</ele>
        <time>2010-01-01T00:50:10Z</time>
      </trkpt>
      <trkpt lat="42.14143" lon="2.52005">
        <ele>581</ele>
        <time>2010-01-01T00:50:15Z</time>
      </trkpt>
      <trkpt lat="42.14131" lon="2.52015">
        <ele>581</ele>
        <time>2010-01-01T00:50:21Z</time>
      </trkpt>
      <trkpt lat="42.14115" lon="2.52024">
        <ele>581</ele>
        <time>2010-01-01T00:50:28Z</time>
      </trkpt>
      <trkpt lat="42.14099" lon="2.52031">
        <ele>580</ele>
        <time>2010-01-01T00:50:35Z</time>
      </trkpt>
      <trkpt lat="42.14085" lon="2.52034">
        <ele>579</ele>
        <time>2010-01-01T00:50:40Z</time>
      </trkpt>
      <trkpt lat="42.14069" lon="2.52043">
        <ele>578</ele>
        <time>2010-01-01T00:50:48Z</time>
      </trkpt>
      <trkpt lat="42.14057" lon="2.52053">
        <ele>577</ele>
        <time>2010-01-01T00:50:53Z</time>
      </trkpt>
      <trkpt lat="42.14051" lon="2.52059">
        <ele>578</ele>
        <time>2010-01-01T00:50:56Z</time>
      </trkpt>
      <trkpt lat="42.14037" lon="2.52073">
        <ele>578</ele>
        <time>2010-01-01T00:51:03Z</time>
      </trkpt>
      <trkpt lat="42.1403" lon="2.52081">
        <ele>578</ele>
        <time>2010-01-01T00:51:07Z</time>
      </trkpt>
      <trkpt lat="42.14025" lon="2.52091">
        <ele>577</ele>
        <time>2010-01-01T00:51:10Z</time>
      </trkpt>
      <trkpt lat="42.14023" lon="2.52097">
        <ele>577</ele>
        <time>2010-01-01T00:51:12Z</time>
      </trkpt>
      <trkpt lat="42.14022" lon="2.52101">
        <ele>577</ele>
        <time>2010-01-01T00:51:13Z</time>
      </trkpt>
      <trkpt lat="42.14021" lon="2.52102">
        <ele>577</ele>
        <time>2010-01-01T00:51:14Z</time>
      </trkpt>
      <trkpt lat="42.14019" lon="2.52119">
        <ele>576</ele>
        <time>2010-01-01T00:51:19Z</time>
      </trkpt>
      <trkpt lat="42.1402" lon="2.52135">
        <ele>575</ele>
        <time>2010-01-01T00:51:24Z</time>
      </trkpt>
      <trkpt lat="42.14026" lon="2.52155">
        <ele>573</ele>
        <time>2010-01-01T00:51:30Z</time>
      </trkpt>
      <trkpt lat="42.14029" lon="2.5217">
        <ele>572</ele>
        <time>2010-01-01T00:51:35Z</time>
      </trkpt>
      <trkpt lat="42.14034" lon="2.52189">
        <ele>572</ele>
        <time>2010-01-01T00:51:41Z</time>
      </trkpt>
      <trkpt lat="42.14037" lon="2.522">
        <ele>572</ele>
        <time>2010-01-01T00:51:44Z</time>
      </trkpt>
      <trkpt lat="42.14033" lon="2.52221">
        <ele>572</ele>
        <time>2010-01-01T00:51:51Z</time>
      </trkpt>
      <trkpt lat="42.1403" lon="2.52242">
        <ele>571</ele>
        <time>2010-01-01T00:51:57Z</time>
      </trkpt>
      <trkpt lat="42.14031" lon="2.52245">
        <ele>571</ele>
        <time>2010-01-01T00:51:58Z</time>
      </trkpt>
      <trkpt lat="42.14025" lon="2.5226">
        <ele>570</ele>
        <time>2010-01-01T00:52:03Z</time>
      </trkpt>
      <trkpt lat="42.14011" lon="2.52278">
        <ele>569</ele>
        <time>2010-01-01T00:52:10Z</time>
      </trkpt>
      <trkpt lat="42.14001" lon="2.52296">
        <ele>569</ele>
        <time>2010-01-01T00:52:17Z</time>
      </trkpt>
      <trkpt lat="42.13988" lon="2.52319">
        <ele>569</ele>
        <time>2010-01-01T00:52:26Z</time>
      </trkpt>
      <trkpt lat="42.13978" lon="2.52333">
        <ele>569</ele>
        <time>2010-01-01T00:52:32Z</time>
      </trkpt>
      <trkpt lat="42.13968" lon="2.52349">
        <ele>570</ele>
        <time>2010-01-01T00:52:38Z</time>
      </trkpt>
      <trkpt lat="42.13955" lon="2.52351">
        <ele>570</ele>
        <time>2010-01-01T00:52:43Z</time>
      </trkpt>
      <trkpt lat="42.13941" lon="2.52348">
        <ele>570</ele>
        <time>2010-01-01T00:52:49Z</time>
      </trkpt>
      <trkpt lat="42.13928" lon="2.52344">
        <ele>570</ele>
        <time>2010-01-01T00:52:54Z</time>
      </trkpt>
      <trkpt lat="42.13915" lon="2.52342">
        <ele>569</ele>
        <time>2010-01-01T00:52:59Z</time>
      </trkpt>
      <trkpt lat="42.13899" lon="2.52339">
        <ele>568</ele>
        <time>2010-01-01T00:53:06Z</time>
      </trkpt>
      <trkpt lat="42.13882" lon="2.52338">
        <ele>567</ele>
        <time>2010-01-01T00:53:13Z</time>
      </trkpt>
      <trkpt lat="42.13869" lon="2.52337">
        <ele>567</ele>
        <time>2010-01-01T00:53:18Z</time>
      </trkpt>
      <trkpt lat="42.13867" lon="2.52339">
        <ele>567</ele>
        <time>2010-01-01T00:53:19Z</time>
      </trkpt>
      <trkpt lat="42.13855" lon="2.52348">
        <ele>567</ele>
        <time>2010-01-01T00:53:24Z</time>
      </trkpt>
      <trkpt lat="42.13849" lon="2.52352">
        <ele>568</ele>
        <time>2010-01-01T00:53:27Z</time>
      </trkpt>
      <trkpt lat="42.1384" lon="2.52357">
        <ele>569</ele>
        <time>2010-01-01T00:53:31Z</time>
      </trkpt>
      <trkpt lat="42.13837" lon="2.52359">
        <ele>569</ele>
        <time>2010-01-01T00:53:32Z</time>
      </trkpt>
      <trkpt lat="42.13833" lon="2.5236">
        <ele>569</ele>
        <time>2010-01-01T00:53:34Z</time>
      </trkpt>
      <trkpt lat="42.13833" lon="2.52362">
        <ele>570</ele>
        <time>2010-01-01T00:53:34Z</time>
      </trkpt>
      <trkpt lat="42.13829" lon="2.52367">
        <ele>570</ele>
        <time>2010-01-01T00:53:37Z</time>
      </trkpt>
      <trkpt lat="42.13824" lon="2.5238">
        <ele>571</ele>
        <time>2010-01-01T00:53:41Z</time>
      </trkpt>
      <trkpt lat="42.13826" lon="2.52396">
        <ele>573</ele>
        <time>2010-01-01T00:53:46Z</time>
      </trkpt>
      <trkpt lat="42.13824" lon="2.5241">
        <ele>575</ele>
        <time>2010-01-01T00:53:50Z</time>
      </trkpt>
      <trkpt lat="42.13824" lon="2.52411">
        <ele>575</ele>
        <time>2010-01-01T00:53:50Z</time>
      </trkpt>
      <trkpt lat="42.13823" lon="2.52411">
        <ele>575</ele>
        <time>2010-01-01T00:53:50Z</time>
      </trkpt>
      <trkpt lat="42.13824" lon="2.5241">
        <ele>575</ele>
        <time>2010-01-01T00:53:51Z</time>
      </trkpt>
      <trkpt lat="42.13824" lon="2.52413">
        <ele>575</ele>
        <time>2010-01-01T00:53:52Z</time>
      </trkpt>
      <trkpt lat="42.13819" lon="2.52423">
        <ele>578</ele>
        <time>2010-01-01T00:53:55Z</time>
      </trkpt>
      <trkpt lat="42.13818" lon="2.5244">
        <ele>581</ele>
        <time>2010-01-01T00:54:01Z</time>
      </trkpt>
      <trkpt lat="42.13824" lon="2.52465">
        <ele>583</ele>
        <time>2010-01-01T00:54:08Z</time>
      </trkpt>
      <trkpt lat="42.13826" lon="2.52484">
        <ele>585</ele>
        <time>2010-01-01T00:54:14Z</time>
      </trkpt>
      <trkpt lat="42.1383" lon="2.52501">
        <ele>585</ele>
        <time>2010-01-01T00:54:19Z</time>
      </trkpt>
      <trkpt lat="42.13833" lon="2.52516">
        <ele>583</ele>
        <time>2010-01-01T00:54:24Z</time>
      </trkpt>
      <trkpt lat="42.13832" lon="2.52539">
        <ele>582</ele>
        <time>2010-01-01T00:54:31Z</time>
      </trkpt>
      <trkpt lat="42.1383" lon="2.52566">
        <ele>582</ele>
        <time>2010-01-01T00:54:39Z</time>
      </trkpt>
      <trkpt lat="42.13831" lon="2.5258">
        <ele>580</ele>
        <time>2010-01-01T00:54:43Z</time>
      </trkpt>
      <trkpt lat="42.13832" lon="2.526">
        <ele>580</ele>
        <time>2010-01-01T00:54:49Z</time>
      </trkpt>
      <trkpt lat="42.13827" lon="2.52617">
        <ele>582</ele>
        <time>2010-01-01T00:54:54Z</time>
      </trkpt>
      <trkpt lat="42.13823" lon="2.52638">
        <ele>585</ele>
        <time>2010-01-01T00:55:01Z</time>
      </trkpt>
      <trkpt lat="42.1382" lon="2.52657">
        <ele>585</ele>
        <time>2010-01-01T00:55:07Z</time>
      </trkpt>
      <trkpt lat="42.13819" lon="2.52672">
        <ele>585</ele>
        <time>2010-01-01T00:55:11Z</time>
      </trkpt>
      <trkpt lat="42.13821" lon="2.52681">
        <ele>585</ele>
        <time>2010-01-01T00:55:14Z</time>
      </trkpt>
      <trkpt lat="42.13826" lon="2.52691">
        <ele>584</ele>
        <time>2010-01-01T00:55:17Z</time>
      </trkpt>
      <trkpt lat="42.13828" lon="2.52697">
        <ele>584</ele>
        <time>2010-01-01T00:55:19Z</time>
      </trkpt>
      <trkpt lat="42.13839" lon="2.52711">
        <ele>583</ele>
        <time>2010-01-01T00:55:25Z</time>
      </trkpt>
      <trkpt lat="42.13841" lon="2.52713">
        <ele>583</ele>
        <time>2010-01-01T00:55:26Z</time>
      </trkpt>
      <trkpt lat="42.13838" lon="2.52723">
        <ele>585</ele>
        <time>2010-01-01T00:55:30Z</time>
      </trkpt>
      <trkpt lat="42.13834" lon="2.52731">
        <ele>587</ele>
        <time>2010-01-01T00:55:32Z</time>
      </trkpt>
      <trkpt lat="42.13832" lon="2.52732">
        <ele>587</ele>
        <time>2010-01-01T00:55:33Z</time>
      </trkpt>
      <trkpt lat="42.13832" lon="2.52739">
        <ele>588</ele>
        <time>2010-01-01T00:55:35Z</time>
      </trkpt>
      <trkpt lat="42.1383" lon="2.52746">
        <ele>589</ele>
        <time>2010-01-01T00:55:37Z</time>
      </trkpt>
      <trkpt lat="42.13829" lon="2.52751">
        <ele>590</ele>
        <time>2010-01-01T00:55:39Z</time>
      </trkpt>
      <trkpt lat="42.13828" lon="2.52757">
        <ele>591</ele>
        <time>2010-01-01T00:55:41Z</time>
      </trkpt>
      <trkpt lat="42.13826" lon="2.52758">
        <ele>592</ele>
        <time>2010-01-01T00:55:41Z</time>
      </trkpt>
      <trkpt lat="42.13823" lon="2.52766">
        <ele>593</ele>
        <time>2010-01-01T00:55:44Z</time>
      </trkpt>
      <trkpt lat="42.1382" lon="2.52768">
        <ele>594</ele>
        <time>2010-01-01T00:55:45Z</time>
      </trkpt>
      <trkpt lat="42.13814" lon="2.52773">
        <ele>595</ele>
        <time>2010-01-01T00:55:48Z</time>
      </trkpt>
      <trkpt lat="42.1381" lon="2.52774">
        <ele>596</ele>
        <time>2010-01-01T00:55:50Z</time>
      </trkpt>
      <trkpt lat="42.13809" lon="2.52777">
        <ele>596</ele>
        <time>2010-01-01T00:55:51Z</time>
      </trkpt>
      <trkpt lat="42.13815" lon="2.52782">
        <ele>597</ele>
        <time>2010-01-01T00:55:53Z</time>
      </trkpt>
      <trkpt lat="42.13815" lon="2.52782">
        <ele>597</ele>
        <time>2010-01-01T00:55:54Z</time>
      </trkpt>
      <trkpt lat="42.13819" lon="2.52784">
        <ele>597</ele>
        <time>2010-01-01T00:55:55Z</time>
      </trkpt>
      <trkpt lat="42.13816" lon="2.5279">
        <ele>599</ele>
        <time>2010-01-01T00:55:57Z</time>
      </trkpt>
      <trkpt lat="42.13814" lon="2.52793">
        <ele>600</ele>
        <time>2010-01-01T00:55:59Z</time>
      </trkpt>
      <trkpt lat="42.13811" lon="2.52796">
        <ele>601</ele>
        <time>2010-01-01T00:56:00Z</time>
      </trkpt>
      <trkpt lat="42.13808" lon="2.52802">
        <ele>603</ele>
        <time>2010-01-01T00:56:02Z</time>
      </trkpt>
      <trkpt lat="42.13809" lon="2.52805">
        <ele>603</ele>
        <time>2010-01-01T00:56:03Z</time>
      </trkpt>
      <trkpt lat="42.13813" lon="2.52807">
        <ele>604</ele>
        <time>2010-01-01T00:56:05Z</time>
      </trkpt>
      <trkpt lat="42.13814" lon="2.52808">
        <ele>604</ele>
        <time>2010-01-01T00:56:06Z</time>
      </trkpt>
      <trkpt lat="42.1382" lon="2.52811">
        <ele>605</ele>
        <time>2010-01-01T00:56:08Z</time>
      </trkpt>
      <trkpt lat="42.13825" lon="2.52815">
        <ele>606</ele>
        <time>2010-01-01T00:56:10Z</time>
      </trkpt>
      <trkpt lat="42.13831" lon="2.5282">
        <ele>608</ele>
        <time>2010-01-01T00:56:13Z</time>
      </trkpt>
      <trkpt lat="42.13834" lon="2.52823">
        <ele>609</ele>
        <time>2010-01-01T00:56:15Z</time>
      </trkpt>
      <trkpt lat="42.13836" lon="2.52828">
        <ele>610</ele>
        <time>2010-01-01T00:56:16Z</time>
      </trkpt>
      <trkpt lat="42.13841" lon="2.52836">
        <ele>613</ele>
        <time>2010-01-01T00:56:20Z</time>
      </trkpt>
      <trkpt lat="42.13843" lon="2.52841">
        <ele>614</ele>
        <time>2010-01-01T00:56:21Z</time>
      </trkpt>
      <trkpt lat="42.13844" lon="2.52846">
        <ele>616</ele>
        <time>2010-01-01T00:56:23Z</time>
      </trkpt>
      <trkpt lat="42.13845" lon="2.52852">
        <ele>618</ele>
        <time>2010-01-01T00:56:25Z</time>
      </trkpt>
      <trkpt lat="42.13848" lon="2.52859">
        <ele>620</ele>
        <time>2010-01-01T00:56:27Z</time>
      </trkpt>
      <trkpt lat="42.13853" lon="2.52869">
        <ele>622</ele>
        <time>2010-01-01T00:56:30Z</time>
      </trkpt>
      <trkpt lat="42.13856" lon="2.52875">
        <ele>624</ele>
        <time>2010-01-01T00:56:33Z</time>
      </trkpt>
      <trkpt lat="42.13861" lon="2.52882">
        <ele>626</ele>
        <time>2010-01-01T00:56:35Z</time>
      </trkpt>
      <trkpt lat="42.13865" lon="2.52887">
        <ele>626</ele>
        <time>2010-01-01T00:56:38Z</time>
      </trkpt>
      <trkpt lat="42.13869" lon="2.52891">
        <ele>627</ele>
        <time>2010-01-01T00:56:40Z</time>
      </trkpt>
      <trkpt lat="42.1387" lon="2.52896">
        <ele>628</ele>
        <time>2010-01-01T00:56:41Z</time>
      </trkpt>
      <trkpt lat="42.13876" lon="2.52904">
        <ele>629</ele>
        <time>2010-01-01T00:56:45Z</time>
      </trkpt>
      <trkpt lat="42.13877" lon="2.52905">
        <ele>630</ele>
        <time>2010-01-01T00:56:45Z</time>
      </trkpt>
      <trkpt lat="42.13884" lon="2.5291">
        <ele>630</ele>
        <time>2010-01-01T00:56:48Z</time>
      </trkpt>
      <trkpt lat="42.13884" lon="2.52911">
        <ele>630</ele>
        <time>2010-01-01T00:56:48Z</time>
      </trkpt>
      <trkpt lat="42.13888" lon="2.5291">
        <ele>630</ele>
        <time>2010-01-01T00:56:50Z</time>
      </trkpt>
      <trkpt lat="42.13889" lon="2.5291">
        <ele>629</ele>
        <time>2010-01-01T00:56:50Z</time>
      </trkpt>
      <trkpt lat="42.13892" lon="2.52912">
        <ele>630</ele>
        <time>2010-01-01T00:56:52Z</time>
      </trkpt>
      <trkpt lat="42.13895" lon="2.52916">
        <ele>631</ele>
        <time>2010-01-01T00:56:53Z</time>
      </trkpt>
      <trkpt lat="42.13898" lon="2.52923">
        <ele>633</ele>
        <time>2010-01-01T00:56:56Z</time>
      </trkpt>
      <trkpt lat="42.13901" lon="2.5293">
        <ele>634</ele>
        <time>2010-01-01T00:56:58Z</time>
      </trkpt>
      <trkpt lat="42.13903" lon="2.5294">
        <ele>637</ele>
        <time>2010-01-01T00:57:01Z</time>
      </trkpt>
      <trkpt lat="42.13902" lon="2.52945">
        <ele>638</ele>
        <time>2010-01-01T00:57:03Z</time>
      </trkpt>
      <trkpt lat="42.13902" lon="2.52951">
        <ele>639</ele>
        <time>2010-01-01T00:57:04Z</time>
      </trkpt>
      <trkpt lat="42.13902" lon="2.52958">
        <ele>641</ele>
        <time>2010-01-01T00:57:06Z</time>
      </trkpt>
      <trkpt lat="42.13898" lon="2.52967">
        <ele>643</ele>
        <time>2010-01-01T00:57:09Z</time>
      </trkpt>
      <trkpt lat="42.13898" lon="2.52978">
        <ele>646</ele>
        <time>2010-01-01T00:57:13Z</time>
      </trkpt>
      <trkpt lat="42.13898" lon="2.52989">
        <ele>648</ele>
        <time>2010-01-01T00:57:16Z</time>
      </trkpt>
      <trkpt lat="42.13902" lon="2.52999">
        <ele>649</ele>
        <time>2010-01-01T00:57:19Z</time>
      </trkpt>
      <trkpt lat="42.13902" lon="2.53001">
        <ele>650</ele>
        <time>2010-01-01T00:57:20Z</time>
      </trkpt>
      <trkpt lat="42.13908" lon="2.5301">
        <ele>651</ele>
        <time>2010-01-01T00:57:23Z</time>
      </trkpt>
      <trkpt lat="42.13914" lon="2.53014">
        <ele>652</ele>
        <time>2010-01-01T00:57:26Z</time>
      </trkpt>
      <trkpt lat="42.13921" lon="2.5302">
        <ele>653</ele>
        <time>2010-01-01T00:57:29Z</time>
      </trkpt>
      <trkpt lat="42.13924" lon="2.53029">
        <ele>655</ele>
        <time>2010-01-01T00:57:32Z</time>
      </trkpt>
      <trkpt lat="42.13923" lon="2.53042">
        <ele>657</ele>
        <time>2010-01-01T00:57:36Z</time>
      </trkpt>
      <trkpt lat="42.13923" lon="2.53046">
        <ele>657</ele>
        <time>2010-01-01T00:57:37Z</time>
      </trkpt>
      <trkpt lat="42.13924" lon="2.53053">
        <ele>658</ele>
        <time>2010-01-01T00:57:40Z</time>
      </trkpt>
      <trkpt lat="42.13924" lon="2.53062">
        <ele>659</ele>
        <time>2010-01-01T00:57:42Z</time>
      </trkpt>
      <trkpt lat="42.13925" lon="2.53069">
        <ele>659</ele>
        <time>2010-01-01T00:57:44Z</time>
      </trkpt>
      <trkpt lat="42.13925" lon="2.53071">
        <ele>659</ele>
        <time>2010-01-01T00:57:45Z</time>
      </trkpt>
      <trkpt lat="42.13924" lon="2.53079">
        <ele>660</ele>
        <time>2010-01-01T00:57:47Z</time>
      </trkpt>
      <trkpt lat="42.13923" lon="2.53084">
        <ele>660</ele>
        <time>2010-01-01T00:57:49Z</time>
      </trkpt>
      <trkpt lat="42.13923" lon="2.53087">
        <ele>660</ele>
        <time>2010-01-01T00:57:50Z</time>
      </trkpt>
      <trkpt lat="42.13923" lon="2.5309">
        <ele>659</ele>
        <time>2010-01-01T00:57:51Z</time>
      </trkpt>
      <trkpt lat="42.13923" lon="2.53094">
        <ele>659</ele>
        <time>2010-01-01T00:57:52Z</time>
      </trkpt>
      <trkpt lat="42.13921" lon="2.531">
        <ele>659</ele>
        <time>2010-01-01T00:57:54Z</time>
      </trkpt>
      <trkpt lat="42.13918" lon="2.53112">
        <ele>658</ele>
        <time>2010-01-01T00:57:57Z</time>
      </trkpt>
      <trkpt lat="42.13916" lon="2.53125">
        <ele>656</ele>
        <time>2010-01-01T00:58:02Z</time>
      </trkpt>
      <trkpt lat="42.13916" lon="2.5313">
        <ele>656</ele>
        <time>2010-01-01T00:58:03Z</time>
      </trkpt>
      <trkpt lat="42.13917" lon="2.53139">
        <ele>656</ele>
        <time>2010-01-01T00:58:06Z</time>
      </trkpt>
      <trkpt lat="42.13916" lon="2.53141">
        <ele>655</ele>
        <time>2010-01-01T00:58:06Z</time>
      </trkpt>
      <trkpt lat="42.13916" lon="2.53149">
        <ele>654</ele>
        <time>2010-01-01T00:58:09Z</time>
      </trkpt>
      <trkpt lat="42.13915" lon="2.53168">
        <ele>650</ele>
        <time>2010-01-01T00:58:15Z</time>
      </trkpt>
      <trkpt lat="42.13916" lon="2.53174">
        <ele>649</ele>
        <time>2010-01-01T00:58:16Z</time>
      </trkpt>
      <trkpt lat="42.13913" lon="2.53175">
        <ele>649</ele>
        <time>2010-01-01T00:58:17Z</time>
      </trkpt>
      <trkpt lat="42.13913" lon="2.5318">
        <ele>648</ele>
        <time>2010-01-01T00:58:19Z</time>
      </trkpt>
      <trkpt lat="42.13912" lon="2.53182">
        <ele>648</ele>
        <time>2010-01-01T00:58:19Z</time>
      </trkpt>
      <trkpt lat="42.13906" lon="2.53192">
        <ele>646</ele>
        <time>2010-01-01T00:58:23Z</time>
      </trkpt>
      <trkpt lat="42.13906" lon="2.53195">
        <ele>646</ele>
        <time>2010-01-01T00:58:24Z</time>
      </trkpt>
      <trkpt lat="42.13899" lon="2.5321">
        <ele>643</ele>
        <time>2010-01-01T00:58:29Z</time>
      </trkpt>
      <trkpt lat="42.1389" lon="2.53219">
        <ele>641</ele>
        <time>2010-01-01T00:58:34Z</time>
      </trkpt>
      <trkpt lat="42.13887" lon="2.53226">
        <ele>640</ele>
        <time>2010-01-01T00:58:36Z</time>
      </trkpt>
      <trkpt lat="42.13882" lon="2.5324">
        <ele>637</ele>
        <time>2010-01-01T00:58:41Z</time>
      </trkpt>
      <trkpt lat="42.13881" lon="2.53246">
        <ele>636</ele>
        <time>2010-01-01T00:58:42Z</time>
      </trkpt>
      <trkpt lat="42.13882" lon="2.53246">
        <ele>636</ele>
        <time>2010-01-01T00:58:43Z</time>
      </trkpt>
      <trkpt lat="42.13881" lon="2.5325">
        <ele>635</ele>
        <time>2010-01-01T00:58:44Z</time>
      </trkpt>
      <trkpt lat="42.1388" lon="2.53259">
        <ele>633</ele>
        <time>2010-01-01T00:58:47Z</time>
      </trkpt>
      <trkpt lat="42.1388" lon="2.53265">
        <ele>632</ele>
        <time>2010-01-01T00:58:49Z</time>
      </trkpt>
      <trkpt lat="42.13881" lon="2.53271">
        <ele>631</ele>
        <time>2010-01-01T00:58:51Z</time>
      </trkpt>
      <trkpt lat="42.13882" lon="2.53282">
        <ele>630</ele>
        <time>2010-01-01T00:58:54Z</time>
      </trkpt>
      <trkpt lat="42.13882" lon="2.53285">
        <ele>629</ele>
        <time>2010-01-01T00:58:55Z</time>
      </trkpt>
      <trkpt lat="42.13884" lon="2.53296">
        <ele>627</ele>
        <time>2010-01-01T00:58:58Z</time>
      </trkpt>
      <trkpt lat="42.13884" lon="2.53307">
        <ele>626</ele>
        <time>2010-01-01T00:59:01Z</time>
      </trkpt>
      <trkpt lat="42.13887" lon="2.53318">
        <ele>624</ele>
        <time>2010-01-01T00:59:05Z</time>
      </trkpt>
      <trkpt lat="42.13897" lon="2.53332">
        <ele>623</ele>
        <time>2010-01-01T00:59:11Z</time>
      </trkpt>
      <trkpt lat="42.13908" lon="2.53341">
        <ele>621</ele>
        <time>2010-01-01T00:59:16Z</time>
      </trkpt>
      <trkpt lat="42.13915" lon="2.53345">
        <ele>620</ele>
        <time>2010-01-01T00:59:19Z</time>
      </trkpt>
      <trkpt lat="42.13918" lon="2.53346">
        <ele>620</ele>
        <time>2010-01-01T00:59:20Z</time>
      </trkpt>
      <trkpt lat="42.13925" lon="2.5335">
        <ele>618</ele>
        <time>2010-01-01T00:59:23Z</time>
      </trkpt>
      <trkpt lat="42.13927" lon="2.53351">
        <ele>618</ele>
        <time>2010-01-01T00:59:24Z</time>
      </trkpt>
      <trkpt lat="42.13931" lon="2.53353">
        <ele>616</ele>
        <time>2010-01-01T00:59:26Z</time>
      </trkpt>
      <trkpt lat="42.13933" lon="2.53355">
        <ele>616</ele>
        <time>2010-01-01T00:59:27Z</time>
      </trkpt>
      <trkpt lat="42.13937" lon="2.53356">
        <ele>615</ele>
        <time>2010-01-01T00:59:28Z</time>
      </trkpt>
      <trkpt lat="42.13939" lon="2.53363">
        <ele>613</ele>
        <time>2010-01-01T00:59:31Z</time>
      </trkpt>
      <trkpt lat="42.13938" lon="2.53381">
        <ele>610</ele>
        <time>2010-01-01T00:59:36Z</time>
      </trkpt>
      <trkpt lat="42.13939" lon="2.53397">
        <ele>607</ele>
        <time>2010-01-01T00:59:41Z</time>
      </trkpt>
      <trkpt lat="42.13941" lon="2.53406">
        <ele>606</ele>
        <time>2010-01-01T00:59:44Z</time>
      </trkpt>
      <trkpt lat="42.13943" lon="2.53416">
        <ele>605</ele>
        <time>2010-01-01T00:59:47Z</time>
      </trkpt>
      <trkpt lat="42.13947" lon="2.53427">
        <ele>604</ele>
        <time>2010-01-01T00:59:50Z</time>
      </trkpt>
      <trkpt lat="42.13947" lon="2.53437">
        <ele>604</ele>
        <time>2010-01-01T00:59:53Z</time>
      </trkpt>
      <trkpt lat="42.13947" lon="2.53437">
        <ele>604</ele>
        <time>2010-01-01T00:59:53Z</time>
      </trkpt>
      <trkpt lat="42.13947" lon="2.53438">
        <ele>604</ele>
        <time>2010-01-01T00:59:54Z</time>
      </trkpt>
      <trkpt lat="42.1395" lon="2.53448">
        <ele>603</ele>
        <time>2010-01-01T00:59:57Z</time>
      </trkpt>
      <trkpt lat="42.13948" lon="2.53452">
        <ele>604</ele>
        <time>2010-01-01T00:59:58Z</time>
      </trkpt>
      <trkpt lat="42.13948" lon="2.53457">
        <ele>604</ele>
        <time>2010-01-01T01:00:00Z</time>
      </trkpt>
      <trkpt lat="42.13952" lon="2.53478">
        <ele>605</ele>
        <time>2010-01-01T01:00:06Z</time>
      </trkpt>
      <trkpt lat="42.13953" lon="2.53491">
        <ele>606</ele>
        <time>2010-01-01T01:00:10Z</time>
      </trkpt>
      <trkpt lat="42.13953" lon="2.53511">
        <ele>607</ele>
        <time>2010-01-01T01:00:16Z</time>
      </trkpt>
      <trkpt lat="42.13951" lon="2.53526">
        <ele>609</ele>
        <time>2010-01-01T01:00:20Z</time>
      </trkpt>
      <trkpt lat="42.13953" lon="2.53543">
        <ele>612</ele>
        <time>2010-01-01T01:00:26Z</time>
      </trkpt>
      <trkpt lat="42.13954" lon="2.53557">
        <ele>614</ele>
        <time>2010-01-01T01:00:30Z</time>
      </trkpt>
      <trkpt lat="42.13956" lon="2.5357">
        <ele>616</ele>
        <time>2010-01-01T01:00:34Z</time>
      </trkpt>
      <trkpt lat="42.13957" lon="2.53572">
        <ele>616</ele>
        <time>2010-01-01T01:00:34Z</time>
      </trkpt>
      <trkpt lat="42.13957" lon="2.53572">
        <ele>616</ele>
        <time>2010-01-01T01:00:34Z</time>
      </trkpt>
      <trkpt lat="42.13957" lon="2.53572">
        <ele>616</ele>
        <time>2010-01-01T01:00:35Z</time>
      </trkpt>
      <trkpt lat="42.13963" lon="2.53578">
        <ele>618</ele>
        <time>2010-01-01T01:00:37Z</time>
      </trkpt>
      <trkpt lat="42.13963" lon="2.5358">
        <ele>618</ele>
        <time>2010-01-01T01:00:38Z</time>
      </trkpt>
      <trkpt lat="42.13966" lon="2.53582">
        <ele>618</ele>
        <time>2010-01-01T01:00:39Z</time>
      </trkpt>
      <trkpt lat="42.1397" lon="2.53587">
        <ele>619</ele>
        <time>2010-01-01T01:00:41Z</time>
      </trkpt>
      <trkpt lat="42.13975" lon="2.53593">
        <ele>620</ele>
        <time>2010-01-01T01:00:44Z</time>
      </trkpt>
      <trkpt lat="42.13979" lon="2.53598">
        <ele>621</ele>
        <time>2010-01-01T01:00:46Z</time>
      </trkpt>
      <trkpt lat="42.1398" lon="2.53603">
        <ele>622</ele>
        <time>2010-01-01T01:00:48Z</time>
      </trkpt>
      <trkpt lat="42.13983" lon="2.53612">
        <ele>623</ele>
        <time>2010-01-01T01:00:51Z</time>
      </trkpt>
      <trkpt lat="42.13984" lon="2.53615">
        <ele>624</ele>
        <time>2010-01-01T01:00:52Z</time>
      </trkpt>
      <trkpt lat="42.13985" lon="2.53619">
        <ele>624</ele>
        <time>2010-01-01T01:00:53Z</time>
      </trkpt>
      <trkpt lat="42.13985" lon="2.53626">
        <ele>625</ele>
        <time>2010-01-01T01:00:55Z</time>
      </trkpt>
      <trkpt lat="42.13984" lon="2.53629">
        <ele>626</ele>
        <time>2010-01-01T01:00:56Z</time>
      </trkpt>
      <trkpt lat="42.13985" lon="2.53637">
        <ele>627</ele>
        <time>2010-01-01T01:00:58Z</time>
      </trkpt>
      <trkpt lat="42.13985" lon="2.53637">
        <ele>627</ele>
        <time>2010-01-01T01:00:58Z</time>
      </trkpt>
      <trkpt lat="42.13984" lon="2.53635">
        <ele>626</ele>
        <time>2010-01-01T01:00:59Z</time>
      </trkpt>
      <trkpt lat="42.13984" lon="2.5364">
        <ele>627</ele>
        <time>2010-01-01T01:01:01Z</time>
      </trkpt>
      <trkpt lat="42.13983" lon="2.53642">
        <ele>627</ele>
        <time>2010-01-01T01:01:01Z</time>
      </trkpt>
      <trkpt lat="42.13983" lon="2.53654">
        <ele>629</ele>
        <time>2010-01-01T01:01:05Z</time>
      </trkpt>
      <trkpt lat="42.13983" lon="2.53667">
        <ele>631</ele>
        <time>2010-01-01T01:01:09Z</time>
      </trkpt>
      <trkpt lat="42.13983" lon="2.53668">
        <ele>631</ele>
        <time>2010-01-01T01:01:09Z</time>
      </trkpt>
      <trkpt lat="42.13985" lon="2.53679">
        <ele>633</ele>
        <time>2010-01-01T01:01:12Z</time>
      </trkpt>
      <trkpt lat="42.13986" lon="2.53684">
        <ele>634</ele>
        <time>2010-01-01T01:01:14Z</time>
      </trkpt>
      <trkpt lat="42.13984" lon="2.53695">
        <ele>636</ele>
        <time>2010-01-01T01:01:17Z</time>
      </trkpt>
      <trkpt lat="42.13982" lon="2.53698">
        <ele>636</ele>
        <time>2010-01-01T01:01:18Z</time>
      </trkpt>
      <trkpt lat="42.13979" lon="2.53704">
        <ele>636</ele>
        <time>2010-01-01T01:01:20Z</time>
      </trkpt>
      <trkpt lat="42.13977" lon="2.53711">
        <ele>637</ele>
        <time>2010-01-01T01:01:23Z</time>
      </trkpt>
      <trkpt lat="42.13975" lon="2.53714">
        <ele>637</ele>
        <time>2010-01-01T01:01:24Z</time>
      </trkpt>
      <trkpt lat="42.13974" lon="2.53721">
        <ele>638</ele>
        <time>2010-01-01T01:01:26Z</time>
      </trkpt>
      <trkpt lat="42.13974" lon="2.53727">
        <ele>639</ele>
        <time>2010-01-01T01:01:28Z</time>
      </trkpt>
      <trkpt lat="42.13975" lon="2.53732">
        <ele>640</ele>
        <time>2010-01-01T01:01:29Z</time>
      </trkpt>
      <trkpt lat="42.13974" lon="2.53733">
        <ele>640</ele>
        <time>2010-01-01T01:01:30Z</time>
      </trkpt>
      <trkpt lat="42.13973" lon="2.53745">
        <ele>642</ele>
        <time>2010-01-01T01:01:33Z</time>
      </trkpt>
      <trkpt lat="42.13965" lon="2.53761">
        <ele>644</ele>
        <time>2010-01-01T01:01:39Z</time>
      </trkpt>
      <trkpt lat="42.13959" lon="2.53772">
        <ele>645</ele>
        <time>2010-01-01T01:01:43Z</time>
      </trkpt>
      <trkpt lat="42.13955" lon="2.5378">
        <ele>647</ele>
        <time>2010-01-01T01:01:46Z</time>
      </trkpt>
      <trkpt lat="42.13951" lon="2.53787">
        <ele>648</ele>
        <time>2010-01-01T01:01:48Z</time>
      </trkpt>
      <trkpt lat="42.13942" lon="2.53799">
        <ele>650</ele>
        <time>2010-01-01T01:01:54Z</time>
      </trkpt>
      <trkpt lat="42.13935" lon="2.53809">
        <ele>652</ele>
        <time>2010-01-01T01:01:58Z</time>
      </trkpt>
      <trkpt lat="42.13933" lon="2.53812">
        <ele>653</ele>
        <time>2010-01-01T01:01:59Z</time>
      </trkpt>
      <trkpt lat="42.13927" lon="2.5382">
        <ele>655</ele>
        <time>2010-01-01T01:02:02Z</time>
      </trkpt>
      <trkpt lat="42.13922" lon="2.53829">
        <ele>656</ele>
        <time>2010-01-01T01:02:05Z</time>
      </trkpt>
      <trkpt lat="42.13922" lon="2.53831">
        <ele>657</ele>
        <time>2010-01-01T01:02:06Z</time>
      </trkpt>
      <trkpt lat="42.13918" lon="2.53836">
        <ele>657</ele>
        <time>2010-01-01T01:02:08Z</time>
      </trkpt>
      <trkpt lat="42.1391" lon="2.53846">
        <ele>659</ele>
        <time>2010-01-01T01:02:13Z</time>
      </trkpt>
      <trkpt lat="42.13901" lon="2.53856">
        <ele>659</ele>
        <time>2010-01-01T01:02:17Z</time>
      </trkpt>
      <trkpt lat="42.13891" lon="2.53865">
        <ele>659</ele>
        <time>2010-01-01T01:02:22Z</time>
      </trkpt>
      <trkpt lat="42.13882" lon="2.53872">
        <ele>658</ele>
        <time>2010-01-01T01:02:26Z</time>
      </trkpt>
      <trkpt lat="42.13877" lon="2.53881">
        <ele>659</ele>
        <time>2010-01-01T01:02:29Z</time>
      </trkpt>
      <trkpt lat="42.13872" lon="2.53888">
        <ele>659</ele>
        <time>2010-01-01T01:02:32Z</time>
      </trkpt>
      <trkpt lat="42.13869" lon="2.53899">
        <ele>660</ele>
        <time>2010-01-01T01:02:36Z</time>
      </trkpt>
      <trkpt lat="42.13862" lon="2.5391">
        <ele>660</ele>
        <time>2010-01-01T01:02:40Z</time>
      </trkpt>
      <trkpt lat="42.13861" lon="2.53914">
        <ele>661</ele>
        <time>2010-01-01T01:02:41Z</time>
      </trkpt>
      <trkpt lat="42.13856" lon="2.53921">
        <ele>661</ele>
        <time>2010-01-01T01:02:44Z</time>
      </trkpt>
      <trkpt lat="42.13853" lon="2.53929">
        <ele>662</ele>
        <time>2010-01-01T01:02:47Z</time>
      </trkpt>
      <trkpt lat="42.13845" lon="2.53944">
        <ele>663</ele>
        <time>2010-01-01T01:02:52Z</time>
      </trkpt>
      <trkpt lat="42.13841" lon="2.53955">
        <ele>664</ele>
        <time>2010-01-01T01:02:56Z</time>
      </trkpt>
      <trkpt lat="42.13839" lon="2.53965">
        <ele>665</ele>
        <time>2010-01-01T01:02:59Z</time>
      </trkpt>
      <trkpt lat="42.13838" lon="2.53968">
        <ele>665</ele>
        <time>2010-01-01T01:03:00Z</time>
      </trkpt>
      <trkpt lat="42.13836" lon="2.53974">
        <ele>666</ele>
        <time>2010-01-01T01:03:02Z</time>
      </trkpt>
      <trkpt lat="42.13834" lon="2.53989">
        <ele>668</ele>
        <time>2010-01-01T01:03:06Z</time>
      </trkpt>
      <trkpt lat="42.13832" lon="2.54002">
        <ele>670</ele>
        <time>2010-01-01T01:03:11Z</time>
      </trkpt>
      <trkpt lat="42.13828" lon="2.54008">
        <ele>670</ele>
        <time>2010-01-01T01:03:13Z</time>
      </trkpt>
      <trkpt lat="42.13824" lon="2.54022">
        <ele>672</ele>
        <time>2010-01-01T01:03:17Z</time>
      </trkpt>
      <trkpt lat="42.13819" lon="2.54031">
        <ele>672</ele>
        <time>2010-01-01T01:03:21Z</time>
      </trkpt>
      <trkpt lat="42.13817" lon="2.54035">
        <ele>672</ele>
        <time>2010-01-01T01:03:22Z</time>
      </trkpt>
      <trkpt lat="42.1381" lon="2.54047">
        <ele>672</ele>
        <time>2010-01-01T01:03:26Z</time>
      </trkpt>
      <trkpt lat="42.13803" lon="2.54059">
        <ele>672</ele>
        <time>2010-01-01T01:03:31Z</time>
      </trkpt>
      <trkpt lat="42.13799" lon="2.54065">
        <ele>672</ele>
        <time>2010-01-01T01:03:33Z</time>
      </trkpt>
      <trkpt lat="42.13789" lon="2.54079">
        <ele>672</ele>
        <time>2010-01-01T01:03:39Z</time>
      </trkpt>
      <trkpt lat="42.13789" lon="2.54086">
        <ele>673</ele>
        <time>2010-01-01T01:03:41Z</time>
      </trkpt>
      <trkpt lat="42.1379" lon="2.54087">
        <ele>673</ele>
        <time>2010-01-01T01:03:42Z</time>
      </trkpt>
      <trkpt lat="42.13789" lon="2.54091">
        <ele>674</ele>
        <time>2010-01-01T01:03:43Z</time>
      </trkpt>
      <trkpt lat="42.13786" lon="2.541">
        <ele>675</ele>
        <time>2010-01-01T01:03:46Z</time>
      </trkpt>
      <trkpt lat="42.13786" lon="2.54105">
        <ele>675</ele>
        <time>2010-01-01T01:03:47Z</time>
      </trkpt>
      <trkpt lat="42.13783" lon="2.54115">
        <ele>676</ele>
        <time>2010-01-01T01:03:51Z</time>
      </trkpt>
      <trkpt lat="42.13783" lon="2.54118">
        <ele>676</ele>
        <time>2010-01-01T01:03:51Z</time>
      </trkpt>
      <trkpt lat="42.13781" lon="2.54124">
        <ele>677</ele>
        <time>2010-01-01T01:03:53Z</time>
      </trkpt>
      <trkpt lat="42.13781" lon="2.54128">
        <ele>677</ele>
        <time>2010-01-01T01:03:54Z</time>
      </trkpt>
      <trkpt lat="42.1378" lon="2.54139">
        <ele>678</ele>
        <time>2010-01-01T01:03:58Z</time>
      </trkpt>
      <trkpt lat="42.13779" lon="2.54152">
        <ele>678</ele>
        <time>2010-01-01T01:04:02Z</time>
      </trkpt>
      <trkpt lat="42.13777" lon="2.54166">
        <ele>678</ele>
        <time>2010-01-01T01:04:06Z</time>
      </trkpt>
      <trkpt lat="42.13778" lon="2.54177">
        <ele>678</ele>
        <time>2010-01-01T01:04:09Z</time>
      </trkpt>
      <trkpt lat="42.1378" lon="2.54183">
        <ele>678</ele>
        <time>2010-01-01T01:04:11Z</time>
      </trkpt>
      <trkpt lat="42.13781" lon="2.54187">
        <ele>679</ele>
        <time>2010-01-01T01:04:13Z</time>
      </trkpt>
      <trkpt lat="42.1378" lon="2.54187">
        <ele>678</ele>
        <time>2010-01-01T01:04:13Z</time>
      </trkpt>
      <trkpt lat="42.1378" lon="2.54188">
        <ele>678</ele>
        <time>2010-01-01T01:04:13Z</time>
      </trkpt>
      <trkpt lat="42.1378" lon="2.54188">
        <ele>678</ele>
        <time>2010-01-01T01:04:13Z</time>
      </trkpt>
      <trkpt lat="42.1378" lon="2.54195">
        <ele>678</ele>
        <time>2010-01-01T01:04:15Z</time>
      </trkpt>
      <trkpt lat="42.13781" lon="2.54196">
        <ele>678</ele>
        <time>2010-01-01T01:04:16Z</time>
      </trkpt>
      <trkpt lat="42.13782" lon="2.54197">
        <ele>678</ele>
        <time>2010-01-01T01:04:16Z</time>
      </trkpt>
      <trkpt lat="42.13782" lon="2.54197">
        <ele>678</ele>
        <time>2010-01-01T01:04:17Z</time>
      </trkpt>
      <trkpt lat="42.13783" lon="2.54195">
        <ele>679</ele>
        <time>2010-01-01T01:04:17Z</time>
      </trkpt>
      <trkpt lat="42.13786" lon="2.54198">
        <ele>679</ele>
        <time>2010-01-01T01:04:18Z</time>
      </trkpt>
      <trkpt lat="42.13789" lon="2.54203">
        <ele>680</ele>
        <time>2010-01-01T01:04:20Z</time>
      </trkpt>
      <trkpt lat="42.13796" lon="2.54205">
        <ele>682</ele>
        <time>2010-01-01T01:04:23Z</time>
      </trkpt>
      <trkpt lat="42.13798" lon="2.542">
        <ele>682</ele>
        <time>2010-01-01T01:04:25Z</time>
      </trkpt>
      <trkpt lat="42.13801" lon="2.54189">
        <ele>684</ele>
        <time>2010-01-01T01:04:28Z</time>
      </trkpt>
      <trkpt lat="42.13809" lon="2.54176">
        <ele>686</ele>
        <time>2010-01-01T01:04:33Z</time>
      </trkpt>
      <trkpt lat="42.13814" lon="2.54169">
        <ele>688</ele>
        <time>2010-01-01T01:04:36Z</time>
      </trkpt>
      <trkpt lat="42.13821" lon="2.54162">
        <ele>690</ele>
        <time>2010-01-01T01:04:40Z</time>
      </trkpt>
      <trkpt lat="42.13831" lon="2.54152">
        <ele>693</ele>
        <time>2010-01-01T01:04:45Z</time>
      </trkpt>
      <trkpt lat="42.13839" lon="2.54146">
        <ele>695</ele>
        <time>2010-01-01T01:04:48Z</time>
      </trkpt>
      <trkpt lat="42.13844" lon="2.54142">
        <ele>696</ele>
        <time>2010-01-01T01:04:51Z</time>
      </trkpt>
      <trkpt lat="42.13848" lon="2.54139">
        <ele>697</ele>
        <time>2010-01-01T01:04:53Z</time>
      </trkpt>
      <trkpt lat="42.13858" lon="2.54136">
        <ele>700</ele>
        <time>2010-01-01T01:04:56Z</time>
      </trkpt>
      <trkpt lat="42.13858" lon="2.54142">
        <ele>701</ele>
        <time>2010-01-01T01:04:58Z</time>
      </trkpt>
      <trkpt lat="42.13856" lon="2.5415">
        <ele>701</ele>
        <time>2010-01-01T01:05:01Z</time>
      </trkpt>
      <trkpt lat="42.13856" lon="2.54152">
        <ele>701</ele>
        <time>2010-01-01T01:05:01Z</time>
      </trkpt>
      <trkpt lat="42.13853" lon="2.54161">
        <ele>701</ele>
        <time>2010-01-01T01:05:04Z</time>
      </trkpt>
      <trkpt lat="42.13853" lon="2.54177">
        <ele>702</ele>
        <time>2010-01-01T01:05:09Z</time>
      </trkpt>
      <trkpt lat="42.13858" lon="2.5418">
        <ele>704</ele>
        <time>2010-01-01T01:05:11Z</time>
      </trkpt>
      <trkpt lat="42.13859" lon="2.54179">
        <ele>705</ele>
        <time>2010-01-01T01:05:11Z</time>
      </trkpt>
      <trkpt lat="42.1387" lon="2.54171">
        <ele>708</ele>
        <time>2010-01-01T01:05:17Z</time>
      </trkpt>
      <trkpt lat="42.13874" lon="2.5417">
        <ele>709</ele>
        <time>2010-01-01T01:05:18Z</time>
      </trkpt>
      <trkpt lat="42.13882" lon="2.54164">
        <ele>712</ele>
        <time>2010-01-01T01:05:22Z</time>
      </trkpt>
      <trkpt lat="42.13891" lon="2.54153">
        <ele>714</ele>
        <time>2010-01-01T01:05:27Z</time>
      </trkpt>
      <trkpt lat="42.13898" lon="2.54144">
        <ele>716</ele>
        <time>2010-01-01T01:05:31Z</time>
      </trkpt>
      <trkpt lat="42.139" lon="2.54142">
        <ele>717</ele>
        <time>2010-01-01T01:05:31Z</time>
      </trkpt>
      <trkpt lat="42.13906" lon="2.54133">
        <ele>718</ele>
        <time>2010-01-01T01:05:35Z</time>
      </trkpt>
      <trkpt lat="42.13913" lon="2.54122">
        <ele>719</ele>
        <time>2010-01-01T01:05:39Z</time>
      </trkpt>
      <trkpt lat="42.13919" lon="2.54114">
        <ele>720</ele>
        <time>2010-01-01T01:05:43Z</time>
      </trkpt>
      <trkpt lat="42.13925" lon="2.54105">
        <ele>721</ele>
        <time>2010-01-01T01:05:46Z</time>
      </trkpt>
      <trkpt lat="42.13932" lon="2.54092">
        <ele>722</ele>
        <time>2010-01-01T01:05:51Z</time>
      </trkpt>
      <trkpt lat="42.13939" lon="2.54078">
        <ele>722</ele>
        <time>2010-01-01T01:05:56Z</time>
      </trkpt>
      <trkpt lat="42.13943" lon="2.54073">
        <ele>722</ele>
        <time>2010-01-01T01:05:58Z</time>
      </trkpt>
      <trkpt lat="42.13948" lon="2.54063">
        <ele>722</ele>
        <time>2010-01-01T01:06:02Z</time>
      </trkpt>
      <trkpt lat="42.13949" lon="2.54061">
        <ele>722</ele>
        <time>2010-01-01T01:06:02Z</time>
      </trkpt>
      <trkpt lat="42.13951" lon="2.54057">
        <ele>721</ele>
        <time>2010-01-01T01:06:04Z</time>
      </trkpt>
      <trkpt lat="42.1396" lon="2.54048">
        <ele>722</ele>
        <time>2010-01-01T01:06:08Z</time>
      </trkpt>
      <trkpt lat="42.13972" lon="2.54041">
        <ele>723</ele>
        <time>2010-01-01T01:06:14Z</time>
      </trkpt>
      <trkpt lat="42.1398" lon="2.5403">
        <ele>723</ele>
        <time>2010-01-01T01:06:18Z</time>
      </trkpt>
      <trkpt lat="42.1399" lon="2.54024">
        <ele>724</ele>
        <time>2010-01-01T01:06:23Z</time>
      </trkpt>
      <trkpt lat="42.13994" lon="2.54023">
        <ele>726</ele>
        <time>2010-01-01T01:06:24Z</time>
      </trkpt>
      <trkpt lat="42.14002" lon="2.54018">
        <ele>726</ele>
        <time>2010-01-01T01:06:28Z</time>
      </trkpt>
      <trkpt lat="42.14015" lon="2.54012">
        <ele>726</ele>
        <time>2010-01-01T01:06:33Z</time>
      </trkpt>
      <trkpt lat="42.14028" lon="2.54012">
        <ele>727</ele>
        <time>2010-01-01T01:06:38Z</time>
      </trkpt>
      <trkpt lat="42.14032" lon="2.54012">
        <ele>727</ele>
        <time>2010-01-01T01:06:40Z</time>
      </trkpt>
      <trkpt lat="42.14035" lon="2.54011">
        <ele>727</ele>
        <time>2010-01-01T01:06:41Z</time>
      </trkpt>
      <trkpt lat="42.14038" lon="2.54011">
        <ele>727</ele>
        <time>2010-01-01T01:06:42Z</time>
      </trkpt>
      <trkpt lat="42.14043" lon="2.54013">
        <ele>727</ele>
        <time>2010-01-01T01:06:45Z</time>
      </trkpt>
      <trkpt lat="42.14049" lon="2.54011">
        <ele>727</ele>
        <time>2010-01-01T01:06:47Z</time>
      </trkpt>
      <trkpt lat="42.14044" lon="2.54013">
        <ele>727</ele>
        <time>2010-01-01T01:06:50Z</time>
      </trkpt>
      <trkpt lat="42.1404" lon="2.54012">
        <ele>727</ele>
        <time>2010-01-01T01:06:51Z</time>
      </trkpt>
      <trkpt lat="42.14038" lon="2.54013">
        <ele>727</ele>
        <time>2010-01-01T01:06:52Z</time>
      </trkpt>
      <trkpt lat="42.1404" lon="2.54014">
        <ele>727</ele>
        <time>2010-01-01T01:06:52Z</time>
      </trkpt>
      <trkpt lat="42.14051" lon="2.54013">
        <ele>727</ele>
        <time>2010-01-01T01:06:57Z</time>
      </trkpt>
      <trkpt lat="42.14056" lon="2.54011">
        <ele>727</ele>
        <time>2010-01-01T01:06:59Z</time>
      </trkpt>
      <trkpt lat="42.14063" lon="2.54004">
        <ele>727</ele>
        <time>2010-01-01T01:07:02Z</time>
      </trkpt>
      <trkpt lat="42.14075" lon="2.53998">
        <ele>729</ele>
        <time>2010-01-01T01:07:08Z</time>
      </trkpt>
      <trkpt lat="42.14084" lon="2.53994">
        <ele>730</ele>
        <time>2010-01-01T01:07:11Z</time>
      </trkpt>
      <trkpt lat="42.14094" lon="2.5399">
        <ele>730</ele>
        <time>2010-01-01T01:07:16Z</time>
      </trkpt>
      <trkpt lat="42.14114" lon="2.53978">
        <ele>733</ele>
        <time>2010-01-01T01:07:24Z</time>
      </trkpt>
      <trkpt lat="42.14131" lon="2.53976">
        <ele>735</ele>
        <time>2010-01-01T01:07:31Z</time>
      </trkpt>
      <trkpt lat="42.1414" lon="2.53974">
        <ele>736</ele>
        <time>2010-01-01T01:07:35Z</time>
      </trkpt>
      <trkpt lat="42.14155" lon="2.5397">
        <ele>738</ele>
        <time>2010-01-01T01:07:41Z</time>
      </trkpt>
      <trkpt lat="42.14164" lon="2.53967">
        <ele>739</ele>
        <time>2010-01-01T01:07:45Z</time>
      </trkpt>
      <trkpt lat="42.14179" lon="2.53961">
        <ele>740</ele>
        <time>2010-01-01T01:07:51Z</time>
      </trkpt>
      <trkpt lat="42.14198" lon="2.53956">
        <ele>741</ele>
        <time>2010-01-01T01:07:59Z</time>
      </trkpt>
      <trkpt lat="42.14211" lon="2.53953">
        <ele>740</ele>
        <time>2010-01-01T01:08:04Z</time>
      </trkpt>
      <trkpt lat="42.14224" lon="2.53955">
        <ele>739</ele>
        <time>2010-01-01T01:08:09Z</time>
      </trkpt>
      <trkpt lat="42.14232" lon="2.53961">
        <ele>737</ele>
        <time>2010-01-01T01:08:13Z</time>
      </trkpt>
      <trkpt lat="42.14233" lon="2.53962">
        <ele>737</ele>
        <time>2010-01-01T01:08:13Z</time>
      </trkpt>
      <trkpt lat="42.14236" lon="2.53964">
        <ele>737</ele>
        <time>2010-01-01T01:08:15Z</time>
      </trkpt>
      <trkpt lat="42.14238" lon="2.53966">
        <ele>736</ele>
        <time>2010-01-01T01:08:16Z</time>
      </trkpt>
      <trkpt lat="42.14236" lon="2.53963">
        <ele>737</ele>
        <time>2010-01-01T01:08:17Z</time>
      </trkpt>
      <trkpt lat="42.14237" lon="2.53966">
        <ele>736</ele>
        <time>2010-01-01T01:08:18Z</time>
      </trkpt>
      <trkpt lat="42.14237" lon="2.53967">
        <ele>736</ele>
        <time>2010-01-01T01:08:18Z</time>
      </trkpt>
      <trkpt lat="42.14242" lon="2.53979">
        <ele>735</ele>
        <time>2010-01-01T01:08:22Z</time>
      </trkpt>
      <trkpt lat="42.1425" lon="2.53989">
        <ele>734</ele>
        <time>2010-01-01T01:08:26Z</time>
      </trkpt>
      <trkpt lat="42.14258" lon="2.53995">
        <ele>734</ele>
        <time>2010-01-01T01:08:30Z</time>
      </trkpt>
      <trkpt lat="42.14268" lon="2.54001">
        <ele>734</ele>
        <time>2010-01-01T01:08:34Z</time>
      </trkpt>
      <trkpt lat="42.1427" lon="2.54003">
        <ele>734</ele>
        <time>2010-01-01T01:08:35Z</time>
      </trkpt>
      <trkpt lat="42.14272" lon="2.54003">
        <ele>734</ele>
        <time>2010-01-01T01:08:36Z</time>
      </trkpt>
      <trkpt lat="42.14285" lon="2.54011">
        <ele>734</ele>
        <time>2010-01-01T01:08:42Z</time>
      </trkpt>
      <trkpt lat="42.14294" lon="2.54008">
        <ele>734</ele>
        <time>2010-01-01T01:08:45Z</time>
      </trkpt>
      <trkpt lat="42.14296" lon="2.54007">
        <ele>734</ele>
        <time>2010-01-01T01:08:46Z</time>
      </trkpt>
      <trkpt lat="42.14296" lon="2.54003">
        <ele>734</ele>
        <time>2010-01-01T01:08:47Z</time>
      </trkpt>
      <trkpt lat="42.14298" lon="2.54004">
        <ele>734</ele>
        <time>2010-01-01T01:08:48Z</time>
      </trkpt>
      <trkpt lat="42.14304" lon="2.54007">
        <ele>734</ele>
        <time>2010-01-01T01:08:51Z</time>
      </trkpt>
      <trkpt lat="42.14314" lon="2.54016">
        <ele>733</ele>
        <time>2010-01-01T01:08:56Z</time>
      </trkpt>
      <trkpt lat="42.14321" lon="2.54027">
        <ele>733</ele>
        <time>2010-01-01T01:09:00Z</time>
      </trkpt>
      <trkpt lat="42.14327" lon="2.54043">
        <ele>732</ele>
        <time>2010-01-01T01:09:05Z</time>
      </trkpt>
      <trkpt lat="42.1433" lon="2.54061">
        <ele>732</ele>
        <time>2010-01-01T01:09:11Z</time>
      </trkpt>
      <trkpt lat="42.14332" lon="2.54069">
        <ele>732</ele>
        <time>2010-01-01T01:09:13Z</time>
      </trkpt>
      <trkpt lat="42.14337" lon="2.54078">
        <ele>732</ele>
        <time>2010-01-01T01:09:17Z</time>
      </trkpt>
      <trkpt lat="42.14341" lon="2.54087">
        <ele>733</ele>
        <time>2010-01-01T01:09:20Z</time>
      </trkpt>
      <trkpt lat="42.14344" lon="2.54094">
        <ele>733</ele>
        <time>2010-01-01T01:09:22Z</time>
      </trkpt>
      <trkpt lat="42.14346" lon="2.54103">
        <ele>734</ele>
        <time>2010-01-01T01:09:25Z</time>
      </trkpt>
      <trkpt lat="42.14346" lon="2.54104">
        <ele>734</ele>
        <time>2010-01-01T01:09:25Z</time>
      </trkpt>
      <trkpt lat="42.14346" lon="2.54102">
        <ele>734</ele>
        <time>2010-01-01T01:09:26Z</time>
      </trkpt>
      <trkpt lat="42.14347" lon="2.54103">
        <ele>734</ele>
        <time>2010-01-01T01:09:27Z</time>
      </trkpt>
      <trkpt lat="42.14349" lon="2.54107">
        <ele>734</ele>
        <time>2010-01-01T01:09:28Z</time>
      </trkpt>
      <trkpt lat="42.14348" lon="2.54109">
        <ele>734</ele>
        <time>2010-01-01T01:09:29Z</time>
      </trkpt>
      <trkpt lat="42.14349" lon="2.54115">
        <ele>735</ele>
        <time>2010-01-01T01:09:30Z</time>
      </trkpt>
      <trkpt lat="42.1435" lon="2.54119">
        <ele>735</ele>
        <time>2010-01-01T01:09:32Z</time>
      </trkpt>
      <trkpt lat="42.1435" lon="2.54118">
        <ele>735</ele>
        <time>2010-01-01T01:09:32Z</time>
      </trkpt>
      <trkpt lat="42.14349" lon="2.54121">
        <ele>735</ele>
        <time>2010-01-01T01:09:33Z</time>
      </trkpt>
      <trkpt lat="42.14348" lon="2.54116">
        <ele>735</ele>
        <time>2010-01-01T01:09:34Z</time>
      </trkpt>
      <trkpt lat="42.14348" lon="2.54116">
        <ele>735</ele>
        <time>2010-01-01T01:09:34Z</time>
      </trkpt>
      <trkpt lat="42.14349" lon="2.54118">
        <ele>735</ele>
        <time>2010-01-01T01:09:35Z</time>
      </trkpt>
      <trkpt lat="42.14349" lon="2.54118">
        <ele>735</ele>
        <time>2010-01-01T01:09:35Z</time>
      </trkpt>
      <trkpt lat="42.14348" lon="2.54113">
        <ele>735</ele>
        <time>2010-01-01T01:09:37Z</time>
      </trkpt>
      <trkpt lat="42.14352" lon="2.54109">
        <ele>735</ele>
        <time>2010-01-01T01:09:38Z</time>
      </trkpt>
      <trkpt lat="42.14355" lon="2.54113">
        <ele>736</ele>
        <time>2010-01-01T01:09:40Z</time>
      </trkpt>
      <trkpt lat="42.1436" lon="2.54124">
        <ele>737</ele>
        <time>2010-01-01T01:09:44Z</time>
      </trkpt>
      <trkpt lat="42.14369" lon="2.54135">
        <ele>737</ele>
        <time>2010-01-01T01:09:49Z</time>
      </trkpt>
      <trkpt lat="42.14378" lon="2.5415">
        <ele>738</ele>
        <time>2010-01-01T01:09:55Z</time>
      </trkpt>
      <trkpt lat="42.14389" lon="2.54163">
        <ele>737</ele>
        <time>2010-01-01T01:10:00Z</time>
      </trkpt>
      <trkpt lat="42.144" lon="2.5418">
        <ele>734</ele>
        <time>2010-01-01T01:10:07Z</time>
      </trkpt>
      <trkpt lat="42.14411" lon="2.54199">
        <ele>733</ele>
        <time>2010-01-01T01:10:14Z</time>
      </trkpt>
      <trkpt lat="42.14421" lon="2.5422">
        <ele>730</ele>
        <time>2010-01-01T01:10:21Z</time>
      </trkpt>
      <trkpt lat="42.14433" lon="2.54242">
        <ele>722</ele>
        <time>2010-01-01T01:10:30Z</time>
      </trkpt>
      <trkpt lat="42.14446" lon="2.54255">
        <ele>714</ele>
        <time>2010-01-01T01:10:36Z</time>
      </trkpt>
      <trkpt lat="42.14461" lon="2.54271">
        <ele>706</ele>
        <time>2010-01-01T01:10:44Z</time>
      </trkpt>
      <trkpt lat="42.14477" lon="2.54289">
        <ele>700</ele>
        <time>2010-01-01T01:10:52Z</time>
      </trkpt>
      <trkpt lat="42.14485" lon="2.54299">
        <ele>698</ele>
        <time>2010-01-01T01:10:56Z</time>
      </trkpt>
      <trkpt lat="42.14499" lon="2.54311">
        <ele>695</ele>
        <time>2010-01-01T01:11:03Z</time>
      </trkpt>
      <trkpt lat="42.14518" lon="2.54325">
        <ele>689</ele>
        <time>2010-01-01T01:11:12Z</time>
      </trkpt>
      <trkpt lat="42.14521" lon="2.54328">
        <ele>689</ele>
        <time>2010-01-01T01:11:13Z</time>
      </trkpt>
      <trkpt lat="42.14531" lon="2.54337">
        <ele>687</ele>
        <time>2010-01-01T01:11:18Z</time>
      </trkpt>
      <trkpt lat="42.14541" lon="2.54339">
        <ele>684</ele>
        <time>2010-01-01T01:11:22Z</time>
      </trkpt>
      <trkpt lat="42.1455" lon="2.54333">
        <ele>681</ele>
        <time>2010-01-01T01:11:26Z</time>
      </trkpt>
      <trkpt lat="42.14563" lon="2.54323">
        <ele>677</ele>
        <time>2010-01-01T01:11:32Z</time>
      </trkpt>
      <trkpt lat="42.14567" lon="2.54319">
        <ele>676</ele>
        <time>2010-01-01T01:11:34Z</time>
      </trkpt>
      <trkpt lat="42.14572" lon="2.54313">
        <ele>675</ele>
        <time>2010-01-01T01:11:37Z</time>
      </trkpt>
      <trkpt lat="42.14571" lon="2.54315">
        <ele>676</ele>
        <time>2010-01-01T01:11:38Z</time>
      </trkpt>
      <trkpt lat="42.14575" lon="2.54309">
        <ele>675</ele>
        <time>2010-01-01T01:11:40Z</time>
      </trkpt>
      <trkpt lat="42.14582" lon="2.54292">
        <ele>672</ele>
        <time>2010-01-01T01:11:46Z</time>
      </trkpt>
      <trkpt lat="42.14592" lon="2.54274">
        <ele>669</ele>
        <time>2010-01-01T01:11:53Z</time>
      </trkpt>
      <trkpt lat="42.14601" lon="2.54267">
        <ele>667</ele>
        <time>2010-01-01T01:11:57Z</time>
      </trkpt>
      <trkpt lat="42.14615" lon="2.54261">
        <ele>666</ele>
        <time>2010-01-01T01:12:03Z</time>
      </trkpt>
      <trkpt lat="42.14628" lon="2.54258">
        <ele>664</ele>
        <time>2010-01-01T01:12:08Z</time>
      </trkpt>
      <trkpt lat="42.1463" lon="2.54259">
        <ele>664</ele>
        <time>2010-01-01T01:12:09Z</time>
      </trkpt>
      <trkpt lat="42.1464" lon="2.54273">
        <ele>664</ele>
        <time>2010-01-01T01:12:15Z</time>
      </trkpt>
      <trkpt lat="42.14644" lon="2.54282">
        <ele>663</ele>
        <time>2010-01-01T01:12:18Z</time>
      </trkpt>
      <trkpt lat="42.14644" lon="2.54304">
        <ele>664</ele>
        <time>2010-01-01T01:12:24Z</time>
      </trkpt>
      <trkpt lat="42.14635" lon="2.54328">
        <ele>667</ele>
        <time>2010-01-01T01:12:32Z</time>
      </trkpt>
      <trkpt lat="42.14633" lon="2.54336">
        <ele>667</ele>
        <time>2010-01-01T01:12:35Z</time>
      </trkpt>
      <trkpt lat="42.1463" lon="2.54341">
        <ele>667</ele>
        <time>2010-01-01T01:12:37Z</time>
      </trkpt>
      <trkpt lat="42.14629" lon="2.54346">
        <ele>667</ele>
        <time>2010-01-01T01:12:38Z</time>
      </trkpt>
      <trkpt lat="42.14629" lon="2.54346">
        <ele>667</ele>
        <time>2010-01-01T01:12:38Z</time>
      </trkpt>
      <trkpt lat="42.14631" lon="2.54345">
        <ele>667</ele>
        <time>2010-01-01T01:12:39Z</time>
      </trkpt>
      <trkpt lat="42.14631" lon="2.54347">
        <ele>667</ele>
        <time>2010-01-01T01:12:39Z</time>
      </trkpt>
      <trkpt lat="42.14631" lon="2.54351">
        <ele>666</ele>
        <time>2010-01-01T01:12:41Z</time>
      </trkpt>
      <trkpt lat="42.1463" lon="2.54355">
        <ele>666</ele>
        <time>2010-01-01T01:12:42Z</time>
      </trkpt>
      <trkpt lat="42.14628" lon="2.54359">
        <ele>667</ele>
        <time>2010-01-01T01:12:43Z</time>
      </trkpt>
      <trkpt lat="42.14628" lon="2.54364">
        <ele>666</ele>
        <time>2010-01-01T01:12:45Z</time>
      </trkpt>
      <trkpt lat="42.14622" lon="2.54372">
        <ele>667</ele>
        <time>2010-01-01T01:12:48Z</time>
      </trkpt>
      <trkpt lat="42.14616" lon="2.54391">
        <ele>666</ele>
        <time>2010-01-01T01:12:54Z</time>
      </trkpt>
      <trkpt lat="42.14609" lon="2.54413">
        <ele>665</ele>
        <time>2010-01-01T01:13:01Z</time>
      </trkpt>
      <trkpt lat="42.14601" lon="2.54432">
        <ele>665</ele>
        <time>2010-01-01T01:13:08Z</time>
      </trkpt>
      <trkpt lat="42.14591" lon="2.54455">
        <ele>664</ele>
        <time>2010-01-01T01:13:16Z</time>
      </trkpt>
      <trkpt lat="42.14589" lon="2.54475">
        <ele>662</ele>
        <time>2010-01-01T01:13:22Z</time>
      </trkpt>
      <trkpt lat="42.14587" lon="2.54489">
        <ele>662</ele>
        <time>2010-01-01T01:13:26Z</time>
      </trkpt>
      <trkpt lat="42.14585" lon="2.54514">
        <ele>660</ele>
        <time>2010-01-01T01:13:33Z</time>
      </trkpt>
      <trkpt lat="42.14588" lon="2.54534">
        <ele>657</ele>
        <time>2010-01-01T01:13:39Z</time>
      </trkpt>
      <trkpt lat="42.14589" lon="2.54545">
        <ele>656</ele>
        <time>2010-01-01T01:13:43Z</time>
      </trkpt>
      <trkpt lat="42.14589" lon="2.54547">
        <ele>656</ele>
        <time>2010-01-01T01:13:43Z</time>
      </trkpt>
      <trkpt lat="42.14591" lon="2.54545">
        <ele>656</ele>
        <time>2010-01-01T01:13:44Z</time>
      </trkpt>
      <trkpt lat="42.14592" lon="2.54546">
        <ele>655</ele>
        <time>2010-01-01T01:13:45Z</time>
      </trkpt>
      <trkpt lat="42.14596" lon="2.54557">
        <ele>654</ele>
        <time>2010-01-01T01:13:48Z</time>
      </trkpt>
      <trkpt lat="42.14594" lon="2.54559">
        <ele>654</ele>
        <time>2010-01-01T01:13:49Z</time>
      </trkpt>
      <trkpt lat="42.14593" lon="2.54557">
        <ele>654</ele>
        <time>2010-01-01T01:13:50Z</time>
      </trkpt>
      <trkpt lat="42.14594" lon="2.54559">
        <ele>654</ele>
        <time>2010-01-01T01:13:51Z</time>
      </trkpt>
      <trkpt lat="42.14591" lon="2.54568">
        <ele>653</ele>
        <time>2010-01-01T01:13:53Z</time>
      </trkpt>
      <trkpt lat="42.14594" lon="2.54563">
        <ele>653</ele>
        <time>2010-01-01T01:13:55Z</time>
      </trkpt>
      <trkpt lat="42.14593" lon="2.54568">
        <ele>653</ele>
        <time>2010-01-01T01:13:57Z</time>
      </trkpt>
      <trkpt lat="42.14588" lon="2.54578">
        <ele>652</ele>
        <time>2010-01-01T01:14:00Z</time>
      </trkpt>
      <trkpt lat="42.14583" lon="2.54593">
        <ele>652</ele>
        <time>2010-01-01T01:14:05Z</time>
      </trkpt>
      <trkpt lat="42.14577" lon="2.54604">
        <ele>651</ele>
        <time>2010-01-01T01:14:09Z</time>
      </trkpt>
      <trkpt lat="42.14564" lon="2.54617">
        <ele>650</ele>
        <time>2010-01-01T01:14:15Z</time>
      </trkpt>
      <trkpt lat="42.14548" lon="2.54626">
        <ele>649</ele>
        <time>2010-01-01T01:14:22Z</time>
      </trkpt>
      <trkpt lat="42.14524" lon="2.54637">
        <ele>648</ele>
        <time>2010-01-01T01:14:33Z</time>
      </trkpt>
      <trkpt lat="42.14501" lon="2.54641">
        <ele>648</ele>
        <time>2010-01-01T01:14:42Z</time>
      </trkpt>
      <trkpt lat="42.14483" lon="2.54644">
        <ele>646</ele>
        <time>2010-01-01T01:14:49Z</time>
      </trkpt>
      <trkpt lat="42.14466" lon="2.54645">
        <ele>645</ele>
        <time>2010-01-01T01:14:56Z</time>
      </trkpt>
      <trkpt lat="42.14448" lon="2.54645">
        <ele>646</ele>
        <time>2010-01-01T01:15:03Z</time>
      </trkpt>
      <trkpt lat="42.14434" lon="2.54646">
        <ele>647</ele>
        <time>2010-01-01T01:15:09Z</time>
      </trkpt>
      <trkpt lat="42.14419" lon="2.54654">
        <ele>647</ele>
        <time>2010-01-01T01:15:15Z</time>
      </trkpt>
      <trkpt lat="42.14405" lon="2.54665">
        <ele>647</ele>
        <time>2010-01-01T01:15:22Z</time>
      </trkpt>
      <trkpt lat="42.14393" lon="2.54679">
        <ele>647</ele>
        <time>2010-01-01T01:15:28Z</time>
      </trkpt>
      <trkpt lat="42.14384" lon="2.54696">
        <ele>646</ele>
        <time>2010-01-01T01:15:34Z</time>
      </trkpt>
      <trkpt lat="42.14372" lon="2.54719">
        <ele>645</ele>
        <time>2010-01-01T01:15:43Z</time>
      </trkpt>
      <trkpt lat="42.14367" lon="2.54736">
        <ele>643</ele>
        <time>2010-01-01T01:15:48Z</time>
      </trkpt>
      <trkpt lat="42.14361" lon="2.54758">
        <ele>641</ele>
        <time>2010-01-01T01:15:55Z</time>
      </trkpt>
      <trkpt lat="42.14357" lon="2.54785">
        <ele>637</ele>
        <time>2010-01-01T01:16:03Z</time>
      </trkpt>
      <trkpt lat="42.14351" lon="2.54804">
        <ele>634</ele>
        <time>2010-01-01T01:16:09Z</time>
      </trkpt>
      <trkpt lat="42.14345" lon="2.54823">
        <ele>631</ele>
        <time>2010-01-01T01:16:15Z</time>
      </trkpt>
      <trkpt lat="42.14336" lon="2.54839">
        <ele>629</ele>
        <time>2010-01-01T01:16:22Z</time>
      </trkpt>
      <trkpt lat="42.14323" lon="2.54855">
        <ele>628</ele>
        <time>2010-01-01T01:16:29Z</time>
      </trkpt>
      <trkpt lat="42.14301" lon="2.54875">
        <ele>626</ele>
        <time>2010-01-01T01:16:39Z</time>
      </trkpt>
      <trkpt lat="42.14279" lon="2.54881">
        <ele>625</ele>
        <time>2010-01-01T01:16:48Z</time>
      </trkpt>
      <trkpt lat="42.14262" lon="2.54887">
        <ele>624</ele>
        <time>2010-01-01T01:16:55Z</time>
      </trkpt>
      <trkpt lat="42.14246" lon="2.54893">
        <ele>624</ele>
        <time>2010-01-01T01:17:02Z</time>
      </trkpt>
      <trkpt lat="42.14233" lon="2.54898">
        <ele>623</ele>
        <time>2010-01-01T01:17:07Z</time>
      </trkpt>
      <trkpt lat="42.14216" lon="2.54912">
        <ele>621</ele>
        <time>2010-01-01T01:17:15Z</time>
      </trkpt>
      <trkpt lat="42.14203" lon="2.54925">
        <ele>620</ele>
        <time>2010-01-01T01:17:22Z</time>
      </trkpt>
      <trkpt lat="42.14194" lon="2.54941">
        <ele>618</ele>
        <time>2010-01-01T01:17:28Z</time>
      </trkpt>
      <trkpt lat="42.14183" lon="2.54959">
        <ele>620</ele>
        <time>2010-01-01T01:17:34Z</time>
      </trkpt>
      <trkpt lat="42.14171" lon="2.54975">
        <ele>622</ele>
        <time>2010-01-01T01:17:41Z</time>
      </trkpt>
      <trkpt lat="42.14164" lon="2.54993">
        <ele>622</ele>
        <time>2010-01-01T01:17:47Z</time>
      </trkpt>
      <trkpt lat="42.1416" lon="2.55015">
        <ele>621</ele>
        <time>2010-01-01T01:17:54Z</time>
      </trkpt>
      <trkpt lat="42.14155" lon="2.55035">
        <ele>618</ele>
        <time>2010-01-01T01:18:00Z</time>
      </trkpt>
      <trkpt lat="42.14145" lon="2.55058">
        <ele>616</ele>
        <time>2010-01-01T01:18:08Z</time>
      </trkpt>
      <trkpt lat="42.14133" lon="2.55072">
        <ele>615</ele>
        <time>2010-01-01T01:18:15Z</time>
      </trkpt>
      <trkpt lat="42.14115" lon="2.55081">
        <ele>617</ele>
        <time>2010-01-01T01:18:22Z</time>
      </trkpt>
      <trkpt lat="42.14098" lon="2.55088">
        <ele>617</ele>
        <time>2010-01-01T01:18:29Z</time>
      </trkpt>
      <trkpt lat="42.1408" lon="2.55089">
        <ele>619</ele>
        <time>2010-01-01T01:18:37Z</time>
      </trkpt>
      <trkpt lat="42.14062" lon="2.55092">
        <ele>618</ele>
        <time>2010-01-01T01:18:44Z</time>
      </trkpt>
      <trkpt lat="42.1404" lon="2.55097">
        <ele>615</ele>
        <time>2010-01-01T01:18:53Z</time>
      </trkpt>
      <trkpt lat="42.14023" lon="2.55099">
        <ele>614</ele>
        <time>2010-01-01T01:19:00Z</time>
      </trkpt>
      <trkpt lat="42.14003" lon="2.55107">
        <ele>612</ele>
        <time>2010-01-01T01:19:08Z</time>
      </trkpt>
      <trkpt lat="42.13982" lon="2.55127">
        <ele>605</ele>
        <time>2010-01-01T01:19:18Z</time>
      </trkpt>
      <trkpt lat="42.13969" lon="2.5514">
        <ele>602</ele>
        <time>2010-01-01T01:19:25Z</time>
      </trkpt>
      <trkpt lat="42.13959" lon="2.55151">
        <ele>598</ele>
        <time>2010-01-01T01:19:30Z</time>
      </trkpt>
      <trkpt lat="42.1395" lon="2.55159">
        <ele>596</ele>
        <time>2010-01-01T01:19:34Z</time>
      </trkpt>
      <trkpt lat="42.13945" lon="2.55162">
        <ele>595</ele>
        <time>2010-01-01T01:19:36Z</time>
      </trkpt>
      <trkpt lat="42.13942" lon="2.55162">
        <ele>594</ele>
        <time>2010-01-01T01:19:38Z</time>
      </trkpt>
      <trkpt lat="42.13934" lon="2.55167">
        <ele>592</ele>
        <time>2010-01-01T01:19:41Z</time>
      </trkpt>
      <trkpt lat="42.13931" lon="2.5517">
        <ele>592</ele>
        <time>2010-01-01T01:19:42Z</time>
      </trkpt>
      <trkpt lat="42.13934" lon="2.5517">
        <ele>592</ele>
        <time>2010-01-01T01:19:44Z</time>
      </trkpt>
      <trkpt lat="42.13936" lon="2.55169">
        <ele>592</ele>
        <time>2010-01-01T01:19:44Z</time>
      </trkpt>
      <trkpt lat="42.13934" lon="2.55174">
        <ele>591</ele>
        <time>2010-01-01T01:19:46Z</time>
      </trkpt>
      <trkpt lat="42.13931" lon="2.5518">
        <ele>590</ele>
        <time>2010-01-01T01:19:48Z</time>
      </trkpt>
      <trkpt lat="42.13924" lon="2.55188">
        <ele>589</ele>
        <time>2010-01-01T01:19:52Z</time>
      </trkpt>
      <trkpt lat="42.13916" lon="2.55196">
        <ele>587</ele>
        <time>2010-01-01T01:19:56Z</time>
      </trkpt>
      <trkpt lat="42.1391" lon="2.55211">
        <ele>584</ele>
        <time>2010-01-01T01:20:01Z</time>
      </trkpt>
      <trkpt lat="42.13902" lon="2.55221">
        <ele>582</ele>
        <time>2010-01-01T01:20:05Z</time>
      </trkpt>
      <trkpt lat="42.13899" lon="2.55223">
        <ele>582</ele>
        <time>2010-01-01T01:20:06Z</time>
      </trkpt>
      <trkpt lat="42.1389" lon="2.55234">
        <ele>579</ele>
        <time>2010-01-01T01:20:11Z</time>
      </trkpt>
      <trkpt lat="42.1389" lon="2.55237">
        <ele>578</ele>
        <time>2010-01-01T01:20:12Z</time>
      </trkpt>
      <trkpt lat="42.13897" lon="2.55242">
        <ele>577</ele>
        <time>2010-01-01T01:20:15Z</time>
      </trkpt>
      <trkpt lat="42.139" lon="2.55242">
        <ele>578</ele>
        <time>2010-01-01T01:20:16Z</time>
      </trkpt>
      <trkpt lat="42.13907" lon="2.55243">
        <ele>578</ele>
        <time>2010-01-01T01:20:19Z</time>
      </trkpt>
      <trkpt lat="42.1391" lon="2.55242">
        <ele>578</ele>
        <time>2010-01-01T01:20:21Z</time>
      </trkpt>
      <trkpt lat="42.13909" lon="2.55241">
        <ele>578</ele>
        <time>2010-01-01T01:20:21Z</time>
      </trkpt>
      <trkpt lat="42.13909" lon="2.55242">
        <ele>578</ele>
        <time>2010-01-01T01:20:22Z</time>
      </trkpt>
      <trkpt lat="42.1392" lon="2.5524">
        <ele>578</ele>
        <time>2010-01-01T01:20:26Z</time>
      </trkpt>
      <trkpt lat="42.13933" lon="2.55237">
        <ele>578</ele>
        <time>2010-01-01T01:20:31Z</time>
      </trkpt>
      <trkpt lat="42.13947" lon="2.55227">
        <ele>579</ele>
        <time>2010-01-01T01:20:38Z</time>
      </trkpt>
      <trkpt lat="42.13961" lon="2.55215">
        <ele>582</ele>
        <time>2010-01-01T01:20:44Z</time>
      </trkpt>
      <trkpt lat="42.1398" lon="2.55202">
        <ele>583</ele>
        <time>2010-01-01T01:20:53Z</time>
      </trkpt>
      <trkpt lat="42.13992" lon="2.55195">
        <ele>583</ele>
        <time>2010-01-01T01:20:58Z</time>
      </trkpt>
      <trkpt lat="42.14005" lon="2.55195">
        <ele>581</ele>
        <time>2010-01-01T01:21:03Z</time>
      </trkpt>
      <trkpt lat="42.1402" lon="2.55197">
        <ele>577</ele>
        <time>2010-01-01T01:21:09Z</time>
      </trkpt>
      <trkpt lat="42.14035" lon="2.55206">
        <ele>573</ele>
        <time>2010-01-01T01:21:16Z</time>
      </trkpt>
      <trkpt lat="42.14049" lon="2.55211">
        <ele>572</ele>
        <time>2010-01-01T01:21:21Z</time>
      </trkpt>
      <trkpt lat="42.14062" lon="2.55227">
        <ele>568</ele>
        <time>2010-01-01T01:21:29Z</time>
      </trkpt>
      <trkpt lat="42.14072" lon="2.55249">
        <ele>562</ele>
        <time>2010-01-01T01:21:36Z</time>
      </trkpt>
      <trkpt lat="42.14082" lon="2.55265">
        <ele>559</ele>
        <time>2010-01-01T01:21:42Z</time>
      </trkpt>
      <trkpt lat="42.14092" lon="2.55285">
        <ele>556</ele>
        <time>2010-01-01T01:21:49Z</time>
      </trkpt>
      <trkpt lat="42.14098" lon="2.55298">
        <ele>554</ele>
        <time>2010-01-01T01:21:54Z</time>
      </trkpt>
      <trkpt lat="42.14108" lon="2.55316">
        <ele>554</ele>
        <time>2010-01-01T01:22:01Z</time>
      </trkpt>
      <trkpt lat="42.14111" lon="2.55325">
        <ele>554</ele>
        <time>2010-01-01T01:22:04Z</time>
      </trkpt>
      <trkpt lat="42.14128" lon="2.55353">
        <ele>554</ele>
        <time>2010-01-01T01:22:14Z</time>
      </trkpt>
      <trkpt lat="42.14139" lon="2.55371">
        <ele>553</ele>
        <time>2010-01-01T01:22:21Z</time>
      </trkpt>
      <trkpt lat="42.14148" lon="2.55388">
        <ele>552</ele>
        <time>2010-01-01T01:22:28Z</time>
      </trkpt>
      <trkpt lat="42.14157" lon="2.55406">
        <ele>553</ele>
        <time>2010-01-01T01:22:34Z</time>
      </trkpt>
      <trkpt lat="42.14168" lon="2.55415">
        <ele>551</ele>
        <time>2010-01-01T01:22:39Z</time>
      </trkpt>
      <trkpt lat="42.14181" lon="2.55423">
        <ele>550</ele>
        <time>2010-01-01T01:22:45Z</time>
      </trkpt>
      <trkpt lat="42.14196" lon="2.55433">
        <ele>549</ele>
        <time>2010-01-01T01:22:52Z</time>
      </trkpt>
      <trkpt lat="42.14198" lon="2.55437">
        <ele>549</ele>
        <time>2010-01-01T01:22:53Z</time>
      </trkpt>
      <trkpt lat="42.14197" lon="2.55437">
        <ele>549</ele>
        <time>2010-01-01T01:22:54Z</time>
      </trkpt>
      <trkpt lat="42.14191" lon="2.55433">
        <ele>550</ele>
        <time>2010-01-01T01:22:56Z</time>
      </trkpt>
      <trkpt lat="42.14194" lon="2.55436">
        <ele>549</ele>
        <time>2010-01-01T01:22:58Z</time>
      </trkpt>
      <trkpt lat="42.14199" lon="2.55443">
        <ele>550</ele>
        <time>2010-01-01T01:23:01Z</time>
      </trkpt>
      <trkpt lat="42.14205" lon="2.55456">
        <ele>551</ele>
        <time>2010-01-01T01:23:05Z</time>
      </trkpt>
      <trkpt lat="42.14212" lon="2.55473">
        <ele>553</ele>
        <time>2010-01-01T01:23:11Z</time>
      </trkpt>
      <trkpt lat="42.1422" lon="2.55489">
        <ele>554</ele>
        <time>2010-01-01T01:23:17Z</time>
      </trkpt>
      <trkpt lat="42.14222" lon="2.55492">
        <ele>554</ele>
        <time>2010-01-01T01:23:18Z</time>
      </trkpt>
      <trkpt lat="42.14231" lon="2.55511">
        <ele>556</ele>
        <time>2010-01-01T01:23:25Z</time>
      </trkpt>
      <trkpt lat="42.1424" lon="2.55531">
        <ele>555</ele>
        <time>2010-01-01T01:23:32Z</time>
      </trkpt>
      <trkpt lat="42.14252" lon="2.55555">
        <ele>552</ele>
        <time>2010-01-01T01:23:40Z</time>
      </trkpt>
      <trkpt lat="42.14258" lon="2.55577">
        <ele>550</ele>
        <time>2010-01-01T01:23:47Z</time>
      </trkpt>
      <trkpt lat="42.14263" lon="2.556">
        <ele>549</ele>
        <time>2010-01-01T01:23:54Z</time>
      </trkpt>
      <trkpt lat="42.14267" lon="2.55623">
        <ele>548</ele>
        <time>2010-01-01T01:24:01Z</time>
      </trkpt>
      <trkpt lat="42.14268" lon="2.55647">
        <ele>546</ele>
        <time>2010-01-01T01:24:09Z</time>
      </trkpt>
      <trkpt lat="42.14266" lon="2.55671">
        <ele>546</ele>
        <time>2010-01-01T01:24:16Z</time>
      </trkpt>
      <trkpt lat="42.14262" lon="2.55703">
        <ele>547</ele>
        <time>2010-01-01T01:24:25Z</time>
      </trkpt>
      <trkpt lat="42.14257" lon="2.55725">
        <ele>547</ele>
        <time>2010-01-01T01:24:32Z</time>
      </trkpt>
      <trkpt lat="42.14255" lon="2.55748">
        <ele>546</ele>
        <time>2010-01-01T01:24:39Z</time>
      </trkpt>
      <trkpt lat="42.14252" lon="2.55772">
        <ele>546</ele>
        <time>2010-01-01T01:24:46Z</time>
      </trkpt>
      <trkpt lat="42.1425" lon="2.55799">
        <ele>546</ele>
        <time>2010-01-01T01:24:54Z</time>
      </trkpt>
      <trkpt lat="42.14248" lon="2.55823">
        <ele>545</ele>
        <time>2010-01-01T01:25:01Z</time>
      </trkpt>
      <trkpt lat="42.14247" lon="2.55846">
        <ele>543</ele>
        <time>2010-01-01T01:25:08Z</time>
      </trkpt>
      <trkpt lat="42.14247" lon="2.55877">
        <ele>540</ele>
        <time>2010-01-01T01:25:18Z</time>
      </trkpt>
      <trkpt lat="42.14248" lon="2.55899">
        <ele>538</ele>
        <time>2010-01-01T01:25:24Z</time>
      </trkpt>
      <trkpt lat="42.14248" lon="2.55921">
        <ele>536</ele>
        <time>2010-01-01T01:25:31Z</time>
      </trkpt>
      <trkpt lat="42.14248" lon="2.55942">
        <ele>534</ele>
        <time>2010-01-01T01:25:37Z</time>
      </trkpt>
      <trkpt lat="42.14247" lon="2.55967">
        <ele>533</ele>
        <time>2010-01-01T01:25:44Z</time>
      </trkpt>
      <trkpt lat="42.14245" lon="2.55975">
        <ele>533</ele>
        <time>2010-01-01T01:25:47Z</time>
      </trkpt>
      <trkpt lat="42.14244" lon="2.55972">
        <ele>534</ele>
        <time>2010-01-01T01:25:48Z</time>
      </trkpt>
      <trkpt lat="42.14243" lon="2.55977">
        <ele>534</ele>
        <time>2010-01-01T01:25:49Z</time>
      </trkpt>
      <trkpt lat="42.14237" lon="2.55996">
        <ele>533</ele>
        <time>2010-01-01T01:25:55Z</time>
      </trkpt>
      <trkpt lat="42.14234" lon="2.56019">
        <ele>533</ele>
        <time>2010-01-01T01:26:02Z</time>
      </trkpt>
      <trkpt lat="42.14231" lon="2.56048">
        <ele>532</ele>
        <time>2010-01-01T01:26:11Z</time>
      </trkpt>
      <trkpt lat="42.14227" lon="2.56075">
        <ele>530</ele>
        <time>2010-01-01T01:26:19Z</time>
      </trkpt>
      <trkpt lat="42.14223" lon="2.56105">
        <ele>529</ele>
        <time>2010-01-01T01:26:28Z</time>
      </trkpt>
      <trkpt lat="42.14217" lon="2.56134">
        <ele>528</ele>
        <time>2010-01-01T01:26:37Z</time>
      </trkpt>
      <trkpt lat="42.14208" lon="2.56158">
        <ele>528</ele>
        <time>2010-01-01T01:26:45Z</time>
      </trkpt>
      <trkpt lat="42.14203" lon="2.56174">
        <ele>528</ele>
        <time>2010-01-01T01:26:50Z</time>
      </trkpt>
      <trkpt lat="42.14194" lon="2.56202">
        <ele>527</ele>
        <time>2010-01-01T01:26:59Z</time>
      </trkpt>
      <trkpt lat="42.14187" lon="2.56225">
        <ele>527</ele>
        <time>2010-01-01T01:27:06Z</time>
      </trkpt>
      <trkpt lat="42.14183" lon="2.56247">
        <ele>526</ele>
        <time>2010-01-01T01:27:13Z</time>
      </trkpt>
      <trkpt lat="42.14178" lon="2.56269">
        <ele>525</ele>
        <time>2010-01-01T01:27:20Z</time>
      </trkpt>
      <trkpt lat="42.14172" lon="2.56298">
        <ele>523</ele>
        <time>2010-01-01T01:27:29Z</time>
      </trkpt>
      <trkpt lat="42.1417" lon="2.56325">
        <ele>521</ele>
        <time>2010-01-01T01:27:37Z</time>
      </trkpt>
      <trkpt lat="42.1417" lon="2.56346">
        <ele>520</ele>
        <time>2010-01-01T01:27:43Z</time>
      </trkpt>
      <trkpt lat="42.1417" lon="2.56363">
        <ele>520</ele>
        <time>2010-01-01T01:27:48Z</time>
      </trkpt>
      <trkpt lat="42.14176" lon="2.56385">
        <ele>519</ele>
        <time>2010-01-01T01:27:55Z</time>
      </trkpt>
      <trkpt lat="42.14182" lon="2.56392">
        <ele>519</ele>
        <time>2010-01-01T01:27:58Z</time>
      </trkpt>
      <trkpt lat="42.14191" lon="2.56399">
        <ele>519</ele>
        <time>2010-01-01T01:28:03Z</time>
      </trkpt>
      <trkpt lat="42.14199" lon="2.56404">
        <ele>519</ele>
        <time>2010-01-01T01:28:06Z</time>
      </trkpt>
      <trkpt lat="42.14201" lon="2.56405">
        <ele>519</ele>
        <time>2010-01-01T01:28:07Z</time>
      </trkpt>
      <trkpt lat="42.14209" lon="2.56414">
        <ele>520</ele>
        <time>2010-01-01T01:28:11Z</time>
      </trkpt>
      <trkpt lat="42.14215" lon="2.56422">
        <ele>520</ele>
        <time>2010-01-01T01:28:15Z</time>
      </trkpt>
      <trkpt lat="42.14216" lon="2.56438">
        <ele>519</ele>
        <time>2010-01-01T01:28:19Z</time>
      </trkpt>
      <trkpt lat="42.14217" lon="2.56448">
        <ele>519</ele>
        <time>2010-01-01T01:28:22Z</time>
      </trkpt>
      <trkpt lat="42.14218" lon="2.56449">
        <ele>519</ele>
        <time>2010-01-01T01:28:23Z</time>
      </trkpt>
      <trkpt lat="42.14222" lon="2.56463">
        <ele>519</ele>
        <time>2010-01-01T01:28:28Z</time>
      </trkpt>
      <trkpt lat="42.14229" lon="2.56479">
        <ele>519</ele>
        <time>2010-01-01T01:28:33Z</time>
      </trkpt>
      <trkpt lat="42.14236" lon="2.56486">
        <ele>518</ele>
        <time>2010-01-01T01:28:37Z</time>
      </trkpt>
      <trkpt lat="42.14239" lon="2.56497">
        <ele>518</ele>
        <time>2010-01-01T01:28:40Z</time>
      </trkpt>
      <trkpt lat="42.14239" lon="2.565">
        <ele>518</ele>
        <time>2010-01-01T01:28:41Z</time>
      </trkpt>
      <trkpt lat="42.14243" lon="2.56532">
        <ele>516</ele>
        <time>2010-01-01T01:28:50Z</time>
      </trkpt>
      <trkpt lat="42.14251" lon="2.5655">
        <ele>514</ele>
        <time>2010-01-01T01:28:57Z</time>
      </trkpt>
      <trkpt lat="42.14266" lon="2.5656">
        <ele>512</ele>
        <time>2010-01-01T01:29:03Z</time>
      </trkpt>
      <trkpt lat="42.14272" lon="2.56565">
        <ele>511</ele>
        <time>2010-01-01T01:29:06Z</time>
      </trkpt>
      <trkpt lat="42.14274" lon="2.56565">
        <ele>511</ele>
        <time>2010-01-01T01:29:07Z</time>
      </trkpt>
      <trkpt lat="42.14278" lon="2.56568">
        <ele>510</ele>
        <time>2010-01-01T01:29:09Z</time>
      </trkpt>
      <trkpt lat="42.14283" lon="2.56571">
        <ele>510</ele>
        <time>2010-01-01T01:29:11Z</time>
      </trkpt>
      <trkpt lat="42.14291" lon="2.56577">
        <ele>510</ele>
        <time>2010-01-01T01:29:15Z</time>
      </trkpt>
      <trkpt lat="42.14304" lon="2.56585">
        <ele>509</ele>
        <time>2010-01-01T01:29:20Z</time>
      </trkpt>
      <trkpt lat="42.14317" lon="2.56586">
        <ele>507</ele>
        <time>2010-01-01T01:29:26Z</time>
      </trkpt>
      <trkpt lat="42.1433" lon="2.56594">
        <ele>506</ele>
        <time>2010-01-01T01:29:31Z</time>
      </trkpt>
      <trkpt lat="42.14336" lon="2.56607">
        <ele>505</ele>
        <time>2010-01-01T01:29:36Z</time>
      </trkpt>
      <trkpt lat="42.14342" lon="2.56626">
        <ele>504</ele>
        <time>2010-01-01T01:29:42Z</time>
      </trkpt>
      <trkpt lat="42.1435" lon="2.5664">
        <ele>504</ele>
        <time>2010-01-01T01:29:47Z</time>
      </trkpt>
      <trkpt lat="42.14363" lon="2.56659">
        <ele>504</ele>
        <time>2010-01-01T01:29:55Z</time>
      </trkpt>
      <trkpt lat="42.14372" lon="2.56678">
        <ele>503</ele>
        <time>2010-01-01T01:30:02Z</time>
      </trkpt>
      <trkpt lat="42.14373" lon="2.56688">
        <ele>503</ele>
        <time>2010-01-01T01:30:05Z</time>
      </trkpt>
      <trkpt lat="42.14376" lon="2.56697">
        <ele>502</ele>
        <time>2010-01-01T01:30:07Z</time>
      </trkpt>
      <trkpt lat="42.14377" lon="2.56698">
        <ele>502</ele>
        <time>2010-01-01T01:30:08Z</time>
      </trkpt>
      <trkpt lat="42.14377" lon="2.567">
        <ele>502</ele>
        <time>2010-01-01T01:30:08Z</time>
      </trkpt>
      <trkpt lat="42.14377" lon="2.56718">
        <ele>501</ele>
        <time>2010-01-01T01:30:14Z</time>
      </trkpt>
      <trkpt lat="42.14376" lon="2.56738">
        <ele>500</ele>
        <time>2010-01-01T01:30:20Z</time>
      </trkpt>
      <trkpt lat="42.1438" lon="2.56753">
        <ele>500</ele>
        <time>2010-01-01T01:30:24Z</time>
      </trkpt>
      <trkpt lat="42.14381" lon="2.56772">
        <ele>499</ele>
        <time>2010-01-01T01:30:30Z</time>
      </trkpt>
      <trkpt lat="42.14385" lon="2.5679">
        <ele>498</ele>
        <time>2010-01-01T01:30:35Z</time>
      </trkpt>
      <trkpt lat="42.14393" lon="2.56809">
        <ele>496</ele>
        <time>2010-01-01T01:30:42Z</time>
      </trkpt>
      <trkpt lat="42.144" lon="2.56819">
        <ele>495</ele>
        <time>2010-01-01T01:30:46Z</time>
      </trkpt>
      <trkpt lat="42.14401" lon="2.5682">
        <ele>495</ele>
        <time>2010-01-01T01:30:47Z</time>
      </trkpt>
      <trkpt lat="42.14411" lon="2.56829">
        <ele>494</ele>
        <time>2010-01-01T01:30:52Z</time>
      </trkpt>
      <trkpt lat="42.14417" lon="2.56837">
        <ele>493</ele>
        <time>2010-01-01T01:30:55Z</time>
      </trkpt>
      <trkpt lat="42.14429" lon="2.56846">
        <ele>494</ele>
        <time>2010-01-01T01:31:00Z</time>
      </trkpt>
      <trkpt lat="42.14435" lon="2.56848">
        <ele>495</ele>
        <time>2010-01-01T01:31:03Z</time>
      </trkpt>
      <trkpt lat="42.14436" lon="2.56857">
        <ele>494</ele>
        <time>2010-01-01T01:31:06Z</time>
      </trkpt>
      <trkpt lat="42.14435" lon="2.5686">
        <ele>494</ele>
        <time>2010-01-01T01:31:07Z</time>
      </trkpt>
      <trkpt lat="42.14434" lon="2.56859">
        <ele>494</ele>
        <time>2010-01-01T01:31:07Z</time>
      </trkpt>
      <trkpt lat="42.14434" lon="2.56859">
        <ele>494</ele>
        <time>2010-01-01T01:31:07Z</time>
      </trkpt>
      <trkpt lat="42.14434" lon="2.56864">
        <ele>494</ele>
        <time>2010-01-01T01:31:09Z</time>
      </trkpt>
      <trkpt lat="42.14435" lon="2.56867">
        <ele>493</ele>
        <time>2010-01-01T01:31:10Z</time>
      </trkpt>
      <trkpt lat="42.14441" lon="2.56874">
        <ele>494</ele>
        <time>2010-01-01T01:31:13Z</time>
      </trkpt>
      <trkpt lat="42.14442" lon="2.56879">
        <ele>494</ele>
        <time>2010-01-01T01:31:14Z</time>
      </trkpt>
      <trkpt lat="42.14441" lon="2.56889">
        <ele>493</ele>
        <time>2010-01-01T01:31:17Z</time>
      </trkpt>
      <trkpt lat="42.14443" lon="2.56901">
        <ele>492</ele>
        <time>2010-01-01T01:31:21Z</time>
      </trkpt>
      <trkpt lat="42.14451" lon="2.56911">
        <ele>493</ele>
        <time>2010-01-01T01:31:25Z</time>
      </trkpt>
      <trkpt lat="42.14456" lon="2.56921">
        <ele>493</ele>
        <time>2010-01-01T01:31:29Z</time>
      </trkpt>
      <trkpt lat="42.14395" lon="2.57093">
        <ele>492</ele>
        <time>2010-01-01T01:32:26Z</time>
      </trkpt>
      <trkpt lat="42.14395" lon="2.571">
        <ele>492</ele>
        <time>2010-01-01T01:32:28Z</time>
      </trkpt>
      <trkpt lat="42.14395" lon="2.57102">
        <ele>492</ele>
        <time>2010-01-01T01:32:28Z</time>
      </trkpt>
      <trkpt lat="42.14393" lon="2.57124">
        <ele>492</ele>
        <time>2010-01-01T01:32:35Z</time>
      </trkpt>
      <trkpt lat="42.14393" lon="2.57145">
        <ele>492</ele>
        <time>2010-01-01T01:32:41Z</time>
      </trkpt>
      <trkpt lat="42.14394" lon="2.57168">
        <ele>490</ele>
        <time>2010-01-01T01:32:48Z</time>
      </trkpt>
      <trkpt lat="42.14397" lon="2.57185">
        <ele>488</ele>
        <time>2010-01-01T01:32:53Z</time>
      </trkpt>
      <trkpt lat="42.14402" lon="2.57199">
        <ele>485</ele>
        <time>2010-01-01T01:32:58Z</time>
      </trkpt>
      <trkpt lat="42.14411" lon="2.57215">
        <ele>483</ele>
        <time>2010-01-01T01:33:04Z</time>
      </trkpt>
      <trkpt lat="42.14422" lon="2.57234">
        <ele>480</ele>
        <time>2010-01-01T01:33:11Z</time>
      </trkpt>
      <trkpt lat="42.14427" lon="2.5725">
        <ele>477</ele>
        <time>2010-01-01T01:33:16Z</time>
      </trkpt>
      <trkpt lat="42.14431" lon="2.57272">
        <ele>474</ele>
        <time>2010-01-01T01:33:23Z</time>
      </trkpt>
      <trkpt lat="42.14433" lon="2.57275">
        <ele>474</ele>
        <time>2010-01-01T01:33:24Z</time>
      </trkpt>
      <trkpt lat="42.1444" lon="2.57291">
        <ele>472</ele>
        <time>2010-01-01T01:33:29Z</time>
      </trkpt>
      <trkpt lat="42.1445" lon="2.57312">
        <ele>470</ele>
        <time>2010-01-01T01:33:37Z</time>
      </trkpt>
      <trkpt lat="42.14452" lon="2.57316">
        <ele>469</ele>
        <time>2010-01-01T01:33:38Z</time>
      </trkpt>
      <trkpt lat="42.14454" lon="2.57321">
        <ele>469</ele>
        <time>2010-01-01T01:33:40Z</time>
      </trkpt>
      <trkpt lat="42.14454" lon="2.57324">
        <ele>469</ele>
        <time>2010-01-01T01:33:41Z</time>
      </trkpt>
      <trkpt lat="42.14451" lon="2.57331">
        <ele>467</ele>
        <time>2010-01-01T01:33:43Z</time>
      </trkpt>
      <trkpt lat="42.14448" lon="2.57337">
        <ele>467</ele>
        <time>2010-01-01T01:33:45Z</time>
      </trkpt>
      <trkpt lat="42.14453" lon="2.57369">
        <ele>464</ele>
        <time>2010-01-01T01:33:55Z</time>
      </trkpt>
      <trkpt lat="42.14456" lon="2.57401">
        <ele>462</ele>
        <time>2010-01-01T01:34:04Z</time>
      </trkpt>
      <trkpt lat="42.14457" lon="2.57425">
        <ele>461</ele>
        <time>2010-01-01T01:34:12Z</time>
      </trkpt>
      <trkpt lat="42.14457" lon="2.57446">
        <ele>460</ele>
        <time>2010-01-01T01:34:18Z</time>
      </trkpt>
      <trkpt lat="42.14459" lon="2.57478">
        <ele>459</ele>
        <time>2010-01-01T01:34:27Z</time>
      </trkpt>
      <trkpt lat="42.14459" lon="2.57489">
        <ele>458</ele>
        <time>2010-01-01T01:34:31Z</time>
      </trkpt>
      <trkpt lat="42.14459" lon="2.57495">
        <ele>457</ele>
        <time>2010-01-01T01:34:32Z</time>
      </trkpt>
      <trkpt lat="42.14462" lon="2.57521">
        <ele>456</ele>
        <time>2010-01-01T01:34:40Z</time>
      </trkpt>
      <trkpt lat="42.14463" lon="2.57524">
        <ele>456</ele>
        <time>2010-01-01T01:34:41Z</time>
      </trkpt>
      <trkpt lat="42.14462" lon="2.57524">
        <ele>456</ele>
        <time>2010-01-01T01:34:41Z</time>
      </trkpt>
      <trkpt lat="42.14462" lon="2.57523">
        <ele>456</ele>
        <time>2010-01-01T01:34:42Z</time>
      </trkpt>
      <trkpt lat="42.14463" lon="2.57524">
        <ele>456</ele>
        <time>2010-01-01T01:34:43Z</time>
      </trkpt>
      <trkpt lat="42.1446" lon="2.57524">
        <ele>456</ele>
        <time>2010-01-01T01:34:44Z</time>
      </trkpt>
      <trkpt lat="42.14461" lon="2.57525">
        <ele>456</ele>
        <time>2010-01-01T01:34:44Z</time>
      </trkpt>
      <trkpt lat="42.14461" lon="2.57523">
        <ele>456</ele>
        <time>2010-01-01T01:34:45Z</time>
      </trkpt>
      <trkpt lat="42.14461" lon="2.57522">
        <ele>456</ele>
        <time>2010-01-01T01:34:45Z</time>
      </trkpt>
      <trkpt lat="42.14461" lon="2.57522">
        <ele>456</ele>
        <time>2010-01-01T01:34:45Z</time>
      </trkpt>
      <trkpt lat="42.14467" lon="2.57542">
        <ele>456</ele>
        <time>2010-01-01T01:34:51Z</time>
      </trkpt>
      <trkpt lat="42.14474" lon="2.57564">
        <ele>455</ele>
        <time>2010-01-01T01:34:58Z</time>
      </trkpt>
      <trkpt lat="42.14479" lon="2.57587">
        <ele>455</ele>
        <time>2010-01-01T01:35:05Z</time>
      </trkpt>
      <trkpt lat="42.14487" lon="2.57606">
        <ele>455</ele>
        <time>2010-01-01T01:35:12Z</time>
      </trkpt>
      <trkpt lat="42.14499" lon="2.57625">
        <ele>454</ele>
        <time>2010-01-01T01:35:19Z</time>
      </trkpt>
      <trkpt lat="42.14503" lon="2.57649">
        <ele>453</ele>
        <time>2010-01-01T01:35:26Z</time>
      </trkpt>
      <trkpt lat="42.14504" lon="2.57672">
        <ele>452</ele>
        <time>2010-01-01T01:35:33Z</time>
      </trkpt>
      <trkpt lat="42.14504" lon="2.57672">
        <ele>452</ele>
        <time>2010-01-01T01:35:34Z</time>
      </trkpt>
      <trkpt lat="42.14505" lon="2.57682">
        <ele>452</ele>
        <time>2010-01-01T01:35:36Z</time>
      </trkpt>
      <trkpt lat="42.14511" lon="2.57687">
        <ele>452</ele>
        <time>2010-01-01T01:35:39Z</time>
      </trkpt>
      <trkpt lat="42.14516" lon="2.57695">
        <ele>451</ele>
        <time>2010-01-01T01:35:42Z</time>
      </trkpt>
      <trkpt lat="42.1452" lon="2.57705">
        <ele>451</ele>
        <time>2010-01-01T01:35:46Z</time>
      </trkpt>
      <trkpt lat="42.14523" lon="2.57725">
        <ele>449</ele>
        <time>2010-01-01T01:35:52Z</time>
      </trkpt>
      <trkpt lat="42.14532" lon="2.57739">
        <ele>449</ele>
        <time>2010-01-01T01:35:57Z</time>
      </trkpt>
      <trkpt lat="42.14533" lon="2.57741">
        <ele>449</ele>
        <time>2010-01-01T01:35:58Z</time>
      </trkpt>
      <trkpt lat="42.14539" lon="2.57744">
        <ele>449</ele>
        <time>2010-01-01T01:36:01Z</time>
      </trkpt>
      <trkpt lat="42.14545" lon="2.57749">
        <ele>449</ele>
        <time>2010-01-01T01:36:03Z</time>
      </trkpt>
      <trkpt lat="42.14551" lon="2.57751">
        <ele>448</ele>
        <time>2010-01-01T01:36:06Z</time>
      </trkpt>
      <trkpt lat="42.14553" lon="2.57755">
        <ele>448</ele>
        <time>2010-01-01T01:36:07Z</time>
      </trkpt>
      <trkpt lat="42.1456" lon="2.57765">
        <ele>449</ele>
        <time>2010-01-01T01:36:11Z</time>
      </trkpt>
      <trkpt lat="42.14571" lon="2.57785">
        <ele>449</ele>
        <time>2010-01-01T01:36:19Z</time>
      </trkpt>
      <trkpt lat="42.14586" lon="2.57801">
        <ele>448</ele>
        <time>2010-01-01T01:36:26Z</time>
      </trkpt>
      <trkpt lat="42.146" lon="2.57813">
        <ele>449</ele>
        <time>2010-01-01T01:36:33Z</time>
      </trkpt>
      <trkpt lat="42.14612" lon="2.57819">
        <ele>449</ele>
        <time>2010-01-01T01:36:38Z</time>
      </trkpt>
      <trkpt lat="42.1463" lon="2.57826">
        <ele>449</ele>
        <time>2010-01-01T01:36:45Z</time>
      </trkpt>
      <trkpt lat="42.14636" lon="2.57835">
        <ele>448</ele>
        <time>2010-01-01T01:36:49Z</time>
      </trkpt>
      <trkpt lat="42.1464" lon="2.57841">
        <ele>448</ele>
        <time>2010-01-01T01:36:52Z</time>
      </trkpt>
      <trkpt lat="42.1464" lon="2.57842">
        <ele>448</ele>
        <time>2010-01-01T01:36:52Z</time>
      </trkpt>
      <trkpt lat="42.14647" lon="2.5785">
        <ele>448</ele>
        <time>2010-01-01T01:36:55Z</time>
      </trkpt>
      <trkpt lat="42.14652" lon="2.57855">
        <ele>448</ele>
        <time>2010-01-01T01:36:58Z</time>
      </trkpt>
      <trkpt lat="42.14653" lon="2.57863">
        <ele>447</ele>
        <time>2010-01-01T01:37:00Z</time>
      </trkpt>
      <trkpt lat="42.14655" lon="2.57866">
        <ele>447</ele>
        <time>2010-01-01T01:37:02Z</time>
      </trkpt>
      <trkpt lat="42.14659" lon="2.5789">
        <ele>446</ele>
        <time>2010-01-01T01:37:09Z</time>
      </trkpt>
      <trkpt lat="42.1466" lon="2.57913">
        <ele>446</ele>
        <time>2010-01-01T01:37:16Z</time>
      </trkpt>
      <trkpt lat="42.14665" lon="2.57931">
        <ele>445</ele>
        <time>2010-01-01T01:37:22Z</time>
      </trkpt>
      <trkpt lat="42.14671" lon="2.57947">
        <ele>444</ele>
        <time>2010-01-01T01:37:27Z</time>
      </trkpt>
      <trkpt lat="42.14674" lon="2.57955">
        <ele>444</ele>
        <time>2010-01-01T01:37:30Z</time>
      </trkpt>
      <trkpt lat="42.14678" lon="2.57975">
        <ele>443</ele>
        <time>2010-01-01T01:37:36Z</time>
      </trkpt>
      <trkpt lat="42.14685" lon="2.58003">
        <ele>443</ele>
        <time>2010-01-01T01:37:45Z</time>
      </trkpt>
      <trkpt lat="42.14684" lon="2.58005">
        <ele>443</ele>
        <time>2010-01-01T01:37:45Z</time>
      </trkpt>
      <trkpt lat="42.14673" lon="2.57996">
        <ele>443</ele>
        <time>2010-01-01T01:37:50Z</time>
      </trkpt>
      <trkpt lat="42.14672" lon="2.58003">
        <ele>443</ele>
        <time>2010-01-01T01:37:53Z</time>
      </trkpt>
      <trkpt lat="42.14679" lon="2.58021">
        <ele>443</ele>
        <time>2010-01-01T01:37:59Z</time>
      </trkpt>
      <trkpt lat="42.14677" lon="2.58039">
        <ele>442</ele>
        <time>2010-01-01T01:38:04Z</time>
      </trkpt>
      <trkpt lat="42.14674" lon="2.58042">
        <ele>442</ele>
        <time>2010-01-01T01:38:05Z</time>
      </trkpt>
      <trkpt lat="42.14676" lon="2.58057">
        <ele>442</ele>
        <time>2010-01-01T01:38:10Z</time>
      </trkpt>
      <trkpt lat="42.14682" lon="2.58063">
        <ele>442</ele>
        <time>2010-01-01T01:38:13Z</time>
      </trkpt>
      <trkpt lat="42.14684" lon="2.58064">
        <ele>442</ele>
        <time>2010-01-01T01:38:14Z</time>
      </trkpt>
      <trkpt lat="42.14685" lon="2.58065">
        <ele>442</ele>
        <time>2010-01-01T01:38:14Z</time>
      </trkpt>
      <trkpt lat="42.14693" lon="2.58063">
        <ele>441</ele>
        <time>2010-01-01T01:38:18Z</time>
      </trkpt>
      <trkpt lat="42.14697" lon="2.5807">
        <ele>441</ele>
        <time>2010-01-01T01:38:20Z</time>
      </trkpt>
      <trkpt lat="42.14695" lon="2.58068">
        <ele>441</ele>
        <time>2010-01-01T01:38:21Z</time>
      </trkpt>
      <trkpt lat="42.14694" lon="2.58066">
        <ele>441</ele>
        <time>2010-01-01T01:38:22Z</time>
      </trkpt>
      <trkpt lat="42.14689" lon="2.5807">
        <ele>441</ele>
        <time>2010-01-01T01:38:24Z</time>
      </trkpt>
      <trkpt lat="42.14684" lon="2.58066">
        <ele>442</ele>
        <time>2010-01-01T01:38:27Z</time>
      </trkpt>
      <trkpt lat="42.14679" lon="2.58064">
        <ele>442</ele>
        <time>2010-01-01T01:38:29Z</time>
      </trkpt>
      <trkpt lat="42.14674" lon="2.58057">
        <ele>442</ele>
        <time>2010-01-01T01:38:31Z</time>
      </trkpt>
      <trkpt lat="42.14674" lon="2.58056">
        <ele>442</ele>
        <time>2010-01-01T01:38:32Z</time>
      </trkpt>
      <trkpt lat="42.14673" lon="2.58041">
        <ele>442</ele>
        <time>2010-01-01T01:38:36Z</time>
      </trkpt>
      <trkpt lat="42.14676" lon="2.58034">
        <ele>442</ele>
        <time>2010-01-01T01:38:39Z</time>
      </trkpt>
      <trkpt lat="42.14676" lon="2.5802">
        <ele>443</ele>
        <time>2010-01-01T01:38:43Z</time>
      </trkpt>
      <trkpt lat="42.1467" lon="2.58004">
        <ele>443</ele>
        <time>2010-01-01T01:38:49Z</time>
      </trkpt>
      <trkpt lat="42.14662" lon="2.57997">
        <ele>444</ele>
        <time>2010-01-01T01:38:52Z</time>
      </trkpt>
      <trkpt lat="42.1465" lon="2.57993">
        <ele>445</ele>
        <time>2010-01-01T01:38:57Z</time>
      </trkpt>
      <trkpt lat="42.1464" lon="2.57981">
        <ele>445</ele>
        <time>2010-01-01T01:39:02Z</time>
      </trkpt>
      <trkpt lat="42.14629" lon="2.57964">
        <ele>447</ele>
        <time>2010-01-01T01:39:09Z</time>
      </trkpt>
      <trkpt lat="42.14632" lon="2.57965">
        <ele>446</ele>
        <time>2010-01-01T01:39:10Z</time>
      </trkpt>
      <trkpt lat="42.14627" lon="2.57963">
        <ele>447</ele>
        <time>2010-01-01T01:39:12Z</time>
      </trkpt>
      <trkpt lat="42.1462" lon="2.57963">
        <ele>448</ele>
        <time>2010-01-01T01:39:15Z</time>
      </trkpt>
      <trkpt lat="42.14606" lon="2.57977">
        <ele>450</ele>
        <time>2010-01-01T01:39:22Z</time>
      </trkpt>
      <trkpt lat="42.14591" lon="2.57966">
        <ele>452</ele>
        <time>2010-01-01T01:39:28Z</time>
      </trkpt>
      <trkpt lat="42.14576" lon="2.57954">
        <ele>452</ele>
        <time>2010-01-01T01:39:35Z</time>
      </trkpt>
      <trkpt lat="42.14562" lon="2.57971">
        <ele>454</ele>
        <time>2010-01-01T01:39:43Z</time>
      </trkpt>
      <trkpt lat="42.14562" lon="2.57971">
        <ele>454</ele>
        <time>2010-01-01T01:39:43Z</time>
      </trkpt>
      <trkpt lat="42.14561" lon="2.57974">
        <ele>454</ele>
        <time>2010-01-01T01:39:44Z</time>
      </trkpt>
      <trkpt lat="42.14562" lon="2.57985">
        <ele>456</ele>
        <time>2010-01-01T01:39:47Z</time>
      </trkpt>
      <trkpt lat="42.14564" lon="2.5799">
        <ele>456</ele>
        <time>2010-01-01T01:39:49Z</time>
      </trkpt>
      <trkpt lat="42.14565" lon="2.5799">
        <ele>456</ele>
        <time>2010-01-01T01:39:49Z</time>
      </trkpt>
      <trkpt lat="42.14566" lon="2.57991">
        <ele>456</ele>
        <time>2010-01-01T01:39:50Z</time>
      </trkpt>
      <trkpt lat="42.14567" lon="2.57996">
        <ele>457</ele>
        <time>2010-01-01T01:39:51Z</time>
      </trkpt>
      <trkpt lat="42.1457" lon="2.58002">
        <ele>457</ele>
        <time>2010-01-01T01:39:53Z</time>
      </trkpt>
      <trkpt lat="42.14573" lon="2.5801">
        <ele>458</ele>
        <time>2010-01-01T01:39:56Z</time>
      </trkpt>
      <trkpt lat="42.14576" lon="2.58027">
        <ele>460</ele>
        <time>2010-01-01T01:40:01Z</time>
      </trkpt>
      <trkpt lat="42.14579" lon="2.58042">
        <ele>461</ele>
        <time>2010-01-01T01:40:06Z</time>
      </trkpt>
      <trkpt lat="42.1458" lon="2.58052">
        <ele>463</ele>
        <time>2010-01-01T01:40:09Z</time>
      </trkpt>
      <trkpt lat="42.14584" lon="2.58075">
        <ele>463</ele>
        <time>2010-01-01T01:40:15Z</time>
      </trkpt>
      <trkpt lat="42.14584" lon="2.58075">
        <ele>463</ele>
        <time>2010-01-01T01:40:16Z</time>
      </trkpt>
      <trkpt lat="42.14587" lon="2.58079">
        <ele>462</ele>
        <time>2010-01-01T01:40:17Z</time>
      </trkpt>
      <trkpt lat="42.14587" lon="2.58081">
        <ele>462</ele>
        <time>2010-01-01T01:40:18Z</time>
      </trkpt>
      <trkpt lat="42.14584" lon="2.58102">
        <ele>462</ele>
        <time>2010-01-01T01:40:24Z</time>
      </trkpt>
      <trkpt lat="42.14577" lon="2.58117">
        <ele>463</ele>
        <time>2010-01-01T01:40:30Z</time>
      </trkpt>
      <trkpt lat="42.14556" lon="2.58119">
        <ele>469</ele>
        <time>2010-01-01T01:40:38Z</time>
      </trkpt>
      <trkpt lat="42.14539" lon="2.58126">
        <ele>471</ele>
        <time>2010-01-01T01:40:45Z</time>
      </trkpt>
      <trkpt lat="42.14515" lon="2.58143">
        <ele>473</ele>
        <time>2010-01-01T01:40:56Z</time>
      </trkpt>
      <trkpt lat="42.14514" lon="2.58144">
        <ele>473</ele>
        <time>2010-01-01T01:40:56Z</time>
      </trkpt>
      <trkpt lat="42.14503" lon="2.5814">
        <ele>476</ele>
        <time>2010-01-01T01:41:01Z</time>
      </trkpt>
      <trkpt lat="42.14502" lon="2.58141">
        <ele>476</ele>
        <time>2010-01-01T01:41:01Z</time>
      </trkpt>
      <trkpt lat="42.14488" lon="2.58155">
        <ele>475</ele>
        <time>2010-01-01T01:41:08Z</time>
      </trkpt>
      <trkpt lat="42.14475" lon="2.58164">
        <ele>476</ele>
        <time>2010-01-01T01:41:14Z</time>
      </trkpt>
      <trkpt lat="42.1446" lon="2.58178">
        <ele>475</ele>
        <time>2010-01-01T01:41:21Z</time>
      </trkpt>
      <trkpt lat="42.14459" lon="2.58179">
        <ele>475</ele>
        <time>2010-01-01T01:41:22Z</time>
      </trkpt>
      <trkpt lat="42.14448" lon="2.58184">
        <ele>475</ele>
        <time>2010-01-01T01:41:26Z</time>
      </trkpt>
      <trkpt lat="42.14439" lon="2.58188">
        <ele>475</ele>
        <time>2010-01-01T01:41:30Z</time>
      </trkpt>
      <trkpt lat="42.14437" lon="2.58191">
        <ele>475</ele>
        <time>2010-01-01T01:41:31Z</time>
      </trkpt>
      <trkpt lat="42.14429" lon="2.58202">
        <ele>474</ele>
        <time>2010-01-01T01:41:36Z</time>
      </trkpt>
      <trkpt lat="42.14425" lon="2.58207">
        <ele>473</ele>
        <time>2010-01-01T01:41:38Z</time>
      </trkpt>
      <trkpt lat="42.14411" lon="2.58223">
        <ele>471</ele>
        <time>2010-01-01T01:41:45Z</time>
      </trkpt>
      <trkpt lat="42.14396" lon="2.58233">
        <ele>470</ele>
        <time>2010-01-01T01:41:52Z</time>
      </trkpt>
      <trkpt lat="42.14379" lon="2.58244">
        <ele>470</ele>
        <time>2010-01-01T01:42:00Z</time>
      </trkpt>
      <trkpt lat="42.14375" lon="2.58252">
        <ele>469</ele>
        <time>2010-01-01T01:42:03Z</time>
      </trkpt>
      <trkpt lat="42.14365" lon="2.58268">
        <ele>470</ele>
        <time>2010-01-01T01:42:09Z</time>
      </trkpt>
      <trkpt lat="42.14351" lon="2.58282">
        <ele>472</ele>
        <time>2010-01-01T01:42:16Z</time>
      </trkpt>
      <trkpt lat="42.1435" lon="2.58286">
        <ele>472</ele>
        <time>2010-01-01T01:42:17Z</time>
      </trkpt>
      <trkpt lat="42.14348" lon="2.583">
        <ele>473</ele>
        <time>2010-01-01T01:42:22Z</time>
      </trkpt>
      <trkpt lat="42.14347" lon="2.58315">
        <ele>473</ele>
        <time>2010-01-01T01:42:26Z</time>
      </trkpt>
      <trkpt lat="42.14346" lon="2.58315">
        <ele>473</ele>
        <time>2010-01-01T01:42:26Z</time>
      </trkpt>
      <trkpt lat="42.14342" lon="2.58321">
        <ele>474</ele>
        <time>2010-01-01T01:42:29Z</time>
      </trkpt>
      <trkpt lat="42.14338" lon="2.58326">
        <ele>474</ele>
        <time>2010-01-01T01:42:31Z</time>
      </trkpt>
      <trkpt lat="42.14334" lon="2.58329">
        <ele>475</ele>
        <time>2010-01-01T01:42:33Z</time>
      </trkpt>
      <trkpt lat="42.14317" lon="2.58331">
        <ele>476</ele>
        <time>2010-01-01T01:42:40Z</time>
      </trkpt>
      <trkpt lat="42.143" lon="2.58336">
        <ele>478</ele>
        <time>2010-01-01T01:42:47Z</time>
      </trkpt>
      <trkpt lat="42.14288" lon="2.58339">
        <ele>478</ele>
        <time>2010-01-01T01:42:52Z</time>
      </trkpt>
      <trkpt lat="42.14284" lon="2.58352">
        <ele>476</ele>
        <time>2010-01-01T01:42:56Z</time>
      </trkpt>
      <trkpt lat="42.14281" lon="2.58356">
        <ele>475</ele>
        <time>2010-01-01T01:42:57Z</time>
      </trkpt>
      <trkpt lat="42.14284" lon="2.58366">
        <ele>473</ele>
        <time>2010-01-01T01:43:00Z</time>
      </trkpt>
      <trkpt lat="42.14285" lon="2.58369">
        <ele>472</ele>
        <time>2010-01-01T01:43:02Z</time>
      </trkpt>
      <trkpt lat="42.14285" lon="2.58372">
        <ele>472</ele>
        <time>2010-01-01T01:43:02Z</time>
      </trkpt>
      <trkpt lat="42.14286" lon="2.58374">
        <ele>471</ele>
        <time>2010-01-01T01:43:03Z</time>
      </trkpt>
      <trkpt lat="42.14285" lon="2.58371">
        <ele>472</ele>
        <time>2010-01-01T01:43:04Z</time>
      </trkpt>
      <trkpt lat="42.14279" lon="2.58368">
        <ele>473</ele>
        <time>2010-01-01T01:43:06Z</time>
      </trkpt>
      <trkpt lat="42.14269" lon="2.58373">
        <ele>472</ele>
        <time>2010-01-01T01:43:11Z</time>
      </trkpt>
      <trkpt lat="42.14266" lon="2.58378">
        <ele>471</ele>
        <time>2010-01-01T01:43:12Z</time>
      </trkpt>
      <trkpt lat="42.14271" lon="2.58392">
        <ele>467</ele>
        <time>2010-01-01T01:43:17Z</time>
      </trkpt>
      <trkpt lat="42.14268" lon="2.58394">
        <ele>466</ele>
        <time>2010-01-01T01:43:18Z</time>
      </trkpt>
      <trkpt lat="42.14262" lon="2.58389">
        <ele>468</ele>
        <time>2010-01-01T01:43:21Z</time>
      </trkpt>
      <trkpt lat="42.14248" lon="2.5839">
        <ele>468</ele>
        <time>2010-01-01T01:43:27Z</time>
      </trkpt>
      <trkpt lat="42.14246" lon="2.5839">
        <ele>468</ele>
        <time>2010-01-01T01:43:27Z</time>
      </trkpt>
      <trkpt lat="42.14239" lon="2.58401">
        <ele>465</ele>
        <time>2010-01-01T01:43:32Z</time>
      </trkpt>
      <trkpt lat="42.14233" lon="2.58414">
        <ele>462</ele>
        <time>2010-01-01T01:43:36Z</time>
      </trkpt>
      <trkpt lat="42.14231" lon="2.58414">
        <ele>462</ele>
        <time>2010-01-01T01:43:37Z</time>
      </trkpt>
      <trkpt lat="42.14213" lon="2.58417">
        <ele>463</ele>
        <time>2010-01-01T01:43:44Z</time>
      </trkpt>
      <trkpt lat="42.14206" lon="2.58412">
        <ele>465</ele>
        <time>2010-01-01T01:43:48Z</time>
      </trkpt>
      <trkpt lat="42.14204" lon="2.58412">
        <ele>466</ele>
        <time>2010-01-01T01:43:48Z</time>
      </trkpt>
      <trkpt lat="42.14196" lon="2.58425">
        <ele>463</ele>
        <time>2010-01-01T01:43:53Z</time>
      </trkpt>
      <trkpt lat="42.14194" lon="2.58423">
        <ele>464</ele>
        <time>2010-01-01T01:43:54Z</time>
      </trkpt>
      <trkpt lat="42.14188" lon="2.58427">
        <ele>464</ele>
        <time>2010-01-01T01:43:57Z</time>
      </trkpt>
      <trkpt lat="42.14184" lon="2.5843">
        <ele>464</ele>
        <time>2010-01-01T01:43:59Z</time>
      </trkpt>
      <trkpt lat="42.14179" lon="2.58431">
        <ele>465</ele>
        <time>2010-01-01T01:44:01Z</time>
      </trkpt>
      <trkpt lat="42.14172" lon="2.58437">
        <ele>465</ele>
        <time>2010-01-01T01:44:04Z</time>
      </trkpt>
      <trkpt lat="42.14169" lon="2.58439">
        <ele>465</ele>
        <time>2010-01-01T01:44:05Z</time>
      </trkpt>
      <trkpt lat="42.14155" lon="2.58442">
        <ele>466</ele>
        <time>2010-01-01T01:44:11Z</time>
      </trkpt>
      <trkpt lat="42.1415" lon="2.58446">
        <ele>466</ele>
        <time>2010-01-01T01:44:14Z</time>
      </trkpt>
      <trkpt lat="42.14141" lon="2.58452">
        <ele>465</ele>
        <time>2010-01-01T01:44:18Z</time>
      </trkpt>
      <trkpt lat="42.14139" lon="2.58453">
        <ele>465</ele>
        <time>2010-01-01T01:44:19Z</time>
      </trkpt>
      <trkpt lat="42.1413" lon="2.58459">
        <ele>464</ele>
        <time>2010-01-01T01:44:22Z</time>
      </trkpt>
      <trkpt lat="42.1413" lon="2.58463">
        <ele>462</ele>
        <time>2010-01-01T01:44:24Z</time>
      </trkpt>
      <trkpt lat="42.14128" lon="2.5847">
        <ele>461</ele>
        <time>2010-01-01T01:44:26Z</time>
      </trkpt>
      <trkpt lat="42.14127" lon="2.58471">
        <ele>460</ele>
        <time>2010-01-01T01:44:26Z</time>
      </trkpt>
      <trkpt lat="42.14126" lon="2.58491">
        <ele>455</ele>
        <time>2010-01-01T01:44:32Z</time>
      </trkpt>
      <trkpt lat="42.14127" lon="2.58481">
        <ele>458</ele>
        <time>2010-01-01T01:44:35Z</time>
      </trkpt>
      <trkpt lat="42.14129" lon="2.58485">
        <ele>457</ele>
        <time>2010-01-01T01:44:37Z</time>
      </trkpt>
      <trkpt lat="42.14128" lon="2.58488">
        <ele>456</ele>
        <time>2010-01-01T01:44:38Z</time>
      </trkpt>
      <trkpt lat="42.14128" lon="2.58491">
        <ele>455</ele>
        <time>2010-01-01T01:44:39Z</time>
      </trkpt>
      <trkpt lat="42.14127" lon="2.58499">
        <ele>453</ele>
        <time>2010-01-01T01:44:42Z</time>
      </trkpt>
      <trkpt lat="42.14124" lon="2.58487">
        <ele>456</ele>
        <time>2010-01-01T01:44:45Z</time>
      </trkpt>
      <trkpt lat="42.14124" lon="2.58479">
        <ele>458</ele>
        <time>2010-01-01T01:44:48Z</time>
      </trkpt>
      <trkpt lat="42.14127" lon="2.58488">
        <ele>456</ele>
        <time>2010-01-01T01:44:50Z</time>
      </trkpt>
      <trkpt lat="42.1413" lon="2.58489">
        <ele>456</ele>
        <time>2010-01-01T01:44:52Z</time>
      </trkpt>
      <trkpt lat="42.1413" lon="2.5849">
        <ele>455</ele>
        <time>2010-01-01T01:44:52Z</time>
      </trkpt>
      <trkpt lat="42.14128" lon="2.58491">
        <ele>455</ele>
        <time>2010-01-01T01:44:53Z</time>
      </trkpt>
      <trkpt lat="42.14127" lon="2.5849">
        <ele>455</ele>
        <time>2010-01-01T01:44:53Z</time>
      </trkpt>
      <trkpt lat="42.14127" lon="2.58487">
        <ele>456</ele>
        <time>2010-01-01T01:44:54Z</time>
      </trkpt>
      <trkpt lat="42.14129" lon="2.58501">
        <ele>453</ele>
        <time>2010-01-01T01:44:58Z</time>
      </trkpt>
      <trkpt lat="42.14131" lon="2.5852">
        <ele>449</ele>
        <time>2010-01-01T01:45:04Z</time>
      </trkpt>
      <trkpt lat="42.14133" lon="2.58525">
        <ele>448</ele>
        <time>2010-01-01T01:45:06Z</time>
      </trkpt>
      <trkpt lat="42.14135" lon="2.58531">
        <ele>447</ele>
        <time>2010-01-01T01:45:08Z</time>
      </trkpt>
      <trkpt lat="42.14136" lon="2.58534">
        <ele>447</ele>
        <time>2010-01-01T01:45:09Z</time>
      </trkpt>
      <trkpt lat="42.14139" lon="2.58541">
        <ele>446</ele>
        <time>2010-01-01T01:45:11Z</time>
      </trkpt>
      <trkpt lat="42.14138" lon="2.58543">
        <ele>445</ele>
        <time>2010-01-01T01:45:12Z</time>
      </trkpt>
      <trkpt lat="42.14132" lon="2.58556">
        <ele>444</ele>
        <time>2010-01-01T01:45:16Z</time>
      </trkpt>
      <trkpt lat="42.14131" lon="2.58559">
        <ele>444</ele>
        <time>2010-01-01T01:45:18Z</time>
      </trkpt>
      <trkpt lat="42.14135" lon="2.58569">
        <ele>443</ele>
        <time>2010-01-01T01:45:21Z</time>
      </trkpt>
      <trkpt lat="42.14141" lon="2.58583">
        <ele>442</ele>
        <time>2010-01-01T01:45:26Z</time>
      </trkpt>
      <trkpt lat="42.14145" lon="2.58596">
        <ele>441</ele>
        <time>2010-01-01T01:45:30Z</time>
      </trkpt>
      <trkpt lat="42.14159" lon="2.58604">
        <ele>441</ele>
        <time>2010-01-01T01:45:36Z</time>
      </trkpt>
      <trkpt lat="42.14174" lon="2.58598">
        <ele>440</ele>
        <time>2010-01-01T01:45:42Z</time>
      </trkpt>
      <trkpt lat="42.14176" lon="2.58598">
        <ele>440</ele>
        <time>2010-01-01T01:45:43Z</time>
      </trkpt>
      <trkpt lat="42.14181" lon="2.58595">
        <ele>440</ele>
        <time>2010-01-01T01:45:45Z</time>
      </trkpt>
      <trkpt lat="42.14187" lon="2.58597">
        <ele>440</ele>
        <time>2010-01-01T01:45:48Z</time>
      </trkpt>
      <trkpt lat="42.14194" lon="2.58595">
        <ele>439</ele>
        <time>2010-01-01T01:45:51Z</time>
      </trkpt>
      <trkpt lat="42.14199" lon="2.58594">
        <ele>439</ele>
        <time>2010-01-01T01:45:52Z</time>
      </trkpt>
      <trkpt lat="42.14216" lon="2.5859">
        <ele>437</ele>
        <time>2010-01-01T01:46:00Z</time>
      </trkpt>
      <trkpt lat="42.14237" lon="2.58588">
        <ele>437</ele>
        <time>2010-01-01T01:46:08Z</time>
      </trkpt>
      <trkpt lat="42.1426" lon="2.58588">
        <ele>437</ele>
        <time>2010-01-01T01:46:17Z</time>
      </trkpt>
      <trkpt lat="42.14261" lon="2.58588">
        <ele>437</ele>
        <time>2010-01-01T01:46:18Z</time>
      </trkpt>
      <trkpt lat="42.14264" lon="2.58588">
        <ele>437</ele>
        <time>2010-01-01T01:46:19Z</time>
      </trkpt>
      <trkpt lat="42.14274" lon="2.58589">
        <ele>437</ele>
        <time>2010-01-01T01:46:23Z</time>
      </trkpt>
      <trkpt lat="42.14284" lon="2.58608">
        <ele>438</ele>
        <time>2010-01-01T01:46:30Z</time>
      </trkpt>
      <trkpt lat="42.1429" lon="2.58636">
        <ele>438</ele>
        <time>2010-01-01T01:46:38Z</time>
      </trkpt>
      <trkpt lat="42.14298" lon="2.58661">
        <ele>438</ele>
        <time>2010-01-01T01:46:46Z</time>
      </trkpt>
      <trkpt lat="42.14309" lon="2.58685">
        <ele>437</ele>
        <time>2010-01-01T01:46:55Z</time>
      </trkpt>
      <trkpt lat="42.14315" lon="2.5871">
        <ele>436</ele>
        <time>2010-01-01T01:47:03Z</time>
      </trkpt>
      <trkpt lat="42.14322" lon="2.58724">
        <ele>437</ele>
        <time>2010-01-01T01:47:08Z</time>
      </trkpt>
      <trkpt lat="42.14333" lon="2.5874">
        <ele>439</ele>
        <time>2010-01-01T01:47:14Z</time>
      </trkpt>
      <trkpt lat="42.14343" lon="2.58753">
        <ele>441</ele>
        <time>2010-01-01T01:47:20Z</time>
      </trkpt>
      <trkpt lat="42.14344" lon="2.58754">
        <ele>441</ele>
        <time>2010-01-01T01:47:20Z</time>
      </trkpt>
      <trkpt lat="42.1435" lon="2.58769">
        <ele>441</ele>
        <time>2010-01-01T01:47:25Z</time>
      </trkpt>
      <trkpt lat="42.14355" lon="2.58784">
        <ele>440</ele>
        <time>2010-01-01T01:47:30Z</time>
      </trkpt>
      <trkpt lat="42.14359" lon="2.58793">
        <ele>439</ele>
        <time>2010-01-01T01:47:33Z</time>
      </trkpt>
      <trkpt lat="42.14362" lon="2.58794">
        <ele>439</ele>
        <time>2010-01-01T01:47:34Z</time>
      </trkpt>
      <trkpt lat="42.14369" lon="2.58796">
        <ele>439</ele>
        <time>2010-01-01T01:47:37Z</time>
      </trkpt>
      <trkpt lat="42.14377" lon="2.58792">
        <ele>439</ele>
        <time>2010-01-01T01:47:40Z</time>
      </trkpt>
      <trkpt lat="42.14391" lon="2.5879">
        <ele>440</ele>
        <time>2010-01-01T01:47:46Z</time>
      </trkpt>
      <trkpt lat="42.14403" lon="2.58793">
        <ele>439</ele>
        <time>2010-01-01T01:47:51Z</time>
      </trkpt>
      <trkpt lat="42.1441" lon="2.58801">
        <ele>437</ele>
        <time>2010-01-01T01:47:55Z</time>
      </trkpt>
      <trkpt lat="42.14413" lon="2.5881">
        <ele>435</ele>
        <time>2010-01-01T01:47:58Z</time>
      </trkpt>
      <trkpt lat="42.14407" lon="2.58821">
        <ele>433</ele>
        <time>2010-01-01T01:48:02Z</time>
      </trkpt>
      <trkpt lat="42.144" lon="2.58833">
        <ele>431</ele>
        <time>2010-01-01T01:48:07Z</time>
      </trkpt>
      <trkpt lat="42.14391" lon="2.58847">
        <ele>430</ele>
        <time>2010-01-01T01:48:12Z</time>
      </trkpt>
      <trkpt lat="42.14379" lon="2.58869">
        <ele>429</ele>
        <time>2010-01-01T01:48:20Z</time>
      </trkpt>
      <trkpt lat="42.14374" lon="2.58894">
        <ele>428</ele>
        <time>2010-01-01T01:48:28Z</time>
      </trkpt>
      <trkpt lat="42.14371" lon="2.58919">
        <ele>428</ele>
        <time>2010-01-01T01:48:35Z</time>
      </trkpt>
      <trkpt lat="42.14382" lon="2.58938">
        <ele>428</ele>
        <time>2010-01-01T01:48:42Z</time>
      </trkpt>
      <trkpt lat="42.14402" lon="2.58956">
        <ele>429</ele>
        <time>2010-01-01T01:48:52Z</time>
      </trkpt>
      <trkpt lat="42.14414" lon="2.58975">
        <ele>429</ele>
        <time>2010-01-01T01:49:00Z</time>
      </trkpt>
      <trkpt lat="42.14415" lon="2.58979">
        <ele>429</ele>
        <time>2010-01-01T01:49:01Z</time>
      </trkpt>
      <trkpt lat="42.14417" lon="2.58985">
        <ele>428</ele>
        <time>2010-01-01T01:49:03Z</time>
      </trkpt>
      <trkpt lat="42.14415" lon="2.58989">
        <ele>429</ele>
        <time>2010-01-01T01:49:04Z</time>
      </trkpt>
      <trkpt lat="42.14411" lon="2.59011">
        <ele>429</ele>
        <time>2010-01-01T01:49:11Z</time>
      </trkpt>
      <trkpt lat="42.144" lon="2.59027">
        <ele>430</ele>
        <time>2010-01-01T01:49:17Z</time>
      </trkpt>
      <trkpt lat="42.14381" lon="2.59041">
        <ele>431</ele>
        <time>2010-01-01T01:49:26Z</time>
      </trkpt>
      <trkpt lat="42.14376" lon="2.59048">
        <ele>432</ele>
        <time>2010-01-01T01:49:29Z</time>
      </trkpt>
      <trkpt lat="42.14376" lon="2.59055">
        <ele>433</ele>
        <time>2010-01-01T01:49:31Z</time>
      </trkpt>
      <trkpt lat="42.14384" lon="2.59066">
        <ele>434</ele>
        <time>2010-01-01T01:49:35Z</time>
      </trkpt>
      <trkpt lat="42.14401" lon="2.59082">
        <ele>438</ele>
        <time>2010-01-01T01:49:43Z</time>
      </trkpt>
      <trkpt lat="42.14405" lon="2.59098">
        <ele>441</ele>
        <time>2010-01-01T01:49:49Z</time>
      </trkpt>
      <trkpt lat="42.14401" lon="2.591">
        <ele>441</ele>
        <time>2010-01-01T01:49:50Z</time>
      </trkpt>
      <trkpt lat="42.14392" lon="2.59102">
        <ele>441</ele>
        <time>2010-01-01T01:49:54Z</time>
      </trkpt>
      <trkpt lat="42.14375" lon="2.591">
        <ele>441</ele>
        <time>2010-01-01T01:50:01Z</time>
      </trkpt>
      <trkpt lat="42.14361" lon="2.59101">
        <ele>441</ele>
        <time>2010-01-01T01:50:06Z</time>
      </trkpt>
      <trkpt lat="42.14345" lon="2.59114">
        <ele>444</ele>
        <time>2010-01-01T01:50:14Z</time>
      </trkpt>
      <trkpt lat="42.14338" lon="2.59115">
        <ele>444</ele>
        <time>2010-01-01T01:50:16Z</time>
      </trkpt>
      <trkpt lat="42.14327" lon="2.59112">
        <ele>444</ele>
        <time>2010-01-01T01:50:21Z</time>
      </trkpt>
      <trkpt lat="42.14324" lon="2.59113">
        <ele>444</ele>
        <time>2010-01-01T01:50:22Z</time>
      </trkpt>
      <trkpt lat="42.14325" lon="2.59113">
        <ele>444</ele>
        <time>2010-01-01T01:50:22Z</time>
      </trkpt>
      <trkpt lat="42.14325" lon="2.59117">
        <ele>445</ele>
        <time>2010-01-01T01:50:24Z</time>
      </trkpt>
      <trkpt lat="42.14325" lon="2.59122">
        <ele>446</ele>
        <time>2010-01-01T01:50:25Z</time>
      </trkpt>
      <trkpt lat="42.14324" lon="2.59123">
        <ele>446</ele>
        <time>2010-01-01T01:50:26Z</time>
      </trkpt>
      <trkpt lat="42.14322" lon="2.59128">
        <ele>447</ele>
        <time>2010-01-01T01:50:27Z</time>
      </trkpt>
      <trkpt lat="42.14314" lon="2.59143">
        <ele>450</ele>
        <time>2010-01-01T01:50:33Z</time>
      </trkpt>
      <trkpt lat="42.1431" lon="2.59152">
        <ele>452</ele>
        <time>2010-01-01T01:50:36Z</time>
      </trkpt>
      <trkpt lat="42.14307" lon="2.59158">
        <ele>454</ele>
        <time>2010-01-01T01:50:38Z</time>
      </trkpt>
      <trkpt lat="42.14301" lon="2.59164">
        <ele>456</ele>
        <time>2010-01-01T01:50:41Z</time>
      </trkpt>
      <trkpt lat="42.14293" lon="2.59165">
        <ele>456</ele>
        <time>2010-01-01T01:50:45Z</time>
      </trkpt>
      <trkpt lat="42.14284" lon="2.59166">
        <ele>456</ele>
        <time>2010-01-01T01:50:48Z</time>
      </trkpt>
      <trkpt lat="42.14272" lon="2.59165">
        <ele>455</ele>
        <time>2010-01-01T01:50:53Z</time>
      </trkpt>
      <trkpt lat="42.14261" lon="2.59173">
        <ele>456</ele>
        <time>2010-01-01T01:50:58Z</time>
      </trkpt>
      <trkpt lat="42.14252" lon="2.59165">
        <ele>453</ele>
        <time>2010-01-01T01:51:02Z</time>
      </trkpt>
      <trkpt lat="42.14245" lon="2.59164">
        <ele>453</ele>
        <time>2010-01-01T01:51:05Z</time>
      </trkpt>
      <trkpt lat="42.14241" lon="2.59165">
        <ele>453</ele>
        <time>2010-01-01T01:51:07Z</time>
      </trkpt>
      <trkpt lat="42.14232" lon="2.59179">
        <ele>454</ele>
        <time>2010-01-01T01:51:12Z</time>
      </trkpt>
      <trkpt lat="42.14232" lon="2.59183">
        <ele>455</ele>
        <time>2010-01-01T01:51:13Z</time>
      </trkpt>
      <trkpt lat="42.1423" lon="2.59187">
        <ele>456</ele>
        <time>2010-01-01T01:51:15Z</time>
      </trkpt>
      <trkpt lat="42.14224" lon="2.59202">
        <ele>457</ele>
        <time>2010-01-01T01:51:20Z</time>
      </trkpt>
      <trkpt lat="42.14218" lon="2.59222">
        <ele>461</ele>
        <time>2010-01-01T01:51:26Z</time>
      </trkpt>
      <trkpt lat="42.14218" lon="2.59238">
        <ele>465</ele>
        <time>2010-01-01T01:51:31Z</time>
      </trkpt>
      <trkpt lat="42.14217" lon="2.59255">
        <ele>470</ele>
        <time>2010-01-01T01:51:36Z</time>
      </trkpt>
      <trkpt lat="42.14212" lon="2.59266">
        <ele>474</ele>
        <time>2010-01-01T01:51:40Z</time>
      </trkpt>
      <trkpt lat="42.14211" lon="2.59274">
        <ele>476</ele>
        <time>2010-01-01T01:51:42Z</time>
      </trkpt>
      <trkpt lat="42.14205" lon="2.59291">
        <ele>480</ele>
        <time>2010-01-01T01:51:48Z</time>
      </trkpt>
      <trkpt lat="42.14201" lon="2.59306">
        <ele>484</ele>
        <time>2010-01-01T01:51:52Z</time>
      </trkpt>
      <trkpt lat="42.142" lon="2.59307">
        <ele>484</ele>
        <time>2010-01-01T01:51:53Z</time>
      </trkpt>
      <trkpt lat="42.14194" lon="2.59318">
        <ele>486</ele>
        <time>2010-01-01T01:51:57Z</time>
      </trkpt>
      <trkpt lat="42.14192" lon="2.59322">
        <ele>487</ele>
        <time>2010-01-01T01:51:59Z</time>
      </trkpt>
      <trkpt lat="42.14181" lon="2.59336">
        <ele>489</ele>
        <time>2010-01-01T01:52:05Z</time>
      </trkpt>
      <trkpt lat="42.14167" lon="2.59343">
        <ele>490</ele>
        <time>2010-01-01T01:52:10Z</time>
      </trkpt>
      <trkpt lat="42.14154" lon="2.59358">
        <ele>493</ele>
        <time>2010-01-01T01:52:17Z</time>
      </trkpt>
      <trkpt lat="42.14153" lon="2.59359">
        <ele>493</ele>
        <time>2010-01-01T01:52:18Z</time>
      </trkpt>
      <trkpt lat="42.14144" lon="2.59368">
        <ele>495</ele>
        <time>2010-01-01T01:52:22Z</time>
      </trkpt>
      <trkpt lat="42.14131" lon="2.59381">
        <ele>498</ele>
        <time>2010-01-01T01:52:29Z</time>
      </trkpt>
      <trkpt lat="42.14117" lon="2.59388">
        <ele>500</ele>
        <time>2010-01-01T01:52:35Z</time>
      </trkpt>
      <trkpt lat="42.14104" lon="2.59397">
        <ele>502</ele>
        <time>2010-01-01T01:52:41Z</time>
      </trkpt>
      <trkpt lat="42.14096" lon="2.59414">
        <ele>505</ele>
        <time>2010-01-01T01:52:47Z</time>
      </trkpt>
      <trkpt lat="42.14092" lon="2.59427">
        <ele>505</ele>
        <time>2010-01-01T01:52:51Z</time>
      </trkpt>
      <trkpt lat="42.14088" lon="2.59434">
        <ele>506</ele>
        <time>2010-01-01T01:52:53Z</time>
      </trkpt>
      <trkpt lat="42.14081" lon="2.59436">
        <ele>505</ele>
        <time>2010-01-01T01:52:57Z</time>
      </trkpt>
      <trkpt lat="42.14078" lon="2.59445">
        <ele>505</ele>
        <time>2010-01-01T01:52:59Z</time>
      </trkpt>
      <trkpt lat="42.14069" lon="2.59454">
        <ele>505</ele>
        <time>2010-01-01T01:53:04Z</time>
      </trkpt>
      <trkpt lat="42.14063" lon="2.59466">
        <ele>503</ele>
        <time>2010-01-01T01:53:08Z</time>
      </trkpt>
      <trkpt lat="42.14058" lon="2.59472">
        <ele>502</ele>
        <time>2010-01-01T01:53:11Z</time>
      </trkpt>
      <trkpt lat="42.14056" lon="2.59484">
        <ele>499</ele>
        <time>2010-01-01T01:53:15Z</time>
      </trkpt>
      <trkpt lat="42.14053" lon="2.59489">
        <ele>498</ele>
        <time>2010-01-01T01:53:16Z</time>
      </trkpt>
      <trkpt lat="42.14046" lon="2.59495">
        <ele>498</ele>
        <time>2010-01-01T01:53:20Z</time>
      </trkpt>
      <trkpt lat="42.14039" lon="2.59505">
        <ele>498</ele>
        <time>2010-01-01T01:53:24Z</time>
      </trkpt>
      <trkpt lat="42.14031" lon="2.59519">
        <ele>496</ele>
        <time>2010-01-01T01:53:29Z</time>
      </trkpt>
      <trkpt lat="42.1403" lon="2.59521">
        <ele>496</ele>
        <time>2010-01-01T01:53:30Z</time>
      </trkpt>
      <trkpt lat="42.14021" lon="2.59528">
        <ele>497</ele>
        <time>2010-01-01T01:53:34Z</time>
      </trkpt>
      <trkpt lat="42.14013" lon="2.59535">
        <ele>497</ele>
        <time>2010-01-01T01:53:38Z</time>
      </trkpt>
      <trkpt lat="42.14011" lon="2.59536">
        <ele>498</ele>
        <time>2010-01-01T01:53:39Z</time>
      </trkpt>
      <trkpt lat="42.14004" lon="2.5954">
        <ele>499</ele>
        <time>2010-01-01T01:53:42Z</time>
      </trkpt>
      <trkpt lat="42.13998" lon="2.5955">
        <ele>497</ele>
        <time>2010-01-01T01:53:46Z</time>
      </trkpt>
      <trkpt lat="42.1399" lon="2.59564">
        <ele>493</ele>
        <time>2010-01-01T01:53:51Z</time>
      </trkpt>
      <trkpt lat="42.13982" lon="2.59577">
        <ele>491</ele>
        <time>2010-01-01T01:53:56Z</time>
      </trkpt>
      <trkpt lat="42.13978" lon="2.59588">
        <ele>489</ele>
        <time>2010-01-01T01:54:00Z</time>
      </trkpt>
      <trkpt lat="42.13975" lon="2.59597">
        <ele>486</ele>
        <time>2010-01-01T01:54:02Z</time>
      </trkpt>
      <trkpt lat="42.13988" lon="2.59603">
        <ele>483</ele>
        <time>2010-01-01T01:54:08Z</time>
      </trkpt>
      <trkpt lat="42.13989" lon="2.59617">
        <ele>479</ele>
        <time>2010-01-01T01:54:12Z</time>
      </trkpt>
      <trkpt lat="42.13977" lon="2.59628">
        <ele>476</ele>
        <time>2010-01-01T01:54:18Z</time>
      </trkpt>
      <trkpt lat="42.13978" lon="2.59634">
        <ele>475</ele>
        <time>2010-01-01T01:54:20Z</time>
      </trkpt>
      <trkpt lat="42.13987" lon="2.59638">
        <ele>472</ele>
        <time>2010-01-01T01:54:23Z</time>
      </trkpt>
      <trkpt lat="42.1399" lon="2.59643">
        <ele>470</ele>
        <time>2010-01-01T01:54:25Z</time>
      </trkpt>
      <trkpt lat="42.13991" lon="2.5965">
        <ele>468</ele>
        <time>2010-01-01T01:54:27Z</time>
      </trkpt>
      <trkpt lat="42.13999" lon="2.59655">
        <ele>466</ele>
        <time>2010-01-01T01:54:31Z</time>
      </trkpt>
      <trkpt lat="42.14007" lon="2.59656">
        <ele>464</ele>
        <time>2010-01-01T01:54:34Z</time>
      </trkpt>
      <trkpt lat="42.14011" lon="2.59656">
        <ele>463</ele>
        <time>2010-01-01T01:54:36Z</time>
      </trkpt>
      <trkpt lat="42.14015" lon="2.59662">
        <ele>461</ele>
        <time>2010-01-01T01:54:38Z</time>
      </trkpt>
      <trkpt lat="42.14017" lon="2.59667">
        <ele>459</ele>
        <time>2010-01-01T01:54:40Z</time>
      </trkpt>
      <trkpt lat="42.14018" lon="2.59672">
        <ele>457</ele>
        <time>2010-01-01T01:54:42Z</time>
      </trkpt>
      <trkpt lat="42.14017" lon="2.59675">
        <ele>457</ele>
        <time>2010-01-01T01:54:42Z</time>
      </trkpt>
      <trkpt lat="42.14017" lon="2.5967">
        <ele>458</ele>
        <time>2010-01-01T01:54:44Z</time>
      </trkpt>
      <trkpt lat="42.14016" lon="2.59672">
        <ele>458</ele>
        <time>2010-01-01T01:54:44Z</time>
      </trkpt>
      <trkpt lat="42.14015" lon="2.59683">
        <ele>454</ele>
        <time>2010-01-01T01:54:48Z</time>
      </trkpt>
      <trkpt lat="42.1401" lon="2.59691">
        <ele>453</ele>
        <time>2010-01-01T01:54:50Z</time>
      </trkpt>
      <trkpt lat="42.14007" lon="2.59696">
        <ele>451</ele>
        <time>2010-01-01T01:54:53Z</time>
      </trkpt>
      <trkpt lat="42.14011" lon="2.59705">
        <ele>448</ele>
        <time>2010-01-01T01:54:55Z</time>
      </trkpt>
      <trkpt lat="42.14015" lon="2.5971">
        <ele>446</ele>
        <time>2010-01-01T01:54:58Z</time>
      </trkpt>
      <trkpt lat="42.14019" lon="2.59716">
        <ele>444</ele>
        <time>2010-01-01T01:55:00Z</time>
      </trkpt>
      <trkpt lat="42.14024" lon="2.59718">
        <ele>443</ele>
        <time>2010-01-01T01:55:02Z</time>
      </trkpt>
      <trkpt lat="42.14025" lon="2.59721">
        <ele>442</ele>
        <time>2010-01-01T01:55:03Z</time>
      </trkpt>
      <trkpt lat="42.14027" lon="2.59727">
        <ele>440</ele>
        <time>2010-01-01T01:55:05Z</time>
      </trkpt>
      <trkpt lat="42.1403" lon="2.59734">
        <ele>437</ele>
        <time>2010-01-01T01:55:08Z</time>
      </trkpt>
      <trkpt lat="42.14026" lon="2.59742">
        <ele>435</ele>
        <time>2010-01-01T01:55:11Z</time>
      </trkpt>
      <trkpt lat="42.14022" lon="2.59747">
        <ele>434</ele>
        <time>2010-01-01T01:55:13Z</time>
      </trkpt>
      <trkpt lat="42.14024" lon="2.59756">
        <ele>431</ele>
        <time>2010-01-01T01:55:15Z</time>
      </trkpt>
      <trkpt lat="42.14028" lon="2.5976">
        <ele>429</ele>
        <time>2010-01-01T01:55:17Z</time>
      </trkpt>
      <trkpt lat="42.14029" lon="2.59768">
        <ele>427</ele>
        <time>2010-01-01T01:55:20Z</time>
      </trkpt>
      <trkpt lat="42.14038" lon="2.59776">
        <ele>423</ele>
        <time>2010-01-01T01:55:24Z</time>
      </trkpt>
      <trkpt lat="42.14044" lon="2.59787">
        <ele>419</ele>
        <time>2010-01-01T01:55:28Z</time>
      </trkpt>
      <trkpt lat="42.14038" lon="2.59797">
        <ele>416</ele>
        <time>2010-01-01T01:55:32Z</time>
      </trkpt>
      <trkpt lat="42.14029" lon="2.59803">
        <ele>413</ele>
        <time>2010-01-01T01:55:36Z</time>
      </trkpt>
      <trkpt lat="42.14024" lon="2.59811">
        <ele>411</ele>
        <time>2010-01-01T01:55:39Z</time>
      </trkpt>
      <trkpt lat="42.14024" lon="2.59811">
        <ele>411</ele>
        <time>2010-01-01T01:55:39Z</time>
      </trkpt>
      <trkpt lat="42.14023" lon="2.59812">
        <ele>411</ele>
        <time>2010-01-01T01:55:39Z</time>
      </trkpt>
      <trkpt lat="42.14027" lon="2.5981">
        <ele>411</ele>
        <time>2010-01-01T01:55:41Z</time>
      </trkpt>
      <trkpt lat="42.14037" lon="2.59813">
        <ele>410</ele>
        <time>2010-01-01T01:55:45Z</time>
      </trkpt>
      <trkpt lat="42.14052" lon="2.59816">
        <ele>410</ele>
        <time>2010-01-01T01:55:51Z</time>
      </trkpt>
      <trkpt lat="42.14069" lon="2.59816">
        <ele>409</ele>
        <time>2010-01-01T01:55:58Z</time>
      </trkpt>
      <trkpt lat="42.14086" lon="2.59816">
        <ele>409</ele>
        <time>2010-01-01T01:56:05Z</time>
      </trkpt>
      <trkpt lat="42.14099" lon="2.59825">
        <ele>409</ele>
        <time>2010-01-01T01:56:10Z</time>
      </trkpt>
      <trkpt lat="42.14104" lon="2.59839">
        <ele>406</ele>
        <time>2010-01-01T01:56:15Z</time>
      </trkpt>
      <trkpt lat="42.14114" lon="2.59858">
        <ele>402</ele>
        <time>2010-01-01T01:56:22Z</time>
      </trkpt>
      <trkpt lat="42.1412" lon="2.59865">
        <ele>401</ele>
        <time>2010-01-01T01:56:26Z</time>
      </trkpt>
      <trkpt lat="42.14134" lon="2.59871">
        <ele>402</ele>
        <time>2010-01-01T01:56:31Z</time>
      </trkpt>
      <trkpt lat="42.14151" lon="2.59884">
        <ele>403</ele>
        <time>2010-01-01T01:56:39Z</time>
      </trkpt>
      <trkpt lat="42.14168" lon="2.599">
        <ele>404</ele>
        <time>2010-01-01T01:56:47Z</time>
      </trkpt>
      <trkpt lat="42.14186" lon="2.59911">
        <ele>406</ele>
        <time>2010-01-01T01:56:55Z</time>
      </trkpt>
      <trkpt lat="42.142" lon="2.59914">
        <ele>409</ele>
        <time>2010-01-01T01:57:01Z</time>
      </trkpt>
      <trkpt lat="42.14219" lon="2.59924">
        <ele>411</ele>
        <time>2010-01-01T01:57:09Z</time>
      </trkpt>
      <trkpt lat="42.14224" lon="2.59928">
        <ele>411</ele>
        <time>2010-01-01T01:57:11Z</time>
      </trkpt>
      <trkpt lat="42.14228" lon="2.59931">
        <ele>411</ele>
        <time>2010-01-01T01:57:13Z</time>
      </trkpt>
      <trkpt lat="42.14243" lon="2.59943">
        <ele>410</ele>
        <time>2010-01-01T01:57:20Z</time>
      </trkpt>
      <trkpt lat="42.14256" lon="2.59953">
        <ele>409</ele>
        <time>2010-01-01T01:57:26Z</time>
      </trkpt>
      <trkpt lat="42.14266" lon="2.59963">
        <ele>408</ele>
        <time>2010-01-01T01:57:31Z</time>
      </trkpt>
      <trkpt lat="42.14279" lon="2.5998">
        <ele>406</ele>
        <time>2010-01-01T01:57:38Z</time>
      </trkpt>
      <trkpt lat="42.14291" lon="2.59993">
        <ele>406</ele>
        <time>2010-01-01T01:57:45Z</time>
      </trkpt>
      <trkpt lat="42.14298" lon="2.60003">
        <ele>405</ele>
        <time>2010-01-01T01:57:49Z</time>
      </trkpt>
      <trkpt lat="42.14309" lon="2.60023">
        <ele>404</ele>
        <time>2010-01-01T01:57:56Z</time>
      </trkpt>
      <trkpt lat="42.14313" lon="2.60027">
        <ele>404</ele>
        <time>2010-01-01T01:57:58Z</time>
      </trkpt>
      <trkpt lat="42.14321" lon="2.60048">
        <ele>402</ele>
        <time>2010-01-01T01:58:05Z</time>
      </trkpt>
      <trkpt lat="42.14325" lon="2.60058">
        <ele>401</ele>
        <time>2010-01-01T01:58:08Z</time>
      </trkpt>
      <trkpt lat="42.14327" lon="2.60068">
        <ele>399</ele>
        <time>2010-01-01T01:58:12Z</time>
      </trkpt>
      <trkpt lat="42.14327" lon="2.60073">
        <ele>399</ele>
        <time>2010-01-01T01:58:13Z</time>
      </trkpt>
      <trkpt lat="42.14328" lon="2.60077">
        <ele>398</ele>
        <time>2010-01-01T01:58:14Z</time>
      </trkpt>
      <trkpt lat="42.14328" lon="2.60082">
        <ele>397</ele>
        <time>2010-01-01T01:58:16Z</time>
      </trkpt>
      <trkpt lat="42.14334" lon="2.60102">
        <ele>395</ele>
        <time>2010-01-01T01:58:22Z</time>
      </trkpt>
      <trkpt lat="42.1434" lon="2.60122">
        <ele>394</ele>
        <time>2010-01-01T01:58:28Z</time>
      </trkpt>
      <trkpt lat="42.14338" lon="2.60148">
        <ele>390</ele>
        <time>2010-01-01T01:58:36Z</time>
      </trkpt>
      <trkpt lat="42.14339" lon="2.60173">
        <ele>386</ele>
        <time>2010-01-01T01:58:44Z</time>
      </trkpt>
      <trkpt lat="42.14345" lon="2.60196">
        <ele>385</ele>
        <time>2010-01-01T01:58:51Z</time>
      </trkpt>
      <trkpt lat="42.14361" lon="2.60214">
        <ele>385</ele>
        <time>2010-01-01T01:58:59Z</time>
      </trkpt>
      <trkpt lat="42.14375" lon="2.60229">
        <ele>386</ele>
        <time>2010-01-01T01:59:06Z</time>
      </trkpt>
      <trkpt lat="42.14377" lon="2.60231">
        <ele>387</ele>
        <time>2010-01-01T01:59:07Z</time>
      </trkpt>
      <trkpt lat="42.14383" lon="2.60244">
        <ele>387</ele>
        <time>2010-01-01T01:59:12Z</time>
      </trkpt>
      <trkpt lat="42.14383" lon="2.60269">
        <ele>383</ele>
        <time>2010-01-01T01:59:19Z</time>
      </trkpt>
      <trkpt lat="42.14384" lon="2.60273">
        <ele>383</ele>
        <time>2010-01-01T01:59:20Z</time>
      </trkpt>
      <trkpt lat="42.14385" lon="2.60283">
        <ele>382</ele>
        <time>2010-01-01T01:59:23Z</time>
      </trkpt>
      <trkpt lat="42.14387" lon="2.603">
        <ele>380</ele>
        <time>2010-01-01T01:59:29Z</time>
      </trkpt>
      <trkpt lat="42.14387" lon="2.60308">
        <ele>378</ele>
        <time>2010-01-01T01:59:31Z</time>
      </trkpt>
      <trkpt lat="42.14389" lon="2.60318">
        <ele>377</ele>
        <time>2010-01-01T01:59:34Z</time>
      </trkpt>
      <trkpt lat="42.14396" lon="2.60336">
        <ele>375</ele>
        <time>2010-01-01T01:59:40Z</time>
      </trkpt>
      <trkpt lat="42.14406" lon="2.60358">
        <ele>373</ele>
        <time>2010-01-01T01:59:48Z</time>
      </trkpt>
      <trkpt lat="42.14409" lon="2.60363">
        <ele>373</ele>
        <time>2010-01-01T01:59:50Z</time>
      </trkpt>
      <trkpt lat="42.14421" lon="2.60377">
        <ele>373</ele>
        <time>2010-01-01T01:59:56Z</time>
      </trkpt>
      <trkpt lat="42.14424" lon="2.60379">
        <ele>374</ele>
        <time>2010-01-01T01:59:57Z</time>
      </trkpt>
      <trkpt lat="42.14434" lon="2.60391">
        <ele>374</ele>
        <time>2010-01-01T02:00:03Z</time>
      </trkpt>
      <trkpt lat="42.14445" lon="2.60401">
        <ele>374</ele>
        <time>2010-01-01T02:00:08Z</time>
      </trkpt>
      <trkpt lat="42.14454" lon="2.60415">
        <ele>373</ele>
        <time>2010-01-01T02:00:13Z</time>
      </trkpt>
      <trkpt lat="42.14466" lon="2.60433">
        <ele>372</ele>
        <time>2010-01-01T02:00:21Z</time>
      </trkpt>
      <trkpt lat="42.14477" lon="2.60452">
        <ele>371</ele>
        <time>2010-01-01T02:00:28Z</time>
      </trkpt>
      <trkpt lat="42.14481" lon="2.60477">
        <ele>368</ele>
        <time>2010-01-01T02:00:35Z</time>
      </trkpt>
      <trkpt lat="42.14485" lon="2.60485">
        <ele>368</ele>
        <time>2010-01-01T02:00:38Z</time>
      </trkpt>
      <trkpt lat="42.14493" lon="2.60505">
        <ele>367</ele>
        <time>2010-01-01T02:00:45Z</time>
      </trkpt>
      <trkpt lat="42.14497" lon="2.60522">
        <ele>365</ele>
        <time>2010-01-01T02:00:50Z</time>
      </trkpt>
      <trkpt lat="42.145" lon="2.60544">
        <ele>363</ele>
        <time>2010-01-01T02:00:57Z</time>
      </trkpt>
      <trkpt lat="42.14504" lon="2.60565">
        <ele>362</ele>
        <time>2010-01-01T02:01:03Z</time>
      </trkpt>
      <trkpt lat="42.14508" lon="2.60587">
        <ele>362</ele>
        <time>2010-01-01T02:01:10Z</time>
      </trkpt>
      <trkpt lat="42.14509" lon="2.60588">
        <ele>362</ele>
        <time>2010-01-01T02:01:10Z</time>
      </trkpt>
      <trkpt lat="42.14517" lon="2.60605">
        <ele>364</ele>
        <time>2010-01-01T02:01:16Z</time>
      </trkpt>
      <trkpt lat="42.14519" lon="2.60611">
        <ele>364</ele>
        <time>2010-01-01T02:01:18Z</time>
      </trkpt>
      <trkpt lat="42.14532" lon="2.6063">
        <ele>366</ele>
        <time>2010-01-01T02:01:26Z</time>
      </trkpt>
      <trkpt lat="42.14537" lon="2.60654">
        <ele>365</ele>
        <time>2010-01-01T02:01:33Z</time>
      </trkpt>
      <trkpt lat="42.14538" lon="2.60661">
        <ele>364</ele>
        <time>2010-01-01T02:01:36Z</time>
      </trkpt>
      <trkpt lat="42.14541" lon="2.60681">
        <ele>362</ele>
        <time>2010-01-01T02:01:42Z</time>
      </trkpt>
      <trkpt lat="42.14542" lon="2.60693">
        <ele>361</ele>
        <time>2010-01-01T02:01:45Z</time>
      </trkpt>
      <trkpt lat="42.14544" lon="2.60702">
        <ele>360</ele>
        <time>2010-01-01T02:01:48Z</time>
      </trkpt>
      <trkpt lat="42.14544" lon="2.60711">
        <ele>359</ele>
        <time>2010-01-01T02:01:51Z</time>
      </trkpt>
      <trkpt lat="42.14546" lon="2.60735">
        <ele>357</ele>
        <time>2010-01-01T02:01:58Z</time>
      </trkpt>
      <trkpt lat="42.14554" lon="2.6076">
        <ele>354</ele>
        <time>2010-01-01T02:02:06Z</time>
      </trkpt>
      <trkpt lat="42.14556" lon="2.60765">
        <ele>354</ele>
        <time>2010-01-01T02:02:07Z</time>
      </trkpt>
      <trkpt lat="42.14563" lon="2.60778">
        <ele>353</ele>
        <time>2010-01-01T02:02:12Z</time>
      </trkpt>
      <trkpt lat="42.14574" lon="2.60793">
        <ele>353</ele>
        <time>2010-01-01T02:02:18Z</time>
      </trkpt>
      <trkpt lat="42.14586" lon="2.60814">
        <ele>351</ele>
        <time>2010-01-01T02:02:26Z</time>
      </trkpt>
      <trkpt lat="42.14598" lon="2.60835">
        <ele>349</ele>
        <time>2010-01-01T02:02:34Z</time>
      </trkpt>
      <trkpt lat="42.14602" lon="2.60844">
        <ele>349</ele>
        <time>2010-01-01T02:02:37Z</time>
      </trkpt>
      <trkpt lat="42.14601" lon="2.60849">
        <ele>348</ele>
        <time>2010-01-01T02:02:39Z</time>
      </trkpt>
      <trkpt lat="42.146" lon="2.60851">
        <ele>348</ele>
        <time>2010-01-01T02:02:40Z</time>
      </trkpt>
      <trkpt lat="42.1458" lon="2.60857">
        <ele>345</ele>
        <time>2010-01-01T02:02:48Z</time>
      </trkpt>
      <trkpt lat="42.14561" lon="2.60869">
        <ele>345</ele>
        <time>2010-01-01T02:02:56Z</time>
      </trkpt>
      <trkpt lat="42.14545" lon="2.60884">
        <ele>347</ele>
        <time>2010-01-01T02:03:04Z</time>
      </trkpt>
      <trkpt lat="42.14548" lon="2.60908">
        <ele>347</ele>
        <time>2010-01-01T02:03:11Z</time>
      </trkpt>
      <trkpt lat="42.14555" lon="2.60925">
        <ele>346</ele>
        <time>2010-01-01T02:03:17Z</time>
      </trkpt>
      <trkpt lat="42.14558" lon="2.60927">
        <ele>346</ele>
        <time>2010-01-01T02:03:18Z</time>
      </trkpt>
      <trkpt lat="42.14558" lon="2.60928">
        <ele>346</ele>
        <time>2010-01-01T02:03:19Z</time>
      </trkpt>
      <trkpt lat="42.14565" lon="2.60947">
        <ele>345</ele>
        <time>2010-01-01T02:03:25Z</time>
      </trkpt>
      <trkpt lat="42.14571" lon="2.60964">
        <ele>345</ele>
        <time>2010-01-01T02:03:30Z</time>
      </trkpt>
      <trkpt lat="42.14572" lon="2.60966">
        <ele>345</ele>
        <time>2010-01-01T02:03:31Z</time>
      </trkpt>
      <trkpt lat="42.14574" lon="2.60985">
        <ele>345</ele>
        <time>2010-01-01T02:03:37Z</time>
      </trkpt>
      <trkpt lat="42.14579" lon="2.60996">
        <ele>344</ele>
        <time>2010-01-01T02:03:41Z</time>
      </trkpt>
      <trkpt lat="42.14583" lon="2.61">
        <ele>344</ele>
        <time>2010-01-01T02:03:43Z</time>
      </trkpt>
      <trkpt lat="42.1459" lon="2.61008">
        <ele>344</ele>
        <time>2010-01-01T02:03:46Z</time>
      </trkpt>
      <trkpt lat="42.14589" lon="2.61003">
        <ele>343</ele>
        <time>2010-01-01T02:03:48Z</time>
      </trkpt>
      <trkpt lat="42.14593" lon="2.61005">
        <ele>343</ele>
        <time>2010-01-01T02:03:50Z</time>
      </trkpt>
      <trkpt lat="42.14593" lon="2.61006">
        <ele>343</ele>
        <time>2010-01-01T02:03:50Z</time>
      </trkpt>
      <trkpt lat="42.1459" lon="2.61005">
        <ele>343</ele>
        <time>2010-01-01T02:03:51Z</time>
      </trkpt>
      <trkpt lat="42.1459" lon="2.61003">
        <ele>343</ele>
        <time>2010-01-01T02:03:52Z</time>
      </trkpt>
      <trkpt lat="42.14589" lon="2.61002">
        <ele>343</ele>
        <time>2010-01-01T02:03:52Z</time>
      </trkpt>
      <trkpt lat="42.14585" lon="2.61011">
        <ele>344</ele>
        <time>2010-01-01T02:03:55Z</time>
      </trkpt>
      <trkpt lat="42.14588" lon="2.61029">
        <ele>345</ele>
        <time>2010-01-01T02:04:01Z</time>
      </trkpt>
      <trkpt lat="42.14589" lon="2.61045">
        <ele>345</ele>
        <time>2010-01-01T02:04:05Z</time>
      </trkpt>
      <trkpt lat="42.14592" lon="2.61052">
        <ele>345</ele>
        <time>2010-01-01T02:04:08Z</time>
      </trkpt>
      <trkpt lat="42.14589" lon="2.6106">
        <ele>345</ele>
        <time>2010-01-01T02:04:10Z</time>
      </trkpt>
      <trkpt lat="42.14586" lon="2.61071">
        <ele>345</ele>
        <time>2010-01-01T02:04:14Z</time>
      </trkpt>
      <trkpt lat="42.14587" lon="2.61076">
        <ele>345</ele>
        <time>2010-01-01T02:04:15Z</time>
      </trkpt>
      <trkpt lat="42.14585" lon="2.61087">
        <ele>345</ele>
        <time>2010-01-01T02:04:19Z</time>
      </trkpt>
      <trkpt lat="42.14585" lon="2.61093">
        <ele>345</ele>
        <time>2010-01-01T02:04:20Z</time>
      </trkpt>
      <trkpt lat="42.14583" lon="2.61109">
        <ele>346</ele>
        <time>2010-01-01T02:04:25Z</time>
      </trkpt>
      <trkpt lat="42.14581" lon="2.61112">
        <ele>346</ele>
        <time>2010-01-01T02:04:26Z</time>
      </trkpt>
      <trkpt lat="42.14581" lon="2.61113">
        <ele>346</ele>
        <time>2010-01-01T02:04:27Z</time>
      </trkpt>
      <trkpt lat="42.14578" lon="2.6112">
        <ele>348</ele>
        <time>2010-01-01T02:04:29Z</time>
      </trkpt>
      <trkpt lat="42.14578" lon="2.61121">
        <ele>348</ele>
        <time>2010-01-01T02:04:29Z</time>
      </trkpt>
      <trkpt lat="42.1459" lon="2.61132">
        <ele>346</ele>
        <time>2010-01-01T02:04:35Z</time>
      </trkpt>
      <trkpt lat="42.14606" lon="2.61143">
        <ele>344</ele>
        <time>2010-01-01T02:04:42Z</time>
      </trkpt>
      <trkpt lat="42.14611" lon="2.61149">
        <ele>343</ele>
        <time>2010-01-01T02:04:45Z</time>
      </trkpt>
      <trkpt lat="42.14621" lon="2.61165">
        <ele>342</ele>
        <time>2010-01-01T02:04:51Z</time>
      </trkpt>
      <trkpt lat="42.14621" lon="2.61181">
        <ele>344</ele>
        <time>2010-01-01T02:04:56Z</time>
      </trkpt>
      <trkpt lat="42.14618" lon="2.61189">
        <ele>344</ele>
        <time>2010-01-01T02:04:59Z</time>
      </trkpt>
      <trkpt lat="42.14615" lon="2.61209">
        <ele>346</ele>
        <time>2010-01-01T02:05:04Z</time>
      </trkpt>
      <trkpt lat="42.14613" lon="2.61216">
        <ele>346</ele>
        <time>2010-01-01T02:05:07Z</time>
      </trkpt>
      <trkpt lat="42.14616" lon="2.61229">
        <ele>346</ele>
        <time>2010-01-01T02:05:11Z</time>
      </trkpt>
      <trkpt lat="42.14622" lon="2.61241">
        <ele>346</ele>
        <time>2010-01-01T02:05:15Z</time>
      </trkpt>
      <trkpt lat="42.14623" lon="2.61242">
        <ele>346</ele>
        <time>2010-01-01T02:05:16Z</time>
      </trkpt>
      <trkpt lat="42.14631" lon="2.61252">
        <ele>346</ele>
        <time>2010-01-01T02:05:20Z</time>
      </trkpt>
      <trkpt lat="42.14634" lon="2.61253">
        <ele>346</ele>
        <time>2010-01-01T02:05:21Z</time>
      </trkpt>
      <trkpt lat="42.14651" lon="2.61264">
        <ele>348</ele>
        <time>2010-01-01T02:05:29Z</time>
      </trkpt>
      <trkpt lat="42.14668" lon="2.61275">
        <ele>349</ele>
        <time>2010-01-01T02:05:36Z</time>
      </trkpt>
      <trkpt lat="42.14677" lon="2.61286">
        <ele>351</ele>
        <time>2010-01-01T02:05:41Z</time>
      </trkpt>
      <trkpt lat="42.14686" lon="2.61293">
        <ele>353</ele>
        <time>2010-01-01T02:05:45Z</time>
      </trkpt>
      <trkpt lat="42.14704" lon="2.61297">
        <ele>354</ele>
        <time>2010-01-01T02:05:53Z</time>
      </trkpt>
      <trkpt lat="42.14716" lon="2.61298">
        <ele>355</ele>
        <time>2010-01-01T02:05:58Z</time>
      </trkpt>
      <trkpt lat="42.14723" lon="2.61299">
        <ele>355</ele>
        <time>2010-01-01T02:06:00Z</time>
      </trkpt>
      <trkpt lat="42.14732" lon="2.61297">
        <ele>355</ele>
        <time>2010-01-01T02:06:04Z</time>
      </trkpt>
      <trkpt lat="42.14735" lon="2.61297">
        <ele>355</ele>
        <time>2010-01-01T02:06:05Z</time>
      </trkpt>
      <trkpt lat="42.14748" lon="2.61294">
        <ele>355</ele>
        <time>2010-01-01T02:06:10Z</time>
      </trkpt>
      <trkpt lat="42.14759" lon="2.61287">
        <ele>353</ele>
        <time>2010-01-01T02:06:15Z</time>
      </trkpt>
      <trkpt lat="42.14775" lon="2.61276">
        <ele>350</ele>
        <time>2010-01-01T02:06:22Z</time>
      </trkpt>
      <trkpt lat="42.14777" lon="2.61275">
        <ele>350</ele>
        <time>2010-01-01T02:06:23Z</time>
      </trkpt>
      <trkpt lat="42.14793" lon="2.61271">
        <ele>350</ele>
        <time>2010-01-01T02:06:30Z</time>
      </trkpt>
      <trkpt lat="42.14809" lon="2.61267">
        <ele>350</ele>
        <time>2010-01-01T02:06:36Z</time>
      </trkpt>
      <trkpt lat="42.14827" lon="2.61268">
        <ele>352</ele>
        <time>2010-01-01T02:06:43Z</time>
      </trkpt>
      <trkpt lat="42.14843" lon="2.61267">
        <ele>351</ele>
        <time>2010-01-01T02:06:50Z</time>
      </trkpt>
      <trkpt lat="42.14859" lon="2.61268">
        <ele>350</ele>
        <time>2010-01-01T02:06:56Z</time>
      </trkpt>
      <trkpt lat="42.14871" lon="2.61275">
        <ele>349</ele>
        <time>2010-01-01T02:07:01Z</time>
      </trkpt>
      <trkpt lat="42.14883" lon="2.61284">
        <ele>348</ele>
        <time>2010-01-01T02:07:07Z</time>
      </trkpt>
      <trkpt lat="42.14896" lon="2.61295">
        <ele>347</ele>
        <time>2010-01-01T02:07:13Z</time>
      </trkpt>
      <trkpt lat="42.14906" lon="2.61301">
        <ele>346</ele>
        <time>2010-01-01T02:07:17Z</time>
      </trkpt>
      <trkpt lat="42.14918" lon="2.6131">
        <ele>344</ele>
        <time>2010-01-01T02:07:23Z</time>
      </trkpt>
      <trkpt lat="42.14932" lon="2.61325">
        <ele>342</ele>
        <time>2010-01-01T02:07:30Z</time>
      </trkpt>
      <trkpt lat="42.14944" lon="2.61345">
        <ele>340</ele>
        <time>2010-01-01T02:07:38Z</time>
      </trkpt>
      <trkpt lat="42.14947" lon="2.61349">
        <ele>340</ele>
        <time>2010-01-01T02:07:39Z</time>
      </trkpt>
      <trkpt lat="42.1495" lon="2.61352">
        <ele>340</ele>
        <time>2010-01-01T02:07:41Z</time>
      </trkpt>
      <trkpt lat="42.14964" lon="2.61366">
        <ele>339</ele>
        <time>2010-01-01T02:07:48Z</time>
      </trkpt>
      <trkpt lat="42.14968" lon="2.61368">
        <ele>338</ele>
        <time>2010-01-01T02:07:49Z</time>
      </trkpt>
      <trkpt lat="42.14974" lon="2.61373">
        <ele>338</ele>
        <time>2010-01-01T02:07:52Z</time>
      </trkpt>
      <trkpt lat="42.14977" lon="2.61374">
        <ele>338</ele>
        <time>2010-01-01T02:07:54Z</time>
      </trkpt>
      <trkpt lat="42.14984" lon="2.61373">
        <ele>336</ele>
        <time>2010-01-01T02:07:57Z</time>
      </trkpt>
      <trkpt lat="42.14985" lon="2.61373">
        <ele>336</ele>
        <time>2010-01-01T02:07:57Z</time>
      </trkpt>
      <trkpt lat="42.15" lon="2.61378">
        <ele>334</ele>
        <time>2010-01-01T02:08:03Z</time>
      </trkpt>
      <trkpt lat="42.1502" lon="2.6139">
        <ele>334</ele>
        <time>2010-01-01T02:08:12Z</time>
      </trkpt>
      <trkpt lat="42.15021" lon="2.6139">
        <ele>333</ele>
        <time>2010-01-01T02:08:12Z</time>
      </trkpt>
      <trkpt lat="42.15035" lon="2.61394">
        <ele>333</ele>
        <time>2010-01-01T02:08:18Z</time>
      </trkpt>
      <trkpt lat="42.15052" lon="2.61395">
        <ele>332</ele>
        <time>2010-01-01T02:08:25Z</time>
      </trkpt>
      <trkpt lat="42.15065" lon="2.61392">
        <ele>331</ele>
        <time>2010-01-01T02:08:30Z</time>
      </trkpt>
      <trkpt lat="42.1508" lon="2.61392">
        <ele>331</ele>
        <time>2010-01-01T02:08:36Z</time>
      </trkpt>
      <trkpt lat="42.15083" lon="2.61393">
        <ele>331</ele>
        <time>2010-01-01T02:08:37Z</time>
      </trkpt>
      <trkpt lat="42.15094" lon="2.61404">
        <ele>330</ele>
        <time>2010-01-01T02:08:43Z</time>
      </trkpt>
      <trkpt lat="42.15098" lon="2.61426">
        <ele>331</ele>
        <time>2010-01-01T02:08:50Z</time>
      </trkpt>
      <trkpt lat="42.15099" lon="2.61439">
        <ele>332</ele>
        <time>2010-01-01T02:08:53Z</time>
      </trkpt>
      <trkpt lat="42.151" lon="2.61443">
        <ele>332</ele>
        <time>2010-01-01T02:08:55Z</time>
      </trkpt>
      <trkpt lat="42.15113" lon="2.61457">
        <ele>332</ele>
        <time>2010-01-01T02:09:01Z</time>
      </trkpt>
      <trkpt lat="42.15128" lon="2.61468">
        <ele>333</ele>
        <time>2010-01-01T02:09:08Z</time>
      </trkpt>
      <trkpt lat="42.15131" lon="2.61469">
        <ele>333</ele>
        <time>2010-01-01T02:09:09Z</time>
      </trkpt>
      <trkpt lat="42.15139" lon="2.61469">
        <ele>332</ele>
        <time>2010-01-01T02:09:13Z</time>
      </trkpt>
      <trkpt lat="42.15141" lon="2.61468">
        <ele>332</ele>
        <time>2010-01-01T02:09:14Z</time>
      </trkpt>
      <trkpt lat="42.15144" lon="2.61466">
        <ele>331</ele>
        <time>2010-01-01T02:09:15Z</time>
      </trkpt>
      <trkpt lat="42.15152" lon="2.61461">
        <ele>330</ele>
        <time>2010-01-01T02:09:18Z</time>
      </trkpt>
      <trkpt lat="42.15153" lon="2.61457">
        <ele>329</ele>
        <time>2010-01-01T02:09:20Z</time>
      </trkpt>
      <trkpt lat="42.15153" lon="2.61456">
        <ele>329</ele>
        <time>2010-01-01T02:09:20Z</time>
      </trkpt>
      <trkpt lat="42.15152" lon="2.61449">
        <ele>328</ele>
        <time>2010-01-01T02:09:22Z</time>
      </trkpt>
      <trkpt lat="42.15152" lon="2.6145">
        <ele>328</ele>
        <time>2010-01-01T02:09:22Z</time>
      </trkpt>
      <trkpt lat="42.1517" lon="2.61457">
        <ele>329</ele>
        <time>2010-01-01T02:09:30Z</time>
      </trkpt>
      <trkpt lat="42.15176" lon="2.61464">
        <ele>329</ele>
        <time>2010-01-01T02:09:33Z</time>
      </trkpt>
      <trkpt lat="42.15179" lon="2.61465">
        <ele>329</ele>
        <time>2010-01-01T02:09:34Z</time>
      </trkpt>
      <trkpt lat="42.15196" lon="2.61479">
        <ele>328</ele>
        <time>2010-01-01T02:09:42Z</time>
      </trkpt>
      <trkpt lat="42.15211" lon="2.61498">
        <ele>328</ele>
        <time>2010-01-01T02:09:50Z</time>
      </trkpt>
      <trkpt lat="42.15227" lon="2.61521">
        <ele>327</ele>
        <time>2010-01-01T02:10:00Z</time>
      </trkpt>
      <trkpt lat="42.15244" lon="2.61543">
        <ele>327</ele>
        <time>2010-01-01T02:10:09Z</time>
      </trkpt>
      <trkpt lat="42.15259" lon="2.6156">
        <ele>326</ele>
        <time>2010-01-01T02:10:17Z</time>
      </trkpt>
      <trkpt lat="42.15274" lon="2.61579">
        <ele>327</ele>
        <time>2010-01-01T02:10:25Z</time>
      </trkpt>
      <trkpt lat="42.15288" lon="2.61594">
        <ele>326</ele>
        <time>2010-01-01T02:10:32Z</time>
      </trkpt>
      <trkpt lat="42.15303" lon="2.61609">
        <ele>325</ele>
        <time>2010-01-01T02:10:40Z</time>
      </trkpt>
      <trkpt lat="42.15317" lon="2.61626">
        <ele>323</ele>
        <time>2010-01-01T02:10:47Z</time>
      </trkpt>
      <trkpt lat="42.15329" lon="2.6164">
        <ele>322</ele>
        <time>2010-01-01T02:10:54Z</time>
      </trkpt>
      <trkpt lat="42.15346" lon="2.61654">
        <ele>321</ele>
        <time>2010-01-01T02:11:02Z</time>
      </trkpt>
      <trkpt lat="42.15363" lon="2.61664">
        <ele>319</ele>
        <time>2010-01-01T02:11:09Z</time>
      </trkpt>
      <trkpt lat="42.15378" lon="2.61669">
        <ele>318</ele>
        <time>2010-01-01T02:11:15Z</time>
      </trkpt>
      <trkpt lat="42.15391" lon="2.61676">
        <ele>317</ele>
        <time>2010-01-01T02:11:21Z</time>
      </trkpt>
      <trkpt lat="42.15392" lon="2.61677">
        <ele>316</ele>
        <time>2010-01-01T02:11:21Z</time>
      </trkpt>
      <trkpt lat="42.15399" lon="2.6168">
        <ele>316</ele>
        <time>2010-01-01T02:11:24Z</time>
      </trkpt>
      <trkpt lat="42.15396" lon="2.61661">
        <ele>316</ele>
        <time>2010-01-01T02:11:30Z</time>
      </trkpt>
      <trkpt lat="42.15393" lon="2.61652">
        <ele>317</ele>
        <time>2010-01-01T02:11:33Z</time>
      </trkpt>
      <trkpt lat="42.15392" lon="2.6165">
        <ele>317</ele>
        <time>2010-01-01T02:11:33Z</time>
      </trkpt>
      <trkpt lat="42.15397" lon="2.61659">
        <ele>316</ele>
        <time>2010-01-01T02:11:37Z</time>
      </trkpt>
      <trkpt lat="42.15394" lon="2.61656">
        <ele>316</ele>
        <time>2010-01-01T02:11:38Z</time>
      </trkpt>
      <trkpt lat="42.15391" lon="2.61655">
        <ele>317</ele>
        <time>2010-01-01T02:11:39Z</time>
      </trkpt>
      <trkpt lat="42.15392" lon="2.61643">
        <ele>317</ele>
        <time>2010-01-01T02:11:43Z</time>
      </trkpt>
      <trkpt lat="42.15393" lon="2.61642">
        <ele>317</ele>
        <time>2010-01-01T02:11:43Z</time>
      </trkpt>
      <trkpt lat="42.15392" lon="2.61639">
        <ele>317</ele>
        <time>2010-01-01T02:11:44Z</time>
      </trkpt>
      <trkpt lat="42.1539" lon="2.61635">
        <ele>318</ele>
        <time>2010-01-01T02:11:46Z</time>
      </trkpt>
      <trkpt lat="42.15394" lon="2.61631">
        <ele>318</ele>
        <time>2010-01-01T02:11:48Z</time>
      </trkpt>
      <trkpt lat="42.15393" lon="2.61627">
        <ele>318</ele>
        <time>2010-01-01T02:11:49Z</time>
      </trkpt>
      <trkpt lat="42.15393" lon="2.61625">
        <ele>319</ele>
        <time>2010-01-01T02:11:50Z</time>
      </trkpt>
      <trkpt lat="42.15391" lon="2.61616">
        <ele>320</ele>
        <time>2010-01-01T02:11:53Z</time>
      </trkpt>
      <trkpt lat="42.15382" lon="2.61602">
        <ele>322</ele>
        <time>2010-01-01T02:11:58Z</time>
      </trkpt>
      <trkpt lat="42.15378" lon="2.61597">
        <ele>322</ele>
        <time>2010-01-01T02:12:00Z</time>
      </trkpt>
      <trkpt lat="42.15379" lon="2.61589">
        <ele>323</ele>
        <time>2010-01-01T02:12:02Z</time>
      </trkpt>
      <trkpt lat="42.15382" lon="2.61583">
        <ele>325</ele>
        <time>2010-01-01T02:12:05Z</time>
      </trkpt>
      <trkpt lat="42.15385" lon="2.61577">
        <ele>326</ele>
        <time>2010-01-01T02:12:07Z</time>
      </trkpt>
      <trkpt lat="42.15391" lon="2.61559">
        <ele>332</ele>
        <time>2010-01-01T02:12:13Z</time>
      </trkpt>
      <trkpt lat="42.15402" lon="2.61541">
        <ele>334</ele>
        <time>2010-01-01T02:12:20Z</time>
      </trkpt>
      <trkpt lat="42.15419" lon="2.61532">
        <ele>336</ele>
        <time>2010-01-01T02:12:27Z</time>
      </trkpt>
      <trkpt lat="42.1543" lon="2.61514">
        <ele>336</ele>
        <time>2010-01-01T02:12:34Z</time>
      </trkpt>
      <trkpt lat="42.15437" lon="2.61506">
        <ele>336</ele>
        <time>2010-01-01T02:12:37Z</time>
      </trkpt>
      <trkpt lat="42.15438" lon="2.61504">
        <ele>336</ele>
        <time>2010-01-01T02:12:38Z</time>
      </trkpt>
      <trkpt lat="42.1545" lon="2.6149">
        <ele>336</ele>
        <time>2010-01-01T02:12:44Z</time>
      </trkpt>
      <trkpt lat="42.15451" lon="2.61492">
        <ele>336</ele>
        <time>2010-01-01T02:12:45Z</time>
      </trkpt>
      <trkpt lat="42.1544" lon="2.61502">
        <ele>336</ele>
        <time>2010-01-01T02:12:50Z</time>
      </trkpt>
      <trkpt lat="42.15433" lon="2.61484">
        <ele>338</ele>
        <time>2010-01-01T02:12:56Z</time>
      </trkpt>
      <trkpt lat="42.15431" lon="2.61474">
        <ele>339</ele>
        <time>2010-01-01T02:12:59Z</time>
      </trkpt>
      <trkpt lat="42.15432" lon="2.6147">
        <ele>339</ele>
        <time>2010-01-01T02:13:01Z</time>
      </trkpt>
      <trkpt lat="42.15432" lon="2.61469">
        <ele>339</ele>
        <time>2010-01-01T02:13:01Z</time>
      </trkpt>
      <trkpt lat="42.15432" lon="2.61469">
        <ele>339</ele>
        <time>2010-01-01T02:13:01Z</time>
      </trkpt>
      <trkpt lat="42.1543" lon="2.61461">
        <ele>339</ele>
        <time>2010-01-01T02:13:04Z</time>
      </trkpt>
      <trkpt lat="42.15429" lon="2.61461">
        <ele>339</ele>
        <time>2010-01-01T02:13:04Z</time>
      </trkpt>
      <trkpt lat="42.15429" lon="2.61464">
        <ele>339</ele>
        <time>2010-01-01T02:13:05Z</time>
      </trkpt>
      <trkpt lat="42.1543" lon="2.61463">
        <ele>339</ele>
        <time>2010-01-01T02:13:05Z</time>
      </trkpt>
      <trkpt lat="42.1543" lon="2.61462">
        <ele>339</ele>
        <time>2010-01-01T02:13:06Z</time>
      </trkpt>
      <trkpt lat="42.15434" lon="2.61461">
        <ele>339</ele>
        <time>2010-01-01T02:13:08Z</time>
      </trkpt>
      <trkpt lat="42.15434" lon="2.61461">
        <ele>339</ele>
        <time>2010-01-01T02:13:08Z</time>
      </trkpt>
      <trkpt lat="42.15442" lon="2.61459">
        <ele>339</ele>
        <time>2010-01-01T02:13:11Z</time>
      </trkpt>
      <trkpt lat="42.15443" lon="2.61455">
        <ele>339</ele>
        <time>2010-01-01T02:13:12Z</time>
      </trkpt>
      <trkpt lat="42.15441" lon="2.61446">
        <ele>339</ele>
        <time>2010-01-01T02:13:15Z</time>
      </trkpt>
      <trkpt lat="42.15441" lon="2.6143">
        <ele>339</ele>
        <time>2010-01-01T02:13:20Z</time>
      </trkpt>
      <trkpt lat="42.1544" lon="2.61423">
        <ele>339</ele>
        <time>2010-01-01T02:13:21Z</time>
      </trkpt>
      <trkpt lat="42.15428" lon="2.61403">
        <ele>339</ele>
        <time>2010-01-01T02:13:29Z</time>
      </trkpt>
      <trkpt lat="42.15408" lon="2.61385">
        <ele>341</ele>
        <time>2010-01-01T02:13:39Z</time>
      </trkpt>
      <trkpt lat="42.15402" lon="2.61382">
        <ele>341</ele>
        <time>2010-01-01T02:13:41Z</time>
      </trkpt>
      <trkpt lat="42.15397" lon="2.61381">
        <ele>342</ele>
        <time>2010-01-01T02:13:43Z</time>
      </trkpt>
      <trkpt lat="42.15375" lon="2.61377">
        <ele>343</ele>
        <time>2010-01-01T02:13:52Z</time>
      </trkpt>
      <trkpt lat="42.15367" lon="2.61377">
        <ele>344</ele>
        <time>2010-01-01T02:13:56Z</time>
      </trkpt>
      <trkpt lat="42.15359" lon="2.61367">
        <ele>345</ele>
        <time>2010-01-01T02:14:00Z</time>
      </trkpt>
      <trkpt lat="42.15363" lon="2.61359">
        <ele>346</ele>
        <time>2010-01-01T02:14:03Z</time>
      </trkpt>
      <trkpt lat="42.15369" lon="2.61353">
        <ele>346</ele>
        <time>2010-01-01T02:14:06Z</time>
      </trkpt>
      <trkpt lat="42.15375" lon="2.61343">
        <ele>346</ele>
        <time>2010-01-01T02:14:09Z</time>
      </trkpt>
      <trkpt lat="42.15375" lon="2.61344">
        <ele>346</ele>
        <time>2010-01-01T02:14:09Z</time>
      </trkpt>
      <trkpt lat="42.15389" lon="2.61325">
        <ele>345</ele>
        <time>2010-01-01T02:14:17Z</time>
      </trkpt>
      <trkpt lat="42.15404" lon="2.61309">
        <ele>345</ele>
        <time>2010-01-01T02:14:25Z</time>
      </trkpt>
      <trkpt lat="42.15416" lon="2.61294">
        <ele>345</ele>
        <time>2010-01-01T02:14:31Z</time>
      </trkpt>
      <trkpt lat="42.15424" lon="2.61278">
        <ele>345</ele>
        <time>2010-01-01T02:14:37Z</time>
      </trkpt>
      <trkpt lat="42.15429" lon="2.61267">
        <ele>345</ele>
        <time>2010-01-01T02:14:41Z</time>
      </trkpt>
      <trkpt lat="42.15433" lon="2.61261">
        <ele>345</ele>
        <time>2010-01-01T02:14:43Z</time>
      </trkpt>
      <trkpt lat="42.15435" lon="2.61259">
        <ele>345</ele>
        <time>2010-01-01T02:14:44Z</time>
      </trkpt>
      <trkpt lat="42.15444" lon="2.61249">
        <ele>345</ele>
        <time>2010-01-01T02:14:49Z</time>
      </trkpt>
      <trkpt lat="42.15457" lon="2.61237">
        <ele>345</ele>
        <time>2010-01-01T02:14:55Z</time>
      </trkpt>
      <trkpt lat="42.15459" lon="2.61235">
        <ele>345</ele>
        <time>2010-01-01T02:14:56Z</time>
      </trkpt>
      <trkpt lat="42.15471" lon="2.6123">
        <ele>344</ele>
        <time>2010-01-01T02:15:01Z</time>
      </trkpt>
      <trkpt lat="42.15487" lon="2.61231">
        <ele>344</ele>
        <time>2010-01-01T02:15:08Z</time>
      </trkpt>
      <trkpt lat="42.1549" lon="2.61231">
        <ele>344</ele>
        <time>2010-01-01T02:15:09Z</time>
      </trkpt>
      <trkpt lat="42.15507" lon="2.61239">
        <ele>341</ele>
        <time>2010-01-01T02:15:16Z</time>
      </trkpt>
      <trkpt lat="42.15524" lon="2.6125">
        <ele>337</ele>
        <time>2010-01-01T02:15:24Z</time>
      </trkpt>
      <trkpt lat="42.15529" lon="2.61259">
        <ele>335</ele>
        <time>2010-01-01T02:15:27Z</time>
      </trkpt>
      <trkpt lat="42.15532" lon="2.61264">
        <ele>334</ele>
        <time>2010-01-01T02:15:29Z</time>
      </trkpt>
      <trkpt lat="42.15534" lon="2.61266">
        <ele>333</ele>
        <time>2010-01-01T02:15:30Z</time>
      </trkpt>
      <trkpt lat="42.15545" lon="2.61281">
        <ele>329</ele>
        <time>2010-01-01T02:15:36Z</time>
      </trkpt>
      <trkpt lat="42.15554" lon="2.61301">
        <ele>328</ele>
        <time>2010-01-01T02:15:43Z</time>
      </trkpt>
      <trkpt lat="42.15561" lon="2.613">
        <ele>328</ele>
        <time>2010-01-01T02:15:46Z</time>
      </trkpt>
      <trkpt lat="42.1556" lon="2.613">
        <ele>328</ele>
        <time>2010-01-01T02:15:46Z</time>
      </trkpt>
      <trkpt lat="42.1556" lon="2.61303">
        <ele>328</ele>
        <time>2010-01-01T02:15:47Z</time>
      </trkpt>
      <trkpt lat="42.15572" lon="2.61327">
        <ele>330</ele>
        <time>2010-01-01T02:15:55Z</time>
      </trkpt>
      <trkpt lat="42.15571" lon="2.61327">
        <ele>330</ele>
        <time>2010-01-01T02:15:56Z</time>
      </trkpt>
      <trkpt lat="42.15569" lon="2.61324">
        <ele>329</ele>
        <time>2010-01-01T02:15:57Z</time>
      </trkpt>
      <trkpt lat="42.15573" lon="2.61321">
        <ele>329</ele>
        <time>2010-01-01T02:15:58Z</time>
      </trkpt>
      <trkpt lat="42.15576" lon="2.61316">
        <ele>329</ele>
        <time>2010-01-01T02:16:01Z</time>
      </trkpt>
      <trkpt lat="42.15575" lon="2.61311">
        <ele>329</ele>
        <time>2010-01-01T02:16:02Z</time>
      </trkpt>
      <trkpt lat="42.15584" lon="2.61293">
        <ele>328</ele>
        <time>2010-01-01T02:16:08Z</time>
      </trkpt>
      <trkpt lat="42.15589" lon="2.6129">
        <ele>329</ele>
        <time>2010-01-01T02:16:11Z</time>
      </trkpt>
      <trkpt lat="42.15595" lon="2.61279">
        <ele>330</ele>
        <time>2010-01-01T02:16:15Z</time>
      </trkpt>
      <trkpt lat="42.15595" lon="2.61262">
        <ele>329</ele>
        <time>2010-01-01T02:16:20Z</time>
      </trkpt>
      <trkpt lat="42.15596" lon="2.61249">
        <ele>328</ele>
        <time>2010-01-01T02:16:24Z</time>
      </trkpt>
      <trkpt lat="42.156" lon="2.61222">
        <ele>329</ele>
        <time>2010-01-01T02:16:32Z</time>
      </trkpt>
      <trkpt lat="42.15604" lon="2.61216">
        <ele>329</ele>
        <time>2010-01-01T02:16:34Z</time>
      </trkpt>
      <trkpt lat="42.15604" lon="2.61203">
        <ele>329</ele>
        <time>2010-01-01T02:16:38Z</time>
      </trkpt>
      <trkpt lat="42.15602" lon="2.61177">
        <ele>329</ele>
        <time>2010-01-01T02:16:46Z</time>
      </trkpt>
      <trkpt lat="42.15598" lon="2.61171">
        <ele>329</ele>
        <time>2010-01-01T02:16:48Z</time>
      </trkpt>
      <trkpt lat="42.15598" lon="2.61169">
        <ele>329</ele>
        <time>2010-01-01T02:16:49Z</time>
      </trkpt>
      <trkpt lat="42.15592" lon="2.61144">
        <ele>330</ele>
        <time>2010-01-01T02:16:56Z</time>
      </trkpt>
      <trkpt lat="42.15593" lon="2.61123">
        <ele>331</ele>
        <time>2010-01-01T02:17:02Z</time>
      </trkpt>
      <trkpt lat="42.15604" lon="2.61104">
        <ele>332</ele>
        <time>2010-01-01T02:17:10Z</time>
      </trkpt>
      <trkpt lat="42.15611" lon="2.6108">
        <ele>335</ele>
        <time>2010-01-01T02:17:18Z</time>
      </trkpt>
      <trkpt lat="42.15616" lon="2.61071">
        <ele>336</ele>
        <time>2010-01-01T02:17:21Z</time>
      </trkpt>
      <trkpt lat="42.15615" lon="2.6106">
        <ele>337</ele>
        <time>2010-01-01T02:17:24Z</time>
      </trkpt>
      <trkpt lat="42.1561" lon="2.61057">
        <ele>336</ele>
        <time>2010-01-01T02:17:26Z</time>
      </trkpt>
      <trkpt lat="42.15605" lon="2.61055">
        <ele>336</ele>
        <time>2010-01-01T02:17:28Z</time>
      </trkpt>
      <trkpt lat="42.15595" lon="2.61042">
        <ele>335</ele>
        <time>2010-01-01T02:17:34Z</time>
      </trkpt>
      <trkpt lat="42.15594" lon="2.61033">
        <ele>335</ele>
        <time>2010-01-01T02:17:37Z</time>
      </trkpt>
      <trkpt lat="42.15592" lon="2.61022">
        <ele>335</ele>
        <time>2010-01-01T02:17:40Z</time>
      </trkpt>
      <trkpt lat="42.15588" lon="2.61008">
        <ele>335</ele>
        <time>2010-01-01T02:17:44Z</time>
      </trkpt>
      <trkpt lat="42.15586" lon="2.60999">
        <ele>335</ele>
        <time>2010-01-01T02:17:47Z</time>
      </trkpt>
      <trkpt lat="42.15583" lon="2.60987">
        <ele>335</ele>
        <time>2010-01-01T02:17:51Z</time>
      </trkpt>
      <trkpt lat="42.1558" lon="2.60962">
        <ele>337</ele>
        <time>2010-01-01T02:17:58Z</time>
      </trkpt>
      <trkpt lat="42.15582" lon="2.6094">
        <ele>339</ele>
        <time>2010-01-01T02:18:05Z</time>
      </trkpt>
      <trkpt lat="42.15586" lon="2.60923">
        <ele>341</ele>
        <time>2010-01-01T02:18:10Z</time>
      </trkpt>
      <trkpt lat="42.15585" lon="2.60916">
        <ele>342</ele>
        <time>2010-01-01T02:18:12Z</time>
      </trkpt>
      <trkpt lat="42.15576" lon="2.60892">
        <ele>344</ele>
        <time>2010-01-01T02:18:20Z</time>
      </trkpt>
      <trkpt lat="42.15569" lon="2.60865">
        <ele>346</ele>
        <time>2010-01-01T02:18:29Z</time>
      </trkpt>
      <trkpt lat="42.15559" lon="2.60842">
        <ele>344</ele>
        <time>2010-01-01T02:18:37Z</time>
      </trkpt>
      <trkpt lat="42.15558" lon="2.60809">
        <ele>343</ele>
        <time>2010-01-01T02:18:46Z</time>
      </trkpt>
      <trkpt lat="42.15558" lon="2.60773">
        <ele>345</ele>
        <time>2010-01-01T02:18:57Z</time>
      </trkpt>
      <trkpt lat="42.15557" lon="2.60746">
        <ele>345</ele>
        <time>2010-01-01T02:19:05Z</time>
      </trkpt>
      <trkpt lat="42.15551" lon="2.60724">
        <ele>344</ele>
        <time>2010-01-01T02:19:12Z</time>
      </trkpt>
      <trkpt lat="42.15548" lon="2.60717">
        <ele>344</ele>
        <time>2010-01-01T02:19:15Z</time>
      </trkpt>
      <trkpt lat="42.15536" lon="2.60697">
        <ele>344</ele>
        <time>2010-01-01T02:19:22Z</time>
      </trkpt>
      <trkpt lat="42.15537" lon="2.60677">
        <ele>347</ele>
        <time>2010-01-01T02:19:28Z</time>
      </trkpt>
      <trkpt lat="42.1554" lon="2.60658">
        <ele>349</ele>
        <time>2010-01-01T02:19:34Z</time>
      </trkpt>
      <trkpt lat="42.15538" lon="2.60653">
        <ele>349</ele>
        <time>2010-01-01T02:19:36Z</time>
      </trkpt>
      <trkpt lat="42.15533" lon="2.60645">
        <ele>350</ele>
        <time>2010-01-01T02:19:39Z</time>
      </trkpt>
      <trkpt lat="42.15533" lon="2.60645">
        <ele>350</ele>
        <time>2010-01-01T02:19:39Z</time>
      </trkpt>
      <trkpt lat="42.15522" lon="2.60638">
        <ele>351</ele>
        <time>2010-01-01T02:19:44Z</time>
      </trkpt>
      <trkpt lat="42.15521" lon="2.6063">
        <ele>352</ele>
        <time>2010-01-01T02:19:46Z</time>
      </trkpt>
      <trkpt lat="42.15522" lon="2.6062">
        <ele>354</ele>
        <time>2010-01-01T02:19:49Z</time>
      </trkpt>
      <trkpt lat="42.15521" lon="2.60605">
        <ele>356</ele>
        <time>2010-01-01T02:19:54Z</time>
      </trkpt>
      <trkpt lat="42.15521" lon="2.60596">
        <ele>357</ele>
        <time>2010-01-01T02:19:56Z</time>
      </trkpt>
      <trkpt lat="42.15526" lon="2.60588">
        <ele>357</ele>
        <time>2010-01-01T02:19:59Z</time>
      </trkpt>
      <trkpt lat="42.15533" lon="2.60584">
        <ele>356</ele>
        <time>2010-01-01T02:20:02Z</time>
      </trkpt>
      <trkpt lat="42.15543" lon="2.60587">
        <ele>354</ele>
        <time>2010-01-01T02:20:06Z</time>
      </trkpt>
      <trkpt lat="42.15542" lon="2.60592">
        <ele>354</ele>
        <time>2010-01-01T02:20:08Z</time>
      </trkpt>
      <trkpt lat="42.1554" lon="2.60591">
        <ele>354</ele>
        <time>2010-01-01T02:20:09Z</time>
      </trkpt>
      <trkpt lat="42.15537" lon="2.60584">
        <ele>355</ele>
        <time>2010-01-01T02:20:11Z</time>
      </trkpt>
      <trkpt lat="42.1553" lon="2.60586">
        <ele>357</ele>
        <time>2010-01-01T02:20:14Z</time>
      </trkpt>
      <trkpt lat="42.15533" lon="2.60592">
        <ele>356</ele>
        <time>2010-01-01T02:20:16Z</time>
      </trkpt>
      <trkpt lat="42.15535" lon="2.60594">
        <ele>355</ele>
        <time>2010-01-01T02:20:17Z</time>
      </trkpt>
      <trkpt lat="42.15536" lon="2.606">
        <ele>354</ele>
        <time>2010-01-01T02:20:19Z</time>
      </trkpt>
      <trkpt lat="42.15538" lon="2.60599">
        <ele>354</ele>
        <time>2010-01-01T02:20:20Z</time>
      </trkpt>
      <trkpt lat="42.15539" lon="2.606">
        <ele>354</ele>
        <time>2010-01-01T02:20:20Z</time>
      </trkpt>
      <trkpt lat="42.15541" lon="2.60604">
        <ele>353</ele>
        <time>2010-01-01T02:20:22Z</time>
      </trkpt>
      <trkpt lat="42.15543" lon="2.60607">
        <ele>353</ele>
        <time>2010-01-01T02:20:23Z</time>
      </trkpt>
      <trkpt lat="42.15546" lon="2.60606">
        <ele>352</ele>
        <time>2010-01-01T02:20:24Z</time>
      </trkpt>
      <trkpt lat="42.1555" lon="2.60614">
        <ele>351</ele>
        <time>2010-01-01T02:20:27Z</time>
      </trkpt>
      <trkpt lat="42.1555" lon="2.60618">
        <ele>351</ele>
        <time>2010-01-01T02:20:28Z</time>
      </trkpt>
      <trkpt lat="42.15548" lon="2.60615">
        <ele>351</ele>
        <time>2010-01-01T02:20:29Z</time>
      </trkpt>
      <trkpt lat="42.15545" lon="2.60613">
        <ele>352</ele>
        <time>2010-01-01T02:20:30Z</time>
      </trkpt>
      <trkpt lat="42.15544" lon="2.6061">
        <ele>352</ele>
        <time>2010-01-01T02:20:32Z</time>
      </trkpt>
      <trkpt lat="42.15539" lon="2.60606">
        <ele>353</ele>
        <time>2010-01-01T02:20:34Z</time>
      </trkpt>
      <trkpt lat="42.15539" lon="2.60606">
        <ele>353</ele>
        <time>2010-01-01T02:20:34Z</time>
      </trkpt>
      <trkpt lat="42.15534" lon="2.60603">
        <ele>354</ele>
        <time>2010-01-01T02:20:36Z</time>
      </trkpt>
      <trkpt lat="42.1553" lon="2.60599">
        <ele>355</ele>
        <time>2010-01-01T02:20:38Z</time>
      </trkpt>
      <trkpt lat="42.15524" lon="2.60598">
        <ele>356</ele>
        <time>2010-01-01T02:20:40Z</time>
      </trkpt>
      <trkpt lat="42.15523" lon="2.60596">
        <ele>357</ele>
        <time>2010-01-01T02:20:41Z</time>
      </trkpt>
      <trkpt lat="42.1552" lon="2.60603">
        <ele>356</ele>
        <time>2010-01-01T02:20:44Z</time>
      </trkpt>
      <trkpt lat="42.15519" lon="2.60606">
        <ele>356</ele>
        <time>2010-01-01T02:20:45Z</time>
      </trkpt>
      <trkpt lat="42.15513" lon="2.60609">
        <ele>356</ele>
        <time>2010-01-01T02:20:47Z</time>
      </trkpt>
      <trkpt lat="42.15505" lon="2.60618">
        <ele>356</ele>
        <time>2010-01-01T02:20:51Z</time>
      </trkpt>
      <trkpt lat="42.15498" lon="2.60633">
        <ele>354</ele>
        <time>2010-01-01T02:20:56Z</time>
      </trkpt>
      <trkpt lat="42.15492" lon="2.60631">
        <ele>354</ele>
        <time>2010-01-01T02:20:59Z</time>
      </trkpt>
      <trkpt lat="42.15494" lon="2.60628">
        <ele>354</ele>
        <time>2010-01-01T02:21:00Z</time>
      </trkpt>
      <trkpt lat="42.15499" lon="2.60619">
        <ele>356</ele>
        <time>2010-01-01T02:21:03Z</time>
      </trkpt>
      <trkpt lat="42.15501" lon="2.60612">
        <ele>357</ele>
        <time>2010-01-01T02:21:06Z</time>
      </trkpt>
      <trkpt lat="42.15506" lon="2.60594">
        <ele>360</ele>
        <time>2010-01-01T02:21:11Z</time>
      </trkpt>
      <trkpt lat="42.15506" lon="2.60591">
        <ele>361</ele>
        <time>2010-01-01T02:21:12Z</time>
      </trkpt>
      <trkpt lat="42.15506" lon="2.60588">
        <ele>361</ele>
        <time>2010-01-01T02:21:13Z</time>
      </trkpt>
      <trkpt lat="42.15512" lon="2.60571">
        <ele>363</ele>
        <time>2010-01-01T02:21:18Z</time>
      </trkpt>
      <trkpt lat="42.15514" lon="2.6056">
        <ele>364</ele>
        <time>2010-01-01T02:21:22Z</time>
      </trkpt>
      <trkpt lat="42.15508" lon="2.60562">
        <ele>365</ele>
        <time>2010-01-01T02:21:25Z</time>
      </trkpt>
      <trkpt lat="42.15503" lon="2.6057">
        <ele>365</ele>
        <time>2010-01-01T02:21:28Z</time>
      </trkpt>
      <trkpt lat="42.15488" lon="2.60587">
        <ele>364</ele>
        <time>2010-01-01T02:21:36Z</time>
      </trkpt>
      <trkpt lat="42.1548" lon="2.60595">
        <ele>362</ele>
        <time>2010-01-01T02:21:40Z</time>
      </trkpt>
      <trkpt lat="42.15477" lon="2.60595">
        <ele>362</ele>
        <time>2010-01-01T02:21:41Z</time>
      </trkpt>
      <trkpt lat="42.1546" lon="2.60584">
        <ele>367</ele>
        <time>2010-01-01T02:21:48Z</time>
      </trkpt>
      <trkpt lat="42.15459" lon="2.60583">
        <ele>367</ele>
        <time>2010-01-01T02:21:49Z</time>
      </trkpt>
      <trkpt lat="42.15447" lon="2.60571">
        <ele>370</ele>
        <time>2010-01-01T02:21:55Z</time>
      </trkpt>
      <trkpt lat="42.15435" lon="2.60554">
        <ele>371</ele>
        <time>2010-01-01T02:22:02Z</time>
      </trkpt>
      <trkpt lat="42.15423" lon="2.60538">
        <ele>371</ele>
        <time>2010-01-01T02:22:09Z</time>
      </trkpt>
      <trkpt lat="42.1542" lon="2.60517">
        <ele>372</ele>
        <time>2010-01-01T02:22:15Z</time>
      </trkpt>
      <trkpt lat="42.15422" lon="2.60496">
        <ele>373</ele>
        <time>2010-01-01T02:22:21Z</time>
      </trkpt>
      <trkpt lat="42.15422" lon="2.60468">
        <ele>375</ele>
        <time>2010-01-01T02:22:29Z</time>
      </trkpt>
      <trkpt lat="42.15419" lon="2.60444">
        <ele>377</ele>
        <time>2010-01-01T02:22:37Z</time>
      </trkpt>
      <trkpt lat="42.15411" lon="2.60423">
        <ele>376</ele>
        <time>2010-01-01T02:22:44Z</time>
      </trkpt>
      <trkpt lat="42.154" lon="2.60401">
        <ele>375</ele>
        <time>2010-01-01T02:22:52Z</time>
      </trkpt>
      <trkpt lat="42.15384" lon="2.60382">
        <ele>376</ele>
        <time>2010-01-01T02:23:00Z</time>
      </trkpt>
      <trkpt lat="42.15377" lon="2.60377">
        <ele>376</ele>
        <time>2010-01-01T02:23:03Z</time>
      </trkpt>
      <trkpt lat="42.15369" lon="2.60374">
        <ele>376</ele>
        <time>2010-01-01T02:23:07Z</time>
      </trkpt>
      <trkpt lat="42.15363" lon="2.60373">
        <ele>377</ele>
        <time>2010-01-01T02:23:09Z</time>
      </trkpt>
      <trkpt lat="42.15354" lon="2.60372">
        <ele>376</ele>
        <time>2010-01-01T02:23:13Z</time>
      </trkpt>
      <trkpt lat="42.1534" lon="2.60357">
        <ele>378</ele>
        <time>2010-01-01T02:23:20Z</time>
      </trkpt>
      <trkpt lat="42.15336" lon="2.60342">
        <ele>380</ele>
        <time>2010-01-01T02:23:25Z</time>
      </trkpt>
      <trkpt lat="42.15333" lon="2.60311">
        <ele>383</ele>
        <time>2010-01-01T02:23:34Z</time>
      </trkpt>
      <trkpt lat="42.1533" lon="2.60281">
        <ele>384</ele>
        <time>2010-01-01T02:23:43Z</time>
      </trkpt>
      <trkpt lat="42.1533" lon="2.60247">
        <ele>384</ele>
        <time>2010-01-01T02:23:53Z</time>
      </trkpt>
      <trkpt lat="42.15328" lon="2.60217">
        <ele>385</ele>
        <time>2010-01-01T02:24:02Z</time>
      </trkpt>
      <trkpt lat="42.15314" lon="2.60193">
        <ele>387</ele>
        <time>2010-01-01T02:24:11Z</time>
      </trkpt>
      <trkpt lat="42.15301" lon="2.6017">
        <ele>387</ele>
        <time>2010-01-01T02:24:20Z</time>
      </trkpt>
      <trkpt lat="42.1529" lon="2.60139">
        <ele>388</ele>
        <time>2010-01-01T02:24:30Z</time>
      </trkpt>
      <trkpt lat="42.15282" lon="2.60104">
        <ele>391</ele>
        <time>2010-01-01T02:24:41Z</time>
      </trkpt>
      <trkpt lat="42.15265" lon="2.60068">
        <ele>392</ele>
        <time>2010-01-01T02:24:53Z</time>
      </trkpt>
      <trkpt lat="42.15248" lon="2.6005">
        <ele>391</ele>
        <time>2010-01-01T02:25:02Z</time>
      </trkpt>
      <trkpt lat="42.15228" lon="2.60025">
        <ele>390</ele>
        <time>2010-01-01T02:25:13Z</time>
      </trkpt>
      <trkpt lat="42.15217" lon="2.60002">
        <ele>389</ele>
        <time>2010-01-01T02:25:21Z</time>
      </trkpt>
      <trkpt lat="42.1521" lon="2.59967">
        <ele>390</ele>
        <time>2010-01-01T02:25:32Z</time>
      </trkpt>
      <trkpt lat="42.15202" lon="2.59935">
        <ele>393</ele>
        <time>2010-01-01T02:25:42Z</time>
      </trkpt>
      <trkpt lat="42.15194" lon="2.59903">
        <ele>396</ele>
        <time>2010-01-01T02:25:52Z</time>
      </trkpt>
      <trkpt lat="42.15184" lon="2.59873">
        <ele>398</ele>
        <time>2010-01-01T02:26:02Z</time>
      </trkpt>
      <trkpt lat="42.15174" lon="2.59844">
        <ele>398</ele>
        <time>2010-01-01T02:26:11Z</time>
      </trkpt>
      <trkpt lat="42.15158" lon="2.59807">
        <ele>397</ele>
        <time>2010-01-01T02:26:24Z</time>
      </trkpt>
      <trkpt lat="42.15138" lon="2.59782">
        <ele>397</ele>
        <time>2010-01-01T02:26:35Z</time>
      </trkpt>
      <trkpt lat="42.15134" lon="2.59768">
        <ele>398</ele>
        <time>2010-01-01T02:26:40Z</time>
      </trkpt>
      <trkpt lat="42.15139" lon="2.59765">
        <ele>399</ele>
        <time>2010-01-01T02:26:42Z</time>
      </trkpt>
      <trkpt lat="42.15165" lon="2.59757">
        <ele>401</ele>
        <time>2010-01-01T02:26:53Z</time>
      </trkpt>
      <trkpt lat="42.15184" lon="2.59754">
        <ele>401</ele>
        <time>2010-01-01T02:27:00Z</time>
      </trkpt>
      <trkpt lat="42.15205" lon="2.59774">
        <ele>402</ele>
        <time>2010-01-01T02:27:11Z</time>
      </trkpt>
      <trkpt lat="42.1521" lon="2.59777">
        <ele>402</ele>
        <time>2010-01-01T02:27:13Z</time>
      </trkpt>
      <trkpt lat="42.15211" lon="2.59779">
        <ele>402</ele>
        <time>2010-01-01T02:27:14Z</time>
      </trkpt>
      <trkpt lat="42.15214" lon="2.59781">
        <ele>402</ele>
        <time>2010-01-01T02:27:15Z</time>
      </trkpt>
      <trkpt lat="42.15215" lon="2.59781">
        <ele>402</ele>
        <time>2010-01-01T02:27:15Z</time>
      </trkpt>
      <trkpt lat="42.15212" lon="2.59781">
        <ele>402</ele>
        <time>2010-01-01T02:27:16Z</time>
      </trkpt>
      <trkpt lat="42.1521" lon="2.59777">
        <ele>402</ele>
        <time>2010-01-01T02:27:18Z</time>
      </trkpt>
      <trkpt lat="42.15207" lon="2.5977">
        <ele>402</ele>
        <time>2010-01-01T02:27:20Z</time>
      </trkpt>
      <trkpt lat="42.15203" lon="2.59769">
        <ele>402</ele>
        <time>2010-01-01T02:27:22Z</time>
      </trkpt>
      <trkpt lat="42.15202" lon="2.59768">
        <ele>401</ele>
        <time>2010-01-01T02:27:22Z</time>
      </trkpt>
      <trkpt lat="42.15194" lon="2.59761">
        <ele>401</ele>
        <time>2010-01-01T02:27:26Z</time>
      </trkpt>
      <trkpt lat="42.15181" lon="2.59754">
        <ele>401</ele>
        <time>2010-01-01T02:27:32Z</time>
      </trkpt>
      <trkpt lat="42.15155" lon="2.5976">
        <ele>400</ele>
        <time>2010-01-01T02:27:43Z</time>
      </trkpt>
      <trkpt lat="42.15131" lon="2.59767">
        <ele>398</ele>
        <time>2010-01-01T02:27:52Z</time>
      </trkpt>
      <trkpt lat="42.15109" lon="2.59751">
        <ele>399</ele>
        <time>2010-01-01T02:28:02Z</time>
      </trkpt>
      <trkpt lat="42.15097" lon="2.59727">
        <ele>400</ele>
        <time>2010-01-01T02:28:11Z</time>
      </trkpt>
      <trkpt lat="42.15087" lon="2.59699">
        <ele>402</ele>
        <time>2010-01-01T02:28:20Z</time>
      </trkpt>
      <trkpt lat="42.15077" lon="2.59667">
        <ele>405</ele>
        <time>2010-01-01T02:28:30Z</time>
      </trkpt>
      <trkpt lat="42.15075" lon="2.59647">
        <ele>406</ele>
        <time>2010-01-01T02:28:36Z</time>
      </trkpt>
      <trkpt lat="42.15069" lon="2.59618">
        <ele>407</ele>
        <time>2010-01-01T02:28:45Z</time>
      </trkpt>
      <trkpt lat="42.15065" lon="2.59584">
        <ele>407</ele>
        <time>2010-01-01T02:28:55Z</time>
      </trkpt>
      <trkpt lat="42.15059" lon="2.59553">
        <ele>407</ele>
        <time>2010-01-01T02:29:05Z</time>
      </trkpt>
      <trkpt lat="42.15049" lon="2.5952">
        <ele>408</ele>
        <time>2010-01-01T02:29:16Z</time>
      </trkpt>
      <trkpt lat="42.1504" lon="2.59488">
        <ele>408</ele>
        <time>2010-01-01T02:29:26Z</time>
      </trkpt>
      <trkpt lat="42.15031" lon="2.59455">
        <ele>408</ele>
        <time>2010-01-01T02:29:36Z</time>
      </trkpt>
      <trkpt lat="42.15026" lon="2.59429">
        <ele>407</ele>
        <time>2010-01-01T02:29:44Z</time>
      </trkpt>
      <trkpt lat="42.15026" lon="2.5939">
        <ele>407</ele>
        <time>2010-01-01T02:29:56Z</time>
      </trkpt>
      <trkpt lat="42.15029" lon="2.5936">
        <ele>409</ele>
        <time>2010-01-01T02:30:05Z</time>
      </trkpt>
      <trkpt lat="42.1503" lon="2.59325">
        <ele>412</ele>
        <time>2010-01-01T02:30:15Z</time>
      </trkpt>
      <trkpt lat="42.15036" lon="2.59291">
        <ele>413</ele>
        <time>2010-01-01T02:30:25Z</time>
      </trkpt>
      <trkpt lat="42.15044" lon="2.59263">
        <ele>414</ele>
        <time>2010-01-01T02:30:34Z</time>
      </trkpt>
      <trkpt lat="42.15048" lon="2.59229">
        <ele>415</ele>
        <time>2010-01-01T02:30:45Z</time>
      </trkpt>
      <trkpt lat="42.15057" lon="2.59195">
        <ele>414</ele>
        <time>2010-01-01T02:30:55Z</time>
      </trkpt>
      <trkpt lat="42.15069" lon="2.59163">
        <ele>414</ele>
        <time>2010-01-01T02:31:06Z</time>
      </trkpt>
      <trkpt lat="42.15073" lon="2.59135">
        <ele>414</ele>
        <time>2010-01-01T02:31:14Z</time>
      </trkpt>
      <trkpt lat="42.15079" lon="2.59104">
        <ele>414</ele>
        <time>2010-01-01T02:31:24Z</time>
      </trkpt>
      <trkpt lat="42.1509" lon="2.59075">
        <ele>415</ele>
        <time>2010-01-01T02:31:34Z</time>
      </trkpt>
      <trkpt lat="42.15102" lon="2.59047">
        <ele>417</ele>
        <time>2010-01-01T02:31:43Z</time>
      </trkpt>
      <trkpt lat="42.15102" lon="2.59039">
        <ele>417</ele>
        <time>2010-01-01T02:31:46Z</time>
      </trkpt>
      <trkpt lat="42.15104" lon="2.59042">
        <ele>417</ele>
        <time>2010-01-01T02:31:47Z</time>
      </trkpt>
      <trkpt lat="42.15104" lon="2.59042">
        <ele>417</ele>
        <time>2010-01-01T02:31:47Z</time>
      </trkpt>
      <trkpt lat="42.15107" lon="2.59034">
        <ele>417</ele>
        <time>2010-01-01T02:31:50Z</time>
      </trkpt>
      <trkpt lat="42.15118" lon="2.59011">
        <ele>417</ele>
        <time>2010-01-01T02:31:58Z</time>
      </trkpt>
      <trkpt lat="42.15119" lon="2.58983">
        <ele>417</ele>
        <time>2010-01-01T02:32:06Z</time>
      </trkpt>
      <trkpt lat="42.15119" lon="2.58956">
        <ele>416</ele>
        <time>2010-01-01T02:32:14Z</time>
      </trkpt>
      <trkpt lat="42.15118" lon="2.58939">
        <ele>415</ele>
        <time>2010-01-01T02:32:19Z</time>
      </trkpt>
      <trkpt lat="42.15118" lon="2.58937">
        <ele>415</ele>
        <time>2010-01-01T02:32:20Z</time>
      </trkpt>
      <trkpt lat="42.1512" lon="2.58912">
        <ele>415</ele>
        <time>2010-01-01T02:32:27Z</time>
      </trkpt>
      <trkpt lat="42.15129" lon="2.58885">
        <ele>414</ele>
        <time>2010-01-01T02:32:36Z</time>
      </trkpt>
      <trkpt lat="42.15142" lon="2.58865">
        <ele>412</ele>
        <time>2010-01-01T02:32:44Z</time>
      </trkpt>
      <trkpt lat="42.15149" lon="2.58839">
        <ele>412</ele>
        <time>2010-01-01T02:32:52Z</time>
      </trkpt>
      <trkpt lat="42.15153" lon="2.58812">
        <ele>412</ele>
        <time>2010-01-01T02:33:00Z</time>
      </trkpt>
      <trkpt lat="42.15157" lon="2.58789">
        <ele>413</ele>
        <time>2010-01-01T02:33:07Z</time>
      </trkpt>
      <trkpt lat="42.1516" lon="2.58759">
        <ele>415</ele>
        <time>2010-01-01T02:33:16Z</time>
      </trkpt>
      <trkpt lat="42.15166" lon="2.58749">
        <ele>416</ele>
        <time>2010-01-01T02:33:20Z</time>
      </trkpt>
      <trkpt lat="42.15168" lon="2.58754">
        <ele>415</ele>
        <time>2010-01-01T02:33:22Z</time>
      </trkpt>
      <trkpt lat="42.15183" lon="2.5877">
        <ele>417</ele>
        <time>2010-01-01T02:33:30Z</time>
      </trkpt>
      <trkpt lat="42.15205" lon="2.58787">
        <ele>419</ele>
        <time>2010-01-01T02:33:40Z</time>
      </trkpt>
      <trkpt lat="42.15217" lon="2.58809">
        <ele>420</ele>
        <time>2010-01-01T02:33:48Z</time>
      </trkpt>
      <trkpt lat="42.15212" lon="2.58838">
        <ele>420</ele>
        <time>2010-01-01T02:33:56Z</time>
      </trkpt>
      <trkpt lat="42.15217" lon="2.58843">
        <ele>420</ele>
        <time>2010-01-01T02:33:59Z</time>
      </trkpt>
      <trkpt lat="42.15228" lon="2.58837">
        <ele>421</ele>
        <time>2010-01-01T02:34:03Z</time>
      </trkpt>
      <trkpt lat="42.15234" lon="2.58833">
        <ele>422</ele>
        <time>2010-01-01T02:34:06Z</time>
      </trkpt>
      <trkpt lat="42.15237" lon="2.58831">
        <ele>422</ele>
        <time>2010-01-01T02:34:08Z</time>
      </trkpt>
      <trkpt lat="42.15247" lon="2.58843">
        <ele>422</ele>
        <time>2010-01-01T02:34:13Z</time>
      </trkpt>
      <trkpt lat="42.15244" lon="2.58854">
        <ele>421</ele>
        <time>2010-01-01T02:34:16Z</time>
      </trkpt>
      <trkpt lat="42.15246" lon="2.58876">
        <ele>420</ele>
        <time>2010-01-01T02:34:23Z</time>
      </trkpt>
      <trkpt lat="42.15256" lon="2.58894">
        <ele>420</ele>
        <time>2010-01-01T02:34:29Z</time>
      </trkpt>
      <trkpt lat="42.1526" lon="2.58906">
        <ele>420</ele>
        <time>2010-01-01T02:34:34Z</time>
      </trkpt>
      <trkpt lat="42.15272" lon="2.58931">
        <ele>421</ele>
        <time>2010-01-01T02:34:42Z</time>
      </trkpt>
      <trkpt lat="42.15274" lon="2.58942">
        <ele>421</ele>
        <time>2010-01-01T02:34:46Z</time>
      </trkpt>
      <trkpt lat="42.15272" lon="2.58966">
        <ele>418</ele>
        <time>2010-01-01T02:34:53Z</time>
      </trkpt>
      <trkpt lat="42.15255" lon="2.58993">
        <ele>414</ele>
        <time>2010-01-01T02:35:03Z</time>
      </trkpt>
      <trkpt lat="42.15242" lon="2.5902">
        <ele>413</ele>
        <time>2010-01-01T02:35:13Z</time>
      </trkpt>
      <trkpt lat="42.15238" lon="2.59047">
        <ele>411</ele>
        <time>2010-01-01T02:35:21Z</time>
      </trkpt>
      <trkpt lat="42.15238" lon="2.59079">
        <ele>408</ele>
        <time>2010-01-01T02:35:30Z</time>
      </trkpt>
      <trkpt lat="42.15233" lon="2.59105">
        <ele>408</ele>
        <time>2010-01-01T02:35:38Z</time>
      </trkpt>
      <trkpt lat="42.15229" lon="2.5911">
        <ele>407</ele>
        <time>2010-01-01T02:35:41Z</time>
      </trkpt>
      <trkpt lat="42.15229" lon="2.5911">
        <ele>407</ele>
        <time>2010-01-01T02:35:41Z</time>
      </trkpt>
      <trkpt lat="42.15223" lon="2.591">
        <ele>407</ele>
        <time>2010-01-01T02:35:45Z</time>
      </trkpt>
      <trkpt lat="42.15223" lon="2.59092">
        <ele>407</ele>
        <time>2010-01-01T02:35:47Z</time>
      </trkpt>
      <trkpt lat="42.15221" lon="2.59092">
        <ele>407</ele>
        <time>2010-01-01T02:35:48Z</time>
      </trkpt>
      <trkpt lat="42.15214" lon="2.59103">
        <ele>407</ele>
        <time>2010-01-01T02:35:52Z</time>
      </trkpt>
      <trkpt lat="42.15215" lon="2.59092">
        <ele>407</ele>
        <time>2010-01-01T02:35:56Z</time>
      </trkpt>
      <trkpt lat="42.15209" lon="2.59095">
        <ele>407</ele>
        <time>2010-01-01T02:35:58Z</time>
      </trkpt>
      <trkpt lat="42.15208" lon="2.59091">
        <ele>407</ele>
        <time>2010-01-01T02:36:00Z</time>
      </trkpt>
      <trkpt lat="42.15208" lon="2.59093">
        <ele>407</ele>
        <time>2010-01-01T02:36:00Z</time>
      </trkpt>
      <trkpt lat="42.15212" lon="2.59096">
        <ele>407</ele>
        <time>2010-01-01T02:36:02Z</time>
      </trkpt>
      <trkpt lat="42.15214" lon="2.59097">
        <ele>407</ele>
        <time>2010-01-01T02:36:03Z</time>
      </trkpt>
      <trkpt lat="42.15215" lon="2.59094">
        <ele>407</ele>
        <time>2010-01-01T02:36:04Z</time>
      </trkpt>
      <trkpt lat="42.15216" lon="2.59089">
        <ele>407</ele>
        <time>2010-01-01T02:36:05Z</time>
      </trkpt>
      <trkpt lat="42.15215" lon="2.59079">
        <ele>407</ele>
        <time>2010-01-01T02:36:08Z</time>
      </trkpt>
      <trkpt lat="42.15215" lon="2.59078">
        <ele>407</ele>
        <time>2010-01-01T02:36:09Z</time>
      </trkpt>
      <trkpt lat="42.15218" lon="2.5908">
        <ele>407</ele>
        <time>2010-01-01T02:36:10Z</time>
      </trkpt>
      <trkpt lat="42.1522" lon="2.59088">
        <ele>407</ele>
        <time>2010-01-01T02:36:13Z</time>
      </trkpt>
      <trkpt lat="42.15217" lon="2.59101">
        <ele>407</ele>
        <time>2010-01-01T02:36:17Z</time>
      </trkpt>
      <trkpt lat="42.15217" lon="2.59104">
        <ele>407</ele>
        <time>2010-01-01T02:36:17Z</time>
      </trkpt>
      <trkpt lat="42.15218" lon="2.59103">
        <ele>407</ele>
        <time>2010-01-01T02:36:18Z</time>
      </trkpt>
      <trkpt lat="42.15223" lon="2.59093">
        <ele>407</ele>
        <time>2010-01-01T02:36:21Z</time>
      </trkpt>
      <trkpt lat="42.15224" lon="2.59097">
        <ele>407</ele>
        <time>2010-01-01T02:36:23Z</time>
      </trkpt>
      <trkpt lat="42.15229" lon="2.59109">
        <ele>407</ele>
        <time>2010-01-01T02:36:27Z</time>
      </trkpt>
      <trkpt lat="42.15232" lon="2.59111">
        <ele>408</ele>
        <time>2010-01-01T02:36:28Z</time>
      </trkpt>
      <trkpt lat="42.15237" lon="2.59094">
        <ele>408</ele>
        <time>2010-01-01T02:36:33Z</time>
      </trkpt>
      <trkpt lat="42.15239" lon="2.5907">
        <ele>409</ele>
        <time>2010-01-01T02:36:40Z</time>
      </trkpt>
      <trkpt lat="42.1524" lon="2.59038">
        <ele>412</ele>
        <time>2010-01-01T02:36:50Z</time>
      </trkpt>
      <trkpt lat="42.15244" lon="2.59013">
        <ele>413</ele>
        <time>2010-01-01T02:36:57Z</time>
      </trkpt>
      <trkpt lat="42.15258" lon="2.58989">
        <ele>415</ele>
        <time>2010-01-01T02:37:07Z</time>
      </trkpt>
      <trkpt lat="42.15272" lon="2.58966">
        <ele>418</ele>
        <time>2010-01-01T02:37:15Z</time>
      </trkpt>
      <trkpt lat="42.15279" lon="2.58948">
        <ele>421</ele>
        <time>2010-01-01T02:37:21Z</time>
      </trkpt>
      <trkpt lat="42.15279" lon="2.58949">
        <ele>421</ele>
        <time>2010-01-01T02:37:21Z</time>
      </trkpt>
      <trkpt lat="42.15276" lon="2.58945">
        <ele>421</ele>
        <time>2010-01-01T02:37:23Z</time>
      </trkpt>
      <trkpt lat="42.15275" lon="2.58943">
        <ele>421</ele>
        <time>2010-01-01T02:37:24Z</time>
      </trkpt>
      <trkpt lat="42.15267" lon="2.58925">
        <ele>421</ele>
        <time>2010-01-01T02:37:30Z</time>
      </trkpt>
      <trkpt lat="42.15261" lon="2.58907">
        <ele>420</ele>
        <time>2010-01-01T02:37:36Z</time>
      </trkpt>
      <trkpt lat="42.15253" lon="2.58887">
        <ele>420</ele>
        <time>2010-01-01T02:37:43Z</time>
      </trkpt>
      <trkpt lat="42.15248" lon="2.58877">
        <ele>420</ele>
        <time>2010-01-01T02:37:46Z</time>
      </trkpt>
      <trkpt lat="42.15246" lon="2.58873">
        <ele>420</ele>
        <time>2010-01-01T02:37:47Z</time>
      </trkpt>
      <trkpt lat="42.15244" lon="2.5885">
        <ele>422</ele>
        <time>2010-01-01T02:37:54Z</time>
      </trkpt>
      <trkpt lat="42.15245" lon="2.58832">
        <ele>422</ele>
        <time>2010-01-01T02:38:00Z</time>
      </trkpt>
      <trkpt lat="42.1524" lon="2.5883">
        <ele>422</ele>
        <time>2010-01-01T02:38:02Z</time>
      </trkpt>
      <trkpt lat="42.15224" lon="2.5884">
        <ele>421</ele>
        <time>2010-01-01T02:38:09Z</time>
      </trkpt>
      <trkpt lat="42.15222" lon="2.58842">
        <ele>421</ele>
        <time>2010-01-01T02:38:10Z</time>
      </trkpt>
      <trkpt lat="42.15214" lon="2.58837">
        <ele>420</ele>
        <time>2010-01-01T02:38:14Z</time>
      </trkpt>
      <trkpt lat="42.15216" lon="2.5883">
        <ele>420</ele>
        <time>2010-01-01T02:38:16Z</time>
      </trkpt>
      <trkpt lat="42.15224" lon="2.58805">
        <ele>421</ele>
        <time>2010-01-01T02:38:24Z</time>
      </trkpt>
      <trkpt lat="42.15224" lon="2.58808">
        <ele>421</ele>
        <time>2010-01-01T02:38:25Z</time>
      </trkpt>
      <trkpt lat="42.15218" lon="2.58798">
        <ele>420</ele>
        <time>2010-01-01T02:38:29Z</time>
      </trkpt>
      <trkpt lat="42.15211" lon="2.58788">
        <ele>420</ele>
        <time>2010-01-01T02:38:33Z</time>
      </trkpt>
      <trkpt lat="42.15203" lon="2.58779">
        <ele>419</ele>
        <time>2010-01-01T02:38:37Z</time>
      </trkpt>
      <trkpt lat="42.15195" lon="2.58771">
        <ele>418</ele>
        <time>2010-01-01T02:38:41Z</time>
      </trkpt>
      <trkpt lat="42.15186" lon="2.58767">
        <ele>417</ele>
        <time>2010-01-01T02:38:44Z</time>
      </trkpt>
      <trkpt lat="42.15177" lon="2.58761">
        <ele>416</ele>
        <time>2010-01-01T02:38:49Z</time>
      </trkpt>
      <trkpt lat="42.15171" lon="2.58751">
        <ele>416</ele>
        <time>2010-01-01T02:38:52Z</time>
      </trkpt>
      <trkpt lat="42.15165" lon="2.58743">
        <ele>416</ele>
        <time>2010-01-01T02:38:56Z</time>
      </trkpt>
      <trkpt lat="42.15163" lon="2.58744">
        <ele>416</ele>
        <time>2010-01-01T02:38:56Z</time>
      </trkpt>
      <trkpt lat="42.15162" lon="2.5874">
        <ele>416</ele>
        <time>2010-01-01T02:38:58Z</time>
      </trkpt>
      <trkpt lat="42.15163" lon="2.58736">
        <ele>416</ele>
        <time>2010-01-01T02:38:59Z</time>
      </trkpt>
      <trkpt lat="42.15164" lon="2.58732">
        <ele>417</ele>
        <time>2010-01-01T02:39:00Z</time>
      </trkpt>
      <trkpt lat="42.15164" lon="2.58729">
        <ele>417</ele>
        <time>2010-01-01T02:39:01Z</time>
      </trkpt>
      <trkpt lat="42.15166" lon="2.5872">
        <ele>418</ele>
        <time>2010-01-01T02:39:04Z</time>
      </trkpt>
      <trkpt lat="42.15166" lon="2.58716">
        <ele>418</ele>
        <time>2010-01-01T02:39:05Z</time>
      </trkpt>
      <trkpt lat="42.15167" lon="2.58712">
        <ele>418</ele>
        <time>2010-01-01T02:39:06Z</time>
      </trkpt>
      <trkpt lat="42.1517" lon="2.58694">
        <ele>419</ele>
        <time>2010-01-01T02:39:12Z</time>
      </trkpt>
      <trkpt lat="42.15172" lon="2.58685">
        <ele>419</ele>
        <time>2010-01-01T02:39:15Z</time>
      </trkpt>
      <trkpt lat="42.15173" lon="2.58675">
        <ele>420</ele>
        <time>2010-01-01T02:39:18Z</time>
      </trkpt>
      <trkpt lat="42.15173" lon="2.58666">
        <ele>420</ele>
        <time>2010-01-01T02:39:21Z</time>
      </trkpt>
      <trkpt lat="42.15173" lon="2.58661">
        <ele>420</ele>
        <time>2010-01-01T02:39:22Z</time>
      </trkpt>
      <trkpt lat="42.15174" lon="2.58652">
        <ele>420</ele>
        <time>2010-01-01T02:39:25Z</time>
      </trkpt>
      <trkpt lat="42.15175" lon="2.58648">
        <ele>421</ele>
        <time>2010-01-01T02:39:26Z</time>
      </trkpt>
      <trkpt lat="42.15178" lon="2.58629">
        <ele>421</ele>
        <time>2010-01-01T02:39:32Z</time>
      </trkpt>
      <trkpt lat="42.15179" lon="2.58624">
        <ele>422</ele>
        <time>2010-01-01T02:39:33Z</time>
      </trkpt>
      <trkpt lat="42.15181" lon="2.5862">
        <ele>422</ele>
        <time>2010-01-01T02:39:35Z</time>
      </trkpt>
      <trkpt lat="42.15182" lon="2.58616">
        <ele>422</ele>
        <time>2010-01-01T02:39:36Z</time>
      </trkpt>
      <trkpt lat="42.15185" lon="2.58607">
        <ele>422</ele>
        <time>2010-01-01T02:39:39Z</time>
      </trkpt>
      <trkpt lat="42.15187" lon="2.58597">
        <ele>423</ele>
        <time>2010-01-01T02:39:42Z</time>
      </trkpt>
      <trkpt lat="42.15188" lon="2.58584">
        <ele>423</ele>
        <time>2010-01-01T02:39:46Z</time>
      </trkpt>
      <trkpt lat="42.15188" lon="2.58572">
        <ele>424</ele>
        <time>2010-01-01T02:39:49Z</time>
      </trkpt>
      <trkpt lat="42.15188" lon="2.58572">
        <ele>424</ele>
        <time>2010-01-01T02:39:49Z</time>
      </trkpt>
      <trkpt lat="42.15186" lon="2.5855">
        <ele>424</ele>
        <time>2010-01-01T02:39:56Z</time>
      </trkpt>
      <trkpt lat="42.15189" lon="2.58512">
        <ele>425</ele>
        <time>2010-01-01T02:40:07Z</time>
      </trkpt>
      <trkpt lat="42.15191" lon="2.58489">
        <ele>426</ele>
        <time>2010-01-01T02:40:14Z</time>
      </trkpt>
      <trkpt lat="42.15194" lon="2.58475">
        <ele>426</ele>
        <time>2010-01-01T02:40:18Z</time>
      </trkpt>
      <trkpt lat="42.15192" lon="2.58467">
        <ele>427</ele>
        <time>2010-01-01T02:40:21Z</time>
      </trkpt>
      <trkpt lat="42.15167" lon="2.58464">
        <ele>427</ele>
        <time>2010-01-01T02:40:31Z</time>
      </trkpt>
      <trkpt lat="42.15151" lon="2.58458">
        <ele>427</ele>
        <time>2010-01-01T02:40:37Z</time>
      </trkpt>
      <trkpt lat="42.15138" lon="2.5846">
        <ele>427</ele>
        <time>2010-01-01T02:40:43Z</time>
      </trkpt>
      <trkpt lat="42.15132" lon="2.5846">
        <ele>427</ele>
        <time>2010-01-01T02:40:45Z</time>
      </trkpt>
      <trkpt lat="42.1513" lon="2.58462">
        <ele>427</ele>
        <time>2010-01-01T02:40:46Z</time>
      </trkpt>
      <trkpt lat="42.15129" lon="2.58485">
        <ele>428</ele>
        <time>2010-01-01T02:40:53Z</time>
      </trkpt>
      <trkpt lat="42.15128" lon="2.58488">
        <ele>428</ele>
        <time>2010-01-01T02:40:54Z</time>
      </trkpt>
      <trkpt lat="42.15124" lon="2.58501">
        <ele>429</ele>
        <time>2010-01-01T02:40:58Z</time>
      </trkpt>
      <trkpt lat="42.15123" lon="2.58502">
        <ele>429</ele>
        <time>2010-01-01T02:40:59Z</time>
      </trkpt>
      <trkpt lat="42.15123" lon="2.58501">
        <ele>429</ele>
        <time>2010-01-01T02:40:59Z</time>
      </trkpt>
      <trkpt lat="42.15124" lon="2.58496">
        <ele>429</ele>
        <time>2010-01-01T02:41:01Z</time>
      </trkpt>
      <trkpt lat="42.15125" lon="2.58487">
        <ele>429</ele>
        <time>2010-01-01T02:41:03Z</time>
      </trkpt>
      <trkpt lat="42.15124" lon="2.5847">
        <ele>428</ele>
        <time>2010-01-01T02:41:08Z</time>
      </trkpt>
      <trkpt lat="42.15126" lon="2.58465">
        <ele>428</ele>
        <time>2010-01-01T02:41:10Z</time>
      </trkpt>
      <trkpt lat="42.15138" lon="2.5846">
        <ele>427</ele>
        <time>2010-01-01T02:41:15Z</time>
      </trkpt>
      <trkpt lat="42.15144" lon="2.5846">
        <ele>427</ele>
        <time>2010-01-01T02:41:18Z</time>
      </trkpt>
      <trkpt lat="42.15163" lon="2.58463">
        <ele>427</ele>
        <time>2010-01-01T02:41:25Z</time>
      </trkpt>
      <trkpt lat="42.1519" lon="2.58466">
        <ele>427</ele>
        <time>2010-01-01T02:41:36Z</time>
      </trkpt>
      <trkpt lat="42.15197" lon="2.58464">
        <ele>427</ele>
        <time>2010-01-01T02:41:39Z</time>
      </trkpt>
      <trkpt lat="42.15202" lon="2.58442">
        <ele>428</ele>
        <time>2010-01-01T02:41:46Z</time>
      </trkpt>
      <trkpt lat="42.15203" lon="2.58419">
        <ele>428</ele>
        <time>2010-01-01T02:41:53Z</time>
      </trkpt>
      <trkpt lat="42.15202" lon="2.58395">
        <ele>429</ele>
        <time>2010-01-01T02:42:00Z</time>
      </trkpt>
      <trkpt lat="42.15198" lon="2.58376">
        <ele>430</ele>
        <time>2010-01-01T02:42:06Z</time>
      </trkpt>
      <trkpt lat="42.15195" lon="2.58344">
        <ele>431</ele>
        <time>2010-01-01T02:42:15Z</time>
      </trkpt>
      <trkpt lat="42.15199" lon="2.58323">
        <ele>431</ele>
        <time>2010-01-01T02:42:22Z</time>
      </trkpt>
      <trkpt lat="42.15203" lon="2.58304">
        <ele>431</ele>
        <time>2010-01-01T02:42:27Z</time>
      </trkpt>
      <trkpt lat="42.15206" lon="2.58281">
        <ele>431</ele>
        <time>2010-01-01T02:42:34Z</time>
      </trkpt>
      <trkpt lat="42.15211" lon="2.58256">
        <ele>433</ele>
        <time>2010-01-01T02:42:42Z</time>
      </trkpt>
      <trkpt lat="42.15213" lon="2.58233">
        <ele>435</ele>
        <time>2010-01-01T02:42:49Z</time>
      </trkpt>
      <trkpt lat="42.15212" lon="2.5821">
        <ele>436</ele>
        <time>2010-01-01T02:42:56Z</time>
      </trkpt>
      <trkpt lat="42.15214" lon="2.58203">
        <ele>437</ele>
        <time>2010-01-01T02:42:58Z</time>
      </trkpt>
      <trkpt lat="42.15215" lon="2.58183">
        <ele>437</ele>
        <time>2010-01-01T02:43:04Z</time>
      </trkpt>
      <trkpt lat="42.15206" lon="2.58162">
        <ele>438</ele>
        <time>2010-01-01T02:43:11Z</time>
      </trkpt>
      <trkpt lat="42.15206" lon="2.5816">
        <ele>439</ele>
        <time>2010-01-01T02:43:12Z</time>
      </trkpt>
      <trkpt lat="42.15206" lon="2.58133">
        <ele>440</ele>
        <time>2010-01-01T02:43:20Z</time>
      </trkpt>
      <trkpt lat="42.15205" lon="2.58125">
        <ele>441</ele>
        <time>2010-01-01T02:43:22Z</time>
      </trkpt>
      <trkpt lat="42.15205" lon="2.58123">
        <ele>441</ele>
        <time>2010-01-01T02:43:23Z</time>
      </trkpt>
      <trkpt lat="42.152" lon="2.58097">
        <ele>441</ele>
        <time>2010-01-01T02:43:31Z</time>
      </trkpt>
      <trkpt lat="42.15201" lon="2.58077">
        <ele>442</ele>
        <time>2010-01-01T02:43:37Z</time>
      </trkpt>
      <trkpt lat="42.15206" lon="2.58053">
        <ele>442</ele>
        <time>2010-01-01T02:43:44Z</time>
      </trkpt>
      <trkpt lat="42.15209" lon="2.58034">
        <ele>442</ele>
        <time>2010-01-01T02:43:50Z</time>
      </trkpt>
      <trkpt lat="42.1521" lon="2.58028">
        <ele>442</ele>
        <time>2010-01-01T02:43:52Z</time>
      </trkpt>
      <trkpt lat="42.15215" lon="2.57998">
        <ele>440</ele>
        <time>2010-01-01T02:44:01Z</time>
      </trkpt>
      <trkpt lat="42.15224" lon="2.57968">
        <ele>440</ele>
        <time>2010-01-01T02:44:10Z</time>
      </trkpt>
      <trkpt lat="42.15233" lon="2.57937">
        <ele>442</ele>
        <time>2010-01-01T02:44:20Z</time>
      </trkpt>
      <trkpt lat="42.15241" lon="2.57909">
        <ele>444</ele>
        <time>2010-01-01T02:44:29Z</time>
      </trkpt>
      <trkpt lat="42.15247" lon="2.57884">
        <ele>446</ele>
        <time>2010-01-01T02:44:37Z</time>
      </trkpt>
      <trkpt lat="42.15254" lon="2.57849">
        <ele>449</ele>
        <time>2010-01-01T02:44:48Z</time>
      </trkpt>
      <trkpt lat="42.15265" lon="2.57821">
        <ele>450</ele>
        <time>2010-01-01T02:44:57Z</time>
      </trkpt>
      <trkpt lat="42.15274" lon="2.57792">
        <ele>451</ele>
        <time>2010-01-01T02:45:06Z</time>
      </trkpt>
      <trkpt lat="42.15285" lon="2.57762">
        <ele>452</ele>
        <time>2010-01-01T02:45:16Z</time>
      </trkpt>
      <trkpt lat="42.1529" lon="2.57739">
        <ele>452</ele>
        <time>2010-01-01T02:45:23Z</time>
      </trkpt>
      <trkpt lat="42.15295" lon="2.57701">
        <ele>454</ele>
        <time>2010-01-01T02:45:35Z</time>
      </trkpt>
      <trkpt lat="42.153" lon="2.57666">
        <ele>456</ele>
        <time>2010-01-01T02:45:46Z</time>
      </trkpt>
      <trkpt lat="42.15301" lon="2.57635">
        <ele>456</ele>
        <time>2010-01-01T02:45:55Z</time>
      </trkpt>
      <trkpt lat="42.15303" lon="2.57601">
        <ele>457</ele>
        <time>2010-01-01T02:46:05Z</time>
      </trkpt>
      <trkpt lat="42.15302" lon="2.57588">
        <ele>457</ele>
        <time>2010-01-01T02:46:09Z</time>
      </trkpt>
      <trkpt lat="42.15302" lon="2.57582">
        <ele>457</ele>
        <time>2010-01-01T02:46:11Z</time>
      </trkpt>
      <trkpt lat="42.15308" lon="2.57573">
        <ele>457</ele>
        <time>2010-01-01T02:46:14Z</time>
      </trkpt>
      <trkpt lat="42.15354" lon="2.56976">
        <ele>462</ele>
        <time>2010-01-01T02:49:12Z</time>
      </trkpt>
      <trkpt lat="42.15353" lon="2.56965">
        <ele>462</ele>
        <time>2010-01-01T02:49:16Z</time>
      </trkpt>
      <trkpt lat="42.15352" lon="2.5696">
        <ele>462</ele>
        <time>2010-01-01T02:49:17Z</time>
      </trkpt>
      <trkpt lat="42.15352" lon="2.56954">
        <ele>462</ele>
        <time>2010-01-01T02:49:19Z</time>
      </trkpt>
      <trkpt lat="42.15348" lon="2.56947">
        <ele>462</ele>
        <time>2010-01-01T02:49:21Z</time>
      </trkpt>
      <trkpt lat="42.15348" lon="2.5694">
        <ele>463</ele>
        <time>2010-01-01T02:49:24Z</time>
      </trkpt>
      <trkpt lat="42.1535" lon="2.56936">
        <ele>463</ele>
        <time>2010-01-01T02:49:25Z</time>
      </trkpt>
      <trkpt lat="42.15355" lon="2.56927">
        <ele>463</ele>
        <time>2010-01-01T02:49:28Z</time>
      </trkpt>
      <trkpt lat="42.15368" lon="2.56927">
        <ele>463</ele>
        <time>2010-01-01T02:49:33Z</time>
      </trkpt>
      <trkpt lat="42.15384" lon="2.56929">
        <ele>463</ele>
        <time>2010-01-01T02:49:40Z</time>
      </trkpt>
      <trkpt lat="42.15418" lon="2.56941">
        <ele>465</ele>
        <time>2010-01-01T02:49:54Z</time>
      </trkpt>
      <trkpt lat="42.15432" lon="2.56946">
        <ele>466</ele>
        <time>2010-01-01T02:50:00Z</time>
      </trkpt>
      <trkpt lat="42.15442" lon="2.56946">
        <ele>466</ele>
        <time>2010-01-01T02:50:04Z</time>
      </trkpt>
      <trkpt lat="42.15459" lon="2.56945">
        <ele>467</ele>
        <time>2010-01-01T02:50:10Z</time>
      </trkpt>
      <trkpt lat="42.15469" lon="2.56941">
        <ele>467</ele>
        <time>2010-01-01T02:50:15Z</time>
      </trkpt>
      <trkpt lat="42.15479" lon="2.56935">
        <ele>468</ele>
        <time>2010-01-01T02:50:19Z</time>
      </trkpt>
      <trkpt lat="42.15494" lon="2.56932">
        <ele>468</ele>
        <time>2010-01-01T02:50:25Z</time>
      </trkpt>
      <trkpt lat="42.15504" lon="2.56922">
        <ele>469</ele>
        <time>2010-01-01T02:50:30Z</time>
      </trkpt>
      <trkpt lat="42.15507" lon="2.56917">
        <ele>469</ele>
        <time>2010-01-01T02:50:32Z</time>
      </trkpt>
      <trkpt lat="42.1551" lon="2.56902">
        <ele>469</ele>
        <time>2010-01-01T02:50:37Z</time>
      </trkpt>
      <trkpt lat="42.15509" lon="2.56893">
        <ele>469</ele>
        <time>2010-01-01T02:50:39Z</time>
      </trkpt>
      <trkpt lat="42.15509" lon="2.56891">
        <ele>469</ele>
        <time>2010-01-01T02:50:40Z</time>
      </trkpt>
      <trkpt lat="42.15507" lon="2.5688">
        <ele>469</ele>
        <time>2010-01-01T02:50:43Z</time>
      </trkpt>
      <trkpt lat="42.1551" lon="2.56871">
        <ele>469</ele>
        <time>2010-01-01T02:50:46Z</time>
      </trkpt>
      <trkpt lat="42.15519" lon="2.56862">
        <ele>469</ele>
        <time>2010-01-01T02:50:51Z</time>
      </trkpt>
      <trkpt lat="42.15528" lon="2.56855">
        <ele>469</ele>
        <time>2010-01-01T02:50:55Z</time>
      </trkpt>
      <trkpt lat="42.15537" lon="2.56849">
        <ele>470</ele>
        <time>2010-01-01T02:50:59Z</time>
      </trkpt>
      <trkpt lat="42.15543" lon="2.56843">
        <ele>470</ele>
        <time>2010-01-01T02:51:02Z</time>
      </trkpt>
      <trkpt lat="42.15554" lon="2.56828">
        <ele>471</ele>
        <time>2010-01-01T02:51:08Z</time>
      </trkpt>
      <trkpt lat="42.15561" lon="2.56813">
        <ele>472</ele>
        <time>2010-01-01T02:51:13Z</time>
      </trkpt>
      <trkpt lat="42.15568" lon="2.56793">
        <ele>472</ele>
        <time>2010-01-01T02:51:20Z</time>
      </trkpt>
      <trkpt lat="42.15575" lon="2.56782">
        <ele>473</ele>
        <time>2010-01-01T02:51:24Z</time>
      </trkpt>
      <trkpt lat="42.15585" lon="2.56773">
        <ele>474</ele>
        <time>2010-01-01T02:51:29Z</time>
      </trkpt>
      <trkpt lat="42.15593" lon="2.56774">
        <ele>473</ele>
        <time>2010-01-01T02:51:32Z</time>
      </trkpt>
      <trkpt lat="42.15594" lon="2.56773">
        <ele>473</ele>
        <time>2010-01-01T02:51:33Z</time>
      </trkpt>
      <trkpt lat="42.15603" lon="2.56775">
        <ele>473</ele>
        <time>2010-01-01T02:51:36Z</time>
      </trkpt>
      <trkpt lat="42.15605" lon="2.56774">
        <ele>473</ele>
        <time>2010-01-01T02:51:37Z</time>
      </trkpt>
      <trkpt lat="42.15605" lon="2.56774">
        <ele>473</ele>
        <time>2010-01-01T02:51:37Z</time>
      </trkpt>
      <trkpt lat="42.15615" lon="2.5677">
        <ele>473</ele>
        <time>2010-01-01T02:51:41Z</time>
      </trkpt>
      <trkpt lat="42.15624" lon="2.56767">
        <ele>473</ele>
        <time>2010-01-01T02:51:45Z</time>
      </trkpt>
      <trkpt lat="42.15629" lon="2.56766">
        <ele>473</ele>
        <time>2010-01-01T02:51:47Z</time>
      </trkpt>
      <trkpt lat="42.15632" lon="2.56767">
        <ele>473</ele>
        <time>2010-01-01T02:51:48Z</time>
      </trkpt>
      <trkpt lat="42.15633" lon="2.56765">
        <ele>473</ele>
        <time>2010-01-01T02:51:49Z</time>
      </trkpt>
      <trkpt lat="42.15634" lon="2.56764">
        <ele>474</ele>
        <time>2010-01-01T02:51:49Z</time>
      </trkpt>
      <trkpt lat="42.15638" lon="2.5676">
        <ele>474</ele>
        <time>2010-01-01T02:51:51Z</time>
      </trkpt>
      <trkpt lat="42.15644" lon="2.56754">
        <ele>474</ele>
        <time>2010-01-01T02:51:54Z</time>
      </trkpt>
      <trkpt lat="42.1565" lon="2.56749">
        <ele>474</ele>
        <time>2010-01-01T02:51:57Z</time>
      </trkpt>
      <trkpt lat="42.15658" lon="2.56737">
        <ele>475</ele>
        <time>2010-01-01T02:52:02Z</time>
      </trkpt>
      <trkpt lat="42.15664" lon="2.56725">
        <ele>475</ele>
        <time>2010-01-01T02:52:06Z</time>
      </trkpt>
      <trkpt lat="42.15674" lon="2.56706">
        <ele>476</ele>
        <time>2010-01-01T02:52:13Z</time>
      </trkpt>
      <trkpt lat="42.15682" lon="2.56697">
        <ele>476</ele>
        <time>2010-01-01T02:52:17Z</time>
      </trkpt>
      <trkpt lat="42.15694" lon="2.56682">
        <ele>476</ele>
        <time>2010-01-01T02:52:24Z</time>
      </trkpt>
      <trkpt lat="42.15708" lon="2.56667">
        <ele>478</ele>
        <time>2010-01-01T02:52:31Z</time>
      </trkpt>
      <trkpt lat="42.15713" lon="2.56662">
        <ele>479</ele>
        <time>2010-01-01T02:52:34Z</time>
      </trkpt>
      <trkpt lat="42.15723" lon="2.56649">
        <ele>480</ele>
        <time>2010-01-01T02:52:39Z</time>
      </trkpt>
      <trkpt lat="42.15725" lon="2.56647">
        <ele>480</ele>
        <time>2010-01-01T02:52:40Z</time>
      </trkpt>
      <trkpt lat="42.15741" lon="2.56638">
        <ele>482</ele>
        <time>2010-01-01T02:52:47Z</time>
      </trkpt>
      <trkpt lat="42.15756" lon="2.56632">
        <ele>483</ele>
        <time>2010-01-01T02:52:54Z</time>
      </trkpt>
      <trkpt lat="42.15771" lon="2.56632">
        <ele>483</ele>
        <time>2010-01-01T02:52:59Z</time>
      </trkpt>
      <trkpt lat="42.15785" lon="2.56636">
        <ele>483</ele>
        <time>2010-01-01T02:53:05Z</time>
      </trkpt>
      <trkpt lat="42.15794" lon="2.56636">
        <ele>483</ele>
        <time>2010-01-01T02:53:09Z</time>
      </trkpt>
      <trkpt lat="42.15805" lon="2.56636">
        <ele>483</ele>
        <time>2010-01-01T02:53:13Z</time>
      </trkpt>
      <trkpt lat="42.15819" lon="2.56637">
        <ele>483</ele>
        <time>2010-01-01T02:53:19Z</time>
      </trkpt>
      <trkpt lat="42.15832" lon="2.56631">
        <ele>483</ele>
        <time>2010-01-01T02:53:24Z</time>
      </trkpt>
      <trkpt lat="42.15843" lon="2.56622">
        <ele>484</ele>
        <time>2010-01-01T02:53:29Z</time>
      </trkpt>
      <trkpt lat="42.15854" lon="2.56617">
        <ele>485</ele>
        <time>2010-01-01T02:53:34Z</time>
      </trkpt>
      <trkpt lat="42.15865" lon="2.56608">
        <ele>486</ele>
        <time>2010-01-01T02:53:39Z</time>
      </trkpt>
      <trkpt lat="42.15878" lon="2.56603">
        <ele>487</ele>
        <time>2010-01-01T02:53:45Z</time>
      </trkpt>
      <trkpt lat="42.15892" lon="2.56601">
        <ele>487</ele>
        <time>2010-01-01T02:53:50Z</time>
      </trkpt>
      <trkpt lat="42.15903" lon="2.56598">
        <ele>488</ele>
        <time>2010-01-01T02:53:55Z</time>
      </trkpt>
      <trkpt lat="42.15917" lon="2.56597">
        <ele>489</ele>
        <time>2010-01-01T02:54:00Z</time>
      </trkpt>
      <trkpt lat="42.15933" lon="2.566">
        <ele>490</ele>
        <time>2010-01-01T02:54:07Z</time>
      </trkpt>
      <trkpt lat="42.15944" lon="2.56605">
        <ele>490</ele>
        <time>2010-01-01T02:54:11Z</time>
      </trkpt>
      <trkpt lat="42.15956" lon="2.56611">
        <ele>490</ele>
        <time>2010-01-01T02:54:17Z</time>
      </trkpt>
      <trkpt lat="42.1597" lon="2.5662">
        <ele>491</ele>
        <time>2010-01-01T02:54:23Z</time>
      </trkpt>
      <trkpt lat="42.15979" lon="2.56629">
        <ele>491</ele>
        <time>2010-01-01T02:54:27Z</time>
      </trkpt>
      <trkpt lat="42.15986" lon="2.56643">
        <ele>492</ele>
        <time>2010-01-01T02:54:32Z</time>
      </trkpt>
      <trkpt lat="42.15994" lon="2.56654">
        <ele>493</ele>
        <time>2010-01-01T02:54:37Z</time>
      </trkpt>
      <trkpt lat="42.16005" lon="2.56657">
        <ele>493</ele>
        <time>2010-01-01T02:54:41Z</time>
      </trkpt>
      <trkpt lat="42.16022" lon="2.56661">
        <ele>494</ele>
        <time>2010-01-01T02:54:49Z</time>
      </trkpt>
      <trkpt lat="42.16037" lon="2.56665">
        <ele>495</ele>
        <time>2010-01-01T02:54:54Z</time>
      </trkpt>
      <trkpt lat="42.16054" lon="2.56669">
        <ele>497</ele>
        <time>2010-01-01T02:55:01Z</time>
      </trkpt>
      <trkpt lat="42.16066" lon="2.56669">
        <ele>498</ele>
        <time>2010-01-01T02:55:06Z</time>
      </trkpt>
      <trkpt lat="42.16078" lon="2.56664">
        <ele>498</ele>
        <time>2010-01-01T02:55:11Z</time>
      </trkpt>
      <trkpt lat="42.16085" lon="2.56663">
        <ele>499</ele>
        <time>2010-01-01T02:55:14Z</time>
      </trkpt>
      <trkpt lat="42.16094" lon="2.56663">
        <ele>499</ele>
        <time>2010-01-01T02:55:17Z</time>
      </trkpt>
      <trkpt lat="42.16102" lon="2.56665">
        <ele>499</ele>
        <time>2010-01-01T02:55:21Z</time>
      </trkpt>
      <trkpt lat="42.16105" lon="2.56667">
        <ele>499</ele>
        <time>2010-01-01T02:55:22Z</time>
      </trkpt>
      <trkpt lat="42.16105" lon="2.56667">
        <ele>499</ele>
        <time>2010-01-01T02:55:22Z</time>
      </trkpt>
      <trkpt lat="42.16105" lon="2.56667">
        <ele>499</ele>
        <time>2010-01-01T02:55:22Z</time>
      </trkpt>
      <trkpt lat="42.16104" lon="2.56667">
        <ele>499</ele>
        <time>2010-01-01T02:55:23Z</time>
      </trkpt>
      <trkpt lat="42.16104" lon="2.56667">
        <ele>499</ele>
        <time>2010-01-01T02:55:23Z</time>
      </trkpt>
      <trkpt lat="42.16105" lon="2.56667">
        <ele>499</ele>
        <time>2010-01-01T02:55:23Z</time>
      </trkpt>
      <trkpt lat="42.16105" lon="2.56667">
        <ele>499</ele>
        <time>2010-01-01T02:55:23Z</time>
      </trkpt>
      <trkpt lat="42.16106" lon="2.56666">
        <ele>499</ele>
        <time>2010-01-01T02:55:24Z</time>
      </trkpt>
      <trkpt lat="42.16107" lon="2.56667">
        <ele>499</ele>
        <time>2010-01-01T02:55:25Z</time>
      </trkpt>
      <trkpt lat="42.16107" lon="2.56667">
        <ele>499</ele>
        <time>2010-01-01T02:55:25Z</time>
      </trkpt>
      <trkpt lat="42.16107" lon="2.56666">
        <ele>499</ele>
        <time>2010-01-01T02:55:25Z</time>
      </trkpt>
      <trkpt lat="42.16107" lon="2.56666">
        <ele>499</ele>
        <time>2010-01-01T02:55:25Z</time>
      </trkpt>
      <trkpt lat="42.16108" lon="2.56667">
        <ele>499</ele>
        <time>2010-01-01T02:55:26Z</time>
      </trkpt>
      <trkpt lat="42.16106" lon="2.56666">
        <ele>499</ele>
        <time>2010-01-01T02:55:26Z</time>
      </trkpt>
      <trkpt lat="42.16108" lon="2.56666">
        <ele>499</ele>
        <time>2010-01-01T02:55:27Z</time>
      </trkpt>
      <trkpt lat="42.16112" lon="2.56667">
        <ele>500</ele>
        <time>2010-01-01T02:55:29Z</time>
      </trkpt>
      <trkpt lat="42.16123" lon="2.56665">
        <ele>500</ele>
        <time>2010-01-01T02:55:33Z</time>
      </trkpt>
      <trkpt lat="42.16135" lon="2.56661">
        <ele>501</ele>
        <time>2010-01-01T02:55:38Z</time>
      </trkpt>
      <trkpt lat="42.16148" lon="2.5666">
        <ele>502</ele>
        <time>2010-01-01T02:55:43Z</time>
      </trkpt>
      <trkpt lat="42.16162" lon="2.56658">
        <ele>503</ele>
        <time>2010-01-01T02:55:49Z</time>
      </trkpt>
      <trkpt lat="42.16177" lon="2.5666">
        <ele>504</ele>
        <time>2010-01-01T02:55:55Z</time>
      </trkpt>
      <trkpt lat="42.16189" lon="2.56659">
        <ele>505</ele>
        <time>2010-01-01T02:56:00Z</time>
      </trkpt>
      <trkpt lat="42.16201" lon="2.5666">
        <ele>505</ele>
        <time>2010-01-01T02:56:05Z</time>
      </trkpt>
      <trkpt lat="42.16206" lon="2.56661">
        <ele>505</ele>
        <time>2010-01-01T02:56:07Z</time>
      </trkpt>
      <trkpt lat="42.16213" lon="2.56672">
        <ele>507</ele>
        <time>2010-01-01T02:56:11Z</time>
      </trkpt>
      <trkpt lat="42.16217" lon="2.56685">
        <ele>508</ele>
        <time>2010-01-01T02:56:15Z</time>
      </trkpt>
      <trkpt lat="42.1622" lon="2.56693">
        <ele>509</ele>
        <time>2010-01-01T02:56:18Z</time>
      </trkpt>
      <trkpt lat="42.16232" lon="2.56699">
        <ele>510</ele>
        <time>2010-01-01T02:56:23Z</time>
      </trkpt>
      <trkpt lat="42.16242" lon="2.56702">
        <ele>510</ele>
        <time>2010-01-01T02:56:27Z</time>
      </trkpt>
      <trkpt lat="42.16246" lon="2.56701">
        <ele>510</ele>
        <time>2010-01-01T02:56:29Z</time>
      </trkpt>
      <trkpt lat="42.16259" lon="2.56698">
        <ele>510</ele>
        <time>2010-01-01T02:56:34Z</time>
      </trkpt>
      <trkpt lat="42.16276" lon="2.56694">
        <ele>509</ele>
        <time>2010-01-01T02:56:41Z</time>
      </trkpt>
      <trkpt lat="42.16289" lon="2.56699">
        <ele>510</ele>
        <time>2010-01-01T02:56:46Z</time>
      </trkpt>
      <trkpt lat="42.16304" lon="2.56705">
        <ele>511</ele>
        <time>2010-01-01T02:56:53Z</time>
      </trkpt>
      <trkpt lat="42.16314" lon="2.56714">
        <ele>512</ele>
        <time>2010-01-01T02:56:57Z</time>
      </trkpt>
      <trkpt lat="42.16319" lon="2.56726">
        <ele>514</ele>
        <time>2010-01-01T02:57:01Z</time>
      </trkpt>
      <trkpt lat="42.16325" lon="2.5674">
        <ele>516</ele>
        <time>2010-01-01T02:57:06Z</time>
      </trkpt>
      <trkpt lat="42.16332" lon="2.56753">
        <ele>519</ele>
        <time>2010-01-01T02:57:11Z</time>
      </trkpt>
      <trkpt lat="42.16345" lon="2.56763">
        <ele>522</ele>
        <time>2010-01-01T02:57:17Z</time>
      </trkpt>
      <trkpt lat="42.16359" lon="2.56764">
        <ele>524</ele>
        <time>2010-01-01T02:57:23Z</time>
      </trkpt>
      <trkpt lat="42.16371" lon="2.56759">
        <ele>525</ele>
        <time>2010-01-01T02:57:28Z</time>
      </trkpt>
      <trkpt lat="42.1638" lon="2.5675">
        <ele>525</ele>
        <time>2010-01-01T02:57:32Z</time>
      </trkpt>
      <trkpt lat="42.16388" lon="2.56737">
        <ele>524</ele>
        <time>2010-01-01T02:57:37Z</time>
      </trkpt>
      <trkpt lat="42.16394" lon="2.56728">
        <ele>524</ele>
        <time>2010-01-01T02:57:41Z</time>
      </trkpt>
      <trkpt lat="42.16402" lon="2.5672">
        <ele>525</ele>
        <time>2010-01-01T02:57:45Z</time>
      </trkpt>
      <trkpt lat="42.16405" lon="2.56716">
        <ele>524</ele>
        <time>2010-01-01T02:57:47Z</time>
      </trkpt>
      <trkpt lat="42.16417" lon="2.56713">
        <ele>526</ele>
        <time>2010-01-01T02:57:51Z</time>
      </trkpt>
      <trkpt lat="42.16429" lon="2.56715">
        <ele>529</ele>
        <time>2010-01-01T02:57:56Z</time>
      </trkpt>
      <trkpt lat="42.16445" lon="2.56716">
        <ele>531</ele>
        <time>2010-01-01T02:58:03Z</time>
      </trkpt>
      <trkpt lat="42.16453" lon="2.56715">
        <ele>532</ele>
        <time>2010-01-01T02:58:06Z</time>
      </trkpt>
      <trkpt lat="42.16455" lon="2.56714">
        <ele>532</ele>
        <time>2010-01-01T02:58:07Z</time>
      </trkpt>
      <trkpt lat="42.16465" lon="2.5671">
        <ele>532</ele>
        <time>2010-01-01T02:58:11Z</time>
      </trkpt>
      <trkpt lat="42.16476" lon="2.56715">
        <ele>534</ele>
        <time>2010-01-01T02:58:16Z</time>
      </trkpt>
      <trkpt lat="42.16484" lon="2.56724">
        <ele>537</ele>
        <time>2010-01-01T02:58:20Z</time>
      </trkpt>
      <trkpt lat="42.16488" lon="2.56731">
        <ele>539</ele>
        <time>2010-01-01T02:58:23Z</time>
      </trkpt>
      <trkpt lat="42.16494" lon="2.56742">
        <ele>542</ele>
        <time>2010-01-01T02:58:27Z</time>
      </trkpt>
      <trkpt lat="42.16496" lon="2.56745">
        <ele>543</ele>
        <time>2010-01-01T02:58:28Z</time>
      </trkpt>
      <trkpt lat="42.165" lon="2.56748">
        <ele>544</ele>
        <time>2010-01-01T02:58:30Z</time>
      </trkpt>
      <trkpt lat="42.16501" lon="2.56751">
        <ele>545</ele>
        <time>2010-01-01T02:58:31Z</time>
      </trkpt>
      <trkpt lat="42.16504" lon="2.56752">
        <ele>545</ele>
        <time>2010-01-01T02:58:32Z</time>
      </trkpt>
      <trkpt lat="42.16504" lon="2.56752">
        <ele>545</ele>
        <time>2010-01-01T02:58:32Z</time>
      </trkpt>
      <trkpt lat="42.16499" lon="2.56751">
        <ele>545</ele>
        <time>2010-01-01T02:58:34Z</time>
      </trkpt>
      <trkpt lat="42.165" lon="2.56753">
        <ele>545</ele>
        <time>2010-01-01T02:58:34Z</time>
      </trkpt>
      <trkpt lat="42.16502" lon="2.56763">
        <ele>547</ele>
        <time>2010-01-01T02:58:37Z</time>
      </trkpt>
      <trkpt lat="42.16504" lon="2.56767">
        <ele>547</ele>
        <time>2010-01-01T02:58:39Z</time>
      </trkpt>
      <trkpt lat="42.16504" lon="2.56768">
        <ele>548</ele>
        <time>2010-01-01T02:58:39Z</time>
      </trkpt>
      <trkpt lat="42.16503" lon="2.56768">
        <ele>548</ele>
        <time>2010-01-01T02:58:40Z</time>
      </trkpt>
      <trkpt lat="42.16503" lon="2.56768">
        <ele>548</ele>
        <time>2010-01-01T02:58:40Z</time>
      </trkpt>
      <trkpt lat="42.16509" lon="2.56767">
        <ele>547</ele>
        <time>2010-01-01T02:58:42Z</time>
      </trkpt>
      <trkpt lat="42.1651" lon="2.56768">
        <ele>548</ele>
        <time>2010-01-01T02:58:43Z</time>
      </trkpt>
      <trkpt lat="42.16506" lon="2.56769">
        <ele>548</ele>
        <time>2010-01-01T02:58:45Z</time>
      </trkpt>
      <trkpt lat="42.16509" lon="2.56765">
        <ele>547</ele>
        <time>2010-01-01T02:58:46Z</time>
      </trkpt>
      <trkpt lat="42.16509" lon="2.56768">
        <ele>547</ele>
        <time>2010-01-01T02:58:47Z</time>
      </trkpt>
      <trkpt lat="42.1651" lon="2.56767">
        <ele>547</ele>
        <time>2010-01-01T02:58:47Z</time>
      </trkpt>
      <trkpt lat="42.1651" lon="2.56765">
        <ele>547</ele>
        <time>2010-01-01T02:58:48Z</time>
      </trkpt>
      <trkpt lat="42.1651" lon="2.56765">
        <ele>547</ele>
        <time>2010-01-01T02:58:48Z</time>
      </trkpt>
      <trkpt lat="42.16513" lon="2.56768">
        <ele>547</ele>
        <time>2010-01-01T02:58:50Z</time>
      </trkpt>
      <trkpt lat="42.16526" lon="2.56775">
        <ele>548</ele>
        <time>2010-01-01T02:58:55Z</time>
      </trkpt>
      <trkpt lat="42.16529" lon="2.56776">
        <ele>548</ele>
        <time>2010-01-01T02:58:57Z</time>
      </trkpt>
      <trkpt lat="42.16531" lon="2.56778">
        <ele>548</ele>
        <time>2010-01-01T02:58:57Z</time>
      </trkpt>
      <trkpt lat="42.1654" lon="2.56779">
        <ele>547</ele>
        <time>2010-01-01T02:59:01Z</time>
      </trkpt>
      <trkpt lat="42.16546" lon="2.56779">
        <ele>546</ele>
        <time>2010-01-01T02:59:03Z</time>
      </trkpt>
      <trkpt lat="42.16552" lon="2.56774">
        <ele>544</ele>
        <time>2010-01-01T02:59:06Z</time>
      </trkpt>
      <trkpt lat="42.16566" lon="2.56775">
        <ele>544</ele>
        <time>2010-01-01T02:59:12Z</time>
      </trkpt>
      <trkpt lat="42.16572" lon="2.5678">
        <ele>545</ele>
        <time>2010-01-01T02:59:15Z</time>
      </trkpt>
      <trkpt lat="42.16577" lon="2.56787">
        <ele>546</ele>
        <time>2010-01-01T02:59:18Z</time>
      </trkpt>
      <trkpt lat="42.16582" lon="2.56795">
        <ele>546</ele>
        <time>2010-01-01T02:59:21Z</time>
      </trkpt>
      <trkpt lat="42.16586" lon="2.568">
        <ele>547</ele>
        <time>2010-01-01T02:59:23Z</time>
      </trkpt>
      <trkpt lat="42.16595" lon="2.56812">
        <ele>548</ele>
        <time>2010-01-01T02:59:28Z</time>
      </trkpt>
      <trkpt lat="42.16609" lon="2.56822">
        <ele>550</ele>
        <time>2010-01-01T02:59:34Z</time>
      </trkpt>
      <trkpt lat="42.16618" lon="2.56826">
        <ele>550</ele>
        <time>2010-01-01T02:59:38Z</time>
      </trkpt>
      <trkpt lat="42.16628" lon="2.56831">
        <ele>550</ele>
        <time>2010-01-01T02:59:42Z</time>
      </trkpt>
      <trkpt lat="42.16641" lon="2.56839">
        <ele>551</ele>
        <time>2010-01-01T02:59:48Z</time>
      </trkpt>
      <trkpt lat="42.16651" lon="2.5685">
        <ele>552</ele>
        <time>2010-01-01T02:59:53Z</time>
      </trkpt>
      <trkpt lat="42.1666" lon="2.56857">
        <ele>552</ele>
        <time>2010-01-01T02:59:57Z</time>
      </trkpt>
      <trkpt lat="42.16668" lon="2.56861">
        <ele>553</ele>
        <time>2010-01-01T03:00:01Z</time>
      </trkpt>
      <trkpt lat="42.16679" lon="2.56866">
        <ele>554</ele>
        <time>2010-01-01T03:00:05Z</time>
      </trkpt>
      <trkpt lat="42.16689" lon="2.56873">
        <ele>555</ele>
        <time>2010-01-01T03:00:10Z</time>
      </trkpt>
      <trkpt lat="42.16694" lon="2.56875">
        <ele>556</ele>
        <time>2010-01-01T03:00:12Z</time>
      </trkpt>
      <trkpt lat="42.16696" lon="2.56878">
        <ele>556</ele>
        <time>2010-01-01T03:00:13Z</time>
      </trkpt>
      <trkpt lat="42.16709" lon="2.56877">
        <ele>558</ele>
        <time>2010-01-01T03:00:19Z</time>
      </trkpt>
      <trkpt lat="42.16726" lon="2.5688">
        <ele>561</ele>
        <time>2010-01-01T03:00:25Z</time>
      </trkpt>
      <trkpt lat="42.16736" lon="2.56883">
        <ele>563</ele>
        <time>2010-01-01T03:00:30Z</time>
      </trkpt>
      <trkpt lat="42.16745" lon="2.56883">
        <ele>565</ele>
        <time>2010-01-01T03:00:33Z</time>
      </trkpt>
      <trkpt lat="42.16754" lon="2.56882">
        <ele>568</ele>
        <time>2010-01-01T03:00:37Z</time>
      </trkpt>
      <trkpt lat="42.16755" lon="2.56881">
        <ele>568</ele>
        <time>2010-01-01T03:00:37Z</time>
      </trkpt>
      <trkpt lat="42.1676" lon="2.56877">
        <ele>569</ele>
        <time>2010-01-01T03:00:40Z</time>
      </trkpt>
      <trkpt lat="42.16764" lon="2.56868">
        <ele>570</ele>
        <time>2010-01-01T03:00:43Z</time>
      </trkpt>
      <trkpt lat="42.16766" lon="2.56862">
        <ele>571</ele>
        <time>2010-01-01T03:00:44Z</time>
      </trkpt>
      <trkpt lat="42.16767" lon="2.56861">
        <ele>571</ele>
        <time>2010-01-01T03:00:45Z</time>
      </trkpt>
      <trkpt lat="42.16769" lon="2.56849">
        <ele>571</ele>
        <time>2010-01-01T03:00:49Z</time>
      </trkpt>
      <trkpt lat="42.16771" lon="2.56844">
        <ele>571</ele>
        <time>2010-01-01T03:00:50Z</time>
      </trkpt>
      <trkpt lat="42.1677" lon="2.56834">
        <ele>571</ele>
        <time>2010-01-01T03:00:53Z</time>
      </trkpt>
      <trkpt lat="42.16771" lon="2.56825">
        <ele>571</ele>
        <time>2010-01-01T03:00:56Z</time>
      </trkpt>
      <trkpt lat="42.16772" lon="2.56819">
        <ele>571</ele>
        <time>2010-01-01T03:00:58Z</time>
      </trkpt>
      <trkpt lat="42.16769" lon="2.56809">
        <ele>570</ele>
        <time>2010-01-01T03:01:01Z</time>
      </trkpt>
      <trkpt lat="42.16768" lon="2.56797">
        <ele>570</ele>
        <time>2010-01-01T03:01:05Z</time>
      </trkpt>
      <trkpt lat="42.1677" lon="2.56782">
        <ele>571</ele>
        <time>2010-01-01T03:01:09Z</time>
      </trkpt>
      <trkpt lat="42.16771" lon="2.56779">
        <ele>572</ele>
        <time>2010-01-01T03:01:10Z</time>
      </trkpt>
      <trkpt lat="42.1677" lon="2.56762">
        <ele>570</ele>
        <time>2010-01-01T03:01:15Z</time>
      </trkpt>
      <trkpt lat="42.16778" lon="2.56746">
        <ele>572</ele>
        <time>2010-01-01T03:01:21Z</time>
      </trkpt>
      <trkpt lat="42.16786" lon="2.56737">
        <ele>573</ele>
        <time>2010-01-01T03:01:25Z</time>
      </trkpt>
      <trkpt lat="42.16789" lon="2.56732">
        <ele>573</ele>
        <time>2010-01-01T03:01:27Z</time>
      </trkpt>
      <trkpt lat="42.16799" lon="2.56718">
        <ele>574</ele>
        <time>2010-01-01T03:01:33Z</time>
      </trkpt>
      <trkpt lat="42.16809" lon="2.56718">
        <ele>576</ele>
        <time>2010-01-01T03:01:37Z</time>
      </trkpt>
      <trkpt lat="42.16816" lon="2.56718">
        <ele>578</ele>
        <time>2010-01-01T03:01:39Z</time>
      </trkpt>
      <trkpt lat="42.16821" lon="2.56723">
        <ele>579</ele>
        <time>2010-01-01T03:01:42Z</time>
      </trkpt>
      <trkpt lat="42.16829" lon="2.56732">
        <ele>582</ele>
        <time>2010-01-01T03:01:46Z</time>
      </trkpt>
      <trkpt lat="42.16832" lon="2.56734">
        <ele>583</ele>
        <time>2010-01-01T03:01:48Z</time>
      </trkpt>
      <trkpt lat="42.16838" lon="2.56737">
        <ele>585</ele>
        <time>2010-01-01T03:01:50Z</time>
      </trkpt>
      <trkpt lat="42.16847" lon="2.56737">
        <ele>586</ele>
        <time>2010-01-01T03:01:54Z</time>
      </trkpt>
      <trkpt lat="42.1685" lon="2.56736">
        <ele>587</ele>
        <time>2010-01-01T03:01:55Z</time>
      </trkpt>
      <trkpt lat="42.16862" lon="2.56721">
        <ele>585</ele>
        <time>2010-01-01T03:02:01Z</time>
      </trkpt>
      <trkpt lat="42.16864" lon="2.56719">
        <ele>585</ele>
        <time>2010-01-01T03:02:02Z</time>
      </trkpt>
      <trkpt lat="42.16877" lon="2.56706">
        <ele>586</ele>
        <time>2010-01-01T03:02:09Z</time>
      </trkpt>
      <trkpt lat="42.16881" lon="2.56705">
        <ele>586</ele>
        <time>2010-01-01T03:02:10Z</time>
      </trkpt>
      <trkpt lat="42.16895" lon="2.56696">
        <ele>587</ele>
        <time>2010-01-01T03:02:17Z</time>
      </trkpt>
      <trkpt lat="42.16896" lon="2.56693">
        <ele>587</ele>
        <time>2010-01-01T03:02:18Z</time>
      </trkpt>
      <trkpt lat="42.16897" lon="2.5668">
        <ele>586</ele>
        <time>2010-01-01T03:02:21Z</time>
      </trkpt>
      <trkpt lat="42.16897" lon="2.56678">
        <ele>585</ele>
        <time>2010-01-01T03:02:22Z</time>
      </trkpt>
      <trkpt lat="42.169" lon="2.56672">
        <ele>585</ele>
        <time>2010-01-01T03:02:25Z</time>
      </trkpt>
      <trkpt lat="42.16905" lon="2.5667">
        <ele>587</ele>
        <time>2010-01-01T03:02:27Z</time>
      </trkpt>
      <trkpt lat="42.16915" lon="2.56667">
        <ele>590</ele>
        <time>2010-01-01T03:02:31Z</time>
      </trkpt>
      <trkpt lat="42.16916" lon="2.5666">
        <ele>590</ele>
        <time>2010-01-01T03:02:33Z</time>
      </trkpt>
      <trkpt lat="42.16917" lon="2.56659">
        <ele>590</ele>
        <time>2010-01-01T03:02:33Z</time>
      </trkpt>
      <trkpt lat="42.16916" lon="2.56646">
        <ele>589</ele>
        <time>2010-01-01T03:02:37Z</time>
      </trkpt>
      <trkpt lat="42.16911" lon="2.56623">
        <ele>586</ele>
        <time>2010-01-01T03:02:44Z</time>
      </trkpt>
      <trkpt lat="42.16908" lon="2.56605">
        <ele>584</ele>
        <time>2010-01-01T03:02:50Z</time>
      </trkpt>
      <trkpt lat="42.16911" lon="2.56591">
        <ele>585</ele>
        <time>2010-01-01T03:02:54Z</time>
      </trkpt>
      <trkpt lat="42.16915" lon="2.56581">
        <ele>586</ele>
        <time>2010-01-01T03:02:57Z</time>
      </trkpt>
      <trkpt lat="42.16917" lon="2.56578">
        <ele>586</ele>
        <time>2010-01-01T03:02:58Z</time>
      </trkpt>
      <trkpt lat="42.16924" lon="2.56566">
        <ele>587</ele>
        <time>2010-01-01T03:03:03Z</time>
      </trkpt>
      <trkpt lat="42.16928" lon="2.56563">
        <ele>589</ele>
        <time>2010-01-01T03:03:05Z</time>
      </trkpt>
      <trkpt lat="42.1693" lon="2.56562">
        <ele>589</ele>
        <time>2010-01-01T03:03:06Z</time>
      </trkpt>
      <trkpt lat="42.16933" lon="2.5656">
        <ele>590</ele>
        <time>2010-01-01T03:03:07Z</time>
      </trkpt>
      <trkpt lat="42.16935" lon="2.56557">
        <ele>590</ele>
        <time>2010-01-01T03:03:08Z</time>
      </trkpt>
      <trkpt lat="42.16938" lon="2.56557">
        <ele>591</ele>
        <time>2010-01-01T03:03:10Z</time>
      </trkpt>
      <trkpt lat="42.1694" lon="2.56555">
        <ele>592</ele>
        <time>2010-01-01T03:03:11Z</time>
      </trkpt>
      <trkpt lat="42.16942" lon="2.56554">
        <ele>592</ele>
        <time>2010-01-01T03:03:11Z</time>
      </trkpt>
      <trkpt lat="42.16947" lon="2.5655">
        <ele>594</ele>
        <time>2010-01-01T03:03:14Z</time>
      </trkpt>
      <trkpt lat="42.16952" lon="2.56546">
        <ele>597</ele>
        <time>2010-01-01T03:03:16Z</time>
      </trkpt>
      <trkpt lat="42.16957" lon="2.56538">
        <ele>598</ele>
        <time>2010-01-01T03:03:19Z</time>
      </trkpt>
      <trkpt lat="42.16958" lon="2.56534">
        <ele>598</ele>
        <time>2010-01-01T03:03:20Z</time>
      </trkpt>
      <trkpt lat="42.16962" lon="2.56527">
        <ele>599</ele>
        <time>2010-01-01T03:03:23Z</time>
      </trkpt>
      <trkpt lat="42.16963" lon="2.56523">
        <ele>599</ele>
        <time>2010-01-01T03:03:24Z</time>
      </trkpt>
      <trkpt lat="42.16967" lon="2.56517">
        <ele>600</ele>
        <time>2010-01-01T03:03:27Z</time>
      </trkpt>
      <trkpt lat="42.16966" lon="2.56517">
        <ele>599</ele>
        <time>2010-01-01T03:03:27Z</time>
      </trkpt>
      <trkpt lat="42.16966" lon="2.56514">
        <ele>599</ele>
        <time>2010-01-01T03:03:27Z</time>
      </trkpt>
      <trkpt lat="42.16972" lon="2.56516">
        <ele>601</ele>
        <time>2010-01-01T03:03:30Z</time>
      </trkpt>
      <trkpt lat="42.16971" lon="2.56517">
        <ele>601</ele>
        <time>2010-01-01T03:03:30Z</time>
      </trkpt>
      <trkpt lat="42.16971" lon="2.56517">
        <ele>601</ele>
        <time>2010-01-01T03:03:30Z</time>
      </trkpt>
      <trkpt lat="42.16981" lon="2.56514">
        <ele>604</ele>
        <time>2010-01-01T03:03:34Z</time>
      </trkpt>
      <trkpt lat="42.16983" lon="2.56513">
        <ele>605</ele>
        <time>2010-01-01T03:03:35Z</time>
      </trkpt>
      <trkpt lat="42.16987" lon="2.56507">
        <ele>605</ele>
        <time>2010-01-01T03:03:38Z</time>
      </trkpt>
      <trkpt lat="42.1699" lon="2.56506">
        <ele>606</ele>
        <time>2010-01-01T03:03:39Z</time>
      </trkpt>
      <trkpt lat="42.16995" lon="2.56504">
        <ele>607</ele>
        <time>2010-01-01T03:03:41Z</time>
      </trkpt>
      <trkpt lat="42.16998" lon="2.56505">
        <ele>608</ele>
        <time>2010-01-01T03:03:42Z</time>
      </trkpt>
      <trkpt lat="42.17008" lon="2.565">
        <ele>610</ele>
        <time>2010-01-01T03:03:46Z</time>
      </trkpt>
      <trkpt lat="42.17009" lon="2.56498">
        <ele>610</ele>
        <time>2010-01-01T03:03:47Z</time>
      </trkpt>
      <trkpt lat="42.17011" lon="2.56491">
        <ele>610</ele>
        <time>2010-01-01T03:03:49Z</time>
      </trkpt>
      <trkpt lat="42.1701" lon="2.56472">
        <ele>609</ele>
        <time>2010-01-01T03:03:55Z</time>
      </trkpt>
      <trkpt lat="42.17016" lon="2.56467">
        <ele>612</ele>
        <time>2010-01-01T03:03:58Z</time>
      </trkpt>
      <trkpt lat="42.17017" lon="2.56469">
        <ele>612</ele>
        <time>2010-01-01T03:03:59Z</time>
      </trkpt>
      <trkpt lat="42.17022" lon="2.56467">
        <ele>614</ele>
        <time>2010-01-01T03:04:00Z</time>
      </trkpt>
      <trkpt lat="42.17028" lon="2.56455">
        <ele>617</ele>
        <time>2010-01-01T03:04:05Z</time>
      </trkpt>
      <trkpt lat="42.17031" lon="2.56449">
        <ele>619</ele>
        <time>2010-01-01T03:04:07Z</time>
      </trkpt>
      <trkpt lat="42.17036" lon="2.5644">
        <ele>622</ele>
        <time>2010-01-01T03:04:10Z</time>
      </trkpt>
      <trkpt lat="42.1704" lon="2.56435">
        <ele>624</ele>
        <time>2010-01-01T03:04:12Z</time>
      </trkpt>
      <trkpt lat="42.17042" lon="2.56432">
        <ele>625</ele>
        <time>2010-01-01T03:04:14Z</time>
      </trkpt>
      <trkpt lat="42.17046" lon="2.56425">
        <ele>627</ele>
        <time>2010-01-01T03:04:16Z</time>
      </trkpt>
      <trkpt lat="42.17047" lon="2.56422">
        <ele>628</ele>
        <time>2010-01-01T03:04:17Z</time>
      </trkpt>
      <trkpt lat="42.1705" lon="2.56419">
        <ele>629</ele>
        <time>2010-01-01T03:04:19Z</time>
      </trkpt>
      <trkpt lat="42.17053" lon="2.56412">
        <ele>631</ele>
        <time>2010-01-01T03:04:21Z</time>
      </trkpt>
      <trkpt lat="42.17054" lon="2.56408">
        <ele>632</ele>
        <time>2010-01-01T03:04:22Z</time>
      </trkpt>
      <trkpt lat="42.17054" lon="2.56404">
        <ele>632</ele>
        <time>2010-01-01T03:04:24Z</time>
      </trkpt>
      <trkpt lat="42.17055" lon="2.564">
        <ele>633</ele>
        <time>2010-01-01T03:04:25Z</time>
      </trkpt>
      <trkpt lat="42.17054" lon="2.56398">
        <ele>634</ele>
        <time>2010-01-01T03:04:26Z</time>
      </trkpt>
      <trkpt lat="42.17045" lon="2.56397">
        <ele>633</ele>
        <time>2010-01-01T03:04:29Z</time>
      </trkpt>
      <trkpt lat="42.17043" lon="2.56397">
        <ele>632</ele>
        <time>2010-01-01T03:04:30Z</time>
      </trkpt>
      <trkpt lat="42.17033" lon="2.56394">
        <ele>632</ele>
        <time>2010-01-01T03:04:34Z</time>
      </trkpt>
      <trkpt lat="42.17035" lon="2.56389">
        <ele>633</ele>
        <time>2010-01-01T03:04:36Z</time>
      </trkpt>
      <trkpt lat="42.17046" lon="2.56387">
        <ele>635</ele>
        <time>2010-01-01T03:04:40Z</time>
      </trkpt>
      <trkpt lat="42.17049" lon="2.56384">
        <ele>637</ele>
        <time>2010-01-01T03:04:42Z</time>
      </trkpt>
      <trkpt lat="42.1705" lon="2.56385">
        <ele>637</ele>
        <time>2010-01-01T03:04:42Z</time>
      </trkpt>
      <trkpt lat="42.17061" lon="2.56385">
        <ele>639</ele>
        <time>2010-01-01T03:04:47Z</time>
      </trkpt>
      <trkpt lat="42.17066" lon="2.56386">
        <ele>640</ele>
        <time>2010-01-01T03:04:49Z</time>
      </trkpt>
      <trkpt lat="42.17073" lon="2.56394">
        <ele>640</ele>
        <time>2010-01-01T03:04:52Z</time>
      </trkpt>
      <trkpt lat="42.17074" lon="2.56395">
        <ele>640</ele>
        <time>2010-01-01T03:04:53Z</time>
      </trkpt>
      <trkpt lat="42.17078" lon="2.564">
        <ele>641</ele>
        <time>2010-01-01T03:04:55Z</time>
      </trkpt>
      <trkpt lat="42.17081" lon="2.56406">
        <ele>641</ele>
        <time>2010-01-01T03:04:57Z</time>
      </trkpt>
      <trkpt lat="42.17081" lon="2.5641">
        <ele>640</ele>
        <time>2010-01-01T03:04:58Z</time>
      </trkpt>
      <trkpt lat="42.17081" lon="2.56415">
        <ele>640</ele>
        <time>2010-01-01T03:05:00Z</time>
      </trkpt>
      <trkpt lat="42.17082" lon="2.5642">
        <ele>640</ele>
        <time>2010-01-01T03:05:01Z</time>
      </trkpt>
      <trkpt lat="42.17082" lon="2.56423">
        <ele>640</ele>
        <time>2010-01-01T03:05:02Z</time>
      </trkpt>
      <trkpt lat="42.17084" lon="2.56433">
        <ele>640</ele>
        <time>2010-01-01T03:05:05Z</time>
      </trkpt>
      <trkpt lat="42.17087" lon="2.56438">
        <ele>642</ele>
        <time>2010-01-01T03:05:07Z</time>
      </trkpt>
      <trkpt lat="42.1709" lon="2.5644">
        <ele>643</ele>
        <time>2010-01-01T03:05:09Z</time>
      </trkpt>
      <trkpt lat="42.17094" lon="2.56443">
        <ele>645</ele>
        <time>2010-01-01T03:05:10Z</time>
      </trkpt>
      <trkpt lat="42.17098" lon="2.56448">
        <ele>647</ele>
        <time>2010-01-01T03:05:13Z</time>
      </trkpt>
      <trkpt lat="42.17101" lon="2.56452">
        <ele>649</ele>
        <time>2010-01-01T03:05:14Z</time>
      </trkpt>
      <trkpt lat="42.17106" lon="2.56454">
        <ele>651</ele>
        <time>2010-01-01T03:05:16Z</time>
      </trkpt>
      <trkpt lat="42.17108" lon="2.56455">
        <ele>653</ele>
        <time>2010-01-01T03:05:17Z</time>
      </trkpt>
      <trkpt lat="42.17112" lon="2.56454">
        <ele>654</ele>
        <time>2010-01-01T03:05:19Z</time>
      </trkpt>
      <trkpt lat="42.17114" lon="2.56451">
        <ele>655</ele>
        <time>2010-01-01T03:05:20Z</time>
      </trkpt>
      <trkpt lat="42.17118" lon="2.56449">
        <ele>657</ele>
        <time>2010-01-01T03:05:22Z</time>
      </trkpt>
      <trkpt lat="42.17119" lon="2.5645">
        <ele>657</ele>
        <time>2010-01-01T03:05:22Z</time>
      </trkpt>
      <trkpt lat="42.17123" lon="2.56454">
        <ele>659</ele>
        <time>2010-01-01T03:05:24Z</time>
      </trkpt>
      <trkpt lat="42.17125" lon="2.56457">
        <ele>660</ele>
        <time>2010-01-01T03:05:25Z</time>
      </trkpt>
      <trkpt lat="42.17126" lon="2.56458">
        <ele>660</ele>
        <time>2010-01-01T03:05:26Z</time>
      </trkpt>
      <trkpt lat="42.17125" lon="2.56473">
        <ele>660</ele>
        <time>2010-01-01T03:05:30Z</time>
      </trkpt>
      <trkpt lat="42.17125" lon="2.56476">
        <ele>660</ele>
        <time>2010-01-01T03:05:31Z</time>
      </trkpt>
      <trkpt lat="42.17127" lon="2.56482">
        <ele>661</ele>
        <time>2010-01-01T03:05:33Z</time>
      </trkpt>
      <trkpt lat="42.17129" lon="2.56484">
        <ele>661</ele>
        <time>2010-01-01T03:05:34Z</time>
      </trkpt>
      <trkpt lat="42.17134" lon="2.56488">
        <ele>663</ele>
        <time>2010-01-01T03:05:36Z</time>
      </trkpt>
      <trkpt lat="42.17137" lon="2.56492">
        <ele>664</ele>
        <time>2010-01-01T03:05:38Z</time>
      </trkpt>
      <trkpt lat="42.17138" lon="2.5649">
        <ele>664</ele>
        <time>2010-01-01T03:05:39Z</time>
      </trkpt>
      <trkpt lat="42.17139" lon="2.56488">
        <ele>665</ele>
        <time>2010-01-01T03:05:39Z</time>
      </trkpt>
      <trkpt lat="42.17144" lon="2.5649">
        <ele>665</ele>
        <time>2010-01-01T03:05:42Z</time>
      </trkpt>
      <trkpt lat="42.17151" lon="2.5649">
        <ele>665</ele>
        <time>2010-01-01T03:05:44Z</time>
      </trkpt>
      <trkpt lat="42.17155" lon="2.56488">
        <ele>666</ele>
        <time>2010-01-01T03:05:46Z</time>
      </trkpt>
      <trkpt lat="42.17153" lon="2.56486">
        <ele>666</ele>
        <time>2010-01-01T03:05:47Z</time>
      </trkpt>
      <trkpt lat="42.17154" lon="2.56485">
        <ele>666</ele>
        <time>2010-01-01T03:05:48Z</time>
      </trkpt>
      <trkpt lat="42.17158" lon="2.56485">
        <ele>666</ele>
        <time>2010-01-01T03:05:50Z</time>
      </trkpt>
      <trkpt lat="42.1716" lon="2.56475">
        <ele>667</ele>
        <time>2010-01-01T03:05:53Z</time>
      </trkpt>
      <trkpt lat="42.17166" lon="2.56459">
        <ele>669</ele>
        <time>2010-01-01T03:05:58Z</time>
      </trkpt>
      <trkpt lat="42.17169" lon="2.56455">
        <ele>669</ele>
        <time>2010-01-01T03:06:00Z</time>
      </trkpt>
      <trkpt lat="42.17174" lon="2.56448">
        <ele>669</ele>
        <time>2010-01-01T03:06:02Z</time>
      </trkpt>
      <trkpt lat="42.17179" lon="2.56437">
        <ele>669</ele>
        <time>2010-01-01T03:06:06Z</time>
      </trkpt>
      <trkpt lat="42.1718" lon="2.56435">
        <ele>669</ele>
        <time>2010-01-01T03:06:07Z</time>
      </trkpt>
      <trkpt lat="42.17182" lon="2.56427">
        <ele>670</ele>
        <time>2010-01-01T03:06:09Z</time>
      </trkpt>
      <trkpt lat="42.17184" lon="2.56422">
        <ele>670</ele>
        <time>2010-01-01T03:06:11Z</time>
      </trkpt>
      <trkpt lat="42.17194" lon="2.56414">
        <ele>670</ele>
        <time>2010-01-01T03:06:16Z</time>
      </trkpt>
      <trkpt lat="42.17194" lon="2.56411">
        <ele>670</ele>
        <time>2010-01-01T03:06:17Z</time>
      </trkpt>
      <trkpt lat="42.17199" lon="2.56395">
        <ele>671</ele>
        <time>2010-01-01T03:06:22Z</time>
      </trkpt>
      <trkpt lat="42.17198" lon="2.56382">
        <ele>674</ele>
        <time>2010-01-01T03:06:26Z</time>
      </trkpt>
      <trkpt lat="42.17197" lon="2.56363">
        <ele>677</ele>
        <time>2010-01-01T03:06:31Z</time>
      </trkpt>
      <trkpt lat="42.17195" lon="2.56353">
        <ele>679</ele>
        <time>2010-01-01T03:06:35Z</time>
      </trkpt>
      <trkpt lat="42.17194" lon="2.56349">
        <ele>679</ele>
        <time>2010-01-01T03:06:36Z</time>
      </trkpt>
      <trkpt lat="42.17195" lon="2.56351">
        <ele>679</ele>
        <time>2010-01-01T03:06:36Z</time>
      </trkpt>
      <trkpt lat="42.17193" lon="2.56349">
        <ele>679</ele>
        <time>2010-01-01T03:06:38Z</time>
      </trkpt>
      <trkpt lat="42.17193" lon="2.56348">
        <ele>679</ele>
        <time>2010-01-01T03:06:38Z</time>
      </trkpt>
      <trkpt lat="42.17194" lon="2.56348">
        <ele>679</ele>
        <time>2010-01-01T03:06:38Z</time>
      </trkpt>
      <trkpt lat="42.17194" lon="2.56347">
        <ele>680</ele>
        <time>2010-01-01T03:06:39Z</time>
      </trkpt>
      <trkpt lat="42.17195" lon="2.56346">
        <ele>680</ele>
        <time>2010-01-01T03:06:39Z</time>
      </trkpt>
      <trkpt lat="42.17194" lon="2.56351">
        <ele>679</ele>
        <time>2010-01-01T03:06:40Z</time>
      </trkpt>
      <trkpt lat="42.17193" lon="2.56348">
        <ele>679</ele>
        <time>2010-01-01T03:06:41Z</time>
      </trkpt>
      <trkpt lat="42.17194" lon="2.56342">
        <ele>680</ele>
        <time>2010-01-01T03:06:43Z</time>
      </trkpt>
      <trkpt lat="42.17193" lon="2.56338">
        <ele>681</ele>
        <time>2010-01-01T03:06:44Z</time>
      </trkpt>
      <trkpt lat="42.17193" lon="2.56337">
        <ele>681</ele>
        <time>2010-01-01T03:06:45Z</time>
      </trkpt>
      <trkpt lat="42.17191" lon="2.56333">
        <ele>681</ele>
        <time>2010-01-01T03:06:46Z</time>
      </trkpt>
      <trkpt lat="42.17189" lon="2.56329">
        <ele>682</ele>
        <time>2010-01-01T03:06:48Z</time>
      </trkpt>
      <trkpt lat="42.17185" lon="2.56323">
        <ele>684</ele>
        <time>2010-01-01T03:06:50Z</time>
      </trkpt>
      <trkpt lat="42.17186" lon="2.5632">
        <ele>685</ele>
        <time>2010-01-01T03:06:51Z</time>
      </trkpt>
      <trkpt lat="42.17186" lon="2.56317">
        <ele>686</ele>
        <time>2010-01-01T03:06:52Z</time>
      </trkpt>
      <trkpt lat="42.1719" lon="2.56311">
        <ele>688</ele>
        <time>2010-01-01T03:06:54Z</time>
      </trkpt>
      <trkpt lat="42.1719" lon="2.5631">
        <ele>688</ele>
        <time>2010-01-01T03:06:54Z</time>
      </trkpt>
      <trkpt lat="42.1719" lon="2.56308">
        <ele>689</ele>
        <time>2010-01-01T03:06:55Z</time>
      </trkpt>
      <trkpt lat="42.1719" lon="2.56302">
        <ele>690</ele>
        <time>2010-01-01T03:06:57Z</time>
      </trkpt>
      <trkpt lat="42.17191" lon="2.56298">
        <ele>691</ele>
        <time>2010-01-01T03:06:58Z</time>
      </trkpt>
      <trkpt lat="42.17186" lon="2.56296">
        <ele>692</ele>
        <time>2010-01-01T03:07:00Z</time>
      </trkpt>
      <trkpt lat="42.17183" lon="2.56296">
        <ele>692</ele>
        <time>2010-01-01T03:07:01Z</time>
      </trkpt>
      <trkpt lat="42.17176" lon="2.56293">
        <ele>693</ele>
        <time>2010-01-01T03:07:04Z</time>
      </trkpt>
      <trkpt lat="42.17174" lon="2.56289">
        <ele>694</ele>
        <time>2010-01-01T03:07:05Z</time>
      </trkpt>
      <trkpt lat="42.17174" lon="2.56284">
        <ele>695</ele>
        <time>2010-01-01T03:07:07Z</time>
      </trkpt>
      <trkpt lat="42.17174" lon="2.56276">
        <ele>697</ele>
        <time>2010-01-01T03:07:09Z</time>
      </trkpt>
      <trkpt lat="42.17175" lon="2.56275">
        <ele>698</ele>
        <time>2010-01-01T03:07:10Z</time>
      </trkpt>
      <trkpt lat="42.17175" lon="2.56265">
        <ele>701</ele>
        <time>2010-01-01T03:07:12Z</time>
      </trkpt>
      <trkpt lat="42.17175" lon="2.5626">
        <ele>702</ele>
        <time>2010-01-01T03:07:14Z</time>
      </trkpt>
      <trkpt lat="42.17172" lon="2.56255">
        <ele>704</ele>
        <time>2010-01-01T03:07:16Z</time>
      </trkpt>
      <trkpt lat="42.17169" lon="2.56251">
        <ele>705</ele>
        <time>2010-01-01T03:07:17Z</time>
      </trkpt>
      <trkpt lat="42.17166" lon="2.56246">
        <ele>707</ele>
        <time>2010-01-01T03:07:19Z</time>
      </trkpt>
      <trkpt lat="42.17165" lon="2.5624">
        <ele>709</ele>
        <time>2010-01-01T03:07:21Z</time>
      </trkpt>
      <trkpt lat="42.17169" lon="2.56231">
        <ele>712</ele>
        <time>2010-01-01T03:07:24Z</time>
      </trkpt>
      <trkpt lat="42.17173" lon="2.56227">
        <ele>713</ele>
        <time>2010-01-01T03:07:26Z</time>
      </trkpt>
      <trkpt lat="42.17175" lon="2.56223">
        <ele>714</ele>
        <time>2010-01-01T03:07:28Z</time>
      </trkpt>
      <trkpt lat="42.17176" lon="2.56212">
        <ele>718</ele>
        <time>2010-01-01T03:07:31Z</time>
      </trkpt>
      <trkpt lat="42.17176" lon="2.56208">
        <ele>719</ele>
        <time>2010-01-01T03:07:32Z</time>
      </trkpt>
      <trkpt lat="42.17171" lon="2.56208">
        <ele>719</ele>
        <time>2010-01-01T03:07:34Z</time>
      </trkpt>
      <trkpt lat="42.17166" lon="2.56206">
        <ele>720</ele>
        <time>2010-01-01T03:07:36Z</time>
      </trkpt>
      <trkpt lat="42.17161" lon="2.56202">
        <ele>721</ele>
        <time>2010-01-01T03:07:39Z</time>
      </trkpt>
      <trkpt lat="42.17161" lon="2.56201">
        <ele>721</ele>
        <time>2010-01-01T03:07:39Z</time>
      </trkpt>
      <trkpt lat="42.17155" lon="2.56196">
        <ele>722</ele>
        <time>2010-01-01T03:07:41Z</time>
      </trkpt>
      <trkpt lat="42.17155" lon="2.56193">
        <ele>723</ele>
        <time>2010-01-01T03:07:42Z</time>
      </trkpt>
      <trkpt lat="42.17155" lon="2.56189">
        <ele>724</ele>
        <time>2010-01-01T03:07:44Z</time>
      </trkpt>
      <trkpt lat="42.17158" lon="2.56184">
        <ele>726</ele>
        <time>2010-01-01T03:07:45Z</time>
      </trkpt>
      <trkpt lat="42.17158" lon="2.56179">
        <ele>728</ele>
        <time>2010-01-01T03:07:47Z</time>
      </trkpt>
      <trkpt lat="42.1716" lon="2.56174">
        <ele>730</ele>
        <time>2010-01-01T03:07:49Z</time>
      </trkpt>
      <trkpt lat="42.17162" lon="2.56171">
        <ele>731</ele>
        <time>2010-01-01T03:07:50Z</time>
      </trkpt>
      <trkpt lat="42.17162" lon="2.56166">
        <ele>733</ele>
        <time>2010-01-01T03:07:51Z</time>
      </trkpt>
      <trkpt lat="42.17164" lon="2.56161">
        <ele>735</ele>
        <time>2010-01-01T03:07:53Z</time>
      </trkpt>
      <trkpt lat="42.17166" lon="2.56157">
        <ele>736</ele>
        <time>2010-01-01T03:07:54Z</time>
      </trkpt>
      <trkpt lat="42.17171" lon="2.56154">
        <ele>737</ele>
        <time>2010-01-01T03:07:57Z</time>
      </trkpt>
      <trkpt lat="42.17171" lon="2.5615">
        <ele>738</ele>
        <time>2010-01-01T03:07:58Z</time>
      </trkpt>
      <trkpt lat="42.17167" lon="2.56149">
        <ele>738</ele>
        <time>2010-01-01T03:07:59Z</time>
      </trkpt>
      <trkpt lat="42.17167" lon="2.56142">
        <ele>740</ele>
        <time>2010-01-01T03:08:01Z</time>
      </trkpt>
      <trkpt lat="42.17169" lon="2.56138">
        <ele>741</ele>
        <time>2010-01-01T03:08:03Z</time>
      </trkpt>
      <trkpt lat="42.17167" lon="2.56135">
        <ele>741</ele>
        <time>2010-01-01T03:08:04Z</time>
      </trkpt>
      <trkpt lat="42.17163" lon="2.56127">
        <ele>741</ele>
        <time>2010-01-01T03:08:07Z</time>
      </trkpt>
      <trkpt lat="42.17163" lon="2.56124">
        <ele>742</ele>
        <time>2010-01-01T03:08:08Z</time>
      </trkpt>
      <trkpt lat="42.17167" lon="2.56118">
        <ele>744</ele>
        <time>2010-01-01T03:08:10Z</time>
      </trkpt>
      <trkpt lat="42.17171" lon="2.56111">
        <ele>745</ele>
        <time>2010-01-01T03:08:13Z</time>
      </trkpt>
      <trkpt lat="42.17172" lon="2.5611">
        <ele>746</ele>
        <time>2010-01-01T03:08:13Z</time>
      </trkpt>
      <trkpt lat="42.17174" lon="2.56106">
        <ele>746</ele>
        <time>2010-01-01T03:08:14Z</time>
      </trkpt>
      <trkpt lat="42.17173" lon="2.56106">
        <ele>746</ele>
        <time>2010-01-01T03:08:15Z</time>
      </trkpt>
      <trkpt lat="42.17172" lon="2.56106">
        <ele>746</ele>
        <time>2010-01-01T03:08:15Z</time>
      </trkpt>
      <trkpt lat="42.17172" lon="2.56106">
        <ele>746</ele>
        <time>2010-01-01T03:08:15Z</time>
      </trkpt>
      <trkpt lat="42.17173" lon="2.56105">
        <ele>746</ele>
        <time>2010-01-01T03:08:16Z</time>
      </trkpt>
      <trkpt lat="42.17177" lon="2.56102">
        <ele>747</ele>
        <time>2010-01-01T03:08:17Z</time>
      </trkpt>
      <trkpt lat="42.17181" lon="2.56098">
        <ele>748</ele>
        <time>2010-01-01T03:08:19Z</time>
      </trkpt>
      <trkpt lat="42.17183" lon="2.56094">
        <ele>748</ele>
        <time>2010-01-01T03:08:21Z</time>
      </trkpt>
      <trkpt lat="42.17189" lon="2.56092">
        <ele>750</ele>
        <time>2010-01-01T03:08:23Z</time>
      </trkpt>
      <trkpt lat="42.1719" lon="2.56092">
        <ele>750</ele>
        <time>2010-01-01T03:08:24Z</time>
      </trkpt>
      <trkpt lat="42.172" lon="2.56085">
        <ele>752</ele>
        <time>2010-01-01T03:08:28Z</time>
      </trkpt>
      <trkpt lat="42.17201" lon="2.56083">
        <ele>752</ele>
        <time>2010-01-01T03:08:29Z</time>
      </trkpt>
      <trkpt lat="42.17204" lon="2.5608">
        <ele>752</ele>
        <time>2010-01-01T03:08:30Z</time>
      </trkpt>
      <trkpt lat="42.17205" lon="2.56071">
        <ele>753</ele>
        <time>2010-01-01T03:08:33Z</time>
      </trkpt>
      <trkpt lat="42.17207" lon="2.56059">
        <ele>754</ele>
        <time>2010-01-01T03:08:37Z</time>
      </trkpt>
      <trkpt lat="42.1721" lon="2.5606">
        <ele>755</ele>
        <time>2010-01-01T03:08:38Z</time>
      </trkpt>
      <trkpt lat="42.17218" lon="2.56057">
        <ele>757</ele>
        <time>2010-01-01T03:08:41Z</time>
      </trkpt>
      <trkpt lat="42.17224" lon="2.56053">
        <ele>758</ele>
        <time>2010-01-01T03:08:44Z</time>
      </trkpt>
      <trkpt lat="42.1723" lon="2.56045">
        <ele>759</ele>
        <time>2010-01-01T03:08:47Z</time>
      </trkpt>
      <trkpt lat="42.17232" lon="2.56035">
        <ele>759</ele>
        <time>2010-01-01T03:08:50Z</time>
      </trkpt>
      <trkpt lat="42.17234" lon="2.56031">
        <ele>760</ele>
        <time>2010-01-01T03:08:52Z</time>
      </trkpt>
      <trkpt lat="42.17235" lon="2.56023">
        <ele>760</ele>
        <time>2010-01-01T03:08:54Z</time>
      </trkpt>
      <trkpt lat="42.17234" lon="2.56015">
        <ele>760</ele>
        <time>2010-01-01T03:08:56Z</time>
      </trkpt>
      <trkpt lat="42.17234" lon="2.56011">
        <ele>761</ele>
        <time>2010-01-01T03:08:58Z</time>
      </trkpt>
      <trkpt lat="42.17234" lon="2.56008">
        <ele>761</ele>
        <time>2010-01-01T03:08:59Z</time>
      </trkpt>
      <trkpt lat="42.17234" lon="2.56008">
        <ele>761</ele>
        <time>2010-01-01T03:08:59Z</time>
      </trkpt>
      <trkpt lat="42.17234" lon="2.56008">
        <ele>761</ele>
        <time>2010-01-01T03:08:59Z</time>
      </trkpt>
      <trkpt lat="42.17234" lon="2.56007">
        <ele>761</ele>
        <time>2010-01-01T03:08:59Z</time>
      </trkpt>
      <trkpt lat="42.17234" lon="2.56007">
        <ele>761</ele>
        <time>2010-01-01T03:08:59Z</time>
      </trkpt>
      <trkpt lat="42.17236" lon="2.56006">
        <ele>761</ele>
        <time>2010-01-01T03:09:00Z</time>
      </trkpt>
      <trkpt lat="42.17236" lon="2.56006">
        <ele>761</ele>
        <time>2010-01-01T03:09:00Z</time>
      </trkpt>
      <trkpt lat="42.17238" lon="2.56004">
        <ele>762</ele>
        <time>2010-01-01T03:09:01Z</time>
      </trkpt>
      <trkpt lat="42.17238" lon="2.56001">
        <ele>762</ele>
        <time>2010-01-01T03:09:02Z</time>
      </trkpt>
      <trkpt lat="42.17235" lon="2.56001">
        <ele>761</ele>
        <time>2010-01-01T03:09:03Z</time>
      </trkpt>
      <trkpt lat="42.17234" lon="2.56">
        <ele>761</ele>
        <time>2010-01-01T03:09:03Z</time>
      </trkpt>
      <trkpt lat="42.1723" lon="2.55995">
        <ele>760</ele>
        <time>2010-01-01T03:09:06Z</time>
      </trkpt>
      <trkpt lat="42.17228" lon="2.5599">
        <ele>759</ele>
        <time>2010-01-01T03:09:07Z</time>
      </trkpt>
      <trkpt lat="42.17228" lon="2.5598">
        <ele>759</ele>
        <time>2010-01-01T03:09:10Z</time>
      </trkpt>
      <trkpt lat="42.1723" lon="2.55974">
        <ele>759</ele>
        <time>2010-01-01T03:09:12Z</time>
      </trkpt>
      <trkpt lat="42.17229" lon="2.55973">
        <ele>759</ele>
        <time>2010-01-01T03:09:13Z</time>
      </trkpt>
      <trkpt lat="42.17229" lon="2.55975">
        <ele>759</ele>
        <time>2010-01-01T03:09:13Z</time>
      </trkpt>
      <trkpt lat="42.17233" lon="2.55982">
        <ele>760</ele>
        <time>2010-01-01T03:09:16Z</time>
      </trkpt>
      <trkpt lat="42.17233" lon="2.55983">
        <ele>760</ele>
        <time>2010-01-01T03:09:16Z</time>
      </trkpt>
      <trkpt lat="42.17231" lon="2.55979">
        <ele>760</ele>
        <time>2010-01-01T03:09:18Z</time>
      </trkpt>
      <trkpt lat="42.1723" lon="2.55972">
        <ele>759</ele>
        <time>2010-01-01T03:09:20Z</time>
      </trkpt>
      <trkpt lat="42.17235" lon="2.55961">
        <ele>760</ele>
        <time>2010-01-01T03:09:24Z</time>
      </trkpt>
      <trkpt lat="42.17242" lon="2.55953">
        <ele>761</ele>
        <time>2010-01-01T03:09:27Z</time>
      </trkpt>
      <trkpt lat="42.17244" lon="2.55941">
        <ele>760</ele>
        <time>2010-01-01T03:09:31Z</time>
      </trkpt>
      <trkpt lat="42.17245" lon="2.55939">
        <ele>760</ele>
        <time>2010-01-01T03:09:31Z</time>
      </trkpt>
      <trkpt lat="42.17244" lon="2.55935">
        <ele>759</ele>
        <time>2010-01-01T03:09:32Z</time>
      </trkpt>
      <trkpt lat="42.17243" lon="2.55931">
        <ele>758</ele>
        <time>2010-01-01T03:09:34Z</time>
      </trkpt>
      <trkpt lat="42.17243" lon="2.5593">
        <ele>758</ele>
        <time>2010-01-01T03:09:34Z</time>
      </trkpt>
      <trkpt lat="42.17239" lon="2.55916">
        <ele>756</ele>
        <time>2010-01-01T03:09:38Z</time>
      </trkpt>
      <trkpt lat="42.17239" lon="2.55914">
        <ele>755</ele>
        <time>2010-01-01T03:09:39Z</time>
      </trkpt>
      <trkpt lat="42.17235" lon="2.55911">
        <ele>754</ele>
        <time>2010-01-01T03:09:41Z</time>
      </trkpt>
      <trkpt lat="42.1723" lon="2.55907">
        <ele>753</ele>
        <time>2010-01-01T03:09:43Z</time>
      </trkpt>
      <trkpt lat="42.17227" lon="2.55893">
        <ele>751</ele>
        <time>2010-01-01T03:09:47Z</time>
      </trkpt>
      <trkpt lat="42.17227" lon="2.55886">
        <ele>750</ele>
        <time>2010-01-01T03:09:50Z</time>
      </trkpt>
      <trkpt lat="42.17226" lon="2.55879">
        <ele>749</ele>
        <time>2010-01-01T03:09:52Z</time>
      </trkpt>
      <trkpt lat="42.17226" lon="2.5587">
        <ele>748</ele>
        <time>2010-01-01T03:09:54Z</time>
      </trkpt>
      <trkpt lat="42.17227" lon="2.55868">
        <ele>748</ele>
        <time>2010-01-01T03:09:55Z</time>
      </trkpt>
      <trkpt lat="42.17219" lon="2.55843">
        <ele>744</ele>
        <time>2010-01-01T03:10:03Z</time>
      </trkpt>
      <trkpt lat="42.17221" lon="2.55828">
        <ele>742</ele>
        <time>2010-01-01T03:10:08Z</time>
      </trkpt>
      <trkpt lat="42.17221" lon="2.55824">
        <ele>742</ele>
        <time>2010-01-01T03:10:09Z</time>
      </trkpt>
      <trkpt lat="42.17221" lon="2.55816">
        <ele>741</ele>
        <time>2010-01-01T03:10:11Z</time>
      </trkpt>
      <trkpt lat="42.17222" lon="2.55801">
        <ele>739</ele>
        <time>2010-01-01T03:10:16Z</time>
      </trkpt>
      <trkpt lat="42.17219" lon="2.55779">
        <ele>735</ele>
        <time>2010-01-01T03:10:22Z</time>
      </trkpt>
      <trkpt lat="42.1722" lon="2.55765">
        <ele>735</ele>
        <time>2010-01-01T03:10:27Z</time>
      </trkpt>
      <trkpt lat="42.17222" lon="2.55762">
        <ele>735</ele>
        <time>2010-01-01T03:10:27Z</time>
      </trkpt>
      <trkpt lat="42.1722" lon="2.55746">
        <ele>732</ele>
        <time>2010-01-01T03:10:32Z</time>
      </trkpt>
      <trkpt lat="42.17224" lon="2.5574">
        <ele>732</ele>
        <time>2010-01-01T03:10:35Z</time>
      </trkpt>
      <trkpt lat="42.17224" lon="2.55739">
        <ele>732</ele>
        <time>2010-01-01T03:10:35Z</time>
      </trkpt>
      <trkpt lat="42.17226" lon="2.55736">
        <ele>732</ele>
        <time>2010-01-01T03:10:36Z</time>
      </trkpt>
      <trkpt lat="42.17228" lon="2.55727">
        <ele>731</ele>
        <time>2010-01-01T03:10:39Z</time>
      </trkpt>
      <trkpt lat="42.17221" lon="2.55703">
        <ele>727</ele>
        <time>2010-01-01T03:10:46Z</time>
      </trkpt>
      <trkpt lat="42.17219" lon="2.55679">
        <ele>725</ele>
        <time>2010-01-01T03:10:54Z</time>
      </trkpt>
      <trkpt lat="42.17224" lon="2.55666">
        <ele>726</ele>
        <time>2010-01-01T03:10:58Z</time>
      </trkpt>
      <trkpt lat="42.17226" lon="2.55661">
        <ele>726</ele>
        <time>2010-01-01T03:11:00Z</time>
      </trkpt>
      <trkpt lat="42.17221" lon="2.55646">
        <ele>725</ele>
        <time>2010-01-01T03:11:05Z</time>
      </trkpt>
      <trkpt lat="42.1722" lon="2.55642">
        <ele>724</ele>
        <time>2010-01-01T03:11:06Z</time>
      </trkpt>
      <trkpt lat="42.17215" lon="2.55627">
        <ele>722</ele>
        <time>2010-01-01T03:11:11Z</time>
      </trkpt>
      <trkpt lat="42.17218" lon="2.55627">
        <ele>722</ele>
        <time>2010-01-01T03:11:12Z</time>
      </trkpt>
      <trkpt lat="42.1722" lon="2.55627">
        <ele>723</ele>
        <time>2010-01-01T03:11:13Z</time>
      </trkpt>
      <trkpt lat="42.17229" lon="2.55614">
        <ele>723</ele>
        <time>2010-01-01T03:11:18Z</time>
      </trkpt>
      <trkpt lat="42.17227" lon="2.5561">
        <ele>723</ele>
        <time>2010-01-01T03:11:19Z</time>
      </trkpt>
      <trkpt lat="42.17217" lon="2.55588">
        <ele>722</ele>
        <time>2010-01-01T03:11:27Z</time>
      </trkpt>
      <trkpt lat="42.17211" lon="2.55574">
        <ele>720</ele>
        <time>2010-01-01T03:11:32Z</time>
      </trkpt>
      <trkpt lat="42.17206" lon="2.55554">
        <ele>718</ele>
        <time>2010-01-01T03:11:38Z</time>
      </trkpt>
      <trkpt lat="42.17204" lon="2.5554">
        <ele>719</ele>
        <time>2010-01-01T03:11:43Z</time>
      </trkpt>
      <trkpt lat="42.172" lon="2.55525">
        <ele>719</ele>
        <time>2010-01-01T03:11:47Z</time>
      </trkpt>
      <trkpt lat="42.17198" lon="2.55506">
        <ele>720</ele>
        <time>2010-01-01T03:11:53Z</time>
      </trkpt>
      <trkpt lat="42.17198" lon="2.555">
        <ele>720</ele>
        <time>2010-01-01T03:11:55Z</time>
      </trkpt>
      <trkpt lat="42.17199" lon="2.55492">
        <ele>721</ele>
        <time>2010-01-01T03:11:57Z</time>
      </trkpt>
      <trkpt lat="42.17201" lon="2.55471">
        <ele>724</ele>
        <time>2010-01-01T03:12:03Z</time>
      </trkpt>
      <trkpt lat="42.172" lon="2.55456">
        <ele>726</ele>
        <time>2010-01-01T03:12:08Z</time>
      </trkpt>
      <trkpt lat="42.17199" lon="2.55451">
        <ele>727</ele>
        <time>2010-01-01T03:12:10Z</time>
      </trkpt>
      <trkpt lat="42.17191" lon="2.5544">
        <ele>728</ele>
        <time>2010-01-01T03:12:14Z</time>
      </trkpt>
      <trkpt lat="42.17185" lon="2.55433">
        <ele>728</ele>
        <time>2010-01-01T03:12:17Z</time>
      </trkpt>
      <trkpt lat="42.17182" lon="2.55425">
        <ele>728</ele>
        <time>2010-01-01T03:12:20Z</time>
      </trkpt>
      <trkpt lat="42.17175" lon="2.55412">
        <ele>728</ele>
        <time>2010-01-01T03:12:24Z</time>
      </trkpt>
      <trkpt lat="42.17177" lon="2.55399">
        <ele>728</ele>
        <time>2010-01-01T03:12:28Z</time>
      </trkpt>
      <trkpt lat="42.17187" lon="2.5539">
        <ele>729</ele>
        <time>2010-01-01T03:12:33Z</time>
      </trkpt>
      <trkpt lat="42.17195" lon="2.55377">
        <ele>729</ele>
        <time>2010-01-01T03:12:38Z</time>
      </trkpt>
      <trkpt lat="42.17208" lon="2.55355">
        <ele>728</ele>
        <time>2010-01-01T03:12:47Z</time>
      </trkpt>
      <trkpt lat="42.17221" lon="2.55338">
        <ele>727</ele>
        <time>2010-01-01T03:12:54Z</time>
      </trkpt>
      <trkpt lat="42.17227" lon="2.55317">
        <ele>723</ele>
        <time>2010-01-01T03:13:01Z</time>
      </trkpt>
      <trkpt lat="42.17227" lon="2.55307">
        <ele>721</ele>
        <time>2010-01-01T03:13:04Z</time>
      </trkpt>
      <trkpt lat="42.1723" lon="2.55287">
        <ele>718</ele>
        <time>2010-01-01T03:13:09Z</time>
      </trkpt>
      <trkpt lat="42.17231" lon="2.55284">
        <ele>717</ele>
        <time>2010-01-01T03:13:11Z</time>
      </trkpt>
      <trkpt lat="42.17236" lon="2.55264">
        <ele>715</ele>
        <time>2010-01-01T03:13:17Z</time>
      </trkpt>
      <trkpt lat="42.1724" lon="2.55251">
        <ele>715</ele>
        <time>2010-01-01T03:13:21Z</time>
      </trkpt>
      <trkpt lat="42.17241" lon="2.55247">
        <ele>715</ele>
        <time>2010-01-01T03:13:22Z</time>
      </trkpt>
      <trkpt lat="42.17245" lon="2.55222">
        <ele>713</ele>
        <time>2010-01-01T03:13:30Z</time>
      </trkpt>
      <trkpt lat="42.17243" lon="2.55206">
        <ele>710</ele>
        <time>2010-01-01T03:13:35Z</time>
      </trkpt>
      <trkpt lat="42.17242" lon="2.55197">
        <ele>708</ele>
        <time>2010-01-01T03:13:37Z</time>
      </trkpt>
      <trkpt lat="42.1725" lon="2.55181">
        <ele>708</ele>
        <time>2010-01-01T03:13:43Z</time>
      </trkpt>
      <trkpt lat="42.17251" lon="2.55178">
        <ele>708</ele>
        <time>2010-01-01T03:13:44Z</time>
      </trkpt>
      <trkpt lat="42.17253" lon="2.5517">
        <ele>707</ele>
        <time>2010-01-01T03:13:47Z</time>
      </trkpt>
      <trkpt lat="42.17252" lon="2.55143">
        <ele>703</ele>
        <time>2010-01-01T03:13:55Z</time>
      </trkpt>
      <trkpt lat="42.17248" lon="2.55124">
        <ele>701</ele>
        <time>2010-01-01T03:14:00Z</time>
      </trkpt>
      <trkpt lat="42.17255" lon="2.5511">
        <ele>700</ele>
        <time>2010-01-01T03:14:06Z</time>
      </trkpt>
      <trkpt lat="42.17258" lon="2.551">
        <ele>700</ele>
        <time>2010-01-01T03:14:09Z</time>
      </trkpt>
      <trkpt lat="42.17257" lon="2.55084">
        <ele>700</ele>
        <time>2010-01-01T03:14:13Z</time>
      </trkpt>
      <trkpt lat="42.1726" lon="2.55069">
        <ele>698</ele>
        <time>2010-01-01T03:14:18Z</time>
      </trkpt>
      <trkpt lat="42.17258" lon="2.55042">
        <ele>693</ele>
        <time>2010-01-01T03:14:26Z</time>
      </trkpt>
      <trkpt lat="42.17255" lon="2.55026">
        <ele>690</ele>
        <time>2010-01-01T03:14:31Z</time>
      </trkpt>
      <trkpt lat="42.17253" lon="2.55006">
        <ele>684</ele>
        <time>2010-01-01T03:14:37Z</time>
      </trkpt>
      <trkpt lat="42.17253" lon="2.55003">
        <ele>683</ele>
        <time>2010-01-01T03:14:38Z</time>
      </trkpt>
      <trkpt lat="42.17258" lon="2.54994">
        <ele>681</ele>
        <time>2010-01-01T03:14:41Z</time>
      </trkpt>
      <trkpt lat="42.17254" lon="2.5498">
        <ele>678</ele>
        <time>2010-01-01T03:14:46Z</time>
      </trkpt>
      <trkpt lat="42.17252" lon="2.54972">
        <ele>677</ele>
        <time>2010-01-01T03:14:48Z</time>
      </trkpt>
      <trkpt lat="42.17254" lon="2.54955">
        <ele>674</ele>
        <time>2010-01-01T03:14:53Z</time>
      </trkpt>
      <trkpt lat="42.17257" lon="2.54938">
        <ele>673</ele>
        <time>2010-01-01T03:14:59Z</time>
      </trkpt>
      <trkpt lat="42.17263" lon="2.54917">
        <ele>672</ele>
        <time>2010-01-01T03:15:05Z</time>
      </trkpt>
      <trkpt lat="42.17263" lon="2.54911">
        <ele>673</ele>
        <time>2010-01-01T03:15:07Z</time>
      </trkpt>
      <trkpt lat="42.17265" lon="2.54904">
        <ele>674</ele>
        <time>2010-01-01T03:15:09Z</time>
      </trkpt>
      <trkpt lat="42.17267" lon="2.54902">
        <ele>674</ele>
        <time>2010-01-01T03:15:10Z</time>
      </trkpt>
      <trkpt lat="42.17269" lon="2.54903">
        <ele>674</ele>
        <time>2010-01-01T03:15:11Z</time>
      </trkpt>
      <trkpt lat="42.1727" lon="2.54902">
        <ele>674</ele>
        <time>2010-01-01T03:15:12Z</time>
      </trkpt>
      <trkpt lat="42.17271" lon="2.54902">
        <ele>675</ele>
        <time>2010-01-01T03:15:12Z</time>
      </trkpt>
      <trkpt lat="42.17266" lon="2.54904">
        <ele>674</ele>
        <time>2010-01-01T03:15:14Z</time>
      </trkpt>
      <trkpt lat="42.17265" lon="2.54906">
        <ele>674</ele>
        <time>2010-01-01T03:15:15Z</time>
      </trkpt>
      <trkpt lat="42.17264" lon="2.54906">
        <ele>674</ele>
        <time>2010-01-01T03:15:16Z</time>
      </trkpt>
      <trkpt lat="42.17264" lon="2.54908">
        <ele>673</ele>
        <time>2010-01-01T03:15:16Z</time>
      </trkpt>
      <trkpt lat="42.17262" lon="2.54909">
        <ele>673</ele>
        <time>2010-01-01T03:15:17Z</time>
      </trkpt>
      <trkpt lat="42.17267" lon="2.54907">
        <ele>674</ele>
        <time>2010-01-01T03:15:19Z</time>
      </trkpt>
      <trkpt lat="42.17276" lon="2.54894">
        <ele>676</ele>
        <time>2010-01-01T03:15:24Z</time>
      </trkpt>
      <trkpt lat="42.17277" lon="2.54892">
        <ele>677</ele>
        <time>2010-01-01T03:15:25Z</time>
      </trkpt>
      <trkpt lat="42.17286" lon="2.54885">
        <ele>678</ele>
        <time>2010-01-01T03:15:29Z</time>
      </trkpt>
      <trkpt lat="42.17292" lon="2.54878">
        <ele>679</ele>
        <time>2010-01-01T03:15:32Z</time>
      </trkpt>
      <trkpt lat="42.17302" lon="2.54869">
        <ele>680</ele>
        <time>2010-01-01T03:15:37Z</time>
      </trkpt>
      <trkpt lat="42.17315" lon="2.54861">
        <ele>677</ele>
        <time>2010-01-01T03:15:42Z</time>
      </trkpt>
      <trkpt lat="42.17323" lon="2.54851">
        <ele>675</ele>
        <time>2010-01-01T03:15:47Z</time>
      </trkpt>
      <trkpt lat="42.17332" lon="2.54841">
        <ele>673</ele>
        <time>2010-01-01T03:15:52Z</time>
      </trkpt>
      <trkpt lat="42.17342" lon="2.54829">
        <ele>670</ele>
        <time>2010-01-01T03:15:57Z</time>
      </trkpt>
      <trkpt lat="42.17344" lon="2.54823">
        <ele>670</ele>
        <time>2010-01-01T03:15:59Z</time>
      </trkpt>
      <trkpt lat="42.17345" lon="2.54804">
        <ele>673</ele>
        <time>2010-01-01T03:16:04Z</time>
      </trkpt>
      <trkpt lat="42.17342" lon="2.54792">
        <ele>676</ele>
        <time>2010-01-01T03:16:08Z</time>
      </trkpt>
      <trkpt lat="42.17339" lon="2.54785">
        <ele>679</ele>
        <time>2010-01-01T03:16:10Z</time>
      </trkpt>
      <trkpt lat="42.17337" lon="2.54764">
        <ele>683</ele>
        <time>2010-01-01T03:16:17Z</time>
      </trkpt>
      <trkpt lat="42.1734" lon="2.54751">
        <ele>684</ele>
        <time>2010-01-01T03:16:21Z</time>
      </trkpt>
      <trkpt lat="42.17341" lon="2.54744">
        <ele>684</ele>
        <time>2010-01-01T03:16:23Z</time>
      </trkpt>
      <trkpt lat="42.17348" lon="2.54732">
        <ele>681</ele>
        <time>2010-01-01T03:16:27Z</time>
      </trkpt>
      <trkpt lat="42.17356" lon="2.54719">
        <ele>678</ele>
        <time>2010-01-01T03:16:33Z</time>
      </trkpt>
      <trkpt lat="42.17357" lon="2.54709">
        <ele>678</ele>
        <time>2010-01-01T03:16:36Z</time>
      </trkpt>
      <trkpt lat="42.17357" lon="2.54686">
        <ele>682</ele>
        <time>2010-01-01T03:16:42Z</time>
      </trkpt>
      <trkpt lat="42.17359" lon="2.54681">
        <ele>682</ele>
        <time>2010-01-01T03:16:44Z</time>
      </trkpt>
      <trkpt lat="42.17359" lon="2.54675">
        <ele>684</ele>
        <time>2010-01-01T03:16:46Z</time>
      </trkpt>
      <trkpt lat="42.17358" lon="2.5467">
        <ele>686</ele>
        <time>2010-01-01T03:16:47Z</time>
      </trkpt>
      <trkpt lat="42.17362" lon="2.54666">
        <ele>685</ele>
        <time>2010-01-01T03:16:49Z</time>
      </trkpt>
      <trkpt lat="42.17368" lon="2.54658">
        <ele>683</ele>
        <time>2010-01-01T03:16:53Z</time>
      </trkpt>
      <trkpt lat="42.17379" lon="2.5465">
        <ele>680</ele>
        <time>2010-01-01T03:16:58Z</time>
      </trkpt>
      <trkpt lat="42.1739" lon="2.5464">
        <ele>679</ele>
        <time>2010-01-01T03:17:03Z</time>
      </trkpt>
      <trkpt lat="42.174" lon="2.54626">
        <ele>682</ele>
        <time>2010-01-01T03:17:09Z</time>
      </trkpt>
      <trkpt lat="42.17402" lon="2.54619">
        <ele>684</ele>
        <time>2010-01-01T03:17:11Z</time>
      </trkpt>
      <trkpt lat="42.17415" lon="2.54602">
        <ele>689</ele>
        <time>2010-01-01T03:17:18Z</time>
      </trkpt>
      <trkpt lat="42.17427" lon="2.54604">
        <ele>686</ele>
        <time>2010-01-01T03:17:23Z</time>
      </trkpt>
      <trkpt lat="42.17447" lon="2.54606">
        <ele>680</ele>
        <time>2010-01-01T03:17:31Z</time>
      </trkpt>
      <trkpt lat="42.17461" lon="2.54604">
        <ele>676</ele>
        <time>2010-01-01T03:17:37Z</time>
      </trkpt>
      <trkpt lat="42.17472" lon="2.54588">
        <ele>679</ele>
        <time>2010-01-01T03:17:43Z</time>
      </trkpt>
      <trkpt lat="42.17473" lon="2.54582">
        <ele>681</ele>
        <time>2010-01-01T03:17:45Z</time>
      </trkpt>
      <trkpt lat="42.17486" lon="2.54571">
        <ele>680</ele>
        <time>2010-01-01T03:17:51Z</time>
      </trkpt>
      <trkpt lat="42.17497" lon="2.54563">
        <ele>678</ele>
        <time>2010-01-01T03:17:56Z</time>
      </trkpt>
      <trkpt lat="42.17505" lon="2.54556">
        <ele>678</ele>
        <time>2010-01-01T03:18:00Z</time>
      </trkpt>
      <trkpt lat="42.17515" lon="2.54539">
        <ele>680</ele>
        <time>2010-01-01T03:18:06Z</time>
      </trkpt>
      <trkpt lat="42.17524" lon="2.54522">
        <ele>681</ele>
        <time>2010-01-01T03:18:13Z</time>
      </trkpt>
      <trkpt lat="42.17529" lon="2.545">
        <ele>686</ele>
        <time>2010-01-01T03:18:20Z</time>
      </trkpt>
      <trkpt lat="42.17531" lon="2.5449">
        <ele>687</ele>
        <time>2010-01-01T03:18:23Z</time>
      </trkpt>
      <trkpt lat="42.17542" lon="2.54475">
        <ele>685</ele>
        <time>2010-01-01T03:18:29Z</time>
      </trkpt>
      <trkpt lat="42.17546" lon="2.54467">
        <ele>684</ele>
        <time>2010-01-01T03:18:32Z</time>
      </trkpt>
      <trkpt lat="42.17547" lon="2.54461">
        <ele>685</ele>
        <time>2010-01-01T03:18:33Z</time>
      </trkpt>
      <trkpt lat="42.17547" lon="2.54464">
        <ele>684</ele>
        <time>2010-01-01T03:18:34Z</time>
      </trkpt>
      <trkpt lat="42.17548" lon="2.54466">
        <ele>683</ele>
        <time>2010-01-01T03:18:35Z</time>
      </trkpt>
      <trkpt lat="42.17546" lon="2.54464">
        <ele>685</ele>
        <time>2010-01-01T03:18:36Z</time>
      </trkpt>
      <trkpt lat="42.17546" lon="2.54463">
        <ele>685</ele>
        <time>2010-01-01T03:18:36Z</time>
      </trkpt>
      <trkpt lat="42.17548" lon="2.54468">
        <ele>683</ele>
        <time>2010-01-01T03:18:38Z</time>
      </trkpt>
      <trkpt lat="42.17548" lon="2.54471">
        <ele>682</ele>
        <time>2010-01-01T03:18:39Z</time>
      </trkpt>
      <trkpt lat="42.17548" lon="2.54469">
        <ele>682</ele>
        <time>2010-01-01T03:18:39Z</time>
      </trkpt>
      <trkpt lat="42.17548" lon="2.54463">
        <ele>684</ele>
        <time>2010-01-01T03:18:41Z</time>
      </trkpt>
      <trkpt lat="42.17549" lon="2.54457">
        <ele>685</ele>
        <time>2010-01-01T03:18:43Z</time>
      </trkpt>
      <trkpt lat="42.17551" lon="2.54449">
        <ele>686</ele>
        <time>2010-01-01T03:18:45Z</time>
      </trkpt>
      <trkpt lat="42.1755" lon="2.54428">
        <ele>691</ele>
        <time>2010-01-01T03:18:52Z</time>
      </trkpt>
      <trkpt lat="42.1755" lon="2.54406">
        <ele>696</ele>
        <time>2010-01-01T03:18:58Z</time>
      </trkpt>
      <trkpt lat="42.17551" lon="2.54395">
        <ele>698</ele>
        <time>2010-01-01T03:19:02Z</time>
      </trkpt>
      <trkpt lat="42.17553" lon="2.54388">
        <ele>698</ele>
        <time>2010-01-01T03:19:04Z</time>
      </trkpt>
      <trkpt lat="42.17563" lon="2.54378">
        <ele>693</ele>
        <time>2010-01-01T03:19:09Z</time>
      </trkpt>
      <trkpt lat="42.1758" lon="2.54361">
        <ele>686</ele>
        <time>2010-01-01T03:19:17Z</time>
      </trkpt>
      <trkpt lat="42.17589" lon="2.54345">
        <ele>683</ele>
        <time>2010-01-01T03:19:23Z</time>
      </trkpt>
      <trkpt lat="42.17586" lon="2.5433">
        <ele>686</ele>
        <time>2010-01-01T03:19:28Z</time>
      </trkpt>
      <trkpt lat="42.17579" lon="2.54315">
        <ele>689</ele>
        <time>2010-01-01T03:19:33Z</time>
      </trkpt>
      <trkpt lat="42.17568" lon="2.54296">
        <ele>694</ele>
        <time>2010-01-01T03:19:40Z</time>
      </trkpt>
      <trkpt lat="42.17565" lon="2.54285">
        <ele>695</ele>
        <time>2010-01-01T03:19:44Z</time>
      </trkpt>
      <trkpt lat="42.17563" lon="2.54281">
        <ele>695</ele>
        <time>2010-01-01T03:19:45Z</time>
      </trkpt>
      <trkpt lat="42.17554" lon="2.54276">
        <ele>698</ele>
        <time>2010-01-01T03:19:49Z</time>
      </trkpt>
      <trkpt lat="42.17553" lon="2.54275">
        <ele>698</ele>
        <time>2010-01-01T03:19:49Z</time>
      </trkpt>
      <trkpt lat="42.17546" lon="2.5427">
        <ele>700</ele>
        <time>2010-01-01T03:19:53Z</time>
      </trkpt>
      <trkpt lat="42.17541" lon="2.5426">
        <ele>700</ele>
        <time>2010-01-01T03:19:56Z</time>
      </trkpt>
      <trkpt lat="42.17536" lon="2.54252">
        <ele>700</ele>
        <time>2010-01-01T03:19:59Z</time>
      </trkpt>
      <trkpt lat="42.17535" lon="2.54254">
        <ele>701</ele>
        <time>2010-01-01T03:20:00Z</time>
      </trkpt>
      <trkpt lat="42.17533" lon="2.54253">
        <ele>701</ele>
        <time>2010-01-01T03:20:00Z</time>
      </trkpt>
      <trkpt lat="42.1753" lon="2.54248">
        <ele>702</ele>
        <time>2010-01-01T03:20:02Z</time>
      </trkpt>
      <trkpt lat="42.17524" lon="2.54238">
        <ele>703</ele>
        <time>2010-01-01T03:20:06Z</time>
      </trkpt>
      <trkpt lat="42.17518" lon="2.54234">
        <ele>705</ele>
        <time>2010-01-01T03:20:09Z</time>
      </trkpt>
      <trkpt lat="42.17513" lon="2.54229">
        <ele>706</ele>
        <time>2010-01-01T03:20:11Z</time>
      </trkpt>
      <trkpt lat="42.17511" lon="2.54227">
        <ele>706</ele>
        <time>2010-01-01T03:20:12Z</time>
      </trkpt>
      <trkpt lat="42.17507" lon="2.54208">
        <ele>707</ele>
        <time>2010-01-01T03:20:18Z</time>
      </trkpt>
      <trkpt lat="42.17504" lon="2.54201">
        <ele>709</ele>
        <time>2010-01-01T03:20:20Z</time>
      </trkpt>
      <trkpt lat="42.17505" lon="2.54181">
        <ele>709</ele>
        <time>2010-01-01T03:20:27Z</time>
      </trkpt>
      <trkpt lat="42.17516" lon="2.54158">
        <ele>707</ele>
        <time>2010-01-01T03:20:34Z</time>
      </trkpt>
      <trkpt lat="42.17518" lon="2.54143">
        <ele>709</ele>
        <time>2010-01-01T03:20:39Z</time>
      </trkpt>
      <trkpt lat="42.17523" lon="2.54126">
        <ele>710</ele>
        <time>2010-01-01T03:20:45Z</time>
      </trkpt>
      <trkpt lat="42.17531" lon="2.54117">
        <ele>708</ele>
        <time>2010-01-01T03:20:49Z</time>
      </trkpt>
      <trkpt lat="42.17534" lon="2.54115">
        <ele>708</ele>
        <time>2010-01-01T03:20:50Z</time>
      </trkpt>
      <trkpt lat="42.1754" lon="2.54111">
        <ele>706</ele>
        <time>2010-01-01T03:20:53Z</time>
      </trkpt>
      <trkpt lat="42.17546" lon="2.541">
        <ele>706</ele>
        <time>2010-01-01T03:20:57Z</time>
      </trkpt>
      <trkpt lat="42.17547" lon="2.54091">
        <ele>707</ele>
        <time>2010-01-01T03:20:59Z</time>
      </trkpt>
      <trkpt lat="42.17547" lon="2.54088">
        <ele>708</ele>
        <time>2010-01-01T03:21:01Z</time>
      </trkpt>
      <trkpt lat="42.17547" lon="2.54079">
        <ele>709</ele>
        <time>2010-01-01T03:21:03Z</time>
      </trkpt>
      <trkpt lat="42.17546" lon="2.54073">
        <ele>711</ele>
        <time>2010-01-01T03:21:05Z</time>
      </trkpt>
      <trkpt lat="42.17547" lon="2.54063">
        <ele>712</ele>
        <time>2010-01-01T03:21:08Z</time>
      </trkpt>
      <trkpt lat="42.17545" lon="2.54054">
        <ele>715</ele>
        <time>2010-01-01T03:21:11Z</time>
      </trkpt>
      <trkpt lat="42.17544" lon="2.54044">
        <ele>716</ele>
        <time>2010-01-01T03:21:14Z</time>
      </trkpt>
      <trkpt lat="42.17544" lon="2.54038">
        <ele>717</ele>
        <time>2010-01-01T03:21:15Z</time>
      </trkpt>
      <trkpt lat="42.17543" lon="2.54029">
        <ele>718</ele>
        <time>2010-01-01T03:21:18Z</time>
      </trkpt>
      <trkpt lat="42.1754" lon="2.54016">
        <ele>720</ele>
        <time>2010-01-01T03:21:22Z</time>
      </trkpt>
      <trkpt lat="42.17537" lon="2.54004">
        <ele>722</ele>
        <time>2010-01-01T03:21:26Z</time>
      </trkpt>
      <trkpt lat="42.1754" lon="2.53995">
        <ele>722</ele>
        <time>2010-01-01T03:21:29Z</time>
      </trkpt>
      <trkpt lat="42.17545" lon="2.53989">
        <ele>721</ele>
        <time>2010-01-01T03:21:32Z</time>
      </trkpt>
      <trkpt lat="42.17551" lon="2.5398">
        <ele>719</ele>
        <time>2010-01-01T03:21:35Z</time>
      </trkpt>
      <trkpt lat="42.17556" lon="2.53972">
        <ele>718</ele>
        <time>2010-01-01T03:21:38Z</time>
      </trkpt>
      <trkpt lat="42.17563" lon="2.53965">
        <ele>718</ele>
        <time>2010-01-01T03:21:42Z</time>
      </trkpt>
      <trkpt lat="42.1757" lon="2.5396">
        <ele>717</ele>
        <time>2010-01-01T03:21:45Z</time>
      </trkpt>
      <trkpt lat="42.17576" lon="2.53951">
        <ele>717</ele>
        <time>2010-01-01T03:21:49Z</time>
      </trkpt>
      <trkpt lat="42.17578" lon="2.53944">
        <ele>717</ele>
        <time>2010-01-01T03:21:51Z</time>
      </trkpt>
      <trkpt lat="42.17584" lon="2.53932">
        <ele>717</ele>
        <time>2010-01-01T03:21:55Z</time>
      </trkpt>
      <trkpt lat="42.17586" lon="2.53922">
        <ele>717</ele>
        <time>2010-01-01T03:21:58Z</time>
      </trkpt>
      <trkpt lat="42.17588" lon="2.53914">
        <ele>717</ele>
        <time>2010-01-01T03:22:01Z</time>
      </trkpt>
      <trkpt lat="42.17589" lon="2.53903">
        <ele>717</ele>
        <time>2010-01-01T03:22:04Z</time>
      </trkpt>
      <trkpt lat="42.17583" lon="2.53891">
        <ele>720</ele>
        <time>2010-01-01T03:22:08Z</time>
      </trkpt>
      <trkpt lat="42.17581" lon="2.53883">
        <ele>720</ele>
        <time>2010-01-01T03:22:11Z</time>
      </trkpt>
      <trkpt lat="42.17578" lon="2.53872">
        <ele>721</ele>
        <time>2010-01-01T03:22:14Z</time>
      </trkpt>
      <trkpt lat="42.17576" lon="2.53863">
        <ele>723</ele>
        <time>2010-01-01T03:22:17Z</time>
      </trkpt>
      <trkpt lat="42.17579" lon="2.53851">
        <ele>721</ele>
        <time>2010-01-01T03:22:21Z</time>
      </trkpt>
      <trkpt lat="42.17577" lon="2.53839">
        <ele>723</ele>
        <time>2010-01-01T03:22:25Z</time>
      </trkpt>
      <trkpt lat="42.17576" lon="2.53837">
        <ele>723</ele>
        <time>2010-01-01T03:22:25Z</time>
      </trkpt>
      <trkpt lat="42.17574" lon="2.53827">
        <ele>725</ele>
        <time>2010-01-01T03:22:28Z</time>
      </trkpt>
      <trkpt lat="42.17573" lon="2.53812">
        <ele>726</ele>
        <time>2010-01-01T03:22:33Z</time>
      </trkpt>
      <trkpt lat="42.17572" lon="2.5381">
        <ele>727</ele>
        <time>2010-01-01T03:22:34Z</time>
      </trkpt>
      <trkpt lat="42.1757" lon="2.53805">
        <ele>727</ele>
        <time>2010-01-01T03:22:35Z</time>
      </trkpt>
      <trkpt lat="42.17573" lon="2.53794">
        <ele>728</ele>
        <time>2010-01-01T03:22:39Z</time>
      </trkpt>
      <trkpt lat="42.17574" lon="2.53784">
        <ele>729</ele>
        <time>2010-01-01T03:22:42Z</time>
      </trkpt>
      <trkpt lat="42.17572" lon="2.5377">
        <ele>732</ele>
        <time>2010-01-01T03:22:46Z</time>
      </trkpt>
      <trkpt lat="42.17571" lon="2.53766">
        <ele>732</ele>
        <time>2010-01-01T03:22:47Z</time>
      </trkpt>
      <trkpt lat="42.17575" lon="2.53763">
        <ele>731</ele>
        <time>2010-01-01T03:22:49Z</time>
      </trkpt>
      <trkpt lat="42.17583" lon="2.53755">
        <ele>730</ele>
        <time>2010-01-01T03:22:53Z</time>
      </trkpt>
      <trkpt lat="42.1759" lon="2.53748">
        <ele>729</ele>
        <time>2010-01-01T03:22:56Z</time>
      </trkpt>
      <trkpt lat="42.17593" lon="2.53745">
        <ele>729</ele>
        <time>2010-01-01T03:22:58Z</time>
      </trkpt>
      <trkpt lat="42.17599" lon="2.53736">
        <ele>730</ele>
        <time>2010-01-01T03:23:01Z</time>
      </trkpt>
      <trkpt lat="42.176" lon="2.53734">
        <ele>730</ele>
        <time>2010-01-01T03:23:02Z</time>
      </trkpt>
      <trkpt lat="42.17605" lon="2.53727">
        <ele>731</ele>
        <time>2010-01-01T03:23:05Z</time>
      </trkpt>
      <trkpt lat="42.17606" lon="2.53725">
        <ele>731</ele>
        <time>2010-01-01T03:23:06Z</time>
      </trkpt>
      <trkpt lat="42.17612" lon="2.53717">
        <ele>732</ele>
        <time>2010-01-01T03:23:09Z</time>
      </trkpt>
      <trkpt lat="42.17614" lon="2.53713">
        <ele>732</ele>
        <time>2010-01-01T03:23:11Z</time>
      </trkpt>
      <trkpt lat="42.17622" lon="2.53701">
        <ele>732</ele>
        <time>2010-01-01T03:23:15Z</time>
      </trkpt>
      <trkpt lat="42.17626" lon="2.53695">
        <ele>733</ele>
        <time>2010-01-01T03:23:18Z</time>
      </trkpt>
      <trkpt lat="42.17627" lon="2.53689">
        <ele>733</ele>
        <time>2010-01-01T03:23:20Z</time>
      </trkpt>
      <trkpt lat="42.17632" lon="2.53681">
        <ele>732</ele>
        <time>2010-01-01T03:23:23Z</time>
      </trkpt>
      <trkpt lat="42.17633" lon="2.53675">
        <ele>732</ele>
        <time>2010-01-01T03:23:25Z</time>
      </trkpt>
      <trkpt lat="42.17636" lon="2.53666">
        <ele>732</ele>
        <time>2010-01-01T03:23:27Z</time>
      </trkpt>
      <trkpt lat="42.17639" lon="2.53664">
        <ele>732</ele>
        <time>2010-01-01T03:23:29Z</time>
      </trkpt>
      <trkpt lat="42.1764" lon="2.53666">
        <ele>731</ele>
        <time>2010-01-01T03:23:29Z</time>
      </trkpt>
      <trkpt lat="42.17641" lon="2.53662">
        <ele>731</ele>
        <time>2010-01-01T03:23:31Z</time>
      </trkpt>
      <trkpt lat="42.17641" lon="2.53666">
        <ele>731</ele>
        <time>2010-01-01T03:23:32Z</time>
      </trkpt>
      <trkpt lat="42.17642" lon="2.53665">
        <ele>731</ele>
        <time>2010-01-01T03:23:32Z</time>
      </trkpt>
      <trkpt lat="42.17641" lon="2.53666">
        <ele>731</ele>
        <time>2010-01-01T03:23:33Z</time>
      </trkpt>
      <trkpt lat="42.17642" lon="2.53668">
        <ele>731</ele>
        <time>2010-01-01T03:23:33Z</time>
      </trkpt>
      <trkpt lat="42.17641" lon="2.53667">
        <ele>731</ele>
        <time>2010-01-01T03:23:34Z</time>
      </trkpt>
      <trkpt lat="42.17641" lon="2.53669">
        <ele>731</ele>
        <time>2010-01-01T03:23:35Z</time>
      </trkpt>
      <trkpt lat="42.17641" lon="2.5367">
        <ele>731</ele>
        <time>2010-01-01T03:23:35Z</time>
      </trkpt>
      <trkpt lat="42.1764" lon="2.53667">
        <ele>731</ele>
        <time>2010-01-01T03:23:36Z</time>
      </trkpt>
      <trkpt lat="42.1764" lon="2.53666">
        <ele>731</ele>
        <time>2010-01-01T03:23:36Z</time>
      </trkpt>
      <trkpt lat="42.1764" lon="2.53667">
        <ele>731</ele>
        <time>2010-01-01T03:23:37Z</time>
      </trkpt>
      <trkpt lat="42.1764" lon="2.53665">
        <ele>731</ele>
        <time>2010-01-01T03:23:37Z</time>
      </trkpt>
      <trkpt lat="42.17639" lon="2.53662">
        <ele>732</ele>
        <time>2010-01-01T03:23:38Z</time>
      </trkpt>
      <trkpt lat="42.17641" lon="2.53661">
        <ele>731</ele>
        <time>2010-01-01T03:23:39Z</time>
      </trkpt>
      <trkpt lat="42.17644" lon="2.53665">
        <ele>730</ele>
        <time>2010-01-01T03:23:41Z</time>
      </trkpt>
      <trkpt lat="42.17642" lon="2.53668">
        <ele>730</ele>
        <time>2010-01-01T03:23:42Z</time>
      </trkpt>
      <trkpt lat="42.17641" lon="2.5367">
        <ele>731</ele>
        <time>2010-01-01T03:23:42Z</time>
      </trkpt>
      <trkpt lat="42.17641" lon="2.53661">
        <ele>731</ele>
        <time>2010-01-01T03:23:45Z</time>
      </trkpt>
      <trkpt lat="42.17643" lon="2.5365">
        <ele>732</ele>
        <time>2010-01-01T03:23:48Z</time>
      </trkpt>
      <trkpt lat="42.17646" lon="2.53631">
        <ele>732</ele>
        <time>2010-01-01T03:23:54Z</time>
      </trkpt>
      <trkpt lat="42.17655" lon="2.53609">
        <ele>731</ele>
        <time>2010-01-01T03:24:02Z</time>
      </trkpt>
      <trkpt lat="42.17662" lon="2.53593">
        <ele>730</ele>
        <time>2010-01-01T03:24:07Z</time>
      </trkpt>
      <trkpt lat="42.17671" lon="2.53578">
        <ele>728</ele>
        <time>2010-01-01T03:24:13Z</time>
      </trkpt>
      <trkpt lat="42.17673" lon="2.53574">
        <ele>727</ele>
        <time>2010-01-01T03:24:14Z</time>
      </trkpt>
      <trkpt lat="42.17676" lon="2.53556">
        <ele>727</ele>
        <time>2010-01-01T03:24:20Z</time>
      </trkpt>
      <trkpt lat="42.17677" lon="2.53537">
        <ele>728</ele>
        <time>2010-01-01T03:24:25Z</time>
      </trkpt>
      <trkpt lat="42.17675" lon="2.5352">
        <ele>728</ele>
        <time>2010-01-01T03:24:31Z</time>
      </trkpt>
      <trkpt lat="42.17677" lon="2.53512">
        <ele>728</ele>
        <time>2010-01-01T03:24:33Z</time>
      </trkpt>
      <trkpt lat="42.17689" lon="2.53495">
        <ele>726</ele>
        <time>2010-01-01T03:24:40Z</time>
      </trkpt>
      <trkpt lat="42.17695" lon="2.53482">
        <ele>725</ele>
        <time>2010-01-01T03:24:45Z</time>
      </trkpt>
      <trkpt lat="42.17687" lon="2.53462">
        <ele>725</ele>
        <time>2010-01-01T03:24:51Z</time>
      </trkpt>
      <trkpt lat="42.17678" lon="2.53449">
        <ele>725</ele>
        <time>2010-01-01T03:24:56Z</time>
      </trkpt>
      <trkpt lat="42.17675" lon="2.53429">
        <ele>722</ele>
        <time>2010-01-01T03:25:02Z</time>
      </trkpt>
      <trkpt lat="42.17667" lon="2.53415">
        <ele>721</ele>
        <time>2010-01-01T03:25:08Z</time>
      </trkpt>
      <trkpt lat="42.17655" lon="2.53401">
        <ele>720</ele>
        <time>2010-01-01T03:25:14Z</time>
      </trkpt>
      <trkpt lat="42.17647" lon="2.5339">
        <ele>718</ele>
        <time>2010-01-01T03:25:19Z</time>
      </trkpt>
      <trkpt lat="42.17632" lon="2.53379">
        <ele>718</ele>
        <time>2010-01-01T03:25:25Z</time>
      </trkpt>
      <trkpt lat="42.1762" lon="2.53367">
        <ele>718</ele>
        <time>2010-01-01T03:25:31Z</time>
      </trkpt>
      <trkpt lat="42.1761" lon="2.53358">
        <ele>718</ele>
        <time>2010-01-01T03:25:36Z</time>
      </trkpt>
      <trkpt lat="42.17597" lon="2.5335">
        <ele>720</ele>
        <time>2010-01-01T03:25:42Z</time>
      </trkpt>
      <trkpt lat="42.17581" lon="2.53346">
        <ele>722</ele>
        <time>2010-01-01T03:25:48Z</time>
      </trkpt>
      <trkpt lat="42.17569" lon="2.5334">
        <ele>722</ele>
        <time>2010-01-01T03:25:53Z</time>
      </trkpt>
      <trkpt lat="42.17556" lon="2.53334">
        <ele>723</ele>
        <time>2010-01-01T03:25:59Z</time>
      </trkpt>
      <trkpt lat="42.17549" lon="2.53328">
        <ele>722</ele>
        <time>2010-01-01T03:26:02Z</time>
      </trkpt>
      <trkpt lat="42.1754" lon="2.53323">
        <ele>722</ele>
        <time>2010-01-01T03:26:06Z</time>
      </trkpt>
      <trkpt lat="42.1753" lon="2.53321">
        <ele>722</ele>
        <time>2010-01-01T03:26:10Z</time>
      </trkpt>
      <trkpt lat="42.17521" lon="2.53319">
        <ele>723</ele>
        <time>2010-01-01T03:26:14Z</time>
      </trkpt>
      <trkpt lat="42.17512" lon="2.53316">
        <ele>723</ele>
        <time>2010-01-01T03:26:18Z</time>
      </trkpt>
      <trkpt lat="42.17506" lon="2.53315">
        <ele>724</ele>
        <time>2010-01-01T03:26:20Z</time>
      </trkpt>
      <trkpt lat="42.17507" lon="2.53315">
        <ele>724</ele>
        <time>2010-01-01T03:26:20Z</time>
      </trkpt>
      <trkpt lat="42.17507" lon="2.53315">
        <ele>723</ele>
        <time>2010-01-01T03:26:20Z</time>
      </trkpt>
      <trkpt lat="42.17503" lon="2.53314">
        <ele>724</ele>
        <time>2010-01-01T03:26:22Z</time>
      </trkpt>
      <trkpt lat="42.1749" lon="2.53311">
        <ele>724</ele>
        <time>2010-01-01T03:26:27Z</time>
      </trkpt>
      <trkpt lat="42.17484" lon="2.53311">
        <ele>724</ele>
        <time>2010-01-01T03:26:30Z</time>
      </trkpt>
      <trkpt lat="42.17482" lon="2.5331">
        <ele>724</ele>
        <time>2010-01-01T03:26:31Z</time>
      </trkpt>
      <trkpt lat="42.17467" lon="2.53295">
        <ele>724</ele>
        <time>2010-01-01T03:26:38Z</time>
      </trkpt>
      <trkpt lat="42.1746" lon="2.53286">
        <ele>724</ele>
        <time>2010-01-01T03:26:42Z</time>
      </trkpt>
      <trkpt lat="42.17447" lon="2.53267">
        <ele>724</ele>
        <time>2010-01-01T03:26:50Z</time>
      </trkpt>
      <trkpt lat="42.17442" lon="2.53248">
        <ele>725</ele>
        <time>2010-01-01T03:26:56Z</time>
      </trkpt>
      <trkpt lat="42.17434" lon="2.53226">
        <ele>726</ele>
        <time>2010-01-01T03:27:03Z</time>
      </trkpt>
      <trkpt lat="42.17421" lon="2.5321">
        <ele>727</ele>
        <time>2010-01-01T03:27:10Z</time>
      </trkpt>
      <trkpt lat="42.17411" lon="2.53201">
        <ele>727</ele>
        <time>2010-01-01T03:27:15Z</time>
      </trkpt>
      <trkpt lat="42.17406" lon="2.53188">
        <ele>727</ele>
        <time>2010-01-01T03:27:19Z</time>
      </trkpt>
      <trkpt lat="42.17405" lon="2.53186">
        <ele>727</ele>
        <time>2010-01-01T03:27:20Z</time>
      </trkpt>
      <trkpt lat="42.17405" lon="2.53187">
        <ele>727</ele>
        <time>2010-01-01T03:27:20Z</time>
      </trkpt>
      <trkpt lat="42.17405" lon="2.53188">
        <ele>727</ele>
        <time>2010-01-01T03:27:20Z</time>
      </trkpt>
      <trkpt lat="42.17407" lon="2.53197">
        <ele>727</ele>
        <time>2010-01-01T03:27:23Z</time>
      </trkpt>
      <trkpt lat="42.17408" lon="2.53198">
        <ele>727</ele>
        <time>2010-01-01T03:27:24Z</time>
      </trkpt>
      <trkpt lat="42.17405" lon="2.53193">
        <ele>727</ele>
        <time>2010-01-01T03:27:26Z</time>
      </trkpt>
      <trkpt lat="42.17402" lon="2.5319">
        <ele>727</ele>
        <time>2010-01-01T03:27:27Z</time>
      </trkpt>
      <trkpt lat="42.17401" lon="2.5319">
        <ele>727</ele>
        <time>2010-01-01T03:27:28Z</time>
      </trkpt>
      <trkpt lat="42.17402" lon="2.53189">
        <ele>727</ele>
        <time>2010-01-01T03:27:28Z</time>
      </trkpt>
      <trkpt lat="42.17408" lon="2.53177">
        <ele>727</ele>
        <time>2010-01-01T03:27:32Z</time>
      </trkpt>
      <trkpt lat="42.17413" lon="2.53156">
        <ele>727</ele>
        <time>2010-01-01T03:27:39Z</time>
      </trkpt>
      <trkpt lat="42.17417" lon="2.53136">
        <ele>726</ele>
        <time>2010-01-01T03:27:45Z</time>
      </trkpt>
      <trkpt lat="42.17422" lon="2.53123">
        <ele>725</ele>
        <time>2010-01-01T03:27:49Z</time>
      </trkpt>
      <trkpt lat="42.17431" lon="2.53102">
        <ele>723</ele>
        <time>2010-01-01T03:27:57Z</time>
      </trkpt>
      <trkpt lat="42.17438" lon="2.53079">
        <ele>721</ele>
        <time>2010-01-01T03:28:04Z</time>
      </trkpt>
      <trkpt lat="42.17443" lon="2.5306">
        <ele>720</ele>
        <time>2010-01-01T03:28:10Z</time>
      </trkpt>
      <trkpt lat="42.17445" lon="2.53046">
        <ele>720</ele>
        <time>2010-01-01T03:28:14Z</time>
      </trkpt>
      <trkpt lat="42.17447" lon="2.5303">
        <ele>721</ele>
        <time>2010-01-01T03:28:19Z</time>
      </trkpt>
      <trkpt lat="42.17447" lon="2.53026">
        <ele>722</ele>
        <time>2010-01-01T03:28:20Z</time>
      </trkpt>
      <trkpt lat="42.17445" lon="2.52998">
        <ele>723</ele>
        <time>2010-01-01T03:28:28Z</time>
      </trkpt>
      <trkpt lat="42.17441" lon="2.52979">
        <ele>724</ele>
        <time>2010-01-01T03:28:34Z</time>
      </trkpt>
      <trkpt lat="42.17442" lon="2.52966">
        <ele>725</ele>
        <time>2010-01-01T03:28:38Z</time>
      </trkpt>
      <trkpt lat="42.17451" lon="2.52956">
        <ele>726</ele>
        <time>2010-01-01T03:28:43Z</time>
      </trkpt>
      <trkpt lat="42.17472" lon="2.5295">
        <ele>726</ele>
        <time>2010-01-01T03:28:51Z</time>
      </trkpt>
      <trkpt lat="42.1748" lon="2.52944">
        <ele>726</ele>
        <time>2010-01-01T03:28:55Z</time>
      </trkpt>
      <trkpt lat="42.17488" lon="2.52932">
        <ele>726</ele>
        <time>2010-01-01T03:29:00Z</time>
      </trkpt>
      <trkpt lat="42.17498" lon="2.52917">
        <ele>726</ele>
        <time>2010-01-01T03:29:06Z</time>
      </trkpt>
      <trkpt lat="42.17501" lon="2.52908">
        <ele>725</ele>
        <time>2010-01-01T03:29:09Z</time>
      </trkpt>
      <trkpt lat="42.17502" lon="2.52888">
        <ele>724</ele>
        <time>2010-01-01T03:29:15Z</time>
      </trkpt>
      <trkpt lat="42.17503" lon="2.52874">
        <ele>724</ele>
        <time>2010-01-01T03:29:19Z</time>
      </trkpt>
      <trkpt lat="42.17505" lon="2.52854">
        <ele>724</ele>
        <time>2010-01-01T03:29:25Z</time>
      </trkpt>
      <trkpt lat="42.17508" lon="2.52832">
        <ele>724</ele>
        <time>2010-01-01T03:29:32Z</time>
      </trkpt>
      <trkpt lat="42.17511" lon="2.52823">
        <ele>723</ele>
        <time>2010-01-01T03:29:34Z</time>
      </trkpt>
      <trkpt lat="42.17507" lon="2.52826">
        <ele>724</ele>
        <time>2010-01-01T03:29:36Z</time>
      </trkpt>
      <trkpt lat="42.17505" lon="2.52828">
        <ele>724</ele>
        <time>2010-01-01T03:29:37Z</time>
      </trkpt>
      <trkpt lat="42.17505" lon="2.52829">
        <ele>724</ele>
        <time>2010-01-01T03:29:37Z</time>
      </trkpt>
      <trkpt lat="42.17504" lon="2.52827">
        <ele>724</ele>
        <time>2010-01-01T03:29:38Z</time>
      </trkpt>
      <trkpt lat="42.17506" lon="2.52826">
        <ele>724</ele>
        <time>2010-01-01T03:29:39Z</time>
      </trkpt>
      <trkpt lat="42.17511" lon="2.52809">
        <ele>723</ele>
        <time>2010-01-01T03:29:45Z</time>
      </trkpt>
      <trkpt lat="42.17512" lon="2.52803">
        <ele>723</ele>
        <time>2010-01-01T03:29:46Z</time>
      </trkpt>
      <trkpt lat="42.17515" lon="2.52782">
        <ele>722</ele>
        <time>2010-01-01T03:29:53Z</time>
      </trkpt>
      <trkpt lat="42.17516" lon="2.5277">
        <ele>721</ele>
        <time>2010-01-01T03:29:56Z</time>
      </trkpt>
      <trkpt lat="42.17516" lon="2.52747">
        <ele>719</ele>
        <time>2010-01-01T03:30:03Z</time>
      </trkpt>
      <trkpt lat="42.17516" lon="2.52743">
        <ele>719</ele>
        <time>2010-01-01T03:30:04Z</time>
      </trkpt>
      <trkpt lat="42.17519" lon="2.52719">
        <ele>718</ele>
        <time>2010-01-01T03:30:12Z</time>
      </trkpt>
      <trkpt lat="42.17522" lon="2.52699">
        <ele>717</ele>
        <time>2010-01-01T03:30:18Z</time>
      </trkpt>
      <trkpt lat="42.17528" lon="2.52682">
        <ele>716</ele>
        <time>2010-01-01T03:30:23Z</time>
      </trkpt>
      <trkpt lat="42.17533" lon="2.52649">
        <ele>713</ele>
        <time>2010-01-01T03:30:33Z</time>
      </trkpt>
      <trkpt lat="42.17537" lon="2.52632">
        <ele>712</ele>
        <time>2010-01-01T03:30:38Z</time>
      </trkpt>
      <trkpt lat="42.17542" lon="2.52616">
        <ele>711</ele>
        <time>2010-01-01T03:30:43Z</time>
      </trkpt>
      <trkpt lat="42.17546" lon="2.52599">
        <ele>711</ele>
        <time>2010-01-01T03:30:49Z</time>
      </trkpt>
      <trkpt lat="42.17549" lon="2.52574">
        <ele>712</ele>
        <time>2010-01-01T03:30:56Z</time>
      </trkpt>
      <trkpt lat="42.1755" lon="2.52565">
        <ele>712</ele>
        <time>2010-01-01T03:30:59Z</time>
      </trkpt>
      <trkpt lat="42.17549" lon="2.52556">
        <ele>712</ele>
        <time>2010-01-01T03:31:02Z</time>
      </trkpt>
      <trkpt lat="42.1755" lon="2.52557">
        <ele>712</ele>
        <time>2010-01-01T03:31:02Z</time>
      </trkpt>
      <trkpt lat="42.1755" lon="2.52559">
        <ele>712</ele>
        <time>2010-01-01T03:31:03Z</time>
      </trkpt>
      <trkpt lat="42.17547" lon="2.5256">
        <ele>712</ele>
        <time>2010-01-01T03:31:04Z</time>
      </trkpt>
      <trkpt lat="42.17547" lon="2.52557">
        <ele>712</ele>
        <time>2010-01-01T03:31:05Z</time>
      </trkpt>
      <trkpt lat="42.1755" lon="2.5255">
        <ele>711</ele>
        <time>2010-01-01T03:31:07Z</time>
      </trkpt>
      <trkpt lat="42.17558" lon="2.52542">
        <ele>711</ele>
        <time>2010-01-01T03:31:11Z</time>
      </trkpt>
      <trkpt lat="42.17557" lon="2.52525">
        <ele>710</ele>
        <time>2010-01-01T03:31:16Z</time>
      </trkpt>
      <trkpt lat="42.17555" lon="2.52514">
        <ele>709</ele>
        <time>2010-01-01T03:31:20Z</time>
      </trkpt>
      <trkpt lat="42.17551" lon="2.52486">
        <ele>706</ele>
        <time>2010-01-01T03:31:28Z</time>
      </trkpt>
      <trkpt lat="42.17548" lon="2.52461">
        <ele>703</ele>
        <time>2010-01-01T03:31:36Z</time>
      </trkpt>
      <trkpt lat="42.17544" lon="2.52443">
        <ele>702</ele>
        <time>2010-01-01T03:31:41Z</time>
      </trkpt>
      <trkpt lat="42.17542" lon="2.52417">
        <ele>701</ele>
        <time>2010-01-01T03:31:49Z</time>
      </trkpt>
      <trkpt lat="42.17543" lon="2.52399">
        <ele>701</ele>
        <time>2010-01-01T03:31:54Z</time>
      </trkpt>
      <trkpt lat="42.17544" lon="2.52381">
        <ele>702</ele>
        <time>2010-01-01T03:32:00Z</time>
      </trkpt>
      <trkpt lat="42.17544" lon="2.52364">
        <ele>702</ele>
        <time>2010-01-01T03:32:05Z</time>
      </trkpt>
      <trkpt lat="42.17547" lon="2.52351">
        <ele>703</ele>
        <time>2010-01-01T03:32:09Z</time>
      </trkpt>
      <trkpt lat="42.1755" lon="2.52347">
        <ele>703</ele>
        <time>2010-01-01T03:32:11Z</time>
      </trkpt>
      <trkpt lat="42.17549" lon="2.52345">
        <ele>703</ele>
        <time>2010-01-01T03:32:11Z</time>
      </trkpt>
      <trkpt lat="42.17551" lon="2.52345">
        <ele>703</ele>
        <time>2010-01-01T03:32:12Z</time>
      </trkpt>
      <trkpt lat="42.1755" lon="2.5234">
        <ele>703</ele>
        <time>2010-01-01T03:32:13Z</time>
      </trkpt>
      <trkpt lat="42.17551" lon="2.52336">
        <ele>703</ele>
        <time>2010-01-01T03:32:15Z</time>
      </trkpt>
      <trkpt lat="42.17553" lon="2.52325">
        <ele>703</ele>
        <time>2010-01-01T03:32:18Z</time>
      </trkpt>
      <trkpt lat="42.17561" lon="2.52317">
        <ele>703</ele>
        <time>2010-01-01T03:32:22Z</time>
      </trkpt>
      <trkpt lat="42.17568" lon="2.52302">
        <ele>703</ele>
        <time>2010-01-01T03:32:27Z</time>
      </trkpt>
      <trkpt lat="42.17575" lon="2.52277">
        <ele>703</ele>
        <time>2010-01-01T03:32:35Z</time>
      </trkpt>
      <trkpt lat="42.17576" lon="2.52259">
        <ele>702</ele>
        <time>2010-01-01T03:32:41Z</time>
      </trkpt>
      <trkpt lat="42.17575" lon="2.52249">
        <ele>702</ele>
        <time>2010-01-01T03:32:43Z</time>
      </trkpt>
      <trkpt lat="42.17579" lon="2.5223">
        <ele>701</ele>
        <time>2010-01-01T03:32:49Z</time>
      </trkpt>
      <trkpt lat="42.17579" lon="2.52208">
        <ele>700</ele>
        <time>2010-01-01T03:32:56Z</time>
      </trkpt>
      <trkpt lat="42.17574" lon="2.52193">
        <ele>699</ele>
        <time>2010-01-01T03:33:01Z</time>
      </trkpt>
      <trkpt lat="42.17572" lon="2.52175">
        <ele>697</ele>
        <time>2010-01-01T03:33:06Z</time>
      </trkpt>
      <trkpt lat="42.17567" lon="2.52155">
        <ele>696</ele>
        <time>2010-01-01T03:33:12Z</time>
      </trkpt>
      <trkpt lat="42.17559" lon="2.52141">
        <ele>695</ele>
        <time>2010-01-01T03:33:18Z</time>
      </trkpt>
      <trkpt lat="42.17548" lon="2.5213">
        <ele>693</ele>
        <time>2010-01-01T03:33:23Z</time>
      </trkpt>
      <trkpt lat="42.17531" lon="2.52121">
        <ele>691</ele>
        <time>2010-01-01T03:33:30Z</time>
      </trkpt>
      <trkpt lat="42.17517" lon="2.5212">
        <ele>690</ele>
        <time>2010-01-01T03:33:36Z</time>
      </trkpt>
      <trkpt lat="42.17514" lon="2.5212">
        <ele>690</ele>
        <time>2010-01-01T03:33:37Z</time>
      </trkpt>
      <trkpt lat="42.1751" lon="2.52107">
        <ele>688</ele>
        <time>2010-01-01T03:33:41Z</time>
      </trkpt>
      <trkpt lat="42.17517" lon="2.52088">
        <ele>687</ele>
        <time>2010-01-01T03:33:47Z</time>
      </trkpt>
      <trkpt lat="42.1752" lon="2.52069">
        <ele>684</ele>
        <time>2010-01-01T03:33:53Z</time>
      </trkpt>
      <trkpt lat="42.17521" lon="2.52061">
        <ele>683</ele>
        <time>2010-01-01T03:33:56Z</time>
      </trkpt>
      <trkpt lat="42.1752" lon="2.52043">
        <ele>682</ele>
        <time>2010-01-01T03:34:01Z</time>
      </trkpt>
      <trkpt lat="42.17519" lon="2.52036">
        <ele>681</ele>
        <time>2010-01-01T03:34:03Z</time>
      </trkpt>
      <trkpt lat="42.17519" lon="2.5202">
        <ele>680</ele>
        <time>2010-01-01T03:34:08Z</time>
      </trkpt>
      <trkpt lat="42.17519" lon="2.52014">
        <ele>679</ele>
        <time>2010-01-01T03:34:10Z</time>
      </trkpt>
      <trkpt lat="42.17525" lon="2.51999">
        <ele>678</ele>
        <time>2010-01-01T03:34:15Z</time>
      </trkpt>
      <trkpt lat="42.1753" lon="2.5198">
        <ele>676</ele>
        <time>2010-01-01T03:34:21Z</time>
      </trkpt>
      <trkpt lat="42.17531" lon="2.51974">
        <ele>676</ele>
        <time>2010-01-01T03:34:23Z</time>
      </trkpt>
      <trkpt lat="42.17536" lon="2.51956">
        <ele>674</ele>
        <time>2010-01-01T03:34:28Z</time>
      </trkpt>
      <trkpt lat="42.17537" lon="2.51952">
        <ele>673</ele>
        <time>2010-01-01T03:34:29Z</time>
      </trkpt>
      <trkpt lat="42.17537" lon="2.51927">
        <ele>669</ele>
        <time>2010-01-01T03:34:37Z</time>
      </trkpt>
      <trkpt lat="42.17538" lon="2.51908">
        <ele>665</ele>
        <time>2010-01-01T03:34:42Z</time>
      </trkpt>
      <trkpt lat="42.17541" lon="2.5189">
        <ele>661</ele>
        <time>2010-01-01T03:34:48Z</time>
      </trkpt>
      <trkpt lat="42.17542" lon="2.51887">
        <ele>661</ele>
        <time>2010-01-01T03:34:49Z</time>
      </trkpt>
      <trkpt lat="42.17542" lon="2.51866">
        <ele>658</ele>
        <time>2010-01-01T03:34:55Z</time>
      </trkpt>
      <trkpt lat="42.17543" lon="2.51861">
        <ele>657</ele>
        <time>2010-01-01T03:34:57Z</time>
      </trkpt>
      <trkpt lat="42.17542" lon="2.5186">
        <ele>657</ele>
        <time>2010-01-01T03:34:57Z</time>
      </trkpt>
      <trkpt lat="42.17541" lon="2.51859">
        <ele>657</ele>
        <time>2010-01-01T03:34:58Z</time>
      </trkpt>
      <trkpt lat="42.1754" lon="2.51859">
        <ele>657</ele>
        <time>2010-01-01T03:34:58Z</time>
      </trkpt>
      <trkpt lat="42.17538" lon="2.5186">
        <ele>657</ele>
        <time>2010-01-01T03:34:59Z</time>
      </trkpt>
      <trkpt lat="42.1754" lon="2.51856">
        <ele>657</ele>
        <time>2010-01-01T03:35:00Z</time>
      </trkpt>
      <trkpt lat="42.17541" lon="2.5185">
        <ele>656</ele>
        <time>2010-01-01T03:35:02Z</time>
      </trkpt>
      <trkpt lat="42.17541" lon="2.5185">
        <ele>656</ele>
        <time>2010-01-01T03:35:02Z</time>
      </trkpt>
      <trkpt lat="42.1754" lon="2.51851">
        <ele>657</ele>
        <time>2010-01-01T03:35:03Z</time>
      </trkpt>
      <trkpt lat="42.17542" lon="2.51848">
        <ele>656</ele>
        <time>2010-01-01T03:35:04Z</time>
      </trkpt>
      <trkpt lat="42.17543" lon="2.51847">
        <ele>656</ele>
        <time>2010-01-01T03:35:05Z</time>
      </trkpt>
      <trkpt lat="42.17546" lon="2.51842">
        <ele>656</ele>
        <time>2010-01-01T03:35:06Z</time>
      </trkpt>
      <trkpt lat="42.17551" lon="2.51835">
        <ele>655</ele>
        <time>2010-01-01T03:35:09Z</time>
      </trkpt>
      <trkpt lat="42.17553" lon="2.51829">
        <ele>655</ele>
        <time>2010-01-01T03:35:12Z</time>
      </trkpt>
      <trkpt lat="42.17557" lon="2.51823">
        <ele>655</ele>
        <time>2010-01-01T03:35:14Z</time>
      </trkpt>
      <trkpt lat="42.17558" lon="2.51822">
        <ele>655</ele>
        <time>2010-01-01T03:35:14Z</time>
      </trkpt>
      <trkpt lat="42.17562" lon="2.51814">
        <ele>655</ele>
        <time>2010-01-01T03:35:17Z</time>
      </trkpt>
      <trkpt lat="42.17569" lon="2.51807">
        <ele>654</ele>
        <time>2010-01-01T03:35:21Z</time>
      </trkpt>
      <trkpt lat="42.17572" lon="2.51801">
        <ele>654</ele>
        <time>2010-01-01T03:35:23Z</time>
      </trkpt>
      <trkpt lat="42.17573" lon="2.51791">
        <ele>654</ele>
        <time>2010-01-01T03:35:26Z</time>
      </trkpt>
      <trkpt lat="42.17578" lon="2.51764">
        <ele>653</ele>
        <time>2010-01-01T03:35:34Z</time>
      </trkpt>
      <trkpt lat="42.17577" lon="2.51745">
        <ele>651</ele>
        <time>2010-01-01T03:35:40Z</time>
      </trkpt>
      <trkpt lat="42.17576" lon="2.51737">
        <ele>650</ele>
        <time>2010-01-01T03:35:42Z</time>
      </trkpt>
      <trkpt lat="42.17572" lon="2.51719">
        <ele>649</ele>
        <time>2010-01-01T03:35:47Z</time>
      </trkpt>
      <trkpt lat="42.1757" lon="2.51714">
        <ele>648</ele>
        <time>2010-01-01T03:35:49Z</time>
      </trkpt>
      <trkpt lat="42.17566" lon="2.51692">
        <ele>647</ele>
        <time>2010-01-01T03:35:56Z</time>
      </trkpt>
      <trkpt lat="42.17566" lon="2.5169">
        <ele>647</ele>
        <time>2010-01-01T03:35:56Z</time>
      </trkpt>
      <trkpt lat="42.17567" lon="2.51693">
        <ele>647</ele>
        <time>2010-01-01T03:35:57Z</time>
      </trkpt>
      <trkpt lat="42.17568" lon="2.51693">
        <ele>647</ele>
        <time>2010-01-01T03:35:58Z</time>
      </trkpt>
      <trkpt lat="42.17568" lon="2.51694">
        <ele>647</ele>
        <time>2010-01-01T03:35:58Z</time>
      </trkpt>
      <trkpt lat="42.17568" lon="2.51695">
        <ele>647</ele>
        <time>2010-01-01T03:35:58Z</time>
      </trkpt>
      <trkpt lat="42.17569" lon="2.51697">
        <ele>648</ele>
        <time>2010-01-01T03:35:59Z</time>
      </trkpt>
      <trkpt lat="42.17568" lon="2.5169">
        <ele>647</ele>
        <time>2010-01-01T03:36:01Z</time>
      </trkpt>
      <trkpt lat="42.17568" lon="2.51688">
        <ele>647</ele>
        <time>2010-01-01T03:36:02Z</time>
      </trkpt>
      <trkpt lat="42.17568" lon="2.51681">
        <ele>647</ele>
        <time>2010-01-01T03:36:04Z</time>
      </trkpt>
      <trkpt lat="42.17566" lon="2.5166">
        <ele>646</ele>
        <time>2010-01-01T03:36:10Z</time>
      </trkpt>
      <trkpt lat="42.17563" lon="2.51639">
        <ele>644</ele>
        <time>2010-01-01T03:36:16Z</time>
      </trkpt>
      <trkpt lat="42.17564" lon="2.51632">
        <ele>644</ele>
        <time>2010-01-01T03:36:18Z</time>
      </trkpt>
      <trkpt lat="42.17568" lon="2.51618">
        <ele>643</ele>
        <time>2010-01-01T03:36:23Z</time>
      </trkpt>
      <trkpt lat="42.17566" lon="2.51597">
        <ele>641</ele>
        <time>2010-01-01T03:36:29Z</time>
      </trkpt>
      <trkpt lat="42.17558" lon="2.51578">
        <ele>640</ele>
        <time>2010-01-01T03:36:35Z</time>
      </trkpt>
      <trkpt lat="42.1755" lon="2.51556">
        <ele>641</ele>
        <time>2010-01-01T03:36:43Z</time>
      </trkpt>
      <trkpt lat="42.17547" lon="2.51533">
        <ele>640</ele>
        <time>2010-01-01T03:36:50Z</time>
      </trkpt>
      <trkpt lat="42.17546" lon="2.51529">
        <ele>640</ele>
        <time>2010-01-01T03:36:51Z</time>
      </trkpt>
      <trkpt lat="42.17547" lon="2.51527">
        <ele>640</ele>
        <time>2010-01-01T03:36:52Z</time>
      </trkpt>
      <trkpt lat="42.17547" lon="2.51524">
        <ele>640</ele>
        <time>2010-01-01T03:36:53Z</time>
      </trkpt>
      <trkpt lat="42.17549" lon="2.51523">
        <ele>640</ele>
        <time>2010-01-01T03:36:53Z</time>
      </trkpt>
      <trkpt lat="42.17549" lon="2.51523">
        <ele>640</ele>
        <time>2010-01-01T03:36:53Z</time>
      </trkpt>
      <trkpt lat="42.1755" lon="2.51525">
        <ele>640</ele>
        <time>2010-01-01T03:36:54Z</time>
      </trkpt>
      <trkpt lat="42.17552" lon="2.51523">
        <ele>640</ele>
        <time>2010-01-01T03:36:55Z</time>
      </trkpt>
      <trkpt lat="42.17551" lon="2.51523">
        <ele>640</ele>
        <time>2010-01-01T03:36:55Z</time>
      </trkpt>
      <trkpt lat="42.17553" lon="2.51518">
        <ele>640</ele>
        <time>2010-01-01T03:36:57Z</time>
      </trkpt>
      <trkpt lat="42.17555" lon="2.51513">
        <ele>640</ele>
        <time>2010-01-01T03:36:59Z</time>
      </trkpt>
      <trkpt lat="42.1756" lon="2.515">
        <ele>639</ele>
        <time>2010-01-01T03:37:03Z</time>
      </trkpt>
      <trkpt lat="42.17564" lon="2.51483">
        <ele>638</ele>
        <time>2010-01-01T03:37:08Z</time>
      </trkpt>
      <trkpt lat="42.17571" lon="2.51469">
        <ele>637</ele>
        <time>2010-01-01T03:37:13Z</time>
      </trkpt>
      <trkpt lat="42.17577" lon="2.51461">
        <ele>635</ele>
        <time>2010-01-01T03:37:17Z</time>
      </trkpt>
      <trkpt lat="42.17576" lon="2.51464">
        <ele>636</ele>
        <time>2010-01-01T03:37:18Z</time>
      </trkpt>
      <trkpt lat="42.17576" lon="2.51465">
        <ele>636</ele>
        <time>2010-01-01T03:37:18Z</time>
      </trkpt>
      <trkpt lat="42.17571" lon="2.51472">
        <ele>637</ele>
        <time>2010-01-01T03:37:21Z</time>
      </trkpt>
      <trkpt lat="42.17577" lon="2.51461">
        <ele>635</ele>
        <time>2010-01-01T03:37:25Z</time>
      </trkpt>
      <trkpt lat="42.17587" lon="2.51444">
        <ele>633</ele>
        <time>2010-01-01T03:37:32Z</time>
      </trkpt>
      <trkpt lat="42.17599" lon="2.51428">
        <ele>632</ele>
        <time>2010-01-01T03:37:38Z</time>
      </trkpt>
      <trkpt lat="42.176" lon="2.51426">
        <ele>632</ele>
        <time>2010-01-01T03:37:39Z</time>
      </trkpt>
      <trkpt lat="42.17601" lon="2.51426">
        <ele>632</ele>
        <time>2010-01-01T03:37:40Z</time>
      </trkpt>
      <trkpt lat="42.17601" lon="2.51425">
        <ele>632</ele>
        <time>2010-01-01T03:37:40Z</time>
      </trkpt>
      <trkpt lat="42.17606" lon="2.51413">
        <ele>631</ele>
        <time>2010-01-01T03:37:44Z</time>
      </trkpt>
      <trkpt lat="42.17607" lon="2.51413">
        <ele>631</ele>
        <time>2010-01-01T03:37:44Z</time>
      </trkpt>
      <trkpt lat="42.17608" lon="2.51397">
        <ele>631</ele>
        <time>2010-01-01T03:37:49Z</time>
      </trkpt>
      <trkpt lat="42.1761" lon="2.51391">
        <ele>631</ele>
        <time>2010-01-01T03:37:51Z</time>
      </trkpt>
      <trkpt lat="42.17612" lon="2.51381">
        <ele>631</ele>
        <time>2010-01-01T03:37:54Z</time>
      </trkpt>
      <trkpt lat="42.17615" lon="2.51366">
        <ele>631</ele>
        <time>2010-01-01T03:37:59Z</time>
      </trkpt>
      <trkpt lat="42.17618" lon="2.51343">
        <ele>631</ele>
        <time>2010-01-01T03:38:05Z</time>
      </trkpt>
      <trkpt lat="42.17616" lon="2.51323">
        <ele>632</ele>
        <time>2010-01-01T03:38:11Z</time>
      </trkpt>
      <trkpt lat="42.17617" lon="2.51311">
        <ele>632</ele>
        <time>2010-01-01T03:38:15Z</time>
      </trkpt>
      <trkpt lat="42.17614" lon="2.51302">
        <ele>632</ele>
        <time>2010-01-01T03:38:18Z</time>
      </trkpt>
      <trkpt lat="42.17618" lon="2.51311">
        <ele>632</ele>
        <time>2010-01-01T03:38:21Z</time>
      </trkpt>
      <trkpt lat="42.17617" lon="2.51312">
        <ele>632</ele>
        <time>2010-01-01T03:38:21Z</time>
      </trkpt>
      <trkpt lat="42.17616" lon="2.51314">
        <ele>632</ele>
        <time>2010-01-01T03:38:22Z</time>
      </trkpt>
      <trkpt lat="42.17614" lon="2.51317">
        <ele>632</ele>
        <time>2010-01-01T03:38:23Z</time>
      </trkpt>
      <trkpt lat="42.17614" lon="2.5132">
        <ele>632</ele>
        <time>2010-01-01T03:38:24Z</time>
      </trkpt>
      <trkpt lat="42.17614" lon="2.5132">
        <ele>632</ele>
        <time>2010-01-01T03:38:24Z</time>
      </trkpt>
      <trkpt lat="42.17614" lon="2.51316">
        <ele>632</ele>
        <time>2010-01-01T03:38:25Z</time>
      </trkpt>
      <trkpt lat="42.17614" lon="2.51308">
        <ele>632</ele>
        <time>2010-01-01T03:38:28Z</time>
      </trkpt>
      <trkpt lat="42.17614" lon="2.51304">
        <ele>632</ele>
        <time>2010-01-01T03:38:29Z</time>
      </trkpt>
      <trkpt lat="42.17612" lon="2.51292">
        <ele>632</ele>
        <time>2010-01-01T03:38:33Z</time>
      </trkpt>
      <trkpt lat="42.1761" lon="2.51284">
        <ele>631</ele>
        <time>2010-01-01T03:38:35Z</time>
      </trkpt>
      <trkpt lat="42.17607" lon="2.5127">
        <ele>631</ele>
        <time>2010-01-01T03:38:40Z</time>
      </trkpt>
      <trkpt lat="42.17603" lon="2.51246">
        <ele>629</ele>
        <time>2010-01-01T03:38:47Z</time>
      </trkpt>
      <trkpt lat="42.17601" lon="2.51225">
        <ele>627</ele>
        <time>2010-01-01T03:38:53Z</time>
      </trkpt>
      <trkpt lat="42.17593" lon="2.51199">
        <ele>624</ele>
        <time>2010-01-01T03:39:01Z</time>
      </trkpt>
      <trkpt lat="42.17587" lon="2.51183">
        <ele>623</ele>
        <time>2010-01-01T03:39:07Z</time>
      </trkpt>
      <trkpt lat="42.17585" lon="2.51176">
        <ele>622</ele>
        <time>2010-01-01T03:39:09Z</time>
      </trkpt>
      <trkpt lat="42.17582" lon="2.51157">
        <ele>620</ele>
        <time>2010-01-01T03:39:15Z</time>
      </trkpt>
      <trkpt lat="42.17579" lon="2.51151">
        <ele>619</ele>
        <time>2010-01-01T03:39:17Z</time>
      </trkpt>
      <trkpt lat="42.17574" lon="2.51133">
        <ele>616</ele>
        <time>2010-01-01T03:39:23Z</time>
      </trkpt>
      <trkpt lat="42.1757" lon="2.51117">
        <ele>615</ele>
        <time>2010-01-01T03:39:28Z</time>
      </trkpt>
      <trkpt lat="42.17565" lon="2.51096">
        <ele>613</ele>
        <time>2010-01-01T03:39:34Z</time>
      </trkpt>
      <trkpt lat="42.17561" lon="2.51079">
        <ele>612</ele>
        <time>2010-01-01T03:39:39Z</time>
      </trkpt>
      <trkpt lat="42.17552" lon="2.51059">
        <ele>609</ele>
        <time>2010-01-01T03:39:46Z</time>
      </trkpt>
      <trkpt lat="42.17541" lon="2.51038">
        <ele>607</ele>
        <time>2010-01-01T03:39:54Z</time>
      </trkpt>
      <trkpt lat="42.17535" lon="2.51021">
        <ele>606</ele>
        <time>2010-01-01T03:40:00Z</time>
      </trkpt>
      <trkpt lat="42.17536" lon="2.51001">
        <ele>604</ele>
        <time>2010-01-01T03:40:05Z</time>
      </trkpt>
      <trkpt lat="42.17535" lon="2.50998">
        <ele>604</ele>
        <time>2010-01-01T03:40:06Z</time>
      </trkpt>
      <trkpt lat="42.17533" lon="2.50973">
        <ele>602</ele>
        <time>2010-01-01T03:40:14Z</time>
      </trkpt>
      <trkpt lat="42.17531" lon="2.50954">
        <ele>601</ele>
        <time>2010-01-01T03:40:20Z</time>
      </trkpt>
      <trkpt lat="42.17528" lon="2.50934">
        <ele>599</ele>
        <time>2010-01-01T03:40:26Z</time>
      </trkpt>
      <trkpt lat="42.17524" lon="2.50913">
        <ele>597</ele>
        <time>2010-01-01T03:40:32Z</time>
      </trkpt>
      <trkpt lat="42.17524" lon="2.509">
        <ele>595</ele>
        <time>2010-01-01T03:40:36Z</time>
      </trkpt>
      <trkpt lat="42.17527" lon="2.50882">
        <ele>592</ele>
        <time>2010-01-01T03:40:41Z</time>
      </trkpt>
      <trkpt lat="42.1753" lon="2.50866">
        <ele>590</ele>
        <time>2010-01-01T03:40:46Z</time>
      </trkpt>
      <trkpt lat="42.1753" lon="2.50843">
        <ele>588</ele>
        <time>2010-01-01T03:40:53Z</time>
      </trkpt>
      <trkpt lat="42.17534" lon="2.50825">
        <ele>587</ele>
        <time>2010-01-01T03:40:59Z</time>
      </trkpt>
      <trkpt lat="42.17535" lon="2.50822">
        <ele>586</ele>
        <time>2010-01-01T03:41:00Z</time>
      </trkpt>
      <trkpt lat="42.17539" lon="2.50814">
        <ele>586</ele>
        <time>2010-01-01T03:41:03Z</time>
      </trkpt>
      <trkpt lat="42.17548" lon="2.50803">
        <ele>585</ele>
        <time>2010-01-01T03:41:07Z</time>
      </trkpt>
      <trkpt lat="42.17553" lon="2.50797">
        <ele>584</ele>
        <time>2010-01-01T03:41:10Z</time>
      </trkpt>
      <trkpt lat="42.17557" lon="2.50792">
        <ele>584</ele>
        <time>2010-01-01T03:41:12Z</time>
      </trkpt>
      <trkpt lat="42.17557" lon="2.50777">
        <ele>583</ele>
        <time>2010-01-01T03:41:16Z</time>
      </trkpt>
      <trkpt lat="42.17556" lon="2.50767">
        <ele>583</ele>
        <time>2010-01-01T03:41:20Z</time>
      </trkpt>
      <trkpt lat="42.17555" lon="2.50755">
        <ele>582</ele>
        <time>2010-01-01T03:41:23Z</time>
      </trkpt>
      <trkpt lat="42.17563" lon="2.50748">
        <ele>581</ele>
        <time>2010-01-01T03:41:27Z</time>
      </trkpt>
      <trkpt lat="42.17573" lon="2.50742">
        <ele>580</ele>
        <time>2010-01-01T03:41:31Z</time>
      </trkpt>
      <trkpt lat="42.17583" lon="2.50738">
        <ele>579</ele>
        <time>2010-01-01T03:41:36Z</time>
      </trkpt>
      <trkpt lat="42.17595" lon="2.50732">
        <ele>578</ele>
        <time>2010-01-01T03:41:41Z</time>
      </trkpt>
      <trkpt lat="42.1761" lon="2.50721">
        <ele>576</ele>
        <time>2010-01-01T03:41:47Z</time>
      </trkpt>
      <trkpt lat="42.17622" lon="2.50714">
        <ele>576</ele>
        <time>2010-01-01T03:41:52Z</time>
      </trkpt>
      <trkpt lat="42.17632" lon="2.50702">
        <ele>574</ele>
        <time>2010-01-01T03:41:58Z</time>
      </trkpt>
      <trkpt lat="42.17641" lon="2.50685">
        <ele>573</ele>
        <time>2010-01-01T03:42:04Z</time>
      </trkpt>
      <trkpt lat="42.17652" lon="2.50671">
        <ele>571</ele>
        <time>2010-01-01T03:42:10Z</time>
      </trkpt>
      <trkpt lat="42.17664" lon="2.50672">
        <ele>570</ele>
        <time>2010-01-01T03:42:15Z</time>
      </trkpt>
      <trkpt lat="42.17671" lon="2.50673">
        <ele>570</ele>
        <time>2010-01-01T03:42:18Z</time>
      </trkpt>
      <trkpt lat="42.1769" lon="2.50663">
        <ele>569</ele>
        <time>2010-01-01T03:42:26Z</time>
      </trkpt>
      <trkpt lat="42.17704" lon="2.50653">
        <ele>569</ele>
        <time>2010-01-01T03:42:33Z</time>
      </trkpt>
      <trkpt lat="42.1772" lon="2.50645">
        <ele>569</ele>
        <time>2010-01-01T03:42:39Z</time>
      </trkpt>
      <trkpt lat="42.17732" lon="2.50639">
        <ele>569</ele>
        <time>2010-01-01T03:42:44Z</time>
      </trkpt>
      <trkpt lat="42.17745" lon="2.50635">
        <ele>569</ele>
        <time>2010-01-01T03:42:50Z</time>
      </trkpt>
      <trkpt lat="42.17756" lon="2.50625">
        <ele>569</ele>
        <time>2010-01-01T03:42:55Z</time>
      </trkpt>
      <trkpt lat="42.17769" lon="2.50614">
        <ele>568</ele>
        <time>2010-01-01T03:43:01Z</time>
      </trkpt>
      <trkpt lat="42.17779" lon="2.50608">
        <ele>569</ele>
        <time>2010-01-01T03:43:06Z</time>
      </trkpt>
      <trkpt lat="42.17792" lon="2.50601">
        <ele>570</ele>
        <time>2010-01-01T03:43:11Z</time>
      </trkpt>
      <trkpt lat="42.17794" lon="2.506">
        <ele>570</ele>
        <time>2010-01-01T03:43:12Z</time>
      </trkpt>
      <trkpt lat="42.17804" lon="2.50589">
        <ele>571</ele>
        <time>2010-01-01T03:43:17Z</time>
      </trkpt>
      <trkpt lat="42.17806" lon="2.5058">
        <ele>570</ele>
        <time>2010-01-01T03:43:20Z</time>
      </trkpt>
      <trkpt lat="42.17807" lon="2.50562">
        <ele>568</ele>
        <time>2010-01-01T03:43:25Z</time>
      </trkpt>
      <trkpt lat="42.17807" lon="2.50564">
        <ele>568</ele>
        <time>2010-01-01T03:43:26Z</time>
      </trkpt>
      <trkpt lat="42.17809" lon="2.50577">
        <ele>570</ele>
        <time>2010-01-01T03:43:30Z</time>
      </trkpt>
      <trkpt lat="42.17809" lon="2.50578">
        <ele>570</ele>
        <time>2010-01-01T03:43:30Z</time>
      </trkpt>
      <trkpt lat="42.17809" lon="2.50576">
        <ele>570</ele>
        <time>2010-01-01T03:43:30Z</time>
      </trkpt>
      <trkpt lat="42.1781" lon="2.50556">
        <ele>567</ele>
        <time>2010-01-01T03:43:37Z</time>
      </trkpt>
      <trkpt lat="42.17812" lon="2.50535">
        <ele>564</ele>
        <time>2010-01-01T03:43:43Z</time>
      </trkpt>
      <trkpt lat="42.17816" lon="2.50517">
        <ele>561</ele>
        <time>2010-01-01T03:43:48Z</time>
      </trkpt>
      <trkpt lat="42.17816" lon="2.50512">
        <ele>561</ele>
        <time>2010-01-01T03:43:50Z</time>
      </trkpt>
      <trkpt lat="42.17816" lon="2.50513">
        <ele>561</ele>
        <time>2010-01-01T03:43:50Z</time>
      </trkpt>
      <trkpt lat="42.17816" lon="2.50515">
        <ele>561</ele>
        <time>2010-01-01T03:43:51Z</time>
      </trkpt>
      <trkpt lat="42.17817" lon="2.50509">
        <ele>560</ele>
        <time>2010-01-01T03:43:53Z</time>
      </trkpt>
      <trkpt lat="42.17817" lon="2.50501">
        <ele>559</ele>
        <time>2010-01-01T03:43:55Z</time>
      </trkpt>
      <trkpt lat="42.1782" lon="2.50486">
        <ele>557</ele>
        <time>2010-01-01T03:43:59Z</time>
      </trkpt>
      <trkpt lat="42.17821" lon="2.50468">
        <ele>555</ele>
        <time>2010-01-01T03:44:05Z</time>
      </trkpt>
      <trkpt lat="42.17825" lon="2.50454">
        <ele>553</ele>
        <time>2010-01-01T03:44:09Z</time>
      </trkpt>
      <trkpt lat="42.17831" lon="2.50441">
        <ele>552</ele>
        <time>2010-01-01T03:44:14Z</time>
      </trkpt>
      <trkpt lat="42.17834" lon="2.50434">
        <ele>552</ele>
        <time>2010-01-01T03:44:16Z</time>
      </trkpt>
      <trkpt lat="42.17833" lon="2.50417">
        <ele>551</ele>
        <time>2010-01-01T03:44:22Z</time>
      </trkpt>
      <trkpt lat="42.17835" lon="2.504">
        <ele>549</ele>
        <time>2010-01-01T03:44:27Z</time>
      </trkpt>
      <trkpt lat="42.17842" lon="2.50388">
        <ele>546</ele>
        <time>2010-01-01T03:44:31Z</time>
      </trkpt>
      <trkpt lat="42.17845" lon="2.50382">
        <ele>545</ele>
        <time>2010-01-01T03:44:33Z</time>
      </trkpt>
      <trkpt lat="42.17849" lon="2.50359">
        <ele>541</ele>
        <time>2010-01-01T03:44:40Z</time>
      </trkpt>
      <trkpt lat="42.17853" lon="2.50343">
        <ele>539</ele>
        <time>2010-01-01T03:44:45Z</time>
      </trkpt>
      <trkpt lat="42.17856" lon="2.50324">
        <ele>536</ele>
        <time>2010-01-01T03:44:51Z</time>
      </trkpt>
      <trkpt lat="42.17859" lon="2.50317">
        <ele>535</ele>
        <time>2010-01-01T03:44:53Z</time>
      </trkpt>
      <trkpt lat="42.17862" lon="2.50313">
        <ele>534</ele>
        <time>2010-01-01T03:44:55Z</time>
      </trkpt>
      <trkpt lat="42.17865" lon="2.50314">
        <ele>534</ele>
        <time>2010-01-01T03:44:56Z</time>
      </trkpt>
      <trkpt lat="42.17866" lon="2.50311">
        <ele>534</ele>
        <time>2010-01-01T03:44:57Z</time>
      </trkpt>
      <trkpt lat="42.17873" lon="2.50296">
        <ele>531</ele>
        <time>2010-01-01T03:45:03Z</time>
      </trkpt>
      <trkpt lat="42.17874" lon="2.50294">
        <ele>531</ele>
        <time>2010-01-01T03:45:03Z</time>
      </trkpt>
      <trkpt lat="42.17877" lon="2.50287">
        <ele>529</ele>
        <time>2010-01-01T03:45:06Z</time>
      </trkpt>
      <trkpt lat="42.17881" lon="2.50286">
        <ele>529</ele>
        <time>2010-01-01T03:45:07Z</time>
      </trkpt>
      <trkpt lat="42.17885" lon="2.50276">
        <ele>527</ele>
        <time>2010-01-01T03:45:11Z</time>
      </trkpt>
      <trkpt lat="42.17889" lon="2.50268">
        <ele>525</ele>
        <time>2010-01-01T03:45:13Z</time>
      </trkpt>
      <trkpt lat="42.17895" lon="2.50259">
        <ele>523</ele>
        <time>2010-01-01T03:45:17Z</time>
      </trkpt>
      <trkpt lat="42.179" lon="2.50246">
        <ele>520</ele>
        <time>2010-01-01T03:45:21Z</time>
      </trkpt>
      <trkpt lat="42.17903" lon="2.50233">
        <ele>519</ele>
        <time>2010-01-01T03:45:25Z</time>
      </trkpt>
      <trkpt lat="42.17906" lon="2.50215">
        <ele>518</ele>
        <time>2010-01-01T03:45:31Z</time>
      </trkpt>
      <trkpt lat="42.17912" lon="2.50203">
        <ele>517</ele>
        <time>2010-01-01T03:45:35Z</time>
      </trkpt>
      <trkpt lat="42.17915" lon="2.50187">
        <ele>517</ele>
        <time>2010-01-01T03:45:40Z</time>
      </trkpt>
      <trkpt lat="42.17918" lon="2.50165">
        <ele>516</ele>
        <time>2010-01-01T03:45:46Z</time>
      </trkpt>
      <trkpt lat="42.17927" lon="2.50156">
        <ele>512</ele>
        <time>2010-01-01T03:45:51Z</time>
      </trkpt>
      <trkpt lat="42.17934" lon="2.50145">
        <ele>509</ele>
        <time>2010-01-01T03:45:55Z</time>
      </trkpt>
      <trkpt lat="42.1794" lon="2.50134">
        <ele>506</ele>
        <time>2010-01-01T03:45:59Z</time>
      </trkpt>
      <trkpt lat="42.17944" lon="2.50118">
        <ele>505</ele>
        <time>2010-01-01T03:46:04Z</time>
      </trkpt>
      <trkpt lat="42.17948" lon="2.50102">
        <ele>504</ele>
        <time>2010-01-01T03:46:09Z</time>
      </trkpt>
      <trkpt lat="42.17954" lon="2.50088">
        <ele>503</ele>
        <time>2010-01-01T03:46:14Z</time>
      </trkpt>
      <trkpt lat="42.17953" lon="2.50085">
        <ele>503</ele>
        <time>2010-01-01T03:46:15Z</time>
      </trkpt>
      <trkpt lat="42.17948" lon="2.50071">
        <ele>502</ele>
        <time>2010-01-01T03:46:19Z</time>
      </trkpt>
      <trkpt lat="42.17954" lon="2.50052">
        <ele>499</ele>
        <time>2010-01-01T03:46:26Z</time>
      </trkpt>
      <trkpt lat="42.17963" lon="2.50039">
        <ele>496</ele>
        <time>2010-01-01T03:46:31Z</time>
      </trkpt>
      <trkpt lat="42.17969" lon="2.5003">
        <ele>493</ele>
        <time>2010-01-01T03:46:35Z</time>
      </trkpt>
      <trkpt lat="42.17975" lon="2.50013">
        <ele>490</ele>
        <time>2010-01-01T03:46:40Z</time>
      </trkpt>
      <trkpt lat="42.17977" lon="2.50002">
        <ele>488</ele>
        <time>2010-01-01T03:46:44Z</time>
      </trkpt>
      <trkpt lat="42.17973" lon="2.49985">
        <ele>487</ele>
        <time>2010-01-01T03:46:49Z</time>
      </trkpt>
      <trkpt lat="42.1797" lon="2.49969">
        <ele>486</ele>
        <time>2010-01-01T03:46:54Z</time>
      </trkpt>
      <trkpt lat="42.17974" lon="2.49963">
        <ele>485</ele>
        <time>2010-01-01T03:46:56Z</time>
      </trkpt>
      <trkpt lat="42.17986" lon="2.49957">
        <ele>482</ele>
        <time>2010-01-01T03:47:01Z</time>
      </trkpt>
      <trkpt lat="42.17996" lon="2.49946">
        <ele>480</ele>
        <time>2010-01-01T03:47:06Z</time>
      </trkpt>
      <trkpt lat="42.17999" lon="2.49937">
        <ele>479</ele>
        <time>2010-01-01T03:47:09Z</time>
      </trkpt>
      <trkpt lat="42.17998" lon="2.49923">
        <ele>477</ele>
        <time>2010-01-01T03:47:13Z</time>
      </trkpt>
      <trkpt lat="42.17997" lon="2.49906">
        <ele>475</ele>
        <time>2010-01-01T03:47:18Z</time>
      </trkpt>
      <trkpt lat="42.17996" lon="2.49896">
        <ele>473</ele>
        <time>2010-01-01T03:47:21Z</time>
      </trkpt>
      <trkpt lat="42.17996" lon="2.49889">
        <ele>472</ele>
        <time>2010-01-01T03:47:23Z</time>
      </trkpt>
      <trkpt lat="42.17996" lon="2.49889">
        <ele>472</ele>
        <time>2010-01-01T03:47:23Z</time>
      </trkpt>
      <trkpt lat="42.17993" lon="2.49883">
        <ele>472</ele>
        <time>2010-01-01T03:47:26Z</time>
      </trkpt>
      <trkpt lat="42.17985" lon="2.49864">
        <ele>470</ele>
        <time>2010-01-01T03:47:32Z</time>
      </trkpt>
      <trkpt lat="42.17983" lon="2.49846">
        <ele>468</ele>
        <time>2010-01-01T03:47:37Z</time>
      </trkpt>
      <trkpt lat="42.17985" lon="2.49827">
        <ele>465</ele>
        <time>2010-01-01T03:47:43Z</time>
      </trkpt>
      <trkpt lat="42.17987" lon="2.49811">
        <ele>463</ele>
        <time>2010-01-01T03:47:48Z</time>
      </trkpt>
      <trkpt lat="42.17989" lon="2.49786">
        <ele>460</ele>
        <time>2010-01-01T03:47:55Z</time>
      </trkpt>
      <trkpt lat="42.17992" lon="2.49769">
        <ele>459</ele>
        <time>2010-01-01T03:48:01Z</time>
      </trkpt>
      <trkpt lat="42.17998" lon="2.49748">
        <ele>458</ele>
        <time>2010-01-01T03:48:07Z</time>
      </trkpt>
      <trkpt lat="42.18001" lon="2.49732">
        <ele>457</ele>
        <time>2010-01-01T03:48:12Z</time>
      </trkpt>
      <trkpt lat="42.18002" lon="2.49723">
        <ele>456</ele>
        <time>2010-01-01T03:48:15Z</time>
      </trkpt>
      <trkpt lat="42.18004" lon="2.4972">
        <ele>456</ele>
        <time>2010-01-01T03:48:16Z</time>
      </trkpt>
      <trkpt lat="42.18005" lon="2.49721">
        <ele>456</ele>
        <time>2010-01-01T03:48:17Z</time>
      </trkpt>
      <trkpt lat="42.18005" lon="2.49718">
        <ele>456</ele>
        <time>2010-01-01T03:48:17Z</time>
      </trkpt>
      <trkpt lat="42.18004" lon="2.4972">
        <ele>456</ele>
        <time>2010-01-01T03:48:18Z</time>
      </trkpt>
      <trkpt lat="42.18003" lon="2.49722">
        <ele>456</ele>
        <time>2010-01-01T03:48:19Z</time>
      </trkpt>
      <trkpt lat="42.18003" lon="2.49727">
        <ele>456</ele>
        <time>2010-01-01T03:48:20Z</time>
      </trkpt>
      <trkpt lat="42.18003" lon="2.49728">
        <ele>456</ele>
        <time>2010-01-01T03:48:21Z</time>
      </trkpt>
      <trkpt lat="42.18003" lon="2.49728">
        <ele>457</ele>
        <time>2010-01-01T03:48:21Z</time>
      </trkpt>
      <trkpt lat="42.18003" lon="2.49727">
        <ele>456</ele>
        <time>2010-01-01T03:48:21Z</time>
      </trkpt>
      <trkpt lat="42.18008" lon="2.4971">
        <ele>456</ele>
        <time>2010-01-01T03:48:27Z</time>
      </trkpt>
      <trkpt lat="42.18012" lon="2.49693">
        <ele>455</ele>
        <time>2010-01-01T03:48:32Z</time>
      </trkpt>
      <trkpt lat="42.18017" lon="2.49677">
        <ele>454</ele>
        <time>2010-01-01T03:48:37Z</time>
      </trkpt>
      <trkpt lat="42.18018" lon="2.49674">
        <ele>454</ele>
        <time>2010-01-01T03:48:38Z</time>
      </trkpt>
      <trkpt lat="42.18027" lon="2.49655">
        <ele>454</ele>
        <time>2010-01-01T03:48:45Z</time>
      </trkpt>
      <trkpt lat="42.1803" lon="2.49641">
        <ele>453</ele>
        <time>2010-01-01T03:48:49Z</time>
      </trkpt>
      <trkpt lat="42.18036" lon="2.49619">
        <ele>453</ele>
        <time>2010-01-01T03:48:56Z</time>
      </trkpt>
      <trkpt lat="42.18037" lon="2.49616">
        <ele>453</ele>
        <time>2010-01-01T03:48:57Z</time>
      </trkpt>
      <trkpt lat="42.18042" lon="2.49608">
        <ele>452</ele>
        <time>2010-01-01T03:49:00Z</time>
      </trkpt>
      <trkpt lat="42.18048" lon="2.49606">
        <ele>452</ele>
        <time>2010-01-01T03:49:02Z</time>
      </trkpt>
      <trkpt lat="42.18049" lon="2.49594">
        <ele>452</ele>
        <time>2010-01-01T03:49:06Z</time>
      </trkpt>
      <trkpt lat="42.1805" lon="2.49589">
        <ele>452</ele>
        <time>2010-01-01T03:49:07Z</time>
      </trkpt>
      <trkpt lat="42.1806" lon="2.49563">
        <ele>450</ele>
        <time>2010-01-01T03:49:16Z</time>
      </trkpt>
      <trkpt lat="42.18071" lon="2.49541">
        <ele>447</ele>
        <time>2010-01-01T03:49:24Z</time>
      </trkpt>
      <trkpt lat="42.18077" lon="2.49526">
        <ele>446</ele>
        <time>2010-01-01T03:49:29Z</time>
      </trkpt>
      <trkpt lat="42.1808" lon="2.49515">
        <ele>446</ele>
        <time>2010-01-01T03:49:33Z</time>
      </trkpt>
      <trkpt lat="42.18085" lon="2.49499">
        <ele>445</ele>
        <time>2010-01-01T03:49:38Z</time>
      </trkpt>
      <trkpt lat="42.18089" lon="2.49482">
        <ele>444</ele>
        <time>2010-01-01T03:49:43Z</time>
      </trkpt>
      <trkpt lat="42.18091" lon="2.49475">
        <ele>444</ele>
        <time>2010-01-01T03:49:45Z</time>
      </trkpt>
      <trkpt lat="42.18101" lon="2.49464">
        <ele>442</ele>
        <time>2010-01-01T03:49:50Z</time>
      </trkpt>
      <trkpt lat="42.18103" lon="2.49462">
        <ele>442</ele>
        <time>2010-01-01T03:49:52Z</time>
      </trkpt>
      <trkpt lat="42.18106" lon="2.49454">
        <ele>442</ele>
        <time>2010-01-01T03:49:54Z</time>
      </trkpt>
      <trkpt lat="42.18111" lon="2.49449">
        <ele>442</ele>
        <time>2010-01-01T03:49:56Z</time>
      </trkpt>
      <trkpt lat="42.18106" lon="2.49447">
        <ele>442</ele>
        <time>2010-01-01T03:49:58Z</time>
      </trkpt>
      <trkpt lat="42.18104" lon="2.49446">
        <ele>442</ele>
        <time>2010-01-01T03:49:59Z</time>
      </trkpt>
      <trkpt lat="42.18099" lon="2.49437">
        <ele>441</ele>
        <time>2010-01-01T03:50:03Z</time>
      </trkpt>
      <trkpt lat="42.18093" lon="2.4943">
        <ele>440</ele>
        <time>2010-01-01T03:50:06Z</time>
      </trkpt>
      <trkpt lat="42.18086" lon="2.49422">
        <ele>439</ele>
        <time>2010-01-01T03:50:10Z</time>
      </trkpt>
      <trkpt lat="42.18075" lon="2.49415">
        <ele>438</ele>
        <time>2010-01-01T03:50:15Z</time>
      </trkpt>
      <trkpt lat="42.18065" lon="2.49409">
        <ele>437</ele>
        <time>2010-01-01T03:50:19Z</time>
      </trkpt>
      <trkpt lat="42.18061" lon="2.49403">
        <ele>437</ele>
        <time>2010-01-01T03:50:21Z</time>
      </trkpt>
      <trkpt lat="42.18059" lon="2.49386">
        <ele>435</ele>
        <time>2010-01-01T03:50:26Z</time>
      </trkpt>
      <trkpt lat="42.18062" lon="2.49367">
        <ele>435</ele>
        <time>2010-01-01T03:50:32Z</time>
      </trkpt>
      <trkpt lat="42.18068" lon="2.49342">
        <ele>433</ele>
        <time>2010-01-01T03:50:40Z</time>
      </trkpt>
      <trkpt lat="42.1807" lon="2.49323">
        <ele>432</ele>
        <time>2010-01-01T03:50:45Z</time>
      </trkpt>
      <trkpt lat="42.18073" lon="2.49305">
        <ele>431</ele>
        <time>2010-01-01T03:50:51Z</time>
      </trkpt>
      <trkpt lat="42.18077" lon="2.49282">
        <ele>433</ele>
        <time>2010-01-01T03:50:58Z</time>
      </trkpt>
      <trkpt lat="42.18067" lon="2.49271">
        <ele>433</ele>
        <time>2010-01-01T03:51:03Z</time>
      </trkpt>
      <trkpt lat="42.1805" lon="2.49257">
        <ele>432</ele>
        <time>2010-01-01T03:51:11Z</time>
      </trkpt>
      <trkpt lat="42.18039" lon="2.49247">
        <ele>431</ele>
        <time>2010-01-01T03:51:16Z</time>
      </trkpt>
      <trkpt lat="42.18033" lon="2.49241">
        <ele>430</ele>
        <time>2010-01-01T03:51:19Z</time>
      </trkpt>
      <trkpt lat="42.18031" lon="2.4924">
        <ele>430</ele>
        <time>2010-01-01T03:51:20Z</time>
      </trkpt>
      <trkpt lat="42.18025" lon="2.49235">
        <ele>430</ele>
        <time>2010-01-01T03:51:23Z</time>
      </trkpt>
      <trkpt lat="42.18018" lon="2.49227">
        <ele>430</ele>
        <time>2010-01-01T03:51:27Z</time>
      </trkpt>
      <trkpt lat="42.18011" lon="2.4922">
        <ele>431</ele>
        <time>2010-01-01T03:51:30Z</time>
      </trkpt>
      <trkpt lat="42.18002" lon="2.49215">
        <ele>431</ele>
        <time>2010-01-01T03:51:34Z</time>
      </trkpt>
      <trkpt lat="42.18" lon="2.49214">
        <ele>431</ele>
        <time>2010-01-01T03:51:35Z</time>
      </trkpt>
      <trkpt lat="42.17992" lon="2.49208">
        <ele>431</ele>
        <time>2010-01-01T03:51:39Z</time>
      </trkpt>
      <trkpt lat="42.17985" lon="2.49205">
        <ele>431</ele>
        <time>2010-01-01T03:51:42Z</time>
      </trkpt>
      <trkpt lat="42.17983" lon="2.49203">
        <ele>431</ele>
        <time>2010-01-01T03:51:43Z</time>
      </trkpt>
      <trkpt lat="42.17976" lon="2.49198">
        <ele>431</ele>
        <time>2010-01-01T03:51:46Z</time>
      </trkpt>
      <trkpt lat="42.17963" lon="2.49186">
        <ele>432</ele>
        <time>2010-01-01T03:51:52Z</time>
      </trkpt>
      <trkpt lat="42.17957" lon="2.49184">
        <ele>432</ele>
        <time>2010-01-01T03:51:55Z</time>
      </trkpt>
      <trkpt lat="42.17946" lon="2.4918">
        <ele>432</ele>
        <time>2010-01-01T03:51:59Z</time>
      </trkpt>
      <trkpt lat="42.17943" lon="2.49178">
        <ele>433</ele>
        <time>2010-01-01T03:52:00Z</time>
      </trkpt>
      <trkpt lat="42.17936" lon="2.49175">
        <ele>433</ele>
        <time>2010-01-01T03:52:03Z</time>
      </trkpt>
      <trkpt lat="42.17922" lon="2.49169">
        <ele>433</ele>
        <time>2010-01-01T03:52:09Z</time>
      </trkpt>
      <trkpt lat="42.17915" lon="2.49167">
        <ele>432</ele>
        <time>2010-01-01T03:52:12Z</time>
      </trkpt>
      <trkpt lat="42.17908" lon="2.49166">
        <ele>432</ele>
        <time>2010-01-01T03:52:15Z</time>
      </trkpt>
      <trkpt lat="42.17905" lon="2.49164">
        <ele>432</ele>
        <time>2010-01-01T03:52:16Z</time>
      </trkpt>
      <trkpt lat="42.17903" lon="2.49162">
        <ele>432</ele>
        <time>2010-01-01T03:52:17Z</time>
      </trkpt>
      <trkpt lat="42.17895" lon="2.49159">
        <ele>432</ele>
        <time>2010-01-01T03:52:21Z</time>
      </trkpt>
      <trkpt lat="42.17888" lon="2.49155">
        <ele>432</ele>
        <time>2010-01-01T03:52:23Z</time>
      </trkpt>
      <trkpt lat="42.17886" lon="2.49152">
        <ele>432</ele>
        <time>2010-01-01T03:52:25Z</time>
      </trkpt>
      <trkpt lat="42.17879" lon="2.49152">
        <ele>432</ele>
        <time>2010-01-01T03:52:27Z</time>
      </trkpt>
      <trkpt lat="42.1787" lon="2.49148">
        <ele>432</ele>
        <time>2010-01-01T03:52:32Z</time>
      </trkpt>
      <trkpt lat="42.17867" lon="2.49138">
        <ele>432</ele>
        <time>2010-01-01T03:52:35Z</time>
      </trkpt>
      <trkpt lat="42.17866" lon="2.49133">
        <ele>432</ele>
        <time>2010-01-01T03:52:36Z</time>
      </trkpt>
      <trkpt lat="42.17865" lon="2.49127">
        <ele>432</ele>
        <time>2010-01-01T03:52:38Z</time>
      </trkpt>
      <trkpt lat="42.17862" lon="2.49124">
        <ele>432</ele>
        <time>2010-01-01T03:52:39Z</time>
      </trkpt>
    </trkseg>
  </trk>
</gpx>